
Distance (Route):
Temperature : -14.3°C
Humidity : 50.4%
Pressure : 0hPa| Receiver | Frames | First received | Last received |
|---|---|---|---|
| PETON7-10 | 381 | 2026-09-05 02:30:37 | 2026-09-05 04:15:13 |
| PG1ADW-2 | 292 | 2026-09-05 02:30:13 | 2026-09-05 04:14:57 |
| OE5DRO-10 | 231 | 2026-09-05 02:29:12 | 2026-09-05 04:00:22 |
| OE8JPQ-2 | 164 | 2026-09-05 02:26:18 | 2026-09-05 03:36:14 |
| OE3JTB-15 | 143 | 2026-09-05 02:27:17 | 2026-09-05 04:14:49 |
| OE5DXL-15 | 143 | 2026-09-05 02:36:08 | 2026-09-05 03:54:49 |
| OE5MMP-10 | 66 | 2026-09-05 03:16:35 | 2026-09-05 03:31:28 |
| OM5KV | 51 | 2026-09-05 02:24:08 | 2026-09-05 02:29:10 |
| S52SK | 20 | 2026-09-05 02:16:06 | 2026-09-05 02:28:37 |
| OE5WHR-10 | 19 | 2026-09-05 03:14:37 | 2026-09-05 03:37:02 |
| OE3OSB-13 | 14 | 2026-09-05 02:34:04 | 2026-09-05 04:03:09 |
| NBG1-10 | 4 | 2026-09-05 03:23:31 | 2026-09-05 03:27:57 |
| DB0NH | 2 | 2026-09-05 03:25:14 | 2026-09-05 03:26:22 |
| Receiver | Date | Latitude | Longitude | Direction | Speed | Altitude | Climb | Temperature | Humidity | Pressure | Voltage | Killtimer | Uptime | BKT | XDATA |
|---|---|---|---|---|---|---|---|---|---|---|---|---|---|---|---|
| PETON7-10 | 2026-09-05 04:15:13 | 47.04200 | 17.43953 | 95° | 93km/h | 6297m | -3.1m/s | -14.3°C | 50.4% | 0hPa | 2.7V | 00:00:00 | 02:28:46 | 00:00:00 | |
| PG1ADW-2 | 2026-09-05 04:14:57 | 47.04231 | 17.43403 | 97° | 99km/h | 6347m | -3.0m/s | -14.7°C | 50.2% | 0hPa | 2.7V | 07:40:00 | 00:00:00 | 00:00:00 | |
| OE3JTB-15 | 2026-09-05 04:14:49 | 47.04251 | 17.43119 | 97° | 104km/h | 6373m | -3.1m/s | -14.9°C | 53.3% | 0hPa | 2.7V | 00:00:00 | 00:00:00 | 00:00:00 | |
| PETON7-10 | 2026-09-05 04:14:43 | 47.04268 | 17.42899 | 98° | 104km/h | 6393m | -3.4m/s | -15.0°C | 56.3% | 0hPa | 2.7V | 07:40:00 | 00:00:00 | 00:00:00 | |
| PG1ADW-2 | 2026-09-05 04:14:37 | 47.04286 | 17.42673 | 97° | 106km/h | 6413m | -3.2m/s | -15.1°C | 57.6% | 0hPa | 2.7V | 00:00:00 | 00:00:00 | 00:00:00 | |
| PETON7-10 | 2026-09-05 04:14:28 | 47.04312 | 17.42327 | 96° | 108km/h | 6443m | -3.2m/s | -15.4°C | 60.9% | 0hPa | 2.7V | 00:00:00 | 02:28:01 | 00:00:00 | |
| OE3JTB-15 | 2026-09-05 04:14:20 | 47.04330 | 17.42011 | 95° | 104km/h | 6468m | -3.2m/s | -15.4°C | 53.4% | 0hPa | 2.7V | 00:00:00 | 00:00:00 | 00:00:00 | |
| PG1ADW-2 | 2026-09-05 04:14:17 | 47.04336 | 17.41890 | 94° | 104km/h | 6478m | -3.5m/s | -15.5°C | 53.5% | 0hPa | 2.7V | 00:00:00 | 02:27:50 | 00:00:00 | |
| PETON7-10 | 2026-09-05 04:14:13 | 47.04342 | 17.41730 | 92° | 102km/h | 6491m | -3.1m/s | -15.6°C | 53.5% | 0hPa | 2.7V | 00:00:00 | 00:00:00 | 00:00:00 | |
| PETON7-10 | 2026-09-05 04:13:58 | 47.04342 | 17.41158 | 90° | 99km/h | 6540m | -3.3m/s | -15.9°C | 45.1% | 0hPa | 2.7V | 00:00:00 | 00:00:00 | 00:00:00 | |
| PG1ADW-2 | 2026-09-05 04:13:57 | 47.04342 | 17.41122 | 90° | 97km/h | 6543m | -3.4m/s | -15.9°C | 44.2% | 0hPa | 2.7V | 00:00:00 | 00:00:00 | 00:00:00 | |
| OE3JTB-15 | 2026-09-05 04:13:51 | 47.04342 | 17.40902 | 91° | 93km/h | 6564m | -3.4m/s | -15.8°C | 31.8% | 0hPa | 2.6V | 00:00:00 | 02:27:24 | 00:00:00 | |
| PETON7-10 | 2026-09-05 04:13:43 | 47.04345 | 17.40616 | 93° | 93km/h | 6590m | -3.5m/s | -15.9°C | 24.9% | 0hPa | 2.6V | 00:00:00 | 02:27:16 | 00:00:00 | |
| PG1ADW-2 | 2026-09-05 04:13:37 | 47.04350 | 17.40409 | 93° | 91km/h | 6611m | -3.2m/s | -15.9°C | 18.4% | 0hPa | 2.6V | 00:00:00 | 00:00:00 | 00:00:00 | |
| PETON7-10 | 2026-09-05 04:13:28 | 47.04369 | 17.40104 | 97° | 93km/h | 6640m | -3.3m/s | -16.0°C | 15.1% | 0hPa | 2.6V | 00:00:00 | 00:00:00 | 00:00:00 | |
| OE3JTB-15 | 2026-09-05 04:13:22 | 47.04388 | 17.39901 | 98° | 93km/h | 6661m | -3.5m/s | -16.2°C | 14.6% | 0hPa | 2.6V | 00:00:00 | 00:00:00 | 00:00:00 | |
| PG1ADW-2 | 2026-09-05 04:13:17 | 47.04404 | 17.39732 | 100° | 93km/h | 6678m | -3.6m/s | -16.1°C | 12.0% | 0hPa | 2.6V | 00:00:00 | 00:00:00 | 00:00:00 | |
| PETON7-10 | 2026-09-05 04:13:13 | 47.04419 | 17.39595 | 100° | 93km/h | 6693m | -3.8m/s | -16.1°C | 11.1% | 0hPa | 2.6V | 00:00:00 | 00:00:00 | 00:00:00 | |
| PETON7-10 | 2026-09-05 04:12:58 | 47.04473 | 17.39080 | 99° | 95km/h | 6747m | -3.6m/s | -16.3°C | 9.7% | 0hPa | 2.6V | 00:00:00 | 02:26:31 | 00:00:00 | |
| PG1ADW-2 | 2026-09-05 04:12:57 | 47.04476 | 17.39046 | 100° | 97km/h | 6751m | -3.8m/s | -16.3°C | 9.7% | 0hPa | 2.6V | 00:00:00 | 02:26:30 | 00:00:00 | |
| OE3JTB-15 | 2026-09-05 04:12:53 | 47.04492 | 17.38908 | 101° | 99km/h | 6765m | -3.6m/s | -16.4°C | 9.6% | 0hPa | 2.6V | 00:00:00 | 00:00:00 | 00:00:00 | |
| PETON7-10 | 2026-09-05 04:12:43 | 47.04542 | 17.38558 | 103° | 100km/h | 6801m | -3.6m/s | -16.7°C | 9.6% | 0hPa | 2.6V | 07:42:00 | 00:00:00 | 00:00:00 | |
| PG1ADW-2 | 2026-09-05 04:12:37 | 47.04575 | 17.38344 | 103° | 104km/h | 6824m | -3.7m/s | -16.9°C | 9.6% | 0hPa | 2.6V | 00:00:00 | 00:00:00 | 00:00:00 | |
| PETON7-10 | 2026-09-05 04:12:28 | 47.04627 | 17.38015 | 103° | 106km/h | 6857m | -3.6m/s | -17.2°C | 9.6% | 0hPa | 2.6V | 00:00:00 | 00:00:00 | 00:00:00 | |
| OE3JTB-15 | 2026-09-05 04:12:24 | 47.04651 | 17.37865 | 103° | 104km/h | 6872m | -3.7m/s | -17.3°C | 9.6% | 0hPa | 2.6V | 00:00:00 | 02:25:57 | 00:00:00 | |
| PG1ADW-2 | 2026-09-05 04:12:17 | 47.04688 | 17.37595 | 101° | 104km/h | 6898m | -3.5m/s | -17.5°C | 9.5% | 0hPa | 2.6V | 07:43:00 | 00:00:00 | 00:00:00 | |
| PETON7-10 | 2026-09-05 04:12:13 | 47.04705 | 17.37440 | 98° | 102km/h | 6912m | -3.4m/s | -17.6°C | 9.0% | 0hPa | 2.6V | 00:00:00 | 02:25:46 | 00:00:00 | |
| PETON7-10 | 2026-09-05 04:11:58 | 47.04749 | 17.36873 | 97° | 93km/h | 6965m | -3.6m/s | -17.8°C | 9.3% | 0hPa | 2.6V | 00:00:00 | 00:00:00 | 00:00:00 | |
| OE3JTB-15 | 2026-09-05 04:11:55 | 47.04757 | 17.36768 | 98° | 93km/h | 6976m | -3.7m/s | -17.9°C | 9.6% | 0hPa | 2.6V | 00:00:00 | 00:00:00 | 00:00:00 | |
| PETON7-10 | 2026-09-05 04:11:43 | 47.04803 | 17.36364 | 102° | 93km/h | 7021m | -3.6m/s | -18.3°C | 10.1% | 0hPa | 2.6V | 00:00:00 | 00:00:00 | 00:00:00 | |
| PG1ADW-2 | 2026-09-05 04:11:37 | 47.04834 | 17.36165 | 105° | 97km/h | 7043m | -3.7m/s | -18.5°C | 10.7% | 0hPa | 2.6V | 00:00:00 | 02:25:10 | 00:00:00 | |
| PETON7-10 | 2026-09-05 04:11:28 | 47.04888 | 17.35860 | 107° | 100km/h | 7078m | -3.9m/s | -18.6°C | 10.5% | 0hPa | 2.6V | 00:00:00 | 02:25:01 | 00:00:00 | |
| OE3JTB-15 | 2026-09-05 04:11:26 | 47.04901 | 17.35791 | 105° | 102km/h | 7086m | -3.6m/s | -18.7°C | 10.7% | 0hPa | 2.6V | 07:44:00 | 00:00:00 | 00:00:00 | |
| PG1ADW-2 | 2026-09-05 04:11:17 | 47.04959 | 17.35474 | 104° | 102km/h | 7119m | -3.5m/s | -18.9°C | 10.9% | 0hPa | 2.6V | 00:00:00 | 00:00:00 | 00:00:00 | |
| PETON7-10 | 2026-09-05 04:11:13 | 47.04982 | 17.35324 | 103° | 102km/h | 7133m | -3.5m/s | -19.0°C | 10.6% | 0hPa | 2.6V | 00:00:00 | 00:00:00 | 00:00:00 | |
| PETON7-10 | 2026-09-05 04:10:58 | 47.05045 | 17.34760 | 99° | 102km/h | 7187m | -4.0m/s | -19.5°C | 12.6% | 0hPa | 2.6V | 00:00:00 | 00:00:00 | 00:00:00 | |
| PG1ADW-2 | 2026-09-05 04:10:57 | 47.05048 | 17.34723 | 98° | 102km/h | 7191m | -3.8m/s | -19.5°C | 12.7% | 0hPa | 2.6V | 00:00:00 | 00:00:00 | 00:00:00 | |
| PETON7-10 | 2026-09-05 04:10:43 | 47.05096 | 17.34197 | 98° | 102km/h | 7242m | -3.6m/s | -20.0°C | 19.6% | 0hPa | 2.5V | 07:44:00 | 02:24:16 | 00:00:00 | |
| PG1ADW-2 | 2026-09-05 04:10:37 | 47.05117 | 17.33969 | 97° | 99km/h | 7264m | -3.7m/s | -20.2°C | 17.2% | 0hPa | 2.5V | 00:00:00 | 00:00:00 | 00:00:00 | |
| PETON7-10 | 2026-09-05 04:10:28 | 47.05139 | 17.33634 | 96° | 95km/h | 7295m | -3.5m/s | -20.4°C | 12.1% | 0hPa | 2.5V | 00:00:00 | 00:00:00 | 00:00:00 | |
| PG1ADW-2 | 2026-09-05 04:10:17 | 47.05162 | 17.33246 | 95° | 93km/h | 7332m | -3.7m/s | -20.7°C | 9.9% | 0hPa | 2.5V | 00:00:00 | 02:23:50 | 00:00:00 | |
| PETON7-10 | 2026-09-05 04:10:13 | 47.05171 | 17.33107 | 95° | 93km/h | 7346m | -3.5m/s | -20.8°C | 9.7% | 0hPa | 2.5V | 00:00:00 | 00:00:00 | 00:00:00 | |
| OE3JTB-15 | 2026-09-05 04:09:59 | 47.05202 | 17.32623 | 98° | 93km/h | 7393m | -3.2m/s | -21.1°C | 8.6% | 0hPa | 2.5V | 00:00:00 | 00:00:00 | 00:00:00 | |
| PETON7-10 | 2026-09-05 04:09:58 | 47.05205 | 17.32590 | 99° | 91km/h | 7396m | -3.2m/s | -21.1°C | 8.5% | 0hPa | 2.5V | 00:00:00 | 02:23:31 | 00:00:00 | |
| PG1ADW-2 | 2026-09-05 04:09:57 | 47.05209 | 17.32557 | 99° | 93km/h | 7400m | -3.5m/s | -21.1°C | 8.4% | 0hPa | 2.5V | 00:00:00 | 00:00:00 | 00:00:00 | |
| PG1ADW-2 | 2026-09-05 04:09:37 | 47.05297 | 17.31885 | 102° | 100km/h | 7467m | -3.3m/s | -21.3°C | 9.7% | 0hPa | 2.6V | 07:46:00 | 00:00:00 | 00:00:00 | |
| OE3JTB-15 | 2026-09-05 04:09:30 | 47.05333 | 17.31640 | 104° | 104km/h | 7491m | -3.4m/s | -21.5°C | 9.5% | 0hPa | 2.6V | 00:00:00 | 02:23:03 | 00:00:00 | |
| PETON7-10 | 2026-09-05 04:09:28 | 47.05345 | 17.31568 | 103° | 104km/h | 7497m | -3.2m/s | -21.5°C | 10.3% | 0hPa | 2.6V | 00:00:00 | 00:00:00 | 00:00:00 | |
| PG1ADW-2 | 2026-09-05 04:09:17 | 47.05403 | 17.31155 | 99° | 104km/h | 7532m | -2.9m/s | -21.8°C | 14.2% | 0hPa | 2.6V | 00:00:00 | 00:00:00 | 00:00:00 | |
| PETON7-10 | 2026-09-05 04:09:13 | 47.05417 | 17.31001 | 98° | 104km/h | 7545m | -3.3m/s | -21.9°C | 14.2% | 0hPa | 2.6V | 00:00:00 | 02:22:46 | 00:00:00 | |
| OE3JTB-15 | 2026-09-05 04:09:01 | 47.05453 | 17.30541 | 97° | 97km/h | 7584m | -3.3m/s | -22.2°C | 23.1% | 0hPa | 2.6V | 00:00:00 | 00:00:00 | 00:00:00 | |
| PETON7-10 | 2026-09-05 04:08:58 | 47.05462 | 17.30427 | 97° | 99km/h | 7593m | -3.2m/s | -22.3°C | 23.2% | 0hPa | 2.5V | 00:00:00 | 00:00:00 | 00:00:00 | |
| PG1ADW-2 | 2026-09-05 04:08:57 | 47.05464 | 17.30390 | 96° | 97km/h | 7597m | -3.4m/s | -22.3°C | 23.1% | 0hPa | 2.5V | 00:00:00 | 02:22:30 | 00:00:00 | |
| PETON7-10 | 2026-09-05 04:08:43 | 47.05494 | 17.29883 | 96° | 91km/h | 7641m | -2.9m/s | -22.5°C | 19.8% | 0hPa | 2.5V | 07:46:00 | 00:00:00 | 00:00:00 | |
| PG1ADW-2 | 2026-09-05 04:08:37 | 47.05511 | 17.29680 | 99° | 91km/h | 7659m | -2.9m/s | -22.7°C | 20.8% | 0hPa | 2.5V | 00:00:00 | 00:00:00 | 00:00:00 | |
| OE3JTB-15 | 2026-09-05 04:08:32 | 47.05530 | 17.29514 | 101° | 93km/h | 7674m | -3.1m/s | -22.8°C | 21.3% | 0hPa | 2.5V | 00:00:00 | 00:00:00 | 00:00:00 | |
| PETON7-10 | 2026-09-05 04:08:28 | 47.05547 | 17.29382 | 101° | 91km/h | 7687m | -3.2m/s | -22.9°C | 20.9% | 0hPa | 2.5V | 00:00:00 | 02:22:01 | 00:00:00 | |
| PG1ADW-2 | 2026-09-05 04:08:17 | 47.05592 | 17.29017 | 102° | 99km/h | 7723m | -3.0m/s | -22.7°C | 13.9% | 0hPa | 2.5V | 00:00:00 | 00:00:00 | 00:00:00 | |
| PETON7-10 | 2026-09-05 04:08:13 | 47.05613 | 17.28883 | 105° | 100km/h | 7735m | -3.1m/s | -22.8°C | 14.3% | 0hPa | 2.5V | 00:00:00 | 00:00:00 | 00:00:00 | |
| PETON7-10 | 2026-09-05 04:07:58 | 47.05701 | 17.28338 | 100° | 99km/h | 7781m | -3.1m/s | -23.0°C | 16.0% | 0hPa | 2.5V | 00:00:00 | 00:00:00 | 00:00:00 | |
| PG1ADW-2 | 2026-09-05 04:07:57 | 47.05705 | 17.28300 | 99° | 97km/h | 7784m | -3.0m/s | -23.0°C | 15.9% | 0hPa | 2.5V | 00:00:00 | 00:00:00 | 00:00:00 | |
| PETON7-10 | 2026-09-05 04:07:43 | 47.05745 | 17.27792 | 96° | 93km/h | 7829m | -3.3m/s | -23.4°C | 18.9% | 0hPa | 2.6V | 00:00:00 | 02:21:16 | 00:00:00 | |
| PG1ADW-2 | 2026-09-05 04:07:37 | 47.05758 | 17.27585 | 96° | 89km/h | 7850m | -3.4m/s | -23.6°C | 21.7% | 0hPa | 2.6V | 00:00:00 | 02:21:10 | 00:00:00 | |
| OE3JTB-15 | 2026-09-05 04:07:34 | 47.05765 | 17.27482 | 96° | 88km/h | 7860m | -3.3m/s | -23.6°C | 23.4% | 0hPa | 2.6V | 07:48:00 | 00:00:00 | 00:00:00 | |
| PETON7-10 | 2026-09-05 04:07:28 | 47.05778 | 17.27281 | 96° | 88km/h | 7880m | -3.4m/s | -23.8°C | 25.6% | 0hPa | 2.6V | 00:00:00 | 00:00:00 | 00:00:00 | |
| PG1ADW-2 | 2026-09-05 04:07:17 | 47.05806 | 17.26927 | 100° | 91km/h | 7915m | -3.3m/s | -24.1°C | 23.8% | 0hPa | 2.5V | 00:00:00 | 00:00:00 | 00:00:00 | |
| PETON7-10 | 2026-09-05 04:07:13 | 47.05821 | 17.26803 | 102° | 91km/h | 7928m | -3.4m/s | -24.2°C | 23.1% | 0hPa | 2.5V | 00:00:00 | 00:00:00 | 00:00:00 | |
| OE3JTB-15 | 2026-09-05 04:07:05 | 47.05862 | 17.26546 | 104° | 99km/h | 7954m | -3.1m/s | -24.3°C | 18.7% | 0hPa | 2.5V | 00:00:00 | 00:00:00 | 00:00:00 | |
| PETON7-10 | 2026-09-05 04:06:58 | 47.05898 | 17.26302 | 101° | 99km/h | 7977m | -3.3m/s | -24.4°C | 17.2% | 0hPa | 2.5V | 00:00:00 | 02:20:31 | 00:00:00 | |
| PG1ADW-2 | 2026-09-05 04:06:57 | 47.05902 | 17.26266 | 101° | 99km/h | 7980m | -3.3m/s | -24.4°C | 17.3% | 0hPa | 2.5V | 07:48:00 | 00:00:00 | 00:00:00 | |
| PETON7-10 | 2026-09-05 04:06:43 | 47.05954 | 17.25756 | 96° | 95km/h | 8028m | -3.5m/s | -24.9°C | 17.7% | 0hPa | 2.5V | 07:48:00 | 00:00:00 | 00:00:00 | |
| PG1ADW-2 | 2026-09-05 04:06:37 | 47.05966 | 17.25538 | 93° | 91km/h | 8048m | -3.3m/s | -25.1°C | 17.2% | 0hPa | 2.5V | 00:00:00 | 00:00:00 | 00:00:00 | |
| OE3JTB-15 | 2026-09-05 04:06:36 | 47.05967 | 17.25502 | 93° | 89km/h | 8051m | -3.4m/s | -25.1°C | 17.3% | 0hPa | 2.5V | 00:00:00 | 02:20:09 | 00:00:00 | |
| PETON7-10 | 2026-09-05 04:06:28 | 47.05971 | 17.25228 | 91° | 89km/h | 8079m | -3.4m/s | -25.3°C | 15.9% | 0hPa | 2.5V | 00:00:00 | 00:00:00 | 00:00:00 | |
| PG1ADW-2 | 2026-09-05 04:06:17 | 47.05971 | 17.24864 | 90° | 86km/h | 8119m | -3.8m/s | -25.7°C | 17.1% | 0hPa | 2.5V | 00:00:00 | 02:19:50 | 00:00:00 | |
| PETON7-10 | 2026-09-05 04:06:13 | 47.05971 | 17.24733 | 90° | 86km/h | 8134m | -3.5m/s | -25.8°C | 16.9% | 0hPa | 2.5V | 00:00:00 | 02:19:46 | 00:00:00 | |
| OE3JTB-15 | 2026-09-05 04:06:07 | 47.05968 | 17.24539 | 90° | 86km/h | 8155m | -3.5m/s | -26.0°C | 16.9% | 0hPa | 2.5V | 00:00:00 | 00:00:00 | 00:00:00 | |
| PETON7-10 | 2026-09-05 04:05:58 | 47.05968 | 17.24258 | 92° | 84km/h | 8186m | -3.5m/s | -26.2°C | 15.6% | 0hPa | 2.6V | 00:00:00 | 00:00:00 | 00:00:00 | |
| PG1ADW-2 | 2026-09-05 04:05:57 | 47.05969 | 17.24228 | 92° | 86km/h | 8189m | -3.5m/s | -26.2°C | 15.5% | 0hPa | 2.5V | 00:00:00 | 00:00:00 | 00:00:00 | |
| PETON7-10 | 2026-09-05 04:05:43 | 47.05998 | 17.23789 | 97° | 93km/h | 8239m | -3.5m/s | -26.7°C | 15.9% | 0hPa | 2.6V | 00:00:00 | 00:00:00 | 00:00:00 | |
| OE3JTB-15 | 2026-09-05 04:05:38 | 47.06012 | 17.23624 | 97° | 97km/h | 8257m | -3.5m/s | -26.8°C | 16.0% | 0hPa | 2.6V | 00:00:00 | 00:00:00 | 00:00:00 | |
| PG1ADW-2 | 2026-09-05 04:05:37 | 47.06014 | 17.23590 | 97° | 97km/h | 8261m | -3.6m/s | -26.8°C | 16.1% | 0hPa | 2.6V | 00:00:00 | 00:00:00 | 00:00:00 | |
| PETON7-10 | 2026-09-05 04:05:28 | 47.06030 | 17.23270 | 93° | 97km/h | 8293m | -3.5m/s | -27.1°C | 16.3% | 0hPa | 2.6V | 00:00:00 | 02:19:01 | 00:00:00 | |
| PG1ADW-2 | 2026-09-05 04:05:17 | 47.06033 | 17.22873 | 89° | 95km/h | 8334m | -3.7m/s | -27.5°C | 16.8% | 0hPa | 2.6V | 00:00:00 | 00:00:00 | 00:00:00 | |
| PETON7-10 | 2026-09-05 04:05:13 | 47.06029 | 17.22731 | 87° | 93km/h | 8349m | -3.7m/s | -27.6°C | 17.0% | 0hPa | 2.6V | 00:00:00 | 00:00:00 | 00:00:00 | |
| OE3JTB-15 | 2026-09-05 04:05:09 | 47.06023 | 17.22590 | 87° | 93km/h | 8364m | -3.9m/s | -27.8°C | 17.1% | 0hPa | 2.6V | 00:00:00 | 02:18:42 | 00:00:00 | |
| PETON7-10 | 2026-09-05 04:04:58 | 47.06003 | 17.22210 | 85° | 93km/h | 8408m | -4.0m/s | -28.2°C | 18.6% | 0hPa | 2.6V | 00:00:00 | 00:00:00 | 00:00:00 | |
| PG1ADW-2 | 2026-09-05 04:04:57 | 47.06001 | 17.22176 | 85° | 93km/h | 8412m | -4.0m/s | -28.2°C | 19.1% | 0hPa | 2.6V | 00:00:00 | 02:18:30 | 00:00:00 | |
| PETON7-10 | 2026-09-05 04:04:43 | 47.05969 | 17.21697 | 84° | 95km/h | 8466m | -3.8m/s | -28.6°C | 17.6% | 0hPa | 2.6V | 07:50:00 | 02:18:16 | 00:00:00 | |
| OE3JTB-15 | 2026-09-05 04:04:40 | 47.05961 | 17.21593 | 84° | 91km/h | 8477m | -3.8m/s | -28.7°C | 17.4% | 0hPa | 2.6V | 00:00:00 | 00:00:00 | 00:00:00 | |
| PG1ADW-2 | 2026-09-05 04:04:37 | 47.05953 | 17.21488 | 84° | 91km/h | 8489m | -4.0m/s | -28.8°C | 17.5% | 0hPa | 2.5V | 00:00:00 | 00:00:00 | 00:00:00 | |
| PETON7-10 | 2026-09-05 04:04:28 | 47.05928 | 17.21178 | 82° | 89km/h | 8524m | -3.8m/s | -29.1°C | 17.6% | 0hPa | 2.5V | 00:00:00 | 00:00:00 | 00:00:00 | |
| PG1ADW-2 | 2026-09-05 04:04:17 | 47.05890 | 17.20818 | 81° | 82km/h | 8568m | -3.8m/s | -29.4°C | 17.3% | 0hPa | 2.6V | 07:51:00 | 00:00:00 | 00:00:00 | |
| PETON7-10 | 2026-09-05 04:04:13 | 47.05876 | 17.20692 | 82° | 82km/h | 8583m | -3.8m/s | -29.6°C | 17.2% | 0hPa | 2.6V | 00:00:00 | 00:00:00 | 00:00:00 | |
| OE3JTB-15 | 2026-09-05 04:04:11 | 47.05870 | 17.20631 | 83° | 86km/h | 8591m | -3.8m/s | -29.6°C | 17.3% | 0hPa | 2.6V | 00:00:00 | 00:00:00 | 00:00:00 | |
| PETON7-10 | 2026-09-05 04:03:58 | 47.05847 | 17.20240 | 89° | 88km/h | 8642m | -3.8m/s | -30.1°C | 16.2% | 0hPa | 2.6V | 00:00:00 | 02:17:31 | 00:00:00 | |
| PG1ADW-2 | 2026-09-05 04:03:57 | 47.05847 | 17.20210 | 90° | 91km/h | 8646m | -3.9m/s | -30.1°C | 16.2% | 0hPa | 2.6V | 00:00:00 | 00:00:00 | 00:00:00 | |
| PETON7-10 | 2026-09-05 04:03:43 | 47.05847 | 17.19747 | 89° | 97km/h | 8700m | -3.9m/s | -30.6°C | 16.1% | 0hPa | 2.5V | 00:00:00 | 00:00:00 | 00:00:00 | |
| OE3JTB-15 | 2026-09-05 04:03:42 | 47.05846 | 17.19712 | 89° | 97km/h | 8704m | -3.9m/s | -30.6°C | 16.1% | 0hPa | 2.6V | 07:51:00 | 02:17:15 | 00:00:00 | |
| PG1ADW-2 | 2026-09-05 04:03:37 | 47.05843 | 17.19535 | 89° | 97km/h | 8724m | -4.0m/s | -30.7°C | 16.2% | 0hPa | 2.6V | 00:00:00 | 02:17:10 | 00:00:00 | |
| PETON7-10 | 2026-09-05 04:03:28 | 47.05835 | 17.19213 | 88° | 99km/h | 8761m | -4.1m/s | -31.1°C | 16.4% | 0hPa | 2.6V | 00:00:00 | 00:00:00 | 00:00:00 | |
| PG1ADW-2 | 2026-09-05 04:03:17 | 47.05821 | 17.18813 | 88° | 100km/h | 8806m | -3.9m/s | -31.4°C | 16.4% | 0hPa | 2.6V | 00:00:00 | 00:00:00 | 00:00:00 | |
| PETON7-10 | 2026-09-05 04:03:13 | 47.05817 | 17.18666 | 88° | 102km/h | 8822m | -3.9m/s | -31.6°C | 16.2% | 0hPa | 2.6V | 00:00:00 | 02:16:46 | 00:00:00 | |
| OE3OSB-13 | 2026-09-05 04:03:09 | 47.05811 | 17.18479 | 86° | 100km/h | 8842m | -4.0m/s | -31.8°C | 14.3% | -1.0hPa | 2.6V | 00:00:00 | 00:00:00 | 00:00:00 | |
| PETON7-10 | 2026-09-05 04:02:58 | 47.05784 | 17.18103 | 82° | 95km/h | 8880m | -3.6m/s | -32.0°C | 15.2% | 0hPa | 2.6V | 00:00:00 | 00:00:00 | 00:00:00 | |
| PG1ADW-2 | 2026-09-05 04:02:57 | 47.05781 | 17.18066 | 82° | 93km/h | 8884m | -3.7m/s | -32.1°C | 15.1% | 0hPa | 2.6V | 00:00:00 | 00:00:00 | 00:00:00 | |
| OE3JTB-15 | 2026-09-05 04:02:44 | 47.05736 | 17.17612 | 84° | 93km/h | 8932m | -3.8m/s | -32.5°C | 14.8% | 0hPa | 2.5V | 00:00:00 | 00:00:00 | 00:00:00 | |
| PETON7-10 | 2026-09-05 04:02:43 | 47.05733 | 17.17579 | 85° | 91km/h | 8936m | -3.7m/s | -32.5°C | 14.9% | 0hPa | 2.5V | 07:52:00 | 00:00:00 | 00:00:00 | |
| PG1ADW-2 | 2026-09-05 04:02:37 | 47.05725 | 17.17381 | 89° | 95km/h | 8959m | -3.9m/s | -32.7°C | 14.9% | 0hPa | 2.5V | 00:00:00 | 00:00:00 | 00:00:00 | |
| PETON7-10 | 2026-09-05 04:02:28 | 47.05729 | 17.17074 | 93° | 97km/h | 8993m | -3.9m/s | -32.9°C | 14.4% | 0hPa | 2.5V | 00:00:00 | 02:16:01 | 00:00:00 | |
| PG1ADW-2 | 2026-09-05 04:02:17 | 47.05741 | 17.16683 | 94° | 106km/h | 9036m | -3.9m/s | -33.2°C | 13.7% | 0hPa | 2.5V | 00:00:00 | 02:15:50 | 00:00:00 | |
| OE3JTB-15 | 2026-09-05 04:02:15 | 47.05744 | 17.16610 | 94° | 108km/h | 9044m | -3.7m/s | -33.3°C | 13.7% | 0hPa | 2.5V | 00:00:00 | 02:15:48 | 00:00:00 | |
| PETON7-10 | 2026-09-05 04:02:13 | 47.05747 | 17.16534 | 93° | 108km/h | 9051m | -3.8m/s | -33.3°C | 14.0% | 0hPa | 2.5V | 00:00:00 | 00:00:00 | 00:00:00 | |
| OE3OSB-13 | 2026-09-05 04:02:07 | 47.05756 | 17.16222 | 91° | 106km/h | 9081m | -3.6m/s | -33.6°C | 12.8% | -1.0hPa | 2.5V | 00:00:00 | 00:00:00 | 00:00:00 | |
| PETON7-10 | 2026-09-05 04:01:58 | 47.05753 | 17.15939 | 88° | 110km/h | 9109m | -3.9m/s | -33.8°C | 15.2% | 0hPa | 2.5V | 00:00:00 | 00:00:00 | 00:00:00 | |
| PG1ADW-2 | 2026-09-05 04:01:57 | 47.05752 | 17.15898 | 88° | 106km/h | 9113m | -3.8m/s | -33.8°C | 15.2% | 0hPa | 2.5V | 00:00:00 | 00:00:00 | 00:00:00 | |
| OE3JTB-15 | 2026-09-05 04:01:46 | 47.05730 | 17.15453 | 84° | 99km/h | 9155m | -3.7m/s | -34.2°C | 15.8% | 0hPa | 2.6V | 00:00:00 | 00:00:00 | 00:00:00 | |
| PETON7-10 | 2026-09-05 04:01:43 | 47.05720 | 17.15338 | 84° | 99km/h | 9167m | -3.6m/s | -34.3°C | 15.9% | 0hPa | 2.6V | 00:00:00 | 02:15:16 | 00:00:00 | |
| PG1ADW-2 | 2026-09-05 04:01:37 | 47.05701 | 17.15113 | 83° | 97km/h | 9189m | -3.6m/s | -34.5°C | 16.3% | 0hPa | 2.6V | 07:54:00 | 00:00:00 | 00:00:00 | |
| PETON7-10 | 2026-09-05 04:01:28 | 47.05679 | 17.14790 | 86° | 97km/h | 9222m | -3.6m/s | -34.9°C | 17.1% | 0hPa | 2.6V | 00:00:00 | 00:00:00 | 00:00:00 | |
| PG1ADW-2 | 2026-09-05 04:01:17 | 47.05662 | 17.14399 | 87° | 99km/h | 9262m | -3.5m/s | -35.2°C | 17.8% | 0hPa | 2.6V | 00:00:00 | 00:00:00 | 00:00:00 | |
| PETON7-10 | 2026-09-05 04:01:13 | 47.05656 | 17.14256 | 88° | 99km/h | 9276m | -3.5m/s | -35.3°C | 18.0% | 0hPa | 2.6V | 00:00:00 | 00:00:00 | 00:00:00 | |
| OE3OSB-13 | 2026-09-05 04:01:05 | 47.05653 | 17.13895 | 91° | 99km/h | 9313m | -3.7m/s | -35.7°C | 15.8% | -1.0hPa | 2.6V | 00:00:00 | 00:00:00 | 00:00:00 | |
| PETON7-10 | 2026-09-05 04:00:58 | 47.05657 | 17.13706 | 92° | 108km/h | 9332m | -3.6m/s | -35.8°C | 18.4% | 0hPa | 2.6V | 00:00:00 | 02:14:31 | 00:00:00 | |
| PG1ADW-2 | 2026-09-05 04:00:57 | 47.05658 | 17.13668 | 92° | 110km/h | 9335m | -3.8m/s | -35.8°C | 18.4% | 0hPa | 2.6V | 00:00:00 | 02:14:30 | 00:00:00 | |
| OE3JTB-15 | 2026-09-05 04:00:48 | 47.05665 | 17.13313 | 92° | 111km/h | 9368m | -3.6m/s | -36.1°C | 18.6% | 0hPa | 2.5V | 00:00:00 | 02:14:21 | 00:00:00 | |
| PETON7-10 | 2026-09-05 04:00:43 | 47.05668 | 17.13110 | 91° | 113km/h | 9386m | -3.6m/s | -36.2°C | 18.2% | 0hPa | 2.5V | 07:54:00 | 00:00:00 | 00:00:00 | |
| PG1ADW-2 | 2026-09-05 04:00:37 | 47.05667 | 17.12858 | 89° | 110km/h | 9408m | -3.7m/s | -36.4°C | 18.5% | 0hPa | 2.6V | 00:00:00 | 00:00:00 | 00:00:00 | |
| PETON7-10 | 2026-09-05 04:00:28 | 47.05647 | 17.12485 | 85° | 106km/h | 9440m | -3.5m/s | -36.6°C | 18.4% | 0hPa | 2.6V | 00:00:00 | 00:00:00 | 00:00:00 | |
| OE5DRO-10 | 2026-09-05 04:00:22 | 47.05630 | 17.12243 | 84° | 102km/h | 9461m | -3.5m/s | -36.8°C | 18.5% | 0hPa | 2.6V | 00:00:00 | 00:00:00 | 00:00:00 | |
| OE3JTB-15 | 2026-09-05 04:00:19 | 47.05621 | 17.12125 | 84° | 100km/h | 9472m | -3.6m/s | -36.9°C | 18.6% | 0hPa | 2.6V | 00:00:00 | 00:00:00 | 00:00:00 | |
| PG1ADW-2 | 2026-09-05 04:00:17 | 47.05615 | 17.12047 | 85° | 100km/h | 9480m | -3.5m/s | -36.9°C | 18.7% | 0hPa | 2.5V | 00:00:00 | 00:00:00 | 00:00:00 | |
| PETON7-10 | 2026-09-05 04:00:13 | 47.05605 | 17.11898 | 85° | 99km/h | 9494m | -3.6m/s | -37.1°C | 18.9% | 0hPa | 2.5V | 00:00:00 | 02:13:46 | 00:00:00 | |
| OE5DRO-10 | 2026-09-05 04:00:03 | 47.05585 | 17.11529 | 87° | 100km/h | 9530m | -3.5m/s | -37.3°C | 19.5% | 0hPa | 2.5V | 00:00:00 | 00:00:00 | 00:00:00 | |
| PETON7-10 | 2026-09-05 03:59:58 | 47.05581 | 17.11347 | 90° | 100km/h | 9548m | -3.6m/s | -37.5°C | 19.7% | 0hPa | 2.5V | 00:00:00 | 00:00:00 | 00:00:00 | |
| PG1ADW-2 | 2026-09-05 03:59:57 | 47.05580 | 17.11310 | 90° | 102km/h | 9552m | -3.4m/s | -37.5°C | 19.8% | 0hPa | 2.5V | 00:00:00 | 00:00:00 | 00:00:00 | |
| OE3JTB-15 | 2026-09-05 03:59:50 | 47.05582 | 17.11052 | 92° | 110km/h | 9577m | -3.3m/s | -37.7°C | 19.8% | 0hPa | 2.6V | 07:55:00 | 00:00:00 | 00:00:00 | |
| OE5DRO-10 | 2026-09-05 03:59:44 | 47.05588 | 17.10825 | 93° | 111km/h | 9598m | -3.5m/s | -37.9°C | 20.8% | 0hPa | 2.6V | 00:00:00 | 00:00:00 | 00:00:00 | |
| PETON7-10 | 2026-09-05 03:59:43 | 47.05589 | 17.10787 | 93° | 111km/h | 9602m | -3.4m/s | -37.9°C | 20.8% | 0hPa | 2.6V | 00:00:00 | 00:00:00 | 00:00:00 | |
| PG1ADW-2 | 2026-09-05 03:59:37 | 47.05595 | 17.10546 | 92° | 115km/h | 9623m | -3.6m/s | -38.1°C | 21.3% | 0hPa | 2.6V | 00:00:00 | 02:13:10 | 00:00:00 | |
| PETON7-10 | 2026-09-05 03:59:28 | 47.05599 | 17.10169 | 90° | 115km/h | 9655m | -3.4m/s | -38.3°C | 22.8% | 0hPa | 2.6V | 00:00:00 | 02:13:01 | 00:00:00 | |
| OE5DRO-10 | 2026-09-05 03:59:25 | 47.05598 | 17.10041 | 89° | 113km/h | 9665m | -3.3m/s | -38.4°C | 23.3% | 0hPa | 2.6V | 00:00:00 | 00:00:00 | 00:00:00 | |
| OE3JTB-15 | 2026-09-05 03:59:21 | 47.05593 | 17.09870 | 88° | 108km/h | 9679m | -3.4m/s | -38.6°C | 23.5% | 0hPa | 2.6V | 00:00:00 | 02:12:54 | 00:00:00 | |
| PG1ADW-2 | 2026-09-05 03:59:17 | 47.05586 | 17.09699 | 86° | 108km/h | 9693m | -3.4m/s | -38.6°C | 23.8% | 0hPa | 2.6V | 00:00:00 | 00:00:00 | 00:00:00 | |
| PETON7-10 | 2026-09-05 03:59:13 | 47.05576 | 17.09531 | 85° | 106km/h | 9707m | -3.5m/s | -38.7°C | 24.1% | 0hPa | 2.6V | 00:00:00 | 00:00:00 | 00:00:00 | |
| OE5DRO-10 | 2026-09-05 03:59:05 | 47.05551 | 17.09210 | 84° | 100km/h | 9734m | -3.5m/s | -39.0°C | 24.9% | 0hPa | 2.6V | 00:00:00 | 00:00:00 | 00:00:00 | |
| PETON7-10 | 2026-09-05 03:58:58 | 47.05537 | 17.08950 | 87° | 99km/h | 9758m | -3.2m/s | -39.2°C | 25.8% | 0hPa | 2.6V | 00:00:00 | 00:00:00 | 00:00:00 | |
| PG1ADW-2 | 2026-09-05 03:58:57 | 47.05535 | 17.08913 | 87° | 100km/h | 9761m | -3.5m/s | -39.2°C | 25.8% | 0hPa | 2.6V | 07:56:00 | 00:00:00 | 00:00:00 | |
| OE3JTB-15 | 2026-09-05 03:58:52 | 47.05528 | 17.08729 | 88° | 106km/h | 9779m | -3.4m/s | -39.4°C | 26.9% | 0hPa | 2.5V | 00:00:00 | 00:00:00 | 00:00:00 | |
| OE5DRO-10 | 2026-09-05 03:58:46 | 47.05523 | 17.08510 | 90° | 106km/h | 9800m | -3.3m/s | -39.6°C | 28.2% | 0hPa | 2.6V | 00:00:00 | 00:00:00 | 00:00:00 | |
| PETON7-10 | 2026-09-05 03:58:43 | 47.05523 | 17.08399 | 92° | 106km/h | 9810m | -3.3m/s | -39.7°C | 28.4% | 0hPa | 2.6V | 07:56:00 | 02:12:16 | 00:00:00 | |
| PG1ADW-2 | 2026-09-05 03:58:37 | 47.05531 | 17.08169 | 94° | 111km/h | 9831m | -3.4m/s | -39.9°C | 28.6% | 0hPa | 2.6V | 00:00:00 | 00:00:00 | 00:00:00 | |
| PETON7-10 | 2026-09-05 03:58:28 | 47.05545 | 17.07807 | 94° | 115km/h | 9861m | -3.5m/s | -40.1°C | 28.8% | 0hPa | 2.6V | 00:00:00 | 00:00:00 | 00:00:00 | |
| OE5DRO-10 | 2026-09-05 03:58:27 | 47.05547 | 17.07765 | 93° | 117km/h | 9865m | -3.3m/s | -40.2°C | 28.9% | 0hPa | 2.5V | 00:00:00 | 00:00:00 | 00:00:00 | |
| OE3JTB-15 | 2026-09-05 03:58:23 | 47.05551 | 17.07596 | 91° | 119km/h | 9878m | -3.3m/s | -40.2°C | 29.6% | 0hPa | 2.5V | 00:00:00 | 00:00:00 | 00:00:00 | |
| PG1ADW-2 | 2026-09-05 03:58:17 | 47.05551 | 17.07337 | 91° | 119km/h | 9899m | -3.4m/s | -40.4°C | 29.8% | 0hPa | 2.5V | 00:00:00 | 02:11:50 | 00:00:00 | |
| PETON7-10 | 2026-09-05 03:58:13 | 47.05553 | 17.07164 | 91° | 119km/h | 9913m | -3.6m/s | -40.6°C | 29.3% | 0hPa | 2.5V | 00:00:00 | 00:00:00 | 00:00:00 | |
| OE5DRO-10 | 2026-09-05 03:58:08 | 47.05554 | 17.06947 | 91° | 120km/h | 9932m | -3.7m/s | -40.7°C | 26.9% | 0hPa | 2.5V | 07:57:00 | 00:00:00 | 00:00:00 | |
| PETON7-10 | 2026-09-05 03:57:58 | 47.05553 | 17.06507 | 89° | 120km/h | 9968m | -3.5m/s | -40.7°C | 22.8% | 0hPa | 2.5V | 00:00:00 | 02:11:31 | 00:00:00 | |
| PG1ADW-2 | 2026-09-05 03:57:57 | 47.05553 | 17.06462 | 89° | 120km/h | 9972m | -3.4m/s | -40.7°C | 22.9% | 0hPa | 2.5V | 00:00:00 | 00:00:00 | 00:00:00 | |
| OE3JTB-15 | 2026-09-05 03:57:54 | 47.05549 | 17.06328 | 87° | 117km/h | 9982m | -3.4m/s | -40.8°C | 23.3% | 0hPa | 2.6V | 00:00:00 | 02:11:27 | 00:00:00 | |
| OE5DRO-10 | 2026-09-05 03:57:49 | 47.05538 | 17.06103 | 86° | 117km/h | 10000m | -3.6m/s | -40.8°C | 24.4% | 0hPa | 2.6V | 00:00:00 | 00:00:00 | 00:00:00 | |
| PETON7-10 | 2026-09-05 03:57:43 | 47.05521 | 17.05836 | 84° | 113km/h | 10022m | -3.5m/s | -41.0°C | 25.4% | 0hPa | 2.6V | 00:00:00 | 00:00:00 | 00:00:00 | |
| PG1ADW-2 | 2026-09-05 03:57:37 | 47.05501 | 17.05578 | 84° | 110km/h | 10043m | -3.4m/s | -41.1°C | 25.4% | 0hPa | 2.5V | 00:00:00 | 00:00:00 | 00:00:00 | |
| OE5DRO-10 | 2026-09-05 03:57:30 | 47.05482 | 17.05288 | 86° | 110km/h | 10067m | -3.5m/s | -41.3°C | 24.0% | 0hPa | 2.5V | 00:00:00 | 00:00:00 | 00:00:00 | |
| PETON7-10 | 2026-09-05 03:57:28 | 47.05477 | 17.05207 | 87° | 110km/h | 10075m | -3.5m/s | -41.3°C | 23.4% | 0hPa | 2.5V | 00:00:00 | 00:00:00 | 00:00:00 | |
| OE3JTB-15 | 2026-09-05 03:57:25 | 47.05473 | 17.05086 | 88° | 110km/h | 10085m | -3.4m/s | -41.2°C | 22.4% | 0hPa | 2.5V | 00:00:00 | 00:00:00 | 00:00:00 | |
| PG1ADW-2 | 2026-09-05 03:57:17 | 47.05465 | 17.04765 | 89° | 111km/h | 10113m | -3.5m/s | -41.5°C | 21.6% | 0hPa | 2.6V | 00:00:00 | 00:00:00 | 00:00:00 | |
| PETON7-10 | 2026-09-05 03:57:13 | 47.05464 | 17.04604 | 91° | 111km/h | 10128m | -3.5m/s | -41.6°C | 20.7% | 0hPa | 2.6V | 00:00:00 | 02:10:46 | 00:00:00 | |
| OE5DRO-10 | 2026-09-05 03:57:11 | 47.05465 | 17.04524 | 92° | 113km/h | 10136m | -3.7m/s | -41.6°C | 20.1% | 0hPa | 2.6V | 00:00:00 | 00:00:00 | 00:00:00 | |
| PETON7-10 | 2026-09-05 03:56:58 | 47.05484 | 17.03986 | 94° | 122km/h | 10183m | -3.6m/s | -41.9°C | 19.2% | 0hPa | 2.6V | 00:00:00 | 00:00:00 | 00:00:00 | |
| PG1ADW-2 | 2026-09-05 03:56:57 | 47.05487 | 17.03943 | 95° | 122km/h | 10187m | -3.6m/s | -42.0°C | 19.3% | 0hPa | 2.6V | 00:00:00 | 02:10:30 | 00:00:00 | |
| OE3JTB-15 | 2026-09-05 03:56:56 | 47.05489 | 17.03900 | 95° | 122km/h | 10191m | -3.5m/s | -42.0°C | 19.3% | 0hPa | 2.6V | 00:00:00 | 00:00:00 | 00:00:00 | |
| OE5DRO-10 | 2026-09-05 03:56:52 | 47.05497 | 17.03723 | 94° | 124km/h | 10205m | -3.6m/s | -42.1°C | 19.4% | 0hPa | 2.6V | 00:00:00 | 00:00:00 | 00:00:00 | |
| PETON7-10 | 2026-09-05 03:56:43 | 47.05503 | 17.03309 | 88° | 120km/h | 10237m | -3.5m/s | -42.4°C | 19.7% | 0hPa | 2.5V | 07:58:00 | 00:00:00 | 00:00:00 | |
| PG1ADW-2 | 2026-09-05 03:56:37 | 47.05493 | 17.03036 | 87° | 115km/h | 10260m | -3.7m/s | -42.6°C | 19.7% | 0hPa | 2.5V | 00:00:00 | 00:00:00 | 00:00:00 | |
| OE5DRO-10 | 2026-09-05 03:56:33 | 47.05486 | 17.02857 | 86° | 111km/h | 10275m | -3.7m/s | -42.8°C | 19.8% | 0hPa | 2.5V | 00:00:00 | 00:00:00 | 00:00:00 | |
| PETON7-10 | 2026-09-05 03:56:28 | 47.05473 | 17.02639 | 85° | 110km/h | 10294m | -3.8m/s | -42.9°C | 19.8% | 0hPa | 2.5V | 00:00:00 | 02:10:01 | 00:00:00 | |
| OE3JTB-15 | 2026-09-05 03:56:27 | 47.05470 | 17.02596 | 85° | 113km/h | 10298m | -3.9m/s | -42.9°C | 19.8% | 0hPa | 2.5V | 00:00:00 | 02:10:00 | 00:00:00 | |
| PG1ADW-2 | 2026-09-05 03:56:17 | 47.05449 | 17.02191 | 89° | 115km/h | 10336m | -3.6m/s | -43.1°C | 20.6% | 0hPa | 2.5V | 07:59:00 | 00:00:00 | 00:00:00 | |
| OE5DRO-10 | 2026-09-05 03:56:14 | 47.05449 | 17.02073 | 92° | 117km/h | 10347m | -3.7m/s | -43.2°C | 20.8% | 0hPa | 2.5V | 00:00:00 | 00:00:00 | 00:00:00 | |
| PETON7-10 | 2026-09-05 03:56:13 | 47.05449 | 17.02033 | 92° | 115km/h | 10351m | -3.7m/s | -43.2°C | 20.9% | 0hPa | 2.5V | 00:00:00 | 00:00:00 | 00:00:00 | |
| PETON7-10 | 2026-09-05 03:55:58 | 47.05468 | 17.01389 | 92° | 128km/h | 10411m | -4.2m/s | -43.5°C | 20.8% | 0hPa | 2.5V | 00:00:00 | 00:00:00 | 00:00:00 | |
| PG1ADW-2 | 2026-09-05 03:55:57 | 47.05469 | 17.01343 | 92° | 130km/h | 10416m | -4.1m/s | -43.6°C | 21.0% | 0hPa | 2.5V | 00:00:00 | 00:00:00 | 00:00:00 | |
| OE5DRO-10 | 2026-09-05 03:55:55 | 47.05471 | 17.01250 | 92° | 130km/h | 10424m | -4.1m/s | -43.6°C | 21.2% | 0hPa | 2.5V | 00:00:00 | 00:00:00 | 00:00:00 | |
| PETON7-10 | 2026-09-05 03:55:43 | 47.05478 | 17.00681 | 91° | 133km/h | 10474m | -4.1m/s | -43.9°C | 21.8% | 0hPa | 2.6V | 00:00:00 | 02:09:16 | 00:00:00 | |
| OE5DRO-10 | 2026-09-05 03:55:36 | 47.05474 | 17.00339 | 89° | 135km/h | 10503m | -4.2m/s | -44.2°C | 21.9% | 0hPa | 2.6V | 00:00:00 | 00:00:00 | 00:00:00 | |
| OE3JTB-15 | 2026-09-05 03:55:29 | 47.05464 | 16.99992 | 88° | 137km/h | 10533m | -4.4m/s | -44.4°C | 21.4% | 0hPa | 2.6V | 00:00:00 | 00:00:00 | 00:00:00 | |
| PETON7-10 | 2026-09-05 03:55:28 | 47.05462 | 16.99943 | 88° | 137km/h | 10538m | -4.3m/s | -44.4°C | 21.4% | 0hPa | 2.6V | 00:00:00 | 00:00:00 | 00:00:00 | |
| PG1ADW-2 | 2026-09-05 03:55:17 | 47.05442 | 16.99391 | 87° | 137km/h | 10587m | -4.4m/s | -44.6°C | 20.5% | 0hPa | 2.5V | 00:00:00 | 00:00:00 | 00:00:00 | |
| PETON7-10 | 2026-09-05 03:55:13 | 47.05435 | 16.99187 | 87° | 137km/h | 10605m | -4.5m/s | -44.6°C | 20.2% | 0hPa | 2.5V | 00:00:00 | 00:00:00 | 00:00:00 | |
| OE3JTB-15 | 2026-09-05 03:55:00 | 47.05393 | 16.98525 | 83° | 126km/h | 10661m | -4.0m/s | -45.0°C | 21.3% | 0hPa | 2.5V | 00:00:00 | 02:08:33 | 00:00:00 | |
| PETON7-10 | 2026-09-05 03:54:58 | 47.05384 | 16.98429 | 83° | 126km/h | 10670m | -4.0m/s | -45.0°C | 21.4% | 0hPa | 2.5V | 00:00:00 | 02:08:31 | 00:00:00 | |
| PG1ADW-2 | 2026-09-05 03:54:57 | 47.05380 | 16.98381 | 83° | 126km/h | 10674m | -4.4m/s | -45.1°C | 21.6% | 0hPa | 2.5V | 08:00:00 | 00:00:00 | 00:00:00 | |
| OE5DXL-15 | 2026-09-05 03:54:49 | 47.05354 | 16.98012 | 86° | 128km/h | 10709m | -4.5m/s | -45.3°C | 22.6% | 0hPa | 2.5V | 00:00:00 | 00:00:00 | 00:00:00 | |
| PETON7-10 | 2026-09-05 03:54:43 | 47.05342 | 16.97734 | 87° | 126km/h | 10735m | -4.5m/s | -45.5°C | 23.4% | 0hPa | 2.5V | 00:00:00 | 00:00:00 | 00:00:00 | |
| OE5DRO-10 | 2026-09-05 03:54:39 | 47.05335 | 16.97549 | 87° | 130km/h | 10753m | -4.4m/s | -45.6°C | 24.2% | 0hPa | 2.5V | 00:00:00 | 00:00:00 | 00:00:00 | |
| PG1ADW-2 | 2026-09-05 03:54:37 | 47.05332 | 16.97456 | 87° | 131km/h | 10762m | -4.3m/s | -45.7°C | 24.5% | 0hPa | 2.5V | 00:00:00 | 00:00:00 | 00:00:00 | |
| OE3JTB-15 | 2026-09-05 03:54:31 | 47.05324 | 16.97177 | 89° | 139km/h | 10790m | -4.5m/s | -45.9°C | 24.9% | 0hPa | 2.5V | 00:00:00 | 00:00:00 | 00:00:00 | |
| PETON7-10 | 2026-09-05 03:54:28 | 47.05324 | 16.97035 | 91° | 135km/h | 10804m | -4.5m/s | -46.0°C | 24.7% | 0hPa | 2.5V | 00:00:00 | 00:00:00 | 00:00:00 | |
| OE5DRO-10 | 2026-09-05 03:54:20 | 47.05326 | 16.96641 | 91° | 142km/h | 10840m | -4.5m/s | -46.2°C | 24.2% | 0hPa | 2.5V | 00:00:00 | 00:00:00 | 00:00:00 | |
| OE5DXL-15 | 2026-09-05 03:54:19 | 47.05327 | 16.96590 | 91° | 141km/h | 10844m | -4.5m/s | -46.3°C | 24.0% | 0hPa | 2.5V | 00:00:00 | 00:00:00 | 00:00:00 | |
| PG1ADW-2 | 2026-09-05 03:54:17 | 47.05327 | 16.96487 | 91° | 142km/h | 10854m | -4.4m/s | -46.3°C | 23.8% | 0hPa | 2.5V | 00:00:00 | 02:07:50 | 00:00:00 | |
| PETON7-10 | 2026-09-05 03:54:13 | 47.05327 | 16.96279 | 90° | 144km/h | 10872m | -4.4m/s | -46.4°C | 23.4% | 0hPa | 2.5V | 00:00:00 | 02:07:46 | 00:00:00 | |
| OE3JTB-15 | 2026-09-05 03:54:02 | 47.05318 | 16.95695 | 88° | 135km/h | 10921m | -4.6m/s | -46.7°C | 22.5% | 0hPa | 2.5V | 00:00:00 | 00:00:00 | 00:00:00 | |
| OE5DRO-10 | 2026-09-05 03:54:01 | 47.05316 | 16.95641 | 88° | 139km/h | 10926m | -4.4m/s | -46.8°C | 22.6% | 0hPa | 2.5V | 00:00:00 | 00:00:00 | 00:00:00 | |
| PETON7-10 | 2026-09-05 03:53:58 | 47.05309 | 16.95481 | 86° | 137km/h | 10940m | -4.7m/s | -46.9°C | 22.8% | 0hPa | 2.5V | 08:01:00 | 00:00:00 | 00:00:00 | |
| PG1ADW-2 | 2026-09-05 03:53:57 | 47.05306 | 16.95428 | 86° | 135km/h | 10944m | -4.5m/s | -46.9°C | 23.0% | 0hPa | 2.5V | 00:00:00 | 00:00:00 | 00:00:00 | |
| OE5DXL-15 | 2026-09-05 03:53:49 | 47.05275 | 16.95018 | 83° | 130km/h | 10981m | -4.7m/s | -47.2°C | 23.1% | 0hPa | 2.6V | 08:01:00 | 00:00:00 | 00:00:00 | |
| PETON7-10 | 2026-09-05 03:53:43 | 47.05249 | 16.94724 | 83° | 128km/h | 11009m | -4.8m/s | -47.4°C | 23.6% | 0hPa | 2.5V | 00:00:00 | 00:00:00 | 00:00:00 | |
| OE5DRO-10 | 2026-09-05 03:53:42 | 47.05245 | 16.94675 | 83° | 128km/h | 11014m | -4.7m/s | -47.4°C | 23.8% | 0hPa | 2.5V | 00:00:00 | 00:00:00 | 00:00:00 | |
| PG1ADW-2 | 2026-09-05 03:53:37 | 47.05225 | 16.94436 | 84° | 130km/h | 11038m | -4.6m/s | -47.6°C | 24.8% | 0hPa | 2.5V | 00:00:00 | 00:00:00 | 00:00:00 | |
| OE3JTB-15 | 2026-09-05 03:53:33 | 47.05213 | 16.94249 | 86° | 133km/h | 11056m | -4.5m/s | -47.7°C | 25.1% | 0hPa | 2.5V | 00:00:00 | 02:07:06 | 00:00:00 | |
| PETON7-10 | 2026-09-05 03:53:28 | 47.05205 | 16.94016 | 88° | 133km/h | 11079m | -4.5m/s | -47.9°C | 25.7% | 0hPa | 2.5V | 00:00:00 | 02:07:01 | 00:00:00 | |
| OE5DRO-10 | 2026-09-05 03:53:23 | 47.05202 | 16.93778 | 90° | 137km/h | 11102m | -4.4m/s | -48.1°C | 26.0% | 0hPa | 2.5V | 00:00:00 | 00:00:00 | 00:00:00 | |
| OE5DXL-15 | 2026-09-05 03:53:19 | 47.05201 | 16.93581 | 90° | 142km/h | 11120m | -4.5m/s | -48.2°C | 26.3% | 0hPa | 2.5V | 00:00:00 | 00:00:00 | 00:00:00 | |
| PG1ADW-2 | 2026-09-05 03:53:17 | 47.05201 | 16.93480 | 90° | 141km/h | 11129m | -4.5m/s | -48.3°C | 26.5% | 0hPa | 2.5V | 00:00:00 | 00:00:00 | 00:00:00 | |
| PETON7-10 | 2026-09-05 03:53:13 | 47.05201 | 16.93276 | 90° | 142km/h | 11148m | -4.6m/s | -48.4°C | 26.8% | 0hPa | 2.5V | 00:00:00 | 00:00:00 | 00:00:00 | |
| OE5DRO-10 | 2026-09-05 03:53:04 | 47.05199 | 16.92810 | 90° | 144km/h | 11190m | -4.7m/s | -48.7°C | 27.4% | 0hPa | 2.6V | 00:00:00 | 00:00:00 | 00:00:00 | |
| PETON7-10 | 2026-09-05 03:52:58 | 47.05190 | 16.92487 | 86° | 142km/h | 11218m | -4.5m/s | -49.0°C | 27.7% | 0hPa | 2.6V | 00:00:00 | 00:00:00 | 00:00:00 | |
| PG1ADW-2 | 2026-09-05 03:52:57 | 47.05186 | 16.92433 | 85° | 139km/h | 11222m | -4.5m/s | -49.0°C | 27.8% | 0hPa | 2.6V | 00:00:00 | 02:06:30 | 00:00:00 | |
| OE5DXL-15 | 2026-09-05 03:52:49 | 47.05154 | 16.92011 | 83° | 131km/h | 11260m | -4.5m/s | -49.3°C | 28.7% | 0hPa | 2.5V | 00:00:00 | 00:00:00 | 00:00:00 | |
| OE5DRO-10 | 2026-09-05 03:52:45 | 47.05135 | 16.91808 | 83° | 131km/h | 11278m | -4.5m/s | -49.5°C | 29.2% | 0hPa | 2.5V | 00:00:00 | 00:00:00 | 00:00:00 | |
| PETON7-10 | 2026-09-05 03:52:43 | 47.05126 | 16.91709 | 83° | 131km/h | 11287m | -4.5m/s | -49.6°C | 29.5% | 0hPa | 2.5V | 00:00:00 | 02:06:16 | 00:00:00 | |
| PG1ADW-2 | 2026-09-05 03:52:37 | 47.05098 | 16.91415 | 83° | 128km/h | 11314m | -4.6m/s | -49.8°C | 30.4% | 0hPa | 2.5V | 00:00:00 | 00:00:00 | 00:00:00 | |
| OE3JTB-15 | 2026-09-05 03:52:35 | 47.05090 | 16.91319 | 83° | 128km/h | 11324m | -4.5m/s | -49.9°C | 30.5% | 0hPa | 2.5V | 00:00:00 | 00:00:00 | 00:00:00 | |
| PETON7-10 | 2026-09-05 03:52:28 | 47.05066 | 16.90989 | 85° | 126km/h | 11355m | -4.5m/s | -50.1°C | 31.0% | 0hPa | 2.5V | 00:00:00 | 00:00:00 | 00:00:00 | |
| OE5DRO-10 | 2026-09-05 03:52:26 | 47.05060 | 16.90896 | 85° | 128km/h | 11364m | -4.6m/s | -50.2°C | 31.2% | 0hPa | 2.6V | 00:00:00 | 00:00:00 | 00:00:00 | |
| OE5DXL-15 | 2026-09-05 03:52:19 | 47.05042 | 16.90569 | 87° | 137km/h | 11396m | -4.7m/s | -50.5°C | 31.6% | 0hPa | 2.6V | 00:00:00 | 00:00:00 | 00:00:00 | |
| PG1ADW-2 | 2026-09-05 03:52:17 | 47.05038 | 16.90476 | 88° | 133km/h | 11406m | -4.4m/s | -50.6°C | 31.9% | 0hPa | 2.5V | 00:00:00 | 00:00:00 | 00:00:00 | |
| PETON7-10 | 2026-09-05 03:52:13 | 47.05034 | 16.90287 | 89° | 135km/h | 11425m | -4.6m/s | -50.7°C | 31.9% | 0hPa | 2.5V | 00:00:00 | 00:00:00 | 00:00:00 | |
| OE5DRO-10 | 2026-09-05 03:52:07 | 47.05031 | 16.89999 | 90° | 141km/h | 11452m | -4.4m/s | -50.9°C | 32.0% | 0hPa | 2.5V | 08:03:00 | 00:00:00 | 00:00:00 | |
| OE3JTB-15 | 2026-09-05 03:52:06 | 47.05031 | 16.89949 | 90° | 142km/h | 11457m | -4.4m/s | -51.0°C | 32.0% | 0hPa | 2.5V | 00:00:00 | 02:05:39 | 00:00:00 | |
| PETON7-10 | 2026-09-05 03:51:58 | 47.05026 | 16.89537 | 88° | 144km/h | 11492m | -4.4m/s | -51.2°C | 31.7% | 0hPa | 2.5V | 00:00:00 | 02:05:31 | 00:00:00 | |
| PG1ADW-2 | 2026-09-05 03:51:57 | 47.05024 | 16.89484 | 87° | 142km/h | 11497m | -4.3m/s | -51.3°C | 31.7% | 0hPa | 2.5V | 08:03:00 | 00:00:00 | 00:00:00 | |
| OE5DXL-15 | 2026-09-05 03:51:49 | 47.04999 | 16.89058 | 84° | 137km/h | 11533m | -4.4m/s | -51.5°C | 31.4% | 0hPa | 2.5V | 00:00:00 | 00:00:00 | 00:00:00 | |
| OE5DRO-10 | 2026-09-05 03:51:48 | 47.04995 | 16.89005 | 84° | 141km/h | 11537m | -4.4m/s | -51.5°C | 31.4% | 0hPa | 2.5V | 00:00:00 | 00:00:00 | 00:00:00 | |
| PETON7-10 | 2026-09-05 03:51:42 | 47.04965 | 16.88693 | 82° | 139km/h | 11564m | -4.5m/s | -51.6°C | 30.5% | 0hPa | 2.5V | 08:03:00 | 00:00:00 | 00:00:00 | |
| PG1ADW-2 | 2026-09-05 03:51:37 | 47.04938 | 16.88435 | 81° | 133km/h | 11588m | -4.7m/s | -51.7°C | 30.0% | 0hPa | 2.5V | 00:00:00 | 02:05:10 | 00:00:00 | |
| OE5DRO-10 | 2026-09-05 03:51:29 | 47.04888 | 16.88035 | 79° | 130km/h | 11625m | -4.7m/s | -52.1°C | 31.1% | 0hPa | 2.5V | 00:00:00 | 00:00:00 | 00:00:00 | |
| PETON7-10 | 2026-09-05 03:51:27 | 47.04874 | 16.87939 | 79° | 130km/h | 11635m | -4.7m/s | -52.1°C | 31.2% | 0hPa | 2.5V | 00:00:00 | 00:00:00 | 00:00:00 | |
| OE5DXL-15 | 2026-09-05 03:51:19 | 47.04823 | 16.87562 | 79° | 130km/h | 11672m | -4.7m/s | -52.5°C | 32.1% | 0hPa | 2.5V | 00:00:00 | 00:00:00 | 00:00:00 | |
| PG1ADW-2 | 2026-09-05 03:51:17 | 47.04810 | 16.87468 | 79° | 126km/h | 11681m | -4.5m/s | -52.6°C | 32.3% | 0hPa | 2.5V | 00:00:00 | 00:00:00 | 00:00:00 | |
| PETON7-10 | 2026-09-05 03:51:12 | 47.04778 | 16.87237 | 80° | 124km/h | 11703m | -4.5m/s | -52.8°C | 32.3% | 0hPa | 2.5V | 00:00:00 | 02:04:45 | 00:00:00 | |
| OE5DRO-10 | 2026-09-05 03:51:10 | 47.04767 | 16.87146 | 80° | 128km/h | 11712m | -4.4m/s | -52.8°C | 32.2% | 0hPa | 2.5V | 00:00:00 | 00:00:00 | 00:00:00 | |
| OE3JTB-15 | 2026-09-05 03:51:08 | 47.04756 | 16.87056 | 81° | 135km/h | 11721m | -4.6m/s | -52.8°C | 32.0% | 0hPa | 2.5V | 00:00:00 | 00:00:00 | 00:00:00 | |
| PG1ADW-2 | 2026-09-05 03:50:57 | 47.04719 | 16.86548 | 86° | 141km/h | 11770m | -4.4m/s | -53.1°C | 32.5% | 0hPa | 2.5V | 00:00:00 | 00:00:00 | 00:00:00 | |
| OE5DRO-10 | 2026-09-05 03:50:51 | 47.04704 | 16.86246 | 85° | 144km/h | 11798m | -4.6m/s | -53.3°C | 32.7% | 0hPa | 2.5V | 00:00:00 | 00:00:00 | 00:00:00 | |
| OE5DXL-15 | 2026-09-05 03:50:49 | 47.04697 | 16.86142 | 84° | 141km/h | 11807m | -4.6m/s | -53.4°C | 32.8% | 0hPa | 2.5V | 00:00:00 | 00:00:00 | 00:00:00 | |
| PETON7-10 | 2026-09-05 03:50:42 | 47.04664 | 16.85773 | 82° | 142km/h | 11840m | -4.6m/s | -53.7°C | 33.4% | 0hPa | 2.5V | 00:00:00 | 00:00:00 | 00:00:00 | |
| OE3JTB-15 | 2026-09-05 03:50:39 | 47.04646 | 16.85613 | 81° | 135km/h | 11854m | -4.6m/s | -53.8°C | 34.1% | 0hPa | 2.5V | 00:00:00 | 02:04:12 | 00:00:00 | |
| PG1ADW-2 | 2026-09-05 03:50:37 | 47.04634 | 16.85507 | 80° | 137km/h | 11863m | -4.7m/s | -53.9°C | 34.3% | 0hPa | 2.5V | 00:00:00 | 00:00:00 | 00:00:00 | |
| OE5DRO-10 | 2026-09-05 03:50:32 | 47.04596 | 16.85246 | 77° | 133km/h | 11886m | -4.6m/s | -54.1°C | 35.0% | 0hPa | 2.5V | 00:00:00 | 00:00:00 | 00:00:00 | |
| PETON7-10 | 2026-09-05 03:50:27 | 47.04555 | 16.84996 | 77° | 130km/h | 11909m | -4.5m/s | -54.3°C | 35.4% | 0hPa | 2.5V | 00:00:00 | 02:04:00 | 00:00:00 | |
| OE5DXL-15 | 2026-09-05 03:50:19 | 47.04493 | 16.84616 | 78° | 133km/h | 11945m | -4.6m/s | -54.6°C | 36.1% | 0hPa | 2.5V | 00:00:00 | 00:00:00 | 00:00:00 | |
| PG1ADW-2 | 2026-09-05 03:50:17 | 47.04480 | 16.84523 | 79° | 131km/h | 11955m | -4.5m/s | -54.7°C | 36.3% | 0hPa | 2.5V | 00:00:00 | 02:03:50 | 00:00:00 | |
| OE5DRO-10 | 2026-09-05 03:50:13 | 47.04456 | 16.84339 | 80° | 133km/h | 11973m | -4.6m/s | -54.9°C | 36.8% | 0hPa | 2.5V | 00:00:00 | 00:00:00 | 00:00:00 | |
| PETON7-10 | 2026-09-05 03:50:12 | 47.04450 | 16.84292 | 80° | 131km/h | 11978m | -4.6m/s | -54.9°C | 37.1% | 0hPa | 2.5V | 00:00:00 | 00:00:00 | 00:00:00 | |
| OE3JTB-15 | 2026-09-05 03:50:10 | 47.04439 | 16.84200 | 81° | 141km/h | 11987m | -4.6m/s | -55.0°C | 37.5% | 0hPa | 2.6V | 00:00:00 | 00:00:00 | 00:00:00 | |
| PG1ADW-2 | 2026-09-05 03:49:57 | 47.04392 | 16.83563 | 85° | 146km/h | 12046m | -4.6m/s | -55.5°C | 39.2% | 0hPa | 2.6V | 00:00:00 | 00:00:00 | 00:00:00 | |
| OE5DRO-10 | 2026-09-05 03:49:54 | 47.04380 | 16.83406 | 84° | 146km/h | 12060m | -4.5m/s | -55.6°C | 39.6% | 0hPa | 2.5V | 00:00:00 | 00:00:00 | 00:00:00 | |
| PETON7-10 | 2026-09-05 03:49:42 | 47.04311 | 16.82763 | 79° | 139km/h | 12114m | -4.3m/s | -56.2°C | 40.7% | 0hPa | 2.5V | 00:00:00 | 02:03:15 | 00:00:00 | |
| OE3JTB-15 | 2026-09-05 03:49:41 | 47.04303 | 16.82711 | 78° | 131km/h | 12119m | -4.4m/s | -56.2°C | 40.8% | 0hPa | 2.5V | 00:00:00 | 00:00:00 | 00:00:00 | |
| PG1ADW-2 | 2026-09-05 03:49:37 | 47.04271 | 16.82504 | 77° | 131km/h | 12136m | -4.4m/s | -56.4°C | 41.2% | 0hPa | 2.5V | 00:00:00 | 00:00:00 | 00:00:00 | |
| OE5DRO-10 | 2026-09-05 03:49:35 | 47.04255 | 16.82403 | 77° | 130km/h | 12145m | -4.6m/s | -56.4°C | 41.3% | 0hPa | 2.5V | 00:00:00 | 00:00:00 | 00:00:00 | |
| PETON7-10 | 2026-09-05 03:49:27 | 47.04190 | 16.82017 | 77° | 126km/h | 12182m | -4.5m/s | -56.6°C | 42.5% | 0hPa | 2.5V | 08:06:00 | 00:00:00 | 00:00:00 | |
| OE5DXL-15 | 2026-09-05 03:49:19 | 47.04133 | 16.81650 | 79° | 133km/h | 12219m | -4.6m/s | -56.9°C | 42.9% | 0hPa | 2.5V | 08:06:00 | 00:00:00 | 00:00:00 | |
| PG1ADW-2 | 2026-09-05 03:49:17 | 47.04121 | 16.81560 | 80° | 131km/h | 12228m | -4.5m/s | -56.9°C | 43.2% | 0hPa | 2.6V | 00:00:00 | 00:00:00 | 00:00:00 | |
| OE5DRO-10 | 2026-09-05 03:49:16 | 47.04115 | 16.81516 | 80° | 131km/h | 12233m | -4.5m/s | -57.0°C | 43.2% | 0hPa | 2.6V | 08:06:00 | 00:00:00 | 00:00:00 | |
| PETON7-10 | 2026-09-05 03:49:12 | 47.04096 | 16.81334 | 83° | 133km/h | 12251m | -4.6m/s | -57.1°C | 43.5% | 0hPa | 2.5V | 00:00:00 | 00:00:00 | 00:00:00 | |
| OE3OSB-13 | 2026-09-05 03:49:10 | 47.04081 | 16.81149 | 83° | 128km/h | 12269m | -4.8m/s | -57.3°C | 36.0% | -1.0hPa | 2.5V | 00:00:00 | 00:00:00 | 00:00:00 | |
| PG1ADW-2 | 2026-09-05 03:48:57 | 47.04035 | 16.80597 | 81° | 141km/h | 12321m | -4.5m/s | -57.7°C | 45.2% | 0hPa | 2.5V | 08:06:00 | 02:02:30 | 00:00:00 | |
| OE5DXL-15 | 2026-09-05 03:48:49 | 47.03982 | 16.80177 | 78° | 131km/h | 12358m | -4.7m/s | -58.0°C | 46.5% | 0hPa | 2.5V | 00:00:00 | 00:00:00 | 00:00:00 | |
| OE3JTB-15 | 2026-09-05 03:48:43 | 47.03931 | 16.79871 | 75° | 128km/h | 12387m | -4.7m/s | -58.3°C | 47.7% | 0hPa | 2.5V | 00:00:00 | 00:00:00 | 00:00:00 | |
| OE5DRO-10 | 2026-09-05 03:48:38 | 47.03884 | 16.79628 | 75° | 126km/h | 12411m | -4.8m/s | -58.5°C | 48.3% | 0hPa | 2.5V | 00:00:00 | 00:00:00 | 00:00:00 | |
| PG1ADW-2 | 2026-09-05 03:48:37 | 47.03875 | 16.79581 | 75° | 126km/h | 12416m | -4.7m/s | -58.5°C | 48.3% | 0hPa | 2.5V | 00:00:00 | 00:00:00 | 00:00:00 | |
| PETON7-10 | 2026-09-05 03:48:27 | 47.03797 | 16.79129 | 79° | 126km/h | 12464m | -4.7m/s | -59.0°C | 48.8% | 0hPa | 2.5V | 00:00:00 | 00:00:00 | 00:00:00 | |
| OE5DXL-15 | 2026-09-05 03:48:19 | 47.03753 | 16.78767 | 82° | 137km/h | 12502m | -4.8m/s | -59.3°C | 49.6% | 0hPa | 2.5V | 00:00:00 | 00:00:00 | 00:00:00 | |
| PG1ADW-2 | 2026-09-05 03:48:17 | 47.03744 | 16.78675 | 82° | 139km/h | 12512m | -4.8m/s | -59.3°C | 49.7% | 0hPa | 2.5V | 00:00:00 | 00:00:00 | 00:00:00 | |
| OE3JTB-15 | 2026-09-05 03:48:14 | 47.03730 | 16.78533 | 83° | 137km/h | 12526m | -4.9m/s | -59.4°C | 49.7% | 0hPa | 2.5V | 00:00:00 | 00:00:00 | 00:00:00 | |
| PETON7-10 | 2026-09-05 03:48:12 | 47.03721 | 16.78435 | 82° | 141km/h | 12536m | -4.6m/s | -59.5°C | 49.8% | 0hPa | 2.5V | 00:00:00 | 02:01:45 | 00:00:00 | |
| OE3OSB-13 | 2026-09-05 03:48:08 | 47.03685 | 16.78129 | 78° | 142km/h | 12565m | -5.1m/s | -59.8°C | 40.8% | -1.0hPa | 2.5V | 00:00:00 | 00:00:00 | 00:00:00 | |
| OE5DRO-10 | 2026-09-05 03:48:00 | 47.03634 | 16.77820 | 75° | 133km/h | 12595m | -4.8m/s | -59.9°C | 50.1% | 0hPa | 2.5V | 00:00:00 | 00:00:00 | 00:00:00 | |
| PG1ADW-2 | 2026-09-05 03:47:57 | 47.03603 | 16.77671 | 73° | 130km/h | 12610m | -4.8m/s | -60.0°C | 50.4% | 0hPa | 2.5V | 00:00:00 | 00:00:00 | 00:00:00 | |
| OE5DXL-15 | 2026-09-05 03:47:49 | 47.03518 | 16.77292 | 72° | 126km/h | 12649m | -5.0m/s | -60.3°C | 50.2% | 0hPa | 2.5V | 00:00:00 | 00:00:00 | 00:00:00 | |
| OE3JTB-15 | 2026-09-05 03:47:45 | 47.03477 | 16.77111 | 72° | 128km/h | 12669m | -5.0m/s | -60.5°C | 50.2% | 0hPa | 2.5V | 00:00:00 | 02:01:18 | 00:00:00 | |
| PETON7-10 | 2026-09-05 03:47:42 | 47.03446 | 16.76976 | 72° | 124km/h | 12684m | -5.0m/s | -60.6°C | 49.8% | 0hPa | 2.5V | 00:00:00 | 00:00:00 | 00:00:00 | |
| OE5DRO-10 | 2026-09-05 03:47:41 | 47.03436 | 16.76932 | 73° | 124km/h | 12689m | -4.9m/s | -60.6°C | 49.9% | 0hPa | 2.5V | 00:00:00 | 00:00:00 | 00:00:00 | |
| PG1ADW-2 | 2026-09-05 03:47:37 | 47.03400 | 16.76755 | 75° | 126km/h | 12708m | -4.8m/s | -60.7°C | 50.1% | 0hPa | 2.5V | 00:00:00 | 02:01:10 | 00:00:00 | |
| PETON7-10 | 2026-09-05 03:47:27 | 47.03329 | 16.76313 | 79° | 135km/h | 12757m | -5.0m/s | -61.0°C | 49.4% | 0hPa | 2.5V | 00:00:00 | 02:01:00 | 00:00:00 | |
| OE5DRO-10 | 2026-09-05 03:47:22 | 47.03301 | 16.76083 | 82° | 142km/h | 12782m | -4.8m/s | -61.1°C | 49.7% | 0hPa | 2.5V | 00:00:00 | 00:00:00 | 00:00:00 | |
| OE5DXL-15 | 2026-09-05 03:47:19 | 47.03286 | 16.75936 | 82° | 139km/h | 12796m | -4.9m/s | -61.2°C | 49.3% | 0hPa | 2.5V | 00:00:00 | 00:00:00 | 00:00:00 | |
| PG1ADW-2 | 2026-09-05 03:47:17 | 47.03276 | 16.75834 | 82° | 142km/h | 12806m | -5.0m/s | -61.3°C | 49.1% | 0hPa | 2.5V | 00:00:00 | 00:00:00 | 00:00:00 | |
| OE3JTB-15 | 2026-09-05 03:47:16 | 47.03270 | 16.75783 | 82° | 137km/h | 12811m | -5.0m/s | -61.3°C | 49.0% | 0hPa | 2.5V | 08:08:00 | 00:00:00 | 00:00:00 | |
| PETON7-10 | 2026-09-05 03:47:12 | 47.03245 | 16.75573 | 79° | 142km/h | 12831m | -4.7m/s | -61.4°C | 48.9% | 0hPa | 2.5V | 08:08:00 | 00:00:00 | 00:00:00 | |
| OE5DRO-10 | 2026-09-05 03:47:03 | 47.03167 | 16.75104 | 74° | 128km/h | 12875m | -4.8m/s | -61.7°C | 48.4% | 0hPa | 2.5V | 00:00:00 | 00:00:00 | 00:00:00 | |
| PETON7-10 | 2026-09-05 03:46:57 | 47.03106 | 16.74811 | 74° | 128km/h | 12903m | -4.7m/s | -61.9°C | 48.3% | 0hPa | 2.5V | 00:00:00 | 00:00:00 | 00:00:00 | |
| OE5DXL-15 | 2026-09-05 03:46:49 | 47.03035 | 16.74445 | 76° | 128km/h | 12942m | -4.6m/s | -62.0°C | 47.1% | 0hPa | 2.5V | 00:00:00 | 00:00:00 | 00:00:00 | |
| OE3JTB-15 | 2026-09-05 03:46:47 | 47.03020 | 16.74356 | 78° | 126km/h | 12952m | -4.8m/s | -62.1°C | 47.0% | 0hPa | 2.5V | 00:00:00 | 00:00:00 | 00:00:00 | |
| PETON7-10 | 2026-09-05 03:46:42 | 47.02989 | 16.74128 | 80° | 126km/h | 12976m | -4.7m/s | -62.3°C | 46.2% | 0hPa | 2.5V | 00:00:00 | 02:00:15 | 00:00:00 | |
| OE5DRO-10 | 2026-09-05 03:46:39 | 47.02972 | 16.73991 | 80° | 128km/h | 12991m | -5.0m/s | -62.4°C | 45.8% | 0hPa | 2.5V | 00:00:00 | 00:00:00 | 00:00:00 | |
| PG1ADW-2 | 2026-09-05 03:46:37 | 47.02960 | 16.73899 | 80° | 130km/h | 13000m | -4.8m/s | -62.4°C | 45.4% | 0hPa | 2.5V | 00:00:00 | 00:00:00 | 00:00:00 | |
| PETON7-10 | 2026-09-05 03:46:27 | 47.02906 | 16.73442 | 82° | 137km/h | 13050m | -4.7m/s | -62.7°C | 43.3% | 0hPa | 2.5V | 00:00:00 | 00:00:00 | 00:00:00 | |
| OE5DRO-10 | 2026-09-05 03:46:20 | 47.02880 | 16.73104 | 85° | 135km/h | 13083m | -4.7m/s | -62.7°C | 40.6% | 0hPa | 2.5V | 08:09:00 | 00:00:00 | 00:00:00 | |
| OE5DXL-15 | 2026-09-05 03:46:19 | 47.02877 | 16.73053 | 84° | 128km/h | 13087m | -4.5m/s | -62.8°C | 40.2% | 0hPa | 2.5V | 00:00:00 | 00:00:00 | 00:00:00 | |
| OE3JTB-15 | 2026-09-05 03:46:18 | 47.02873 | 16.73001 | 84° | 128km/h | 13092m | -4.5m/s | -62.8°C | 40.1% | 0hPa | 2.6V | 00:00:00 | 01:59:51 | 00:00:00 | |
| PG1ADW-2 | 2026-09-05 03:46:17 | 47.02868 | 16.72949 | 83° | 131km/h | 13096m | -4.4m/s | -62.8°C | 40.0% | 0hPa | 2.6V | 00:00:00 | 01:59:50 | 00:00:00 | |
| PETON7-10 | 2026-09-05 03:46:12 | 47.02839 | 16.72690 | 79° | 128km/h | 13119m | -4.1m/s | -63.0°C | 39.7% | 0hPa | 2.6V | 00:00:00 | 00:00:00 | 00:00:00 | |
| OE3OSB-13 | 2026-09-05 03:46:03 | 47.02765 | 16.72220 | 77° | 124km/h | 13163m | -4.6m/s | -63.3°C | 28.0% | -1.0hPa | 2.6V | 00:00:00 | 00:00:00 | 00:00:00 | |
| OE5DRO-10 | 2026-09-05 03:46:01 | 47.02758 | 16.72176 | 78° | 117km/h | 13168m | -4.8m/s | -63.2°C | 36.3% | 0hPa | 2.6V | 00:00:00 | 00:00:00 | 00:00:00 | |
| PG1ADW-2 | 2026-09-05 03:45:57 | 47.02734 | 16.72002 | 80° | 113km/h | 13187m | -5.0m/s | -63.0°C | 33.8% | 0hPa | 2.6V | 08:09:00 | 00:00:00 | 00:00:00 | |
| OE5DXL-15 | 2026-09-05 03:45:49 | 47.02692 | 16.71664 | 81° | 108km/h | 13225m | -4.6m/s | -63.2°C | 31.7% | 0hPa | 2.5V | 00:00:00 | 00:00:00 | 00:00:00 | |
| PETON7-10 | 2026-09-05 03:45:42 | 47.02663 | 16.71374 | 83° | 108km/h | 13257m | -4.7m/s | -63.4°C | 30.8% | 0hPa | 2.5V | 00:00:00 | 00:00:00 | 00:00:00 | |
| PG1ADW-2 | 2026-09-05 03:45:37 | 47.02648 | 16.71173 | 86° | 104km/h | 13282m | -4.7m/s | -63.5°C | 29.5% | 0hPa | 2.5V | 00:00:00 | 00:00:00 | 00:00:00 | |
| PETON7-10 | 2026-09-05 03:45:27 | 47.02627 | 16.70777 | 86° | 100km/h | 13331m | -4.9m/s | -63.4°C | 26.4% | 0hPa | 2.5V | 00:00:00 | 00:00:00 | 00:00:00 | |
| OE3JTB-15 | 2026-09-05 03:45:20 | 47.02611 | 16.70514 | 86° | 97km/h | 13364m | -4.3m/s | -62.8°C | 23.4% | 0hPa | 2.5V | 00:00:00 | 00:00:00 | 00:00:00 | |
| OE5DXL-15 | 2026-09-05 03:45:19 | 47.02608 | 16.70477 | 85° | 97km/h | 13369m | -4.4m/s | -62.7°C | 22.7% | 0hPa | 2.5V | 00:00:00 | 00:00:00 | 00:00:00 | |
| PG1ADW-2 | 2026-09-05 03:45:17 | 47.02603 | 16.70405 | 83° | 95km/h | 13377m | -4.4m/s | -62.6°C | 22.2% | 0hPa | 2.5V | 00:00:00 | 00:00:00 | 00:00:00 | |
| OE5DRO-10 | 2026-09-05 03:45:15 | 47.02597 | 16.70333 | 84° | 95km/h | 13387m | -4.6m/s | -62.4°C | 21.4% | 0hPa | 2.5V | 00:00:00 | 00:00:00 | 00:00:00 | |
| PETON7-10 | 2026-09-05 03:45:12 | 47.02588 | 16.70227 | 83° | 95km/h | 13401m | -4.7m/s | -62.2°C | 20.6% | 0hPa | 2.6V | 00:00:00 | 01:58:45 | 00:00:00 | |
| PETON7-10 | 2026-09-05 03:44:57 | 47.02565 | 16.69699 | 90° | 104km/h | 13470m | -4.8m/s | -62.4°C | 19.0% | 0hPa | 2.6V | 08:10:00 | 00:00:00 | 00:00:00 | |
| OE5DRO-10 | 2026-09-05 03:44:56 | 47.02565 | 16.69664 | 89° | 106km/h | 13475m | -4.9m/s | -62.4°C | 19.0% | 0hPa | 2.5V | 00:00:00 | 00:00:00 | 00:00:00 | |
| OE3JTB-15 | 2026-09-05 03:44:51 | 47.02562 | 16.69483 | 90° | 106km/h | 13499m | -4.7m/s | -61.6°C | 17.3% | 0hPa | 2.5V | 00:00:00 | 01:58:24 | 00:00:00 | |
| OE5DXL-15 | 2026-09-05 03:44:49 | 47.02562 | 16.69407 | 89° | 106km/h | 13508m | -4.4m/s | -61.5°C | 17.1% | 0hPa | 2.5V | 08:10:00 | 00:00:00 | 00:00:00 | |
| PETON7-10 | 2026-09-05 03:44:42 | 47.02553 | 16.69121 | 87° | 108km/h | 13542m | -5.2m/s | -61.1°C | 15.8% | 0hPa | 2.5V | 00:00:00 | 00:00:00 | 00:00:00 | |
| PG1ADW-2 | 2026-09-05 03:44:37 | 47.02538 | 16.68912 | 82° | 100km/h | 13567m | -4.3m/s | -60.7°C | 15.7% | 0hPa | 2.5V | 00:00:00 | 00:00:00 | 00:00:00 | |
| PETON7-10 | 2026-09-05 03:44:27 | 47.02490 | 16.68533 | 80° | 95km/h | 13614m | -4.7m/s | -60.5°C | 15.3% | 0hPa | 2.5V | 00:00:00 | 01:58:00 | 00:00:00 | |
| OE5DXL-15 | 2026-09-05 03:44:19 | 47.02465 | 16.68252 | 86° | 106km/h | 13652m | -4.7m/s | -60.2°C | 15.0% | 0hPa | 2.5V | 00:00:00 | 00:00:00 | 00:00:00 | |
| OE5DRO-10 | 2026-09-05 03:44:18 | 47.02464 | 16.68218 | 88° | 102km/h | 13657m | -4.5m/s | -60.2°C | 15.0% | 0hPa | 2.5V | 00:00:00 | 00:00:00 | 00:00:00 | |
| PG1ADW-2 | 2026-09-05 03:44:17 | 47.02463 | 16.68183 | 89° | 104km/h | 13661m | -4.6m/s | -60.2°C | 15.0% | 0hPa | 2.5V | 00:00:00 | 00:00:00 | 00:00:00 | |
| PETON7-10 | 2026-09-05 03:44:12 | 47.02464 | 16.68007 | 92° | 108km/h | 13684m | -4.5m/s | -60.4°C | 15.0% | 0hPa | 2.5V | 00:00:00 | 00:00:00 | 00:00:00 | |
| OE5DRO-10 | 2026-09-05 03:43:59 | 47.02460 | 16.67488 | 86° | 113km/h | 13746m | -4.9m/s | -60.8°C | 15.0% | 0hPa | 2.5V | 00:00:00 | 00:00:00 | 00:00:00 | |
| PETON7-10 | 2026-09-05 03:43:57 | 47.02454 | 16.67403 | 83° | 113km/h | 13755m | -4.9m/s | -60.8°C | 14.8% | 0hPa | 2.5V | 00:00:00 | 00:00:00 | 00:00:00 | |
| OE3JTB-15 | 2026-09-05 03:43:53 | 47.02438 | 16.67235 | 81° | 106km/h | 13775m | -4.9m/s | -60.8°C | 14.6% | 0hPa | 2.5V | 00:00:00 | 00:00:00 | 00:00:00 | |
| OE5DXL-15 | 2026-09-05 03:43:49 | 47.02418 | 16.67069 | 79° | 102km/h | 13794m | -5.0m/s | -60.8°C | 14.3% | 0hPa | 2.5V | 00:00:00 | 01:57:22 | 00:00:00 | |
| PETON7-10 | 2026-09-05 03:43:42 | 47.02375 | 16.66789 | 76° | 102km/h | 13828m | -4.9m/s | -61.1°C | 13.9% | 0hPa | 2.5V | 00:00:00 | 01:57:15 | 00:00:00 | |
| OE5DRO-10 | 2026-09-05 03:43:40 | 47.02361 | 16.66712 | 76° | 99km/h | 13838m | -4.9m/s | -61.2°C | 13.9% | 0hPa | 2.5V | 00:00:00 | 00:00:00 | 00:00:00 | |
| PG1ADW-2 | 2026-09-05 03:43:37 | 47.02342 | 16.66599 | 76° | 97km/h | 13852m | -4.5m/s | -61.3°C | 13.7% | 0hPa | 2.5V | 00:00:00 | 01:57:10 | 00:00:00 | |
| PETON7-10 | 2026-09-05 03:43:27 | 47.02283 | 16.66241 | 79° | 95km/h | 13897m | -4.7m/s | -61.7°C | 13.6% | 0hPa | 2.5V | 00:00:00 | 00:00:00 | 00:00:00 | |
| OE3JTB-15 | 2026-09-05 03:43:24 | 47.02271 | 16.66138 | 82° | 100km/h | 13911m | -4.6m/s | -61.8°C | 13.2% | 0hPa | 2.5V | 00:00:00 | 01:56:57 | 00:00:00 | |
| OE5DRO-10 | 2026-09-05 03:43:21 | 47.02261 | 16.66034 | 84° | 97km/h | 13925m | -4.9m/s | -61.8°C | 12.9% | 0hPa | 2.5V | 08:12:00 | 00:00:00 | 00:00:00 | |
| OE5DXL-15 | 2026-09-05 03:43:19 | 47.02256 | 16.65965 | 85° | 104km/h | 13935m | -4.5m/s | -61.7°C | 12.7% | 0hPa | 2.5V | 00:00:00 | 00:00:00 | 00:00:00 | |
| PG1ADW-2 | 2026-09-05 03:43:17 | 47.02252 | 16.65896 | 88° | 102km/h | 13944m | -4.8m/s | -61.8°C | 12.5% | 0hPa | 2.6V | 00:00:00 | 00:00:00 | 00:00:00 | |
| PETON7-10 | 2026-09-05 03:43:12 | 47.02245 | 16.65722 | 87° | 104km/h | 13969m | -5.0m/s | -61.7°C | 12.0% | 0hPa | 2.6V | 00:00:00 | 00:00:00 | 00:00:00 | |
| OE5DRO-10 | 2026-09-05 03:43:02 | 47.02242 | 16.65349 | 89° | 108km/h | 14017m | -4.7m/s | -61.2°C | 11.2% | 0hPa | 2.6V | 00:00:00 | 00:00:00 | 00:00:00 | |
| PG1ADW-2 | 2026-09-05 03:42:57 | 47.02232 | 16.65140 | 83° | 102km/h | 14042m | -4.7m/s | -60.9°C | 10.8% | 0hPa | 2.6V | 08:12:00 | 00:00:00 | 00:00:00 | |
| OE3JTB-15 | 2026-09-05 03:42:55 | 47.02224 | 16.65058 | 81° | 97km/h | 14051m | -4.6m/s | -60.8°C | 10.7% | 0hPa | 2.5V | 08:12:00 | 00:00:00 | 00:00:00 | |
| OE5DXL-15 | 2026-09-05 03:42:49 | 47.02194 | 16.64823 | 79° | 91km/h | 14080m | -5.0m/s | -60.6°C | 10.5% | 0hPa | 2.5V | 00:00:00 | 00:00:00 | 00:00:00 | |
| OE5DRO-10 | 2026-09-05 03:42:43 | 47.02163 | 16.64600 | 79° | 89km/h | 14110m | -4.8m/s | -60.6°C | 10.2% | 0hPa | 2.5V | 00:00:00 | 00:00:00 | 00:00:00 | |
| PETON7-10 | 2026-09-05 03:42:42 | 47.02158 | 16.64564 | 78° | 91km/h | 14115m | -4.8m/s | -60.6°C | 10.2% | 0hPa | 2.5V | 08:12:00 | 00:00:00 | 00:00:00 | |
| PG1ADW-2 | 2026-09-05 03:42:37 | 47.02135 | 16.64395 | 80° | 86km/h | 14140m | -4.8m/s | -60.8°C | 10.1% | 0hPa | 2.5V | 00:00:00 | 00:00:00 | 00:00:00 | |
| PETON7-10 | 2026-09-05 03:42:27 | 47.02095 | 16.64073 | 82° | 82km/h | 14191m | -5.1m/s | -60.9°C | 10.1% | 0hPa | 2.5V | 00:00:00 | 00:00:00 | 00:00:00 | |
| OE3JTB-15 | 2026-09-05 03:42:26 | 47.02092 | 16.64042 | 84° | 86km/h | 14196m | -5.1m/s | -60.9°C | 10.1% | 0hPa | 2.5V | 00:00:00 | 00:00:00 | 00:00:00 | |
| OE5DRO-10 | 2026-09-05 03:42:24 | 47.02087 | 16.63980 | 85° | 82km/h | 14206m | -4.9m/s | -61.0°C | 10.2% | 0hPa | 2.5V | 00:00:00 | 00:00:00 | 00:00:00 | |
| OE5DXL-15 | 2026-09-05 03:42:19 | 47.02078 | 16.63827 | 86° | 84km/h | 14232m | -4.9m/s | -61.0°C | 10.2% | 0hPa | 2.5V | 00:00:00 | 00:00:00 | 00:00:00 | |
| PG1ADW-2 | 2026-09-05 03:42:17 | 47.02074 | 16.63767 | 86° | 82km/h | 14242m | -5.1m/s | -61.0°C | 10.2% | 0hPa | 2.5V | 00:00:00 | 01:55:50 | 00:00:00 | |
| PETON7-10 | 2026-09-05 03:42:12 | 47.02066 | 16.63618 | 88° | 82km/h | 14267m | -4.9m/s | -61.1°C | 10.3% | 0hPa | 2.5V | 00:00:00 | 01:55:45 | 00:00:00 | |
| OE5DRO-10 | 2026-09-05 03:42:05 | 47.02065 | 16.63409 | 92° | 88km/h | 14302m | -5.1m/s | -60.5°C | 9.7% | 0hPa | 2.5V | 00:00:00 | 00:00:00 | 00:00:00 | |
| PETON7-10 | 2026-09-05 03:41:57 | 47.02076 | 16.63157 | 96° | 88km/h | 14342m | -5.5m/s | -60.5°C | 9.4% | 0hPa | 2.5V | 00:00:00 | 00:00:00 | 00:00:00 | |
| OE5DXL-15 | 2026-09-05 03:41:49 | 47.02090 | 16.62895 | 96° | 77km/h | 14386m | -5.2m/s | -60.7°C | 9.2% | 0hPa | 2.5V | 00:00:00 | 00:00:00 | 00:00:00 | |
| OE5DRO-10 | 2026-09-05 03:41:46 | 47.02096 | 16.62796 | 96° | 78km/h | 14402m | -5.3m/s | -60.8°C | 9.2% | 0hPa | 2.6V | 00:00:00 | 00:00:00 | 00:00:00 | |
| PETON7-10 | 2026-09-05 03:41:42 | 47.02105 | 16.62669 | 95° | 77km/h | 14423m | -5.3m/s | -60.7°C | 9.3% | 0hPa | 2.6V | 00:00:00 | 00:00:00 | 00:00:00 | |
| PG1ADW-2 | 2026-09-05 03:41:37 | 47.02110 | 16.62521 | 92° | 71km/h | 14450m | -5.9m/s | -60.7°C | 9.2% | 0hPa | 2.6V | 00:00:00 | 00:00:00 | 00:00:00 | |
| PETON7-10 | 2026-09-05 03:41:27 | 47.02110 | 16.62242 | 92° | 66km/h | 14506m | -5.4m/s | -60.4°C | 8.8% | 0hPa | 2.6V | 00:00:00 | 01:55:00 | 00:00:00 | |
| OE5DXL-15 | 2026-09-05 03:41:19 | 47.02114 | 16.62040 | 91° | 60km/h | 14548m | -5.2m/s | -59.9°C | 8.6% | 0hPa | 2.6V | 00:00:00 | 00:00:00 | 00:00:00 | |
| PG1ADW-2 | 2026-09-05 03:41:17 | 47.02114 | 16.61993 | 88° | 60km/h | 14559m | -5.6m/s | -59.8°C | 8.5% | 0hPa | 2.6V | 00:00:00 | 00:00:00 | 00:00:00 | |
| OE3JTB-15 | 2026-09-05 03:41:13 | 47.02111 | 16.61904 | 89° | 66km/h | 14580m | -5.6m/s | -59.8°C | 8.5% | 0hPa | 2.6V | 00:00:00 | 00:00:00 | 00:00:00 | |
| PETON7-10 | 2026-09-05 03:41:12 | 47.02110 | 16.61882 | 89° | 60km/h | 14586m | -5.7m/s | -59.8°C | 8.6% | 0hPa | 2.5V | 00:00:00 | 00:00:00 | 00:00:00 | |
| OE5DRO-10 | 2026-09-05 03:41:08 | 47.02111 | 16.61795 | 92° | 60km/h | 14606m | -5.3m/s | -59.7°C | 8.6% | 0hPa | 2.5V | 00:00:00 | 00:00:00 | 00:00:00 | |
| PG1ADW-2 | 2026-09-05 03:40:57 | 47.02115 | 16.61545 | 92° | 62km/h | 14670m | -6.0m/s | -58.4°C | 7.6% | 0hPa | 2.5V | 00:00:00 | 01:54:30 | 00:00:00 | |
| OE5DXL-15 | 2026-09-05 03:40:49 | 47.02119 | 16.61364 | 96° | 68km/h | 14716m | -5.9m/s | -58.5°C | 7.5% | 0hPa | 2.5V | 00:00:00 | 00:00:00 | 00:00:00 | |
| PETON7-10 | 2026-09-05 03:40:42 | 47.02128 | 16.61202 | 94° | 68km/h | 14756m | -5.7m/s | -58.7°C | 7.6% | 0hPa | 2.5V | 00:00:00 | 01:54:15 | 00:00:00 | |
| PG1ADW-2 | 2026-09-05 03:40:37 | 47.02138 | 16.61081 | 99° | 69km/h | 14784m | -5.7m/s | -58.9°C | 7.7% | 0hPa | 2.5V | 00:00:00 | 00:00:00 | 00:00:00 | |
| OE5DRO-10 | 2026-09-05 03:40:30 | 47.02157 | 16.60903 | 101° | 66km/h | 14823m | -5.9m/s | -58.9°C | 7.8% | 0hPa | 2.5V | 08:15:00 | 00:00:00 | 00:00:00 | |
| PETON7-10 | 2026-09-05 03:40:27 | 47.02168 | 16.60825 | 101° | 66km/h | 14842m | -6.2m/s | -59.0°C | 7.8% | 0hPa | 2.5V | 08:15:00 | 00:00:00 | 00:00:00 | |
| OE3JTB-15 | 2026-09-05 03:40:25 | 47.02175 | 16.60775 | 103° | 57km/h | 14854m | -6.3m/s | -58.9°C | 7.7% | 0hPa | 2.5V | 00:00:00 | 00:00:00 | 00:00:00 | |
| OE5DXL-15 | 2026-09-05 03:40:19 | 47.02197 | 16.60628 | 105° | 53km/h | 14892m | -6.2m/s | -59.1°C | 7.8% | 0hPa | 2.5V | 08:15:00 | 00:00:00 | 00:00:00 | |
| PG1ADW-2 | 2026-09-05 03:40:17 | 47.02205 | 16.60582 | 103° | 55km/h | 14904m | -6.2m/s | -59.1°C | 7.8% | 0hPa | 2.6V | 00:00:00 | 00:00:00 | 00:00:00 | |
| PETON7-10 | 2026-09-05 03:40:12 | 47.02223 | 16.60473 | 104° | 53km/h | 14936m | -6.2m/s | -58.7°C | 7.6% | 0hPa | 2.6V | 00:00:00 | 00:00:00 | 00:00:00 | |
| OE5DRO-10 | 2026-09-05 03:40:11 | 47.02227 | 16.60452 | 106° | 51km/h | 14942m | -6.4m/s | -58.7°C | 7.6% | 0hPa | 2.6V | 00:00:00 | 00:00:00 | 00:00:00 | |
| PETON7-10 | 2026-09-05 03:39:57 | 47.02273 | 16.60192 | 108° | 46km/h | 15028m | -6.6m/s | -58.1°C | 7.1% | 0hPa | 2.6V | 00:00:00 | 01:53:30 | 00:00:00 | |
| OE3JTB-15 | 2026-09-05 03:39:56 | 47.02277 | 16.60176 | 109° | 49km/h | 15035m | -6.3m/s | -58.1°C | 7.1% | 0hPa | 2.6V | 00:00:00 | 01:53:29 | 00:00:00 | |
| OE5DRO-10 | 2026-09-05 03:39:52 | 47.02291 | 16.60113 | 110° | 49km/h | 15060m | -6.2m/s | -58.2°C | 7.1% | 0hPa | 2.6V | 00:00:00 | 00:00:00 | 00:00:00 | |
| OE5DXL-15 | 2026-09-05 03:39:49 | 47.02303 | 16.60068 | 114° | 53km/h | 15079m | -6.4m/s | -58.3°C | 7.3% | 0hPa | 2.6V | 00:00:00 | 00:00:00 | 00:00:00 | |
| PETON7-10 | 2026-09-05 03:39:42 | 47.02342 | 16.59960 | 122° | 53km/h | 15120m | -6.2m/s | -58.4°C | 7.3% | 0hPa | 2.6V | 00:00:00 | 00:00:00 | 00:00:00 | |
| PG1ADW-2 | 2026-09-05 03:39:37 | 47.02376 | 16.59877 | 121° | 57km/h | 15151m | -6.5m/s | -58.5°C | 7.3% | 0hPa | 2.5V | 00:00:00 | 01:53:10 | 00:00:00 | |
| OE5DRO-10 | 2026-09-05 03:39:33 | 47.02404 | 16.59814 | 126° | 58km/h | 15177m | -6.5m/s | -58.7°C | 7.3% | 0hPa | 2.5V | 00:00:00 | 00:00:00 | 00:00:00 | |
| OE3JTB-15 | 2026-09-05 03:39:27 | 47.02449 | 16.59718 | 125° | 57km/h | 15214m | -6.1m/s | -58.8°C | 7.3% | 0hPa | 2.5V | 00:00:00 | 00:00:00 | 00:00:00 | |
| OE5DXL-15 | 2026-09-05 03:39:19 | 47.02510 | 16.59566 | 118° | 55km/h | 15261m | -5.9m/s | -59.0°C | 7.4% | 0hPa | 2.5V | 00:00:00 | 00:00:00 | 00:00:00 | |
| PG1ADW-2 | 2026-09-05 03:39:17 | 47.02525 | 16.59524 | 117° | 57km/h | 15272m | -6.0m/s | -59.0°C | 7.5% | 0hPa | 2.5V | 00:00:00 | 00:00:00 | 00:00:00 | |
| OE5DRO-10 | 2026-09-05 03:39:14 | 47.02544 | 16.59463 | 112° | 55km/h | 15291m | -6.3m/s | -59.0°C | 7.4% | 0hPa | 2.5V | 00:00:00 | 00:00:00 | 00:00:00 | |
| PETON7-10 | 2026-09-05 03:39:12 | 47.02555 | 16.59421 | 109° | 55km/h | 15302m | -6.4m/s | -58.9°C | 7.3% | 0hPa | 2.5V | 00:00:00 | 01:52:45 | 00:00:00 | |
| OE3JTB-15 | 2026-09-05 03:38:58 | 47.02603 | 16.59142 | 100° | 47km/h | 15391m | -6.3m/s | -59.6°C | 7.4% | 0hPa | 2.5V | 00:00:00 | 00:00:00 | 00:00:00 | |
| OE5DRO-10 | 2026-09-05 03:38:55 | 47.02609 | 16.59085 | 98° | 46km/h | 15409m | -6.2m/s | -59.8°C | 7.5% | 0hPa | 2.5V | 00:00:00 | 00:00:00 | 00:00:00 | |
| OE5DXL-15 | 2026-09-05 03:38:49 | 47.02617 | 16.58982 | 101° | 49km/h | 15447m | -6.1m/s | -60.1°C | 7.7% | 0hPa | 2.5V | 00:00:00 | 00:00:00 | 00:00:00 | |
| PETON7-10 | 2026-09-05 03:38:42 | 47.02639 | 16.58879 | 114° | 51km/h | 15490m | -6.2m/s | -60.2°C | 7.8% | 0hPa | 2.5V | 00:00:00 | 00:00:00 | 00:00:00 | |
| PG1ADW-2 | 2026-09-05 03:38:37 | 47.02663 | 16.58803 | 115° | 55km/h | 15522m | -6.5m/s | -60.3°C | 8.0% | 0hPa | 2.5V | 00:00:00 | 00:00:00 | 00:00:00 | |
| OE5DRO-10 | 2026-09-05 03:38:36 | 47.02668 | 16.58787 | 115° | 55km/h | 15528m | -6.3m/s | -60.4°C | 8.0% | 0hPa | 2.5V | 00:00:00 | 00:00:00 | 00:00:00 | |
| OE3JTB-15 | 2026-09-05 03:38:29 | 47.02711 | 16.58664 | 116° | 62km/h | 15573m | -6.6m/s | -60.5°C | 8.0% | 0hPa | 2.5V | 00:00:00 | 01:52:02 | 00:00:00 | |
| PETON7-10 | 2026-09-05 03:38:26 | 47.02730 | 16.58611 | 119° | 60km/h | 15593m | -6.9m/s | -60.3°C | 7.8% | 0hPa | 2.5V | 00:00:00 | 01:51:59 | 00:00:00 | |
| OE5DXL-15 | 2026-09-05 03:38:19 | 47.02778 | 16.58486 | 123° | 68km/h | 15643m | -6.8m/s | -60.3°C | 7.7% | 0hPa | 2.5V | 00:00:00 | 00:00:00 | 00:00:00 | |
| PG1ADW-2 | 2026-09-05 03:38:17 | 47.02793 | 16.58449 | 123° | 68km/h | 15655m | -6.5m/s | -60.4°C | 7.8% | 0hPa | 2.5V | 00:00:00 | 01:51:50 | 00:00:00 | |
| PETON7-10 | 2026-09-05 03:38:11 | 47.02844 | 16.58326 | 121° | 69km/h | 15693m | -6.1m/s | -60.5°C | 7.7% | 0hPa | 2.5V | 08:17:00 | 00:00:00 | 00:00:00 | |
| OE3JTB-15 | 2026-09-05 03:38:00 | 47.02934 | 16.58070 | 112° | 66km/h | 15762m | -6.7m/s | -61.0°C | 7.9% | 0hPa | 2.6V | 08:17:00 | 00:00:00 | 00:00:00 | |
| OE5DRO-10 | 2026-09-05 03:37:58 | 47.02946 | 16.58023 | 109° | 68km/h | 15776m | -6.7m/s | -61.0°C | 8.0% | 0hPa | 2.5V | 00:00:00 | 00:00:00 | 00:00:00 | |
| PG1ADW-2 | 2026-09-05 03:37:57 | 47.02951 | 16.57999 | 109° | 68km/h | 15782m | -6.5m/s | -61.1°C | 8.0% | 0hPa | 2.5V | 00:00:00 | 00:00:00 | 00:00:00 | |
| PETON7-10 | 2026-09-05 03:37:56 | 47.02956 | 16.57976 | 109° | 68km/h | 15789m | -6.3m/s | -61.1°C | 8.0% | 0hPa | 2.5V | 00:00:00 | 00:00:00 | 00:00:00 | |
| OE5DXL-15 | 2026-09-05 03:37:49 | 47.02991 | 16.57807 | 108° | 58km/h | 15834m | -6.7m/s | -61.5°C | 8.1% | 0hPa | 2.5V | 00:00:00 | 00:00:00 | 00:00:00 | |
| PETON7-10 | 2026-09-05 03:37:41 | 47.03024 | 16.57615 | 101° | 57km/h | 15890m | -5.9m/s | -61.7°C | 8.3% | 0hPa | 2.5V | 00:00:00 | 01:51:14 | 00:00:00 | |
| OE5DRO-10 | 2026-09-05 03:37:39 | 47.03030 | 16.57568 | 99° | 55km/h | 15902m | -5.9m/s | -61.8°C | 8.4% | 0hPa | 2.5V | 08:17:00 | 00:00:00 | 00:00:00 | |
| PG1ADW-2 | 2026-09-05 03:37:37 | 47.03034 | 16.57523 | 97° | 53km/h | 15914m | -6.1m/s | -61.7°C | 8.4% | 0hPa | 2.5V | 00:00:00 | 00:00:00 | 00:00:00 | |
| OE3JTB-15 | 2026-09-05 03:37:31 | 47.03048 | 16.57398 | 102° | 53km/h | 15951m | -6.6m/s | -61.1°C | 8.1% | 0hPa | 2.5V | 00:00:00 | 00:00:00 | 00:00:00 | |
| PETON7-10 | 2026-09-05 03:37:26 | 47.03064 | 16.57306 | 108° | 51km/h | 15983m | -6.6m/s | -61.1°C | 8.0% | 0hPa | 2.5V | 00:00:00 | 00:00:00 | 00:00:00 | |
| OE5DRO-10 | 2026-09-05 03:37:20 | 47.03090 | 16.57198 | 110° | 53km/h | 16022m | -6.5m/s | -61.3°C | 8.1% | 0hPa | 2.5V | 00:00:00 | 00:00:00 | 00:00:00 | |
| OE5DXL-15 | 2026-09-05 03:37:19 | 47.03094 | 16.57180 | 109° | 49km/h | 16029m | -6.7m/s | -61.3°C | 8.1% | 0hPa | 2.5V | 00:00:00 | 00:00:00 | 00:00:00 | |
| PG1ADW-2 | 2026-09-05 03:37:17 | 47.03102 | 16.57145 | 107° | 51km/h | 16042m | -6.7m/s | -61.3°C | 8.2% | 0hPa | 2.6V | 00:00:00 | 00:00:00 | 00:00:00 | |
| PETON7-10 | 2026-09-05 03:37:11 | 47.03121 | 16.57033 | 99° | 51km/h | 16082m | -6.8m/s | -61.0°C | 8.1% | 0hPa | 2.6V | 00:00:00 | 00:00:00 | 00:00:00 | |
| OE5WHR-10 | 2026-09-05 03:37:02 | 47.03131 | 16.56853 | 92° | 46km/h | 16141m | -6.4m/s | -60.4°C | 7.7% | 0hPa | 2.6V | 00:00:00 | 01:50:35 | 00:00:00 | |
| OE5DRO-10 | 2026-09-05 03:37:01 | 47.03132 | 16.56835 | 95° | 42km/h | 16147m | -6.2m/s | -60.4°C | 7.7% | 0hPa | 2.6V | 00:00:00 | 00:00:00 | 00:00:00 | |
| PG1ADW-2 | 2026-09-05 03:36:57 | 47.03134 | 16.56768 | 95° | 42km/h | 16171m | -6.7m/s | -60.2°C | 7.5% | 0hPa | 2.6V | 08:18:00 | 01:50:30 | 00:00:00 | |
| PETON7-10 | 2026-09-05 03:36:56 | 47.03135 | 16.56752 | 93° | 40km/h | 16178m | -6.6m/s | -60.2°C | 7.4% | 0hPa | 2.5V | 00:00:00 | 01:50:29 | 00:00:00 | |
| OE5DXL-15 | 2026-09-05 03:36:49 | 47.03140 | 16.56647 | 94° | 47km/h | 16224m | -6.3m/s | -60.1°C | 7.4% | 0hPa | 2.5V | 00:00:00 | 00:00:00 | 00:00:00 | |
| OE5DRO-10 | 2026-09-05 03:36:42 | 47.03151 | 16.56545 | 105° | 47km/h | 16267m | -6.3m/s | -60.3°C | 7.4% | 0hPa | 2.5V | 00:00:00 | 00:00:00 | 00:00:00 | |
| PETON7-10 | 2026-09-05 03:36:41 | 47.03154 | 16.56530 | 106° | 47km/h | 16273m | -6.0m/s | -60.3°C | 7.5% | 0hPa | 2.5V | 00:00:00 | 00:00:00 | 00:00:00 | |
| PG1ADW-2 | 2026-09-05 03:36:37 | 47.03168 | 16.56470 | 110° | 53km/h | 16297m | -6.3m/s | -60.4°C | 7.6% | 0hPa | 2.6V | 00:00:00 | 00:00:00 | 00:00:00 | |
| OE3JTB-15 | 2026-09-05 03:36:33 | 47.03185 | 16.56403 | 113° | 58km/h | 16322m | -5.8m/s | -60.6°C | 7.6% | 0hPa | 2.6V | 00:00:00 | 00:00:00 | 00:00:00 | |
| PETON7-10 | 2026-09-05 03:36:26 | 47.03215 | 16.56279 | 109° | 60km/h | 16364m | -5.7m/s | -60.9°C | 7.7% | 0hPa | 2.6V | 00:00:00 | 00:00:00 | 00:00:00 | |
| OE5DRO-10 | 2026-09-05 03:36:23 | 47.03228 | 16.56223 | 108° | 62km/h | 16382m | -5.7m/s | -61.0°C | 7.8% | 0hPa | 2.6V | 00:00:00 | 00:00:00 | 00:00:00 | |
| OE5WHR-10 | 2026-09-05 03:36:20 | 47.03241 | 16.56161 | 107° | 60km/h | 16399m | -5.9m/s | 0°C | 0% | 0hPa | 2.6V | 00:00:00 | 00:00:00 | 00:00:00 | |
| OE5DXL-15 | 2026-09-05 03:36:19 | 47.03245 | 16.56140 | 107° | 58km/h | 16405m | -6.0m/s | -61.1°C | 7.8% | 0hPa | 2.6V | 00:00:00 | 00:00:00 | 00:00:00 | |
| PG1ADW-2 | 2026-09-05 03:36:17 | 47.03253 | 16.56096 | 105° | 60km/h | 16417m | -5.9m/s | -61.1°C | 7.7% | 0hPa | 2.6V | 00:00:00 | 00:00:00 | 00:00:00 | |
| OE8JPQ-2 | 2026-09-05 03:36:14 | 47.03263 | 16.56026 | 99° | 58km/h | 16435m | -6.1m/s | -61.1°C | 7.8% | 0hPa | 2.6V | 08:19:00 | 00:00:00 | 00:00:00 | |
| PETON7-10 | 2026-09-05 03:36:11 | 47.03269 | 16.55954 | 96° | 58km/h | 16453m | -5.9m/s | -61.1°C | 7.8% | 0hPa | 2.6V | 00:00:00 | 01:49:44 | 00:00:00 | |
| OE5DRO-10 | 2026-09-05 03:36:04 | 47.03277 | 16.55799 | 95° | 57km/h | 16494m | -5.8m/s | -61.1°C | 7.8% | 0hPa | 2.6V | 00:00:00 | 00:00:00 | 00:00:00 | |
| OE3JTB-15 | 2026-09-05 03:36:02 | 47.03280 | 16.55758 | 98° | 57km/h | 16505m | -5.4m/s | -61.2°C | 7.8% | 0hPa | 2.6V | 00:00:00 | 00:00:00 | 00:00:00 | |
| OE5WHR-10 | 2026-09-05 03:35:58 | 47.03284 | 16.55677 | 96° | 57km/h | 16528m | -5.8m/s | 0°C | 0% | 0hPa | 2.6V | 00:00:00 | 01:49:31 | 00:00:00 | |
| PG1ADW-2 | 2026-09-05 03:35:57 | 47.03286 | 16.55656 | 96° | 57km/h | 16534m | -5.9m/s | -61.0°C | 7.7% | 0hPa | 2.6V | 00:00:00 | 00:00:00 | 00:00:00 | |
| PETON7-10 | 2026-09-05 03:35:56 | 47.03286 | 16.55636 | 95° | 57km/h | 16540m | -6.3m/s | -60.8°C | 7.5% | 0hPa | 2.6V | 08:19:00 | 00:00:00 | 00:00:00 | |
| OE5DXL-15 | 2026-09-05 03:35:49 | 47.03286 | 16.55492 | 88° | 60km/h | 16584m | -6.1m/s | -60.7°C | 7.3% | 0hPa | 2.5V | 08:19:00 | 00:00:00 | 00:00:00 | |
| OE5DRO-10 | 2026-09-05 03:35:45 | 47.03284 | 16.55407 | 88° | 60km/h | 16607m | -5.4m/s | -60.9°C | 7.3% | 0hPa | 2.6V | 00:00:00 | 00:00:00 | 00:00:00 | |
| OE5WHR-10 | 2026-09-05 03:35:37 | 47.03277 | 16.55235 | 87° | 62km/h | 16653m | -5.6m/s | 0°C | 0% | 0hPa | 2.5V | 08:20:00 | 00:00:00 | 00:00:00 | |
| OE3JTB-15 | 2026-09-05 03:35:33 | 47.03273 | 16.55147 | 84° | 60km/h | 16677m | -6.2m/s | -61.6°C | 7.4% | 0hPa | 2.5V | 00:00:00 | 01:49:06 | 00:00:00 | |
| PETON7-10 | 2026-09-05 03:35:26 | 47.03258 | 16.54988 | 78° | 62km/h | 16720m | -6.1m/s | -62.0°C | 7.6% | 0hPa | 2.5V | 00:00:00 | 01:48:59 | 00:00:00 | |
| OE5DXL-15 | 2026-09-05 03:35:19 | 47.03229 | 16.54829 | 69° | 57km/h | 16763m | -6.4m/s | -62.4°C | 7.7% | 0hPa | 2.5V | 00:00:00 | 00:00:00 | 00:00:00 | |
| PG1ADW-2 | 2026-09-05 03:35:17 | 47.03218 | 16.54787 | 69° | 55km/h | 16776m | -6.3m/s | -62.5°C | 7.8% | 0hPa | 2.5V | 00:00:00 | 00:00:00 | 00:00:00 | |
| OE5WHR-10 | 2026-09-05 03:35:15 | 47.03207 | 16.54746 | 71° | 55km/h | 16788m | -6.2m/s | 0°C | 0% | 0hPa | 2.5V | 00:00:00 | 00:00:00 | 00:00:00 | |
| PETON7-10 | 2026-09-05 03:35:11 | 47.03185 | 16.54663 | 67° | 53km/h | 16813m | -6.5m/s | -62.4°C | 7.8% | 0hPa | 2.5V | 00:00:00 | 00:00:00 | 00:00:00 | |
| OE5DRO-10 | 2026-09-05 03:35:07 | 47.03163 | 16.54585 | 68° | 55km/h | 16838m | -6.1m/s | -62.4°C | 7.7% | 0hPa | 2.5V | 00:00:00 | 00:00:00 | 00:00:00 | |
| OE3JTB-15 | 2026-09-05 03:35:04 | 47.03146 | 16.54531 | 68° | 60km/h | 16857m | -6.3m/s | -62.4°C | 7.6% | 0hPa | 2.5V | 00:00:00 | 00:00:00 | 00:00:00 | |
| PG1ADW-2 | 2026-09-05 03:34:57 | 47.03109 | 16.54413 | 69° | 64km/h | 16903m | -6.8m/s | -62.5°C | 7.8% | 0hPa | 2.6V | 00:00:00 | 00:00:00 | 00:00:00 | |
| PETON7-10 | 2026-09-05 03:34:56 | 47.03104 | 16.54395 | 69° | 64km/h | 16909m | -6.5m/s | -62.5°C | 7.8% | 0hPa | 2.6V | 00:00:00 | 00:00:00 | 00:00:00 | |
| OE5WHR-10 | 2026-09-05 03:34:49 | 47.03073 | 16.54242 | 72° | 64km/h | 16955m | -7.3m/s | 0°C | 0% | 0hPa | 2.6V | 00:00:00 | 01:48:22 | 00:00:00 | |
| OE8JPQ-2 | 2026-09-05 03:34:48 | 47.03068 | 16.54219 | 75° | 64km/h | 16962m | -7.0m/s | -61.7°C | 7.2% | 0hPa | 2.6V | 00:00:00 | 00:00:00 | 00:00:00 | |
| PETON7-10 | 2026-09-05 03:34:41 | 47.03032 | 16.54056 | 73° | 64km/h | 17010m | -6.4m/s | -61.5°C | 7.0% | 0hPa | 2.6V | 00:00:00 | 01:48:14 | 00:00:00 | |
| PG1ADW-2 | 2026-09-05 03:34:37 | 47.03008 | 16.53964 | 68° | 64km/h | 17035m | -6.7m/s | -61.4°C | 6.9% | 0hPa | 2.6V | 00:00:00 | 00:00:00 | 00:00:00 | |
| OE5DRO-10 | 2026-09-05 03:34:29 | 47.02960 | 16.53794 | 65° | 60km/h | 17087m | -7.4m/s | -61.4°C | 6.8% | 0hPa | 2.6V | 00:00:00 | 00:00:00 | 00:00:00 | |
| OE8JPQ-2 | 2026-09-05 03:34:28 | 47.02953 | 16.53773 | 66° | 62km/h | 17095m | -7.6m/s | -61.4°C | 6.8% | 0hPa | 2.6V | 00:00:00 | 01:48:01 | 00:00:00 | |
| PETON7-10 | 2026-09-05 03:34:26 | 47.02940 | 16.53728 | 69° | 60km/h | 17109m | -6.9m/s | -61.4°C | 7.0% | 0hPa | 2.6V | 00:00:00 | 00:00:00 | 00:00:00 | |
| OE5DXL-15 | 2026-09-05 03:34:19 | 47.02929 | 16.53558 | 96° | 38km/h | 17152m | -6.7m/s | -61.3°C | 7.1% | 0hPa | 2.5V | 00:00:00 | 00:00:00 | 00:00:00 | |
| PG1ADW-2 | 2026-09-05 03:34:17 | 47.02932 | 16.53515 | 97° | 40km/h | 17165m | -6.5m/s | -61.3°C | 7.2% | 0hPa | 2.6V | 00:00:00 | 01:47:50 | 00:00:00 | |
| PETON7-10 | 2026-09-05 03:34:11 | 47.02946 | 16.53401 | 104° | 35km/h | 17209m | -6.7m/s | -60.9°C | 7.0% | 0hPa | 2.6V | 00:00:00 | 00:00:00 | 00:00:00 | |
| OE5DRO-10 | 2026-09-05 03:34:10 | 47.02948 | 16.53386 | 99° | 33km/h | 17216m | -7.5m/s | -60.9°C | 7.1% | 0hPa | 2.6V | 00:00:00 | 00:00:00 | 00:00:00 | |
| OE8JPQ-2 | 2026-09-05 03:34:08 | 47.02950 | 16.53359 | 89° | 31km/h | 17230m | -6.9m/s | -60.9°C | 7.2% | 0hPa | 2.6V | 00:00:00 | 00:00:00 | 00:00:00 | |
| OE3JTB-15 | 2026-09-05 03:34:06 | 47.02950 | 16.53333 | 89° | 31km/h | 17244m | -6.3m/s | -60.7°C | 7.1% | 0hPa | 2.6V | 00:00:00 | 01:47:39 | 00:00:00 | |
| OE5WHR-10 | 2026-09-05 03:34:02 | 47.02951 | 16.53283 | 98° | 33km/h | 17269m | -6.1m/s | 0°C | 0% | 0hPa | 2.6V | 00:00:00 | 00:00:00 | 00:00:00 | |
| PG1ADW-2 | 2026-09-05 03:33:57 | 47.02955 | 16.53227 | 93° | 31km/h | 17300m | -6.4m/s | -59.2°C | 6.6% | 0hPa | 2.6V | 08:21:00 | 00:00:00 | 00:00:00 | |
| PETON7-10 | 2026-09-05 03:33:56 | 47.02956 | 16.53216 | 92° | 31km/h | 17307m | -6.5m/s | -59.2°C | 6.7% | 0hPa | 2.6V | 00:00:00 | 01:47:29 | 00:00:00 | |
| OE5DRO-10 | 2026-09-05 03:33:51 | 47.02958 | 16.53160 | 96° | 33km/h | 17339m | -6.4m/s | -58.2°C | 6.2% | 0hPa | 2.6V | 00:00:00 | 00:00:00 | 00:00:00 | |
| OE5DXL-15 | 2026-09-05 03:33:49 | 47.02958 | 16.53137 | 95° | 31km/h | 17351m | -7.0m/s | -57.6°C | 5.9% | 0hPa | 2.5V | 00:00:00 | 00:00:00 | 00:00:00 | |
| OE8JPQ-2 | 2026-09-05 03:33:48 | 47.02959 | 16.53126 | 98° | 31km/h | 17358m | -6.9m/s | -57.5°C | 5.8% | 0hPa | 2.5V | 00:00:00 | 00:00:00 | 00:00:00 | |
| PETON7-10 | 2026-09-05 03:33:41 | 47.02967 | 16.53047 | 99° | 33km/h | 17407m | -7.2m/s | -56.9°C | 5.6% | 0hPa | 2.5V | 08:21:00 | 00:00:00 | 00:00:00 | |
| PG1ADW-2 | 2026-09-05 03:33:37 | 47.02974 | 16.53003 | 109° | 31km/h | 17433m | -6.2m/s | -56.4°C | 5.4% | 0hPa | 2.6V | 00:00:00 | 00:00:00 | 00:00:00 | |
| OE5WHR-10 | 2026-09-05 03:33:34 | 47.02983 | 16.52966 | 112° | 22km/h | 17453m | -6.9m/s | 0°C | 0% | 0hPa | 2.6V | 00:00:00 | 01:47:07 | 00:00:00 | |
| OE5DRO-10 | 2026-09-05 03:33:32 | 47.02990 | 16.52940 | 110° | 27km/h | 17467m | -7.4m/s | -56.4°C | 5.3% | 0hPa | 2.6V | 00:00:00 | 00:00:00 | 00:00:00 | |
| PETON7-10 | 2026-09-05 03:33:26 | 47.03000 | 16.52880 | 67° | 26km/h | 17510m | -6.7m/s | -56.1°C | 5.3% | 0hPa | 2.6V | 00:00:00 | 00:00:00 | 00:00:00 | |
| OE5DXL-15 | 2026-09-05 03:33:19 | 47.02968 | 16.52825 | 41° | 31km/h | 17555m | -7.0m/s | -56.0°C | 5.1% | 0hPa | 2.6V | 00:00:00 | 00:00:00 | 00:00:00 | |
| PG1ADW-2 | 2026-09-05 03:33:17 | 47.02958 | 16.52812 | 41° | 26km/h | 17569m | -6.9m/s | -56.0°C | 5.2% | 0hPa | 2.6V | 00:00:00 | 00:00:00 | 00:00:00 | |
| OE5DRO-10 | 2026-09-05 03:33:13 | 47.02944 | 16.52788 | 53° | 29km/h | 17595m | -7.2m/s | -56.1°C | 5.1% | 0hPa | 2.6V | 00:00:00 | 00:00:00 | 00:00:00 | |
| PETON7-10 | 2026-09-05 03:33:11 | 47.02940 | 16.52777 | 59° | 29km/h | 17609m | -7.7m/s | -56.2°C | 5.1% | 0hPa | 2.6V | 00:00:00 | 01:46:44 | 00:00:00 | |
| OE5WHR-10 | 2026-09-05 03:33:09 | 47.02937 | 16.52765 | 72° | 31km/h | 17624m | -7.5m/s | 0°C | 0% | 0hPa | 2.6V | 00:00:00 | 00:00:00 | 00:00:00 | |
| OE3JTB-15 | 2026-09-05 03:33:08 | 47.02936 | 16.52758 | 84° | 38km/h | 17631m | -7.3m/s | -56.3°C | 5.1% | 0hPa | 2.6V | 00:00:00 | 00:00:00 | 00:00:00 | |
| OE3OSB-13 | 2026-09-05 03:33:06 | 47.02934 | 16.52733 | 86° | 24km/h | 17653m | -8.1m/s | -56.6°C | 1.9% | -1.0hPa | 2.6V | 00:00:00 | 00:00:00 | 00:00:00 | |
| OE8JPQ-2 | 2026-09-05 03:32:57 | 47.02927 | 16.52625 | 80° | 37km/h | 17710m | -6.8m/s | -57.0°C | 5.3% | 0hPa | 2.6V | 00:00:00 | 01:46:30 | 00:00:00 | |
| PETON7-10 | 2026-09-05 03:32:56 | 47.02925 | 16.52609 | 76° | 42km/h | 17717m | -6.9m/s | -57.0°C | 5.3% | 0hPa | 2.6V | 00:00:00 | 00:00:00 | 00:00:00 | |
| OE5DRO-10 | 2026-09-05 03:32:54 | 47.02918 | 16.52577 | 71° | 38km/h | 17731m | -7.0m/s | -57.1°C | 5.4% | 0hPa | 2.5V | 00:00:00 | 00:00:00 | 00:00:00 | |
| OE5DXL-15 | 2026-09-05 03:32:48 | 47.02884 | 16.52492 | 53° | 24km/h | 17775m | -7.0m/s | -57.4°C | 5.5% | 0hPa | 2.5V | 00:00:00 | 00:00:00 | 00:00:00 | |
| PETON7-10 | 2026-09-05 03:32:41 | 47.02835 | 16.52427 | 35° | 22km/h | 17827m | -7.2m/s | -57.6°C | 5.5% | 0hPa | 2.6V | 00:00:00 | 00:00:00 | 00:00:00 | |
| OE3JTB-15 | 2026-09-05 03:32:39 | 47.02821 | 16.52414 | 30° | 24km/h | 17841m | -7.7m/s | -57.6°C | 5.5% | 0hPa | 2.6V | 00:00:00 | 01:46:12 | 00:00:00 | |
| PG1ADW-2 | 2026-09-05 03:32:37 | 47.02807 | 16.52404 | 20° | 18km/h | 17856m | -8.1m/s | -57.6°C | 5.5% | 0hPa | 2.6V | 00:00:00 | 00:00:00 | 00:00:00 | |
| OE5DRO-10 | 2026-09-05 03:32:35 | 47.02795 | 16.52397 | 17° | 18km/h | 17871m | -7.4m/s | -57.7°C | 5.4% | 0hPa | 2.6V | 00:00:00 | 00:00:00 | 00:00:00 | |
| OE8JPQ-2 | 2026-09-05 03:32:34 | 47.02789 | 16.52395 | 13° | 20km/h | 17879m | -7.5m/s | -57.8°C | 5.5% | 0hPa | 2.6V | 00:00:00 | 00:00:00 | 00:00:00 | |
| PETON7-10 | 2026-09-05 03:32:26 | 47.02767 | 16.52380 | 72° | 26km/h | 17937m | -7.6m/s | -57.7°C | 5.4% | 0hPa | 2.5V | 00:00:00 | 01:45:59 | 00:00:00 | |
| OE5DXL-15 | 2026-09-05 03:32:18 | 47.02766 | 16.52323 | 85° | 35km/h | 17995m | -7.4m/s | -58.1°C | 5.5% | 0hPa | 2.5V | 00:00:00 | 00:00:00 | 00:00:00 | |
| PG1ADW-2 | 2026-09-05 03:32:17 | 47.02766 | 16.52313 | 88° | 38km/h | 18002m | -7.4m/s | -58.2°C | 5.6% | 0hPa | 2.5V | 00:00:00 | 00:00:00 | 00:00:00 | |
| OE5DRO-10 | 2026-09-05 03:32:16 | 47.02765 | 16.52302 | 81° | 40km/h | 18010m | -7.3m/s | -58.3°C | 5.7% | 0hPa | 2.5V | 00:00:00 | 00:00:00 | 00:00:00 | |
| OE8JPQ-2 | 2026-09-05 03:32:14 | 47.02761 | 16.52277 | 74° | 33km/h | 18024m | -7.5m/s | -58.4°C | 5.8% | 0hPa | 2.5V | 00:00:00 | 00:00:00 | 00:00:00 | |
| PETON7-10 | 2026-09-05 03:32:11 | 47.02752 | 16.52237 | 69° | 40km/h | 18046m | -7.2m/s | -58.4°C | 5.8% | 0hPa | 2.5V | 00:00:00 | 00:00:00 | 00:00:00 | |
| OE3JTB-15 | 2026-09-05 03:32:10 | 47.02748 | 16.52223 | 65° | 33km/h | 18054m | -7.5m/s | -58.3°C | 5.7% | 0hPa | 2.6V | 00:00:00 | 00:00:00 | 00:00:00 | |
| OE3OSB-13 | 2026-09-05 03:32:04 | 47.02706 | 16.52133 | 46° | 44km/h | 18109m | -7.7m/s | -58.7°C | 2.1% | -1.0hPa | 2.6V | 00:00:00 | 00:00:00 | 00:00:00 | |
| PG1ADW-2 | 2026-09-05 03:31:57 | 47.02660 | 16.52087 | 25° | 27km/h | 18153m | -6.8m/s | -58.8°C | 6.2% | 0hPa | 2.6V | 00:00:00 | 00:00:00 | 00:00:00 | |
| PETON7-10 | 2026-09-05 03:31:56 | 47.02655 | 16.52083 | 29° | 26km/h | 18160m | -7.0m/s | -58.8°C | 6.1% | 0hPa | 2.5V | 00:00:00 | 00:00:00 | 00:00:00 | |
| OE8JPQ-2 | 2026-09-05 03:31:50 | 47.02625 | 16.52054 | 42° | 37km/h | 18204m | -7.1m/s | -58.1°C | 5.8% | 0hPa | 2.5V | 00:00:00 | 01:45:23 | 00:00:00 | |
| OE5DXL-15 | 2026-09-05 03:31:48 | 47.02619 | 16.52042 | 60° | 47km/h | 18218m | -6.7m/s | -58.1°C | 5.9% | 0hPa | 2.5V | 00:00:00 | 00:00:00 | 00:00:00 | |
| PETON7-10 | 2026-09-05 03:31:41 | 47.02606 | 16.51969 | 80° | 49km/h | 18266m | -7.5m/s | -57.6°C | 5.6% | 0hPa | 2.5V | 00:00:00 | 01:45:14 | 00:00:00 | |
| OE5DRO-10 | 2026-09-05 03:31:38 | 47.02602 | 16.51927 | 85° | 55km/h | 18288m | -7.5m/s | -57.4°C | 5.5% | 0hPa | 2.5V | 00:00:00 | 00:00:00 | 00:00:00 | |
| PG1ADW-2 | 2026-09-05 03:31:37 | 47.02601 | 16.51911 | 81° | 55km/h | 18296m | -7.9m/s | -57.3°C | 5.5% | 0hPa | 2.5V | 00:00:00 | 01:45:10 | 00:00:00 | |
| OE8JPQ-2 | 2026-09-05 03:31:30 | 47.02579 | 16.51779 | 68° | 51km/h | 18345m | -7.2m/s | -57.2°C | 5.5% | 0hPa | 2.5V | 08:24:00 | 00:00:00 | 00:00:00 | |
| OE5MMP-10 | 2026-09-05 03:31:28 | 47.02568 | 16.51739 | 65° | 55km/h | 18359m | -7.1m/s | -57.3°C | 5.5% | 0hPa | 2.6V | 08:24:00 | 01:45:01 | 00:00:00 | |
| PETON7-10 | 2026-09-05 03:31:26 | 47.02555 | 16.51700 | 63° | 49km/h | 18374m | -7.5m/s | -57.2°C | 5.4% | 0hPa | 2.5V | 08:24:00 | 00:00:00 | 00:00:00 | |
| OE5DRO-10 | 2026-09-05 03:31:19 | 47.02515 | 16.51566 | 80° | 31km/h | 18428m | -7.0m/s | -57.2°C | 5.4% | 0hPa | 2.5V | 00:00:00 | 00:00:00 | 00:00:00 | |
| OE5DXL-15 | 2026-09-05 03:31:18 | 47.02512 | 16.51547 | 80° | 37km/h | 18436m | -8.4m/s | -57.2°C | 5.5% | 0hPa | 2.5V | 08:24:00 | 00:00:00 | 00:00:00 | |
| PG1ADW-2 | 2026-09-05 03:31:17 | 47.02511 | 16.51529 | 87° | 31km/h | 18443m | -6.5m/s | -57.2°C | 5.5% | 0hPa | 2.5V | 00:00:00 | 00:00:00 | 00:00:00 | |
| PETON7-10 | 2026-09-05 03:31:11 | 47.02512 | 16.51443 | 94° | 27km/h | 18487m | -7.1m/s | -56.8°C | 5.3% | 0hPa | 2.5V | 00:00:00 | 00:00:00 | 00:00:00 | |
| OE8JPQ-2 | 2026-09-05 03:31:10 | 47.02512 | 16.51433 | 96° | 35km/h | 18495m | -7.7m/s | -56.9°C | 5.3% | 0hPa | 2.5V | 00:00:00 | 00:00:00 | 00:00:00 | |
| PG1ADW-2 | 2026-09-05 03:30:57 | 47.02549 | 16.51319 | 117° | 47km/h | 18593m | -7.0m/s | -57.4°C | 5.6% | 0hPa | 2.5V | 08:24:00 | 00:00:00 | 00:00:00 | |
| PETON7-10 | 2026-09-05 03:30:56 | 47.02554 | 16.51305 | 116° | 49km/h | 18600m | -7.3m/s | -57.4°C | 5.6% | 0hPa | 2.5V | 00:00:00 | 01:44:29 | 00:00:00 | |
| OE8JPQ-2 | 2026-09-05 03:30:50 | 47.02575 | 16.51205 | 101° | 44km/h | 18644m | -8.1m/s | -57.2°C | 5.4% | 0hPa | 2.5V | 00:00:00 | 01:44:23 | 00:00:00 | |
| OE5DXL-15 | 2026-09-05 03:30:48 | 47.02579 | 16.51168 | 99° | 35km/h | 18660m | -7.6m/s | -57.2°C | 5.4% | 0hPa | 2.5V | 00:00:00 | 00:00:00 | 00:00:00 | |
| OE3JTB-15 | 2026-09-05 03:30:43 | 47.02579 | 16.51073 | 84° | 29km/h | 18700m | -7.2m/s | -57.0°C | 5.4% | 0hPa | 2.5V | 00:00:00 | 00:00:00 | 00:00:00 | |
| PETON7-10 | 2026-09-05 03:30:41 | 47.02574 | 16.51036 | 78° | 37km/h | 18716m | -7.6m/s | -57.1°C | 5.4% | 0hPa | 2.6V | 00:00:00 | 00:00:00 | 00:00:00 | |
| PG1ADW-2 | 2026-09-05 03:30:37 | 47.02562 | 16.50975 | 74° | 27km/h | 18747m | -7.0m/s | -56.9°C | 5.3% | 0hPa | 2.6V | 00:00:00 | 00:00:00 | 00:00:00 | |
| OE8JPQ-2 | 2026-09-05 03:30:30 | 47.02543 | 16.50892 | 71° | 22km/h | 18802m | -8.3m/s | -57.1°C | 5.4% | 0hPa | 2.6V | 00:00:00 | 00:00:00 | 00:00:00 | |
| PETON7-10 | 2026-09-05 03:30:26 | 47.02536 | 16.50852 | 85° | 20km/h | 18832m | -7.4m/s | -57.2°C | 5.5% | 0hPa | 2.5V | 00:00:00 | 00:00:00 | 00:00:00 | |
| OE5DRO-10 | 2026-09-05 03:30:22 | 47.02535 | 16.50821 | 98° | 27km/h | 18862m | -7.7m/s | -57.0°C | 5.4% | 0hPa | 2.5V | 00:00:00 | 00:00:00 | 00:00:00 | |
| OE5MMP-10 | 2026-09-05 03:30:19 | 47.02539 | 16.50801 | 114° | 20km/h | 18884m | -8.0m/s | -57.1°C | 5.4% | 0hPa | 2.5V | 00:00:00 | 01:43:52 | 00:00:00 | |
| OE5DXL-15 | 2026-09-05 03:30:18 | 47.02542 | 16.50795 | 121° | 35km/h | 18893m | -8.1m/s | -57.2°C | 5.5% | 0hPa | 2.5V | 00:00:00 | 00:00:00 | 00:00:00 | |
| PG1ADW-2 | 2026-09-05 03:30:17 | 47.02544 | 16.50789 | 118° | 37km/h | 18901m | -8.9m/s | -57.3°C | 5.5% | 0hPa | 2.5V | 00:00:00 | 01:43:50 | 00:00:00 | |
| OE3JTB-15 | 2026-09-05 03:30:14 | 47.02552 | 16.50773 | 135° | 35km/h | 18926m | -8.3m/s | -57.5°C | 5.7% | 0hPa | 2.5V | 00:00:00 | 00:00:00 | 00:00:00 | |
| PETON7-10 | 2026-09-05 03:30:11 | 47.02566 | 16.50753 | 137° | 42km/h | 18949m | -8.1m/s | -57.6°C | 5.9% | 0hPa | 2.5V | 00:00:00 | 01:43:44 | 00:00:00 | |
| OE8JPQ-2 | 2026-09-05 03:30:10 | 47.02571 | 16.50745 | 135° | 40km/h | 18956m | -7.4m/s | -57.6°C | 5.9% | 0hPa | 2.5V | 00:00:00 | 00:00:00 | 00:00:00 | |
| OE5MMP-10 | 2026-09-05 03:30:09 | 47.02577 | 16.50736 | 136° | 35km/h | 18964m | -7.6m/s | -57.6°C | 5.9% | 0hPa | 2.5V | 00:00:00 | 01:43:42 | 00:00:00 | |
| PG1ADW-2 | 2026-09-05 03:29:57 | 47.02617 | 16.50552 | 79° | 26km/h | 19060m | -8.3m/s | -55.9°C | 5.2% | 0hPa | 2.5V | 00:00:00 | 00:00:00 | 00:00:00 | |
| PETON7-10 | 2026-09-05 03:29:56 | 47.02615 | 16.50537 | 80° | 26km/h | 19069m | -7.3m/s | -55.9°C | 5.2% | 0hPa | 2.5V | 00:00:00 | 00:00:00 | 00:00:00 | |
| OE8JPQ-2 | 2026-09-05 03:29:50 | 47.02603 | 16.50466 | 84° | 26km/h | 19116m | -7.3m/s | -55.9°C | 5.3% | 0hPa | 2.5V | 00:00:00 | 01:43:23 | 00:00:00 | |
| OE5DXL-15 | 2026-09-05 03:29:48 | 47.02601 | 16.50450 | 90° | 31km/h | 19132m | -7.3m/s | -55.7°C | 5.2% | 0hPa | 2.5V | 00:00:00 | 00:00:00 | 00:00:00 | |
| OE3JTB-15 | 2026-09-05 03:29:45 | 47.02603 | 16.50431 | 114° | 40km/h | 19155m | -7.9m/s | -55.6°C | 5.1% | 0hPa | 2.6V | 00:00:00 | 01:43:18 | 00:00:00 | |
| OE5DRO-10 | 2026-09-05 03:29:44 | 47.02605 | 16.50426 | 118° | 31km/h | 19162m | -7.7m/s | -55.5°C | 5.1% | 0hPa | 2.6V | 00:00:00 | 00:00:00 | 00:00:00 | |
| PETON7-10 | 2026-09-05 03:29:41 | 47.02614 | 16.50410 | 142° | 33km/h | 19185m | -7.9m/s | -55.4°C | 5.0% | 0hPa | 2.6V | 00:00:00 | 00:00:00 | 00:00:00 | |
| PG1ADW-2 | 2026-09-05 03:29:37 | 47.02635 | 16.50388 | 147° | 38km/h | 19217m | -7.7m/s | -55.5°C | 5.0% | 0hPa | 2.6V | 00:00:00 | 00:00:00 | 00:00:00 | |
| OE5MMP-10 | 2026-09-05 03:29:32 | 47.02670 | 16.50355 | 150° | 38km/h | 19255m | -7.5m/s | -55.7°C | 5.2% | 0hPa | 2.6V | 00:00:00 | 01:43:05 | 00:00:00 | |
| OE8JPQ-2 | 2026-09-05 03:29:30 | 47.02686 | 16.50342 | 149° | 42km/h | 19271m | -7.7m/s | -55.8°C | 5.2% | 0hPa | 2.5V | 00:00:00 | 00:00:00 | 00:00:00 | |
| PETON7-10 | 2026-09-05 03:29:26 | 47.02721 | 16.50312 | 153° | 42km/h | 19302m | -8.5m/s | -55.8°C | 5.2% | 0hPa | 2.5V | 00:00:00 | 01:42:59 | 00:00:00 | |
| OE5DRO-10 | 2026-09-05 03:29:25 | 47.02730 | 16.50305 | 151° | 46km/h | 19311m | -8.0m/s | -55.7°C | 5.2% | 0hPa | 2.5V | 00:00:00 | 00:00:00 | 00:00:00 | |
| OE5MMP-10 | 2026-09-05 03:29:22 | 47.02757 | 16.50286 | 157° | 35km/h | 19335m | -8.0m/s | -55.7°C | 5.1% | 0hPa | 2.5V | 00:00:00 | 01:42:55 | 00:00:00 | |
| OE5DXL-15 | 2026-09-05 03:29:18 | 47.02795 | 16.50266 | 167° | 44km/h | 19367m | -8.5m/s | -55.8°C | 5.2% | 0hPa | 2.5V | 00:00:00 | 00:00:00 | 00:00:00 | |
| PG1ADW-2 | 2026-09-05 03:29:17 | 47.02805 | 16.50262 | 168° | 47km/h | 19375m | -8.8m/s | -55.8°C | 5.2% | 0hPa | 2.5V | 00:00:00 | 00:00:00 | 00:00:00 | |
| PETON7-10 | 2026-09-05 03:29:11 | 47.02873 | 16.50227 | 152° | 47km/h | 19422m | -7.4m/s | -55.7°C | 5.2% | 0hPa | 2.5V | 08:26:00 | 00:00:00 | 00:00:00 | |
| OE8JPQ-2 | 2026-09-05 03:29:10 | 47.02884 | 16.50217 | 144° | 46km/h | 19429m | -7.2m/s | -55.6°C | 5.2% | 0hPa | 2.5V | 00:00:00 | 00:00:00 | 00:00:00 | |
| OE5DRO-10 | 2026-09-05 03:29:06 | 47.02921 | 16.50169 | 133° | 40km/h | 19458m | -8.5m/s | -55.4°C | 5.0% | 0hPa | 2.5V | 08:26:00 | 00:00:00 | 00:00:00 | |
| PG1ADW-2 | 2026-09-05 03:28:57 | 47.03003 | 16.50075 | 163° | 26km/h | 19531m | -7.8m/s | -55.3°C | 4.9% | 0hPa | 2.6V | 00:00:00 | 01:42:30 | 00:00:00 | |
| OE8JPQ-2 | 2026-09-05 03:28:50 | 47.03069 | 16.50078 | 209° | 22km/h | 19587m | -8.3m/s | -55.7°C | 5.0% | 0hPa | 2.5V | 00:00:00 | 01:42:23 | 00:00:00 | |
| OE5DXL-15 | 2026-09-05 03:28:48 | 47.03080 | 16.50087 | 215° | 20km/h | 19603m | -8.7m/s | -55.8°C | 5.0% | 0hPa | 2.5V | 00:00:00 | 00:00:00 | 00:00:00 | |
| OE5MMP-10 | 2026-09-05 03:28:47 | 47.03084 | 16.50092 | 223° | 15km/h | 19612m | -9.3m/s | -55.9°C | 5.1% | 0hPa | 2.5V | 00:00:00 | 01:42:20 | 00:00:00 | |
| PETON7-10 | 2026-09-05 03:28:41 | 47.03090 | 16.50095 | 114° | 29km/h | 19663m | -7.1m/s | -56.2°C | 5.3% | 0hPa | 2.5V | 00:00:00 | 01:42:14 | 00:00:00 | |
| PG1ADW-2 | 2026-09-05 03:28:37 | 47.03107 | 16.50060 | 134° | 22km/h | 19692m | -8.4m/s | -56.1°C | 5.3% | 0hPa | 2.5V | 00:00:00 | 00:00:00 | 00:00:00 | |
| OE5DRO-10 | 2026-09-05 03:28:28 | 47.03131 | 16.49970 | 88° | 13km/h | 19766m | -7.5m/s | -56.0°C | 5.2% | 0hPa | 2.5V | 00:00:00 | 00:00:00 | 00:00:00 | |
| OE8JPQ-2 | 2026-09-05 03:28:27 | 47.03130 | 16.49962 | 81° | 13km/h | 19774m | -8.0m/s | -55.9°C | 5.1% | 0hPa | 2.5V | 08:27:00 | 00:00:00 | 00:00:00 | |
| PETON7-10 | 2026-09-05 03:28:26 | 47.03129 | 16.49954 | 73° | 11km/h | 19782m | -7.8m/s | -55.9°C | 5.1% | 0hPa | 2.5V | 00:00:00 | 00:00:00 | 00:00:00 | |
| OE5MMP-10 | 2026-09-05 03:28:25 | 47.03128 | 16.49947 | 77° | 11km/h | 19789m | -7.4m/s | -56.0°C | 5.1% | 0hPa | 2.5V | 00:00:00 | 01:41:58 | 00:00:00 | |
| OE5DXL-15 | 2026-09-05 03:28:18 | 47.03115 | 16.49930 | 349° | 24km/h | 19846m | -8.8m/s | -55.9°C | 5.1% | 0hPa | 2.5V | 00:00:00 | 00:00:00 | 00:00:00 | |
| PG1ADW-2 | 2026-09-05 03:28:17 | 47.03113 | 16.49930 | 356° | 20km/h | 19855m | -7.9m/s | -55.8°C | 5.1% | 0hPa | 2.5V | 00:00:00 | 00:00:00 | 00:00:00 | |
| OE5MMP-10 | 2026-09-05 03:28:15 | 47.03110 | 16.49934 | 311° | 16km/h | 19871m | -8.8m/s | -55.8°C | 5.0% | 0hPa | 2.5V | 00:00:00 | 01:41:48 | 00:00:00 | |
| PETON7-10 | 2026-09-05 03:28:11 | 47.03108 | 16.49951 | 258° | 26km/h | 19904m | -7.9m/s | -55.9°C | 5.2% | 0hPa | 2.5V | 00:00:00 | 00:00:00 | 00:00:00 | |
| OE5DRO-10 | 2026-09-05 03:28:09 | 47.03111 | 16.49962 | 246° | 29km/h | 19919m | -8.3m/s | -56.1°C | 5.2% | 0hPa | 2.5V | 00:00:00 | 00:00:00 | 00:00:00 | |
| OE8JPQ-2 | 2026-09-05 03:28:07 | 47.03117 | 16.49975 | 227° | 31km/h | 19935m | -8.1m/s | -56.2°C | 5.3% | 0hPa | 2.6V | 00:00:00 | 00:00:00 | 00:00:00 | |
| OE5MMP-10 | 2026-09-05 03:28:05 | 47.03126 | 16.49986 | 210° | 29km/h | 19952m | -7.9m/s | -56.3°C | 5.4% | 0hPa | 2.6V | 08:27:00 | 01:41:38 | 00:00:00 | |
| NBG1-10 | 2026-09-05 03:27:57 | 47.03182 | 16.49987 | 154° | 29km/h | 20013m | -7.9m/s | -56.0°C | 5.3% | 0hPa | 2.5V | 00:00:00 | 01:41:30 | 00:00:00 | |
| PETON7-10 | 2026-09-05 03:27:56 | 47.03189 | 16.49982 | 151° | 35km/h | 20021m | -7.7m/s | -56.0°C | 5.2% | 0hPa | 2.5V | 00:00:00 | 01:41:29 | 00:00:00 | |
| OE5MMP-10 | 2026-09-05 03:27:55 | 47.03196 | 16.49976 | 149° | 35km/h | 20029m | -8.2m/s | -56.0°C | 5.3% | 0hPa | 2.5V | 00:00:00 | 01:41:28 | 00:00:00 | |
| OE5DRO-10 | 2026-09-05 03:27:50 | 47.03227 | 16.49934 | 128° | 31km/h | 20071m | -8.7m/s | -55.8°C | 5.1% | 0hPa | 2.5V | 00:00:00 | 00:00:00 | 00:00:00 | |
| OE5DXL-15 | 2026-09-05 03:27:48 | 47.03238 | 16.49912 | 127° | 24km/h | 20087m | -8.3m/s | -55.7°C | 5.1% | 0hPa | 2.5V | 00:00:00 | 00:00:00 | 00:00:00 | |
| OE8JPQ-2 | 2026-09-05 03:27:47 | 47.03243 | 16.49901 | 122° | 16km/h | 20095m | -8.7m/s | -55.7°C | 5.0% | 0hPa | 2.5V | 00:00:00 | 01:41:20 | 00:00:00 | |
| OE5MMP-10 | 2026-09-05 03:27:45 | 47.03251 | 16.49877 | 114° | 33km/h | 20113m | -7.9m/s | -55.7°C | 5.0% | 0hPa | 2.5V | 00:00:00 | 01:41:18 | 00:00:00 | |
| PETON7-10 | 2026-09-05 03:27:41 | 47.03261 | 16.49826 | 101° | 20km/h | 20144m | -7.5m/s | -55.6°C | 5.0% | 0hPa | 2.5V | 00:00:00 | 00:00:00 | 00:00:00 | |
| PG1ADW-2 | 2026-09-05 03:27:37 | 47.03262 | 16.49782 | 86° | 16km/h | 20176m | -8.6m/s | -55.8°C | 5.2% | 0hPa | 2.5V | 00:00:00 | 01:41:10 | 00:00:00 | |
| OE5MMP-10 | 2026-09-05 03:27:35 | 47.03262 | 16.49763 | 89° | 15km/h | 20193m | -7.6m/s | -55.8°C | 5.2% | 0hPa | 2.5V | 00:00:00 | 01:41:08 | 00:00:00 | |
| OE5DRO-10 | 2026-09-05 03:27:31 | 47.03258 | 16.49733 | 83° | 11km/h | 20227m | -8.7m/s | -55.9°C | 5.3% | 0hPa | 2.7V | 00:00:00 | 00:00:00 | 00:00:00 | |
| PETON7-10 | 2026-09-05 03:27:26 | 47.03259 | 16.49719 | 209° | 13km/h | 20269m | -7.9m/s | -55.9°C | 5.4% | 0hPa | 2.7V | 00:00:00 | 00:00:00 | 00:00:00 | |
| NBG1-10 | 2026-09-05 03:27:24 | 47.03264 | 16.49725 | 222° | 16km/h | 20285m | -8.8m/s | -55.9°C | 5.3% | 0hPa | 2.7V | 00:00:00 | 01:40:57 | 00:00:00 | |
| OE5DXL-15 | 2026-09-05 03:27:18 | 47.03280 | 16.49747 | 237° | 16km/h | 20337m | -8.2m/s | -55.4°C | 5.1% | 0hPa | 2.5V | 00:00:00 | 00:00:00 | 00:00:00 | |
| PG1ADW-2 | 2026-09-05 03:27:17 | 47.03280 | 16.49748 | 286° | 15km/h | 20345m | -8.4m/s | -55.4°C | 5.1% | 0hPa | 2.5V | 00:00:00 | 00:00:00 | 00:00:00 | |
| OE5MMP-10 | 2026-09-05 03:27:15 | 47.03278 | 16.49749 | 14° | 15km/h | 20362m | -8.6m/s | -55.4°C | 5.1% | 0hPa | 2.5V | 00:00:00 | 01:40:48 | 00:00:00 | |
| OE5DRO-10 | 2026-09-05 03:27:12 | 47.03270 | 16.49745 | 37° | 18km/h | 20392m | -9.5m/s | -55.1°C | 5.0% | 0hPa | 2.5V | 00:00:00 | 00:00:00 | 00:00:00 | |
| PETON7-10 | 2026-09-05 03:27:11 | 47.03267 | 16.49741 | 45° | 16km/h | 20401m | -7.7m/s | -54.9°C | 4.9% | 0hPa | 2.7V | 00:00:00 | 01:40:44 | 00:00:00 | |
| OE8JPQ-2 | 2026-09-05 03:27:05 | 47.03266 | 16.49712 | 153° | 22km/h | 20451m | -8.8m/s | -54.9°C | 4.8% | 0hPa | 2.7V | 00:00:00 | 00:00:00 | 00:00:00 | |
| PG1ADW-2 | 2026-09-05 03:26:57 | 47.03289 | 16.49729 | 272° | 24km/h | 20522m | -8.9m/s | -55.2°C | 4.8% | 0hPa | 2.7V | 00:00:00 | 00:00:00 | 00:00:00 | |
| PETON7-10 | 2026-09-05 03:26:56 | 47.03289 | 16.49736 | 278° | 24km/h | 20530m | -8.5m/s | -55.3°C | 4.8% | 0hPa | 2.7V | 08:28:00 | 00:00:00 | 00:00:00 | |
| OE5MMP-10 | 2026-09-05 03:26:55 | 47.03288 | 16.49744 | 288° | 26km/h | 20538m | -8.4m/s | -55.4°C | 4.9% | 0hPa | 2.5V | 00:00:00 | 01:40:28 | 00:00:00 | |
| OE5DRO-10 | 2026-09-05 03:26:53 | 47.03282 | 16.49759 | 305° | 26km/h | 20554m | -8.1m/s | 0°C | 0% | 0hPa | 2.5V | 00:00:00 | 00:00:00 | 00:00:00 | |
| OE5DXL-15 | 2026-09-05 03:26:48 | 47.03256 | 16.49782 | 345° | 31km/h | 20597m | -10.0m/s | -55.8°C | 5.0% | 0hPa | 2.5V | 08:28:00 | 00:00:00 | 00:00:00 | |
| OE5MMP-10 | 2026-09-05 03:26:45 | 47.03236 | 16.49789 | 344° | 26km/h | 20623m | -9.7m/s | -56.0°C | 5.0% | 0hPa | 2.5V | 00:00:00 | 01:40:18 | 00:00:00 | |
| OE8JPQ-2 | 2026-09-05 03:26:44 | 47.03231 | 16.49792 | 344° | 33km/h | 20631m | -7.8m/s | -56.0°C | 5.1% | 0hPa | 2.5V | 00:00:00 | 01:40:17 | 00:00:00 | |
| PETON7-10 | 2026-09-05 03:26:41 | 47.03217 | 16.49804 | 315° | 35km/h | 20655m | -8.0m/s | -56.2°C | 5.1% | 0hPa | 2.5V | 00:00:00 | 00:00:00 | 00:00:00 | |
| PG1ADW-2 | 2026-09-05 03:26:37 | 47.03195 | 16.49820 | 347° | 35km/h | 20690m | -9.2m/s | -56.4°C | 5.2% | 0hPa | 2.5V | 00:00:00 | 00:00:00 | 00:00:00 | |
| OE5MMP-10 | 2026-09-05 03:26:35 | 47.03179 | 16.49821 | 8° | 38km/h | 20707m | -8.7m/s | -56.5°C | 5.2% | 0hPa | 2.5V | 08:29:00 | 01:40:08 | 00:00:00 | |
| OE5DRO-10 | 2026-09-05 03:26:34 | 47.03170 | 16.49819 | 11° | 35km/h | 20715m | -9.2m/s | -56.5°C | 5.3% | 0hPa | 2.5V | 00:00:00 | 00:00:00 | 00:00:00 | |
| PETON7-10 | 2026-09-05 03:26:26 | 47.03107 | 16.49752 | 65° | 26km/h | 20788m | -8.8m/s | -56.8°C | 5.5% | 0hPa | 2.5V | 00:00:00 | 01:39:59 | 00:00:00 | |
| OE5MMP-10 | 2026-09-05 03:26:25 | 47.03104 | 16.49740 | 81° | 29km/h | 20798m | -9.9m/s | -56.8°C | 5.5% | 0hPa | 2.5V | 00:00:00 | 01:39:58 | 00:00:00 | |
| OE8JPQ-2 | 2026-09-05 03:26:24 | 47.03103 | 16.49727 | 93° | 24km/h | 20808m | -9.9m/s | -56.8°C | 5.5% | 0hPa | 2.5V | 00:00:00 | 00:00:00 | 00:00:00 | |
| DB0NH | 2026-09-05 03:26:22 | 47.03106 | 16.49703 | 107° | 24km/h | 20827m | -9.9m/s | 0°C | 0% | 0hPa | 2.7V | 00:00:00 | 01:39:55 | 00:00:00 | |
| OE3JTB-15 | 2026-09-05 03:26:19 | 47.03116 | 16.49674 | 130° | 26km/h | 20855m | -9.2m/s | -56.7°C | 5.5% | 0hPa | 2.7V | 00:00:00 | 01:39:52 | 00:00:00 | |
| NBG1-10 | 2026-09-05 03:26:18 | 47.03120 | 16.49667 | 140° | 29km/h | 20864m | -8.5m/s | 0°C | 0% | 0hPa | 2.7V | 00:00:00 | 01:39:51 | 00:00:00 | |
| PG1ADW-2 | 2026-09-05 03:26:17 | 47.03125 | 16.49662 | 152° | 24km/h | 20873m | -8.7m/s | -56.6°C | 5.5% | 0hPa | 2.7V | 00:00:00 | 01:39:50 | 00:00:00 | |
| OE5DRO-10 | 2026-09-05 03:26:15 | 47.03134 | 16.49657 | 178° | 24km/h | 20890m | -9.3m/s | -56.5°C | 5.4% | 0hPa | 2.7V | 08:29:00 | 00:00:00 | 00:00:00 | |
| PETON7-10 | 2026-09-05 03:26:11 | 47.03142 | 16.49663 | 346° | 27km/h | 20928m | -8.8m/s | -56.4°C | 5.6% | 0hPa | 2.7V | 00:00:00 | 00:00:00 | 00:00:00 | |
| OE5MMP-10 | 2026-09-05 03:26:05 | 47.03121 | 16.49628 | 67° | 31km/h | 20978m | -9.2m/s | -56.0°C | 5.3% | 0hPa | 2.7V | 00:00:00 | 01:39:38 | 00:00:00 | |
| OE8JPQ-2 | 2026-09-05 03:26:04 | 47.03118 | 16.49618 | 73° | 24km/h | 20987m | -9.3m/s | -55.8°C | 5.3% | 0hPa | 2.5V | 00:00:00 | 00:00:00 | 00:00:00 | |
| PG1ADW-2 | 2026-09-05 03:25:57 | 47.03129 | 16.49542 | 138° | 24km/h | 21051m | -9.1m/s | -55.3°C | 5.1% | 0hPa | 2.5V | 00:00:00 | 00:00:00 | 00:00:00 | |
| PETON7-10 | 2026-09-05 03:25:56 | 47.03135 | 16.49535 | 147° | 22km/h | 21060m | -9.1m/s | -55.3°C | 5.1% | 0hPa | 2.5V | 00:00:00 | 00:00:00 | 00:00:00 | |
| OE5MMP-10 | 2026-09-05 03:25:55 | 47.03142 | 16.49529 | 157° | 20km/h | 21069m | -8.6m/s | -55.3°C | 5.0% | 0hPa | 2.5V | 00:00:00 | 01:39:28 | 00:00:00 | |
| OE3JTB-15 | 2026-09-05 03:25:49 | 47.03173 | 16.49534 | 226° | 33km/h | 21123m | -9.1m/s | -54.8°C | 4.7% | 0hPa | 2.5V | 00:00:00 | 00:00:00 | 00:00:00 | |
| OE5DXL-15 | 2026-09-05 03:25:47 | 47.03176 | 16.49544 | 273° | 31km/h | 21141m | -9.5m/s | -54.8°C | 4.7% | 0hPa | 2.7V | 00:00:00 | 00:00:00 | 00:00:00 | |
| OE5MMP-10 | 2026-09-05 03:25:45 | 47.03173 | 16.49555 | 305° | 26km/h | 21158m | -8.7m/s | -54.9°C | 4.8% | 0hPa | 2.7V | 00:00:00 | 01:39:18 | 00:00:00 | |
| OE8JPQ-2 | 2026-09-05 03:25:44 | 47.03170 | 16.49560 | 315° | 35km/h | 21167m | -8.5m/s | -55.0°C | 4.7% | 0hPa | 2.7V | 00:00:00 | 01:39:17 | 00:00:00 | |
| PG1ADW-2 | 2026-09-05 03:25:37 | 47.03126 | 16.49569 | 14° | 35km/h | 21229m | -9.3m/s | -55.4°C | 4.9% | 0hPa | 2.7V | 00:00:00 | 00:00:00 | 00:00:00 | |
| OE5MMP-10 | 2026-09-05 03:25:35 | 47.03110 | 16.49560 | 27° | 40km/h | 21248m | -9.3m/s | -55.5°C | 4.9% | 0hPa | 2.7V | 00:00:00 | 01:39:08 | 00:00:00 | |
| PETON7-10 | 2026-09-05 03:25:26 | 47.03059 | 16.49454 | 76° | 22km/h | 21332m | -9.8m/s | -56.2°C | 5.4% | 0hPa | 2.5V | 00:00:00 | 00:00:00 | 00:00:00 | |
| OE5MMP-10 | 2026-09-05 03:25:25 | 47.03057 | 16.49440 | 81° | 26km/h | 21342m | -9.9m/s | -56.2°C | 5.4% | 0hPa | 2.6V | 00:00:00 | 01:38:58 | 00:00:00 | |
| OE8JPQ-2 | 2026-09-05 03:25:24 | 47.03056 | 16.49426 | 87° | 15km/h | 21351m | -9.0m/s | -56.3°C | 5.6% | 0hPa | 2.6V | 00:00:00 | 00:00:00 | 08:30:00 | |
| OE3JTB-15 | 2026-09-05 03:25:19 | 47.03056 | 16.49373 | 87° | 7km/h | 21396m | -7.6m/s | -56.5°C | 5.6% | 0hPa | 2.6V | 00:00:00 | 00:00:00 | 00:00:00 | |
| OE5DRO-10 | 2026-09-05 03:25:18 | 47.03055 | 16.49365 | 76° | 7km/h | 21404m | -7.6m/s | -56.5°C | 5.5% | 0hPa | 2.6V | 00:00:00 | 00:00:00 | 00:00:00 | |
| PG1ADW-2 | 2026-09-05 03:25:17 | 47.03053 | 16.49359 | 56° | 5km/h | 21413m | -10.8m/s | -56.2°C | 5.2% | 0hPa | 2.5V | 00:00:00 | 00:00:00 | 00:00:00 | |
| OE5MMP-10 | 2026-09-05 03:25:15 | 47.03051 | 16.49350 | 82° | 5km/h | 21460m | -26.9m/s | -55.6°C | 4.8% | 0hPa | 2.5V | 00:00:00 | 01:38:48 | 00:00:00 | |
| DB0NH | 2026-09-05 03:25:14 | 47.03050 | 16.49347 | 93° | 7km/h | 21486m | -25.5m/s | 0°C | 0% | 0hPa | 2.5V | 00:00:00 | 01:38:47 | 00:00:00 | |
| PETON7-10 | 2026-09-05 03:25:11 | 47.03051 | 16.49344 | 164° | 5km/h | 21554m | -16.7m/s | -55.3°C | 4.9% | 0hPa | 2.5V | 00:00:00 | 00:00:00 | 00:00:00 | |
| OE5MMP-10 | 2026-09-05 03:25:05 | 47.03055 | 16.49348 | 283° | 5km/h | 21552m | 5.0m/s | -55.5°C | 5.0% | 0hPa | 2.5V | 00:00:00 | 01:38:38 | 08:30:00 | |
| OE8JPQ-2 | 2026-09-05 03:25:04 | 47.03054 | 16.49349 | 324° | 9km/h | 21548m | 2.9m/s | -55.5°C | 5.0% | 0hPa | 2.6V | 00:00:00 | 00:00:00 | 00:00:00 | |
| OE5DRO-10 | 2026-09-05 03:24:59 | 47.03047 | 16.49349 | 79° | 9km/h | 21523m | 4.8m/s | -55.6°C | 5.0% | 0hPa | 2.6V | 00:00:00 | 00:00:00 | 00:00:00 | |
| PG1ADW-2 | 2026-09-05 03:24:57 | 47.03046 | 16.49345 | 72° | 11km/h | 21513m | 4.5m/s | -55.6°C | 5.0% | 0hPa | 2.6V | 00:00:00 | 01:38:30 | 08:30:00 | |
| PETON7-10 | 2026-09-05 03:24:56 | 47.03046 | 16.49343 | 104° | 11km/h | 21508m | 5.4m/s | -55.7°C | 4.9% | 0hPa | 2.5V | 00:00:00 | 01:38:29 | 00:00:00 | |
| OE5MMP-10 | 2026-09-05 03:24:55 | 47.03046 | 16.49342 | 137° | 13km/h | 21503m | 5.2m/s | -55.7°C | 5.0% | 0hPa | 2.5V | 00:00:00 | 01:38:28 | 00:00:00 | |
| OE3JTB-15 | 2026-09-05 03:24:50 | 47.03044 | 16.49329 | 78° | 20km/h | 21478m | 5.8m/s | -56.0°C | 5.0% | 0hPa | 2.5V | 00:00:00 | 01:38:23 | 00:00:00 | |
| OE5DXL-15 | 2026-09-05 03:24:47 | 47.03039 | 16.49311 | 55° | 22km/h | 21462m | 5.3m/s | -56.0°C | 5.1% | 0hPa | 2.5V | 00:00:00 | 00:00:00 | 00:00:00 | |
| OE5MMP-10 | 2026-09-05 03:24:45 | 47.03034 | 16.49303 | 55° | 16km/h | 21451m | 5.4m/s | -56.1°C | 5.0% | 0hPa | 2.5V | 00:00:00 | 01:38:18 | 00:00:00 | |
| OE8JPQ-2 | 2026-09-05 03:24:44 | 47.03033 | 16.49300 | 43° | 22km/h | 21447m | 3.9m/s | -56.2°C | 5.0% | 0hPa | 2.5V | 00:00:00 | 01:38:17 | 00:00:00 | |
| PETON7-10 | 2026-09-05 03:24:41 | 47.03027 | 16.49297 | 41° | 26km/h | 21432m | 5.6m/s | -56.7°C | 5.3% | 0hPa | 2.5V | 00:00:00 | 00:00:00 | 08:30:00 | |
| OE5DRO-10 | 2026-09-05 03:24:40 | 47.03026 | 16.49294 | 67° | 26km/h | 21427m | 4.8m/s | -56.8°C | 5.5% | 0hPa | 2.5V | 00:00:00 | 00:00:00 | 00:00:00 | |
| PG1ADW-2 | 2026-09-05 03:24:37 | 47.03018 | 16.49274 | 57° | 26km/h | 21411m | 4.9m/s | -56.7°C | 5.5% | 0hPa | 2.5V | 00:00:00 | 00:00:00 | 00:00:00 | |
| OE5MMP-10 | 2026-09-05 03:24:35 | 47.03010 | 16.49254 | 62° | 27km/h | 21400m | 4.8m/s | -56.7°C | 5.5% | 0hPa | 2.5V | 00:00:00 | 01:38:08 | 00:00:00 | |
| PETON7-10 | 2026-09-05 03:24:26 | 47.02971 | 16.49182 | 56° | 22km/h | 21357m | 4.2m/s | -56.4°C | 5.4% | 0hPa | 2.5V | 00:00:00 | 00:00:00 | 00:00:00 | |
| OE5MMP-10 | 2026-09-05 03:24:25 | 47.02969 | 16.49176 | 62° | 22km/h | 21352m | 6.2m/s | -56.3°C | 5.4% | 0hPa | 2.5V | 00:00:00 | 01:37:58 | 00:00:00 | |
| OE8JPQ-2 | 2026-09-05 03:24:24 | 47.02967 | 16.49170 | 66° | 20km/h | 21346m | 4.6m/s | -56.3°C | 5.4% | 0hPa | 2.5V | 00:00:00 | 00:00:00 | 00:00:00 | |
| OE5DRO-10 | 2026-09-05 03:24:21 | 47.02957 | 16.49150 | 45° | 18km/h | 21333m | 5.0m/s | -56.2°C | 5.4% | 0hPa | 2.7V | 00:00:00 | 00:00:00 | 00:00:00 | |
| PG1ADW-2 | 2026-09-05 03:24:17 | 47.02941 | 16.49127 | 45° | 18km/h | 21310m | 5.1m/s | -56.0°C | 5.3% | 0hPa | 2.6V | 00:00:00 | 00:00:00 | 00:00:00 | |
| OE5MMP-10 | 2026-09-05 03:24:15 | 47.02932 | 16.49116 | 38° | 18km/h | 21299m | 4.0m/s | -55.9°C | 5.3% | 0hPa | 2.6V | 00:00:00 | 01:37:48 | 00:00:00 | |
| PETON7-10 | 2026-09-05 03:24:11 | 47.02919 | 16.49093 | 62° | 15km/h | 21277m | 5.5m/s | -55.8°C | 5.2% | 0hPa | 2.6V | 00:00:00 | 01:37:44 | 00:00:00 | |
| OE5MMP-10 | 2026-09-05 03:24:05 | 47.02906 | 16.49063 | 61° | 15km/h | 21245m | 5.1m/s | -55.6°C | 5.1% | 0hPa | 2.6V | 00:00:00 | 01:37:38 | 00:00:00 | |
| OE8JPQ-2 | 2026-09-05 03:24:04 | 47.02904 | 16.49058 | 51° | 11km/h | 21240m | 5.7m/s | -55.5°C | 5.1% | 0hPa | 2.5V | 00:00:00 | 00:00:00 | 00:00:00 | |
| OE5DRO-10 | 2026-09-05 03:24:02 | 47.02897 | 16.49048 | 46° | 9km/h | 21229m | 4.8m/s | -55.4°C | 5.1% | 0hPa | 2.5V | 00:00:00 | 00:00:00 | 00:00:00 | |
| PG1ADW-2 | 2026-09-05 03:23:57 | 47.02884 | 16.49031 | 14° | 7km/h | 21203m | 5.3m/s | -55.3°C | 5.0% | 0hPa | 2.5V | 00:00:00 | 00:00:00 | 00:00:00 | |
| PETON7-10 | 2026-09-05 03:23:56 | 47.02883 | 16.49031 | 30° | 7km/h | 21197m | 5.4m/s | -55.3°C | 5.0% | 0hPa | 2.5V | 00:00:00 | 00:00:00 | 00:00:00 | |
| OE5MMP-10 | 2026-09-05 03:23:55 | 47.02883 | 16.49030 | 122° | 9km/h | 21193m | 3.3m/s | -55.2°C | 5.0% | 0hPa | 2.7V | 00:00:00 | 01:37:28 | 00:00:00 | |
| OE3JTB-15 | 2026-09-05 03:23:52 | 47.02882 | 16.49027 | 52° | 11km/h | 21178m | 4.0m/s | -55.1°C | 4.9% | 0hPa | 2.7V | 00:00:00 | 00:00:00 | 00:00:00 | |
| OE5DXL-15 | 2026-09-05 03:23:47 | 47.02875 | 16.49005 | 61° | 13km/h | 21151m | 5.0m/s | -55.1°C | 4.9% | 0hPa | 2.7V | 00:00:00 | 00:00:00 | 00:00:00 | |
| OE5MMP-10 | 2026-09-05 03:23:45 | 47.02874 | 16.49001 | 102° | 7km/h | 21140m | 6.2m/s | -55.1°C | 4.9% | 0hPa | 2.7V | 00:00:00 | 01:37:18 | 00:00:00 | |
| OE8JPQ-2 | 2026-09-05 03:23:44 | 47.02875 | 16.48999 | 124° | 11km/h | 21134m | 5.0m/s | -55.2°C | 4.8% | 0hPa | 2.7V | 00:00:00 | 01:37:17 | 00:00:00 | |
| OE5DRO-10 | 2026-09-05 03:23:43 | 47.02875 | 16.48999 | 146° | 13km/h | 21128m | 7.0m/s | -55.2°C | 4.8% | 0hPa | 2.7V | 00:00:00 | 00:00:00 | 00:00:00 | |
| PETON7-10 | 2026-09-05 03:23:41 | 47.02876 | 16.48999 | 167° | 13km/h | 21118m | 4.3m/s | -55.3°C | 4.9% | 0hPa | 2.7V | 00:00:00 | 00:00:00 | 00:00:00 | |
| PG1ADW-2 | 2026-09-05 03:23:37 | 47.02885 | 16.48992 | 146° | 16km/h | 21095m | 5.1m/s | -55.5°C | 5.0% | 0hPa | 2.7V | 00:00:00 | 01:37:10 | 00:00:00 | |
| OE5MMP-10 | 2026-09-05 03:23:35 | 47.02891 | 16.48985 | 142° | 15km/h | 21085m | 6.5m/s | -55.6°C | 5.0% | 0hPa | 2.7V | 00:00:00 | 01:37:08 | 08:30:00 | |
| NBG1-10 | 2026-09-05 03:23:31 | 47.02905 | 16.48970 | 135° | 13km/h | 21061m | 6.0m/s | 0°C | 0% | 0hPa | 2.7V | 00:00:00 | 01:37:04 | 00:00:00 | |
| PETON7-10 | 2026-09-05 03:23:26 | 47.02914 | 16.48953 | 126° | 16km/h | 21034m | 5.5m/s | -55.9°C | 5.1% | 0hPa | 2.7V | 00:00:00 | 01:36:59 | 00:00:00 | |
| OE5MMP-10 | 2026-09-05 03:23:25 | 47.02916 | 16.48949 | 124° | 18km/h | 21028m | 6.2m/s | -55.9°C | 5.0% | 0hPa | 2.7V | 00:00:00 | 01:36:58 | 00:00:00 | |
| OE8JPQ-2 | 2026-09-05 03:23:24 | 47.02918 | 16.48944 | 125° | 18km/h | 21023m | 4.4m/s | -56.0°C | 5.1% | 0hPa | 2.7V | 00:00:00 | 00:00:00 | 00:00:00 | |
| OE3JTB-15 | 2026-09-05 03:23:23 | 47.02921 | 16.48938 | 129° | 18km/h | 21018m | 5.3m/s | -56.0°C | 5.0% | 0hPa | 2.5V | 00:00:00 | 01:36:56 | 00:00:00 | |
| PG1ADW-2 | 2026-09-05 03:23:17 | 47.02940 | 16.48908 | 124° | 16km/h | 20986m | 6.6m/s | -56.5°C | 5.1% | 0hPa | 2.5V | 00:00:00 | 00:00:00 | 00:00:00 | |
| OE5MMP-10 | 2026-09-05 03:23:15 | 47.02942 | 16.48901 | 111° | 16km/h | 20975m | 4.9m/s | -56.6°C | 5.2% | 0hPa | 2.5V | 00:00:00 | 01:36:48 | 00:00:00 | |
| PETON7-10 | 2026-09-05 03:23:11 | 47.02943 | 16.48884 | 100° | 20km/h | 20953m | 5.2m/s | -56.6°C | 5.2% | 0hPa | 2.5V | 00:00:00 | 00:00:00 | 00:00:00 | |
| OE5MMP-10 | 2026-09-05 03:23:05 | 47.02951 | 16.48841 | 109° | 20km/h | 20920m | 5.2m/s | 0°C | 0% | 0hPa | 2.5V | 00:00:00 | 01:36:38 | 00:00:00 | |
| OE8JPQ-2 | 2026-09-05 03:23:04 | 47.02952 | 16.48833 | 107° | 18km/h | 20914m | 5.8m/s | -56.6°C | 5.2% | 0hPa | 2.6V | 00:00:00 | 00:00:00 | 00:00:00 | |
| PG1ADW-2 | 2026-09-05 03:22:57 | 47.02954 | 16.48786 | 81° | 18km/h | 20877m | 6.6m/s | -56.8°C | 5.4% | 0hPa | 2.6V | 00:00:00 | 00:00:00 | 00:00:00 | |
| PETON7-10 | 2026-09-05 03:22:56 | 47.02953 | 16.48779 | 85° | 18km/h | 20871m | 4.9m/s | -56.8°C | 5.4% | 0hPa | 2.5V | 00:00:00 | 00:00:00 | 00:00:00 | |
| OE3JTB-15 | 2026-09-05 03:22:54 | 47.02952 | 16.48763 | 82° | 18km/h | 20860m | 5.8m/s | -56.8°C | 5.4% | 0hPa | 2.5V | 00:00:00 | 00:00:00 | 08:30:00 | |
| OE5DXL-15 | 2026-09-05 03:22:47 | 47.02944 | 16.48716 | 80° | 16km/h | 20821m | 5.4m/s | -56.9°C | 5.5% | 0hPa | 2.5V | 00:00:00 | 00:00:00 | 00:00:00 | |
| OE5DRO-10 | 2026-09-05 03:22:46 | 47.02943 | 16.48711 | 73° | 16km/h | 20816m | 5.7m/s | -56.9°C | 5.4% | 0hPa | 2.5V | 00:00:00 | 00:00:00 | 00:00:00 | |
| OE5MMP-10 | 2026-09-05 03:22:45 | 47.02942 | 16.48706 | 68° | 18km/h | 20810m | 5.4m/s | -56.9°C | 5.5% | 0hPa | 2.5V | 00:00:00 | 01:36:18 | 00:00:00 | |
| OE8JPQ-2 | 2026-09-05 03:22:44 | 47.02940 | 16.48699 | 68° | 16km/h | 20804m | 6.5m/s | -56.8°C | 5.5% | 0hPa | 2.5V | 00:00:00 | 01:36:17 | 00:00:00 | |
| PETON7-10 | 2026-09-05 03:22:41 | 47.02931 | 16.48680 | 45° | 16km/h | 20788m | 6.1m/s | -56.8°C | 5.5% | 0hPa | 2.5V | 00:00:00 | 01:36:14 | 00:00:00 | |
| PG1ADW-2 | 2026-09-05 03:22:37 | 47.02920 | 16.48662 | 61° | 16km/h | 20765m | 4.9m/s | -56.7°C | 5.4% | 0hPa | 2.5V | 00:00:00 | 00:00:00 | 00:00:00 | |
| OE5MMP-10 | 2026-09-05 03:22:35 | 47.02916 | 16.48654 | 48° | 16km/h | 20753m | 5.4m/s | -56.6°C | 5.4% | 0hPa | 2.5V | 00:00:00 | 01:36:08 | 00:00:00 | |
| OE5DRO-10 | 2026-09-05 03:22:27 | 47.02889 | 16.48628 | 18° | 13km/h | 20708m | 6.6m/s | 0°C | 0% | 0hPa | 2.7V | 00:00:00 | 00:00:00 | 00:00:00 | |
| PETON7-10 | 2026-09-05 03:22:26 | 47.02884 | 16.48627 | 12° | 15km/h | 20702m | 5.8m/s | -56.4°C | 5.4% | 0hPa | 2.7V | 00:00:00 | 00:00:00 | 08:30:00 | |
| OE5MMP-10 | 2026-09-05 03:22:25 | 47.02880 | 16.48625 | 18° | 15km/h | 20696m | 6.1m/s | -56.3°C | 5.4% | 0hPa | 2.5V | 00:00:00 | 01:35:58 | 00:00:00 | |
| OE8JPQ-2 | 2026-09-05 03:22:24 | 47.02876 | 16.48622 | 29° | 11km/h | 20690m | 5.7m/s | -56.3°C | 5.4% | 0hPa | 2.5V | 00:00:00 | 00:00:00 | 08:30:00 | |
| PG1ADW-2 | 2026-09-05 03:22:17 | 47.02852 | 16.48603 | 2° | 9km/h | 20649m | 5.8m/s | -56.0°C | 5.3% | 0hPa | 2.7V | 00:00:00 | 01:35:50 | 00:00:00 | |
| OE5MMP-10 | 2026-09-05 03:22:15 | 47.02846 | 16.48604 | 348° | 7km/h | 20638m | 6.8m/s | -55.9°C | 5.3% | 0hPa | 2.7V | 00:00:00 | 01:35:48 | 00:00:00 | |
| PETON7-10 | 2026-09-05 03:22:11 | 47.02838 | 16.48608 | 334° | 9km/h | 20615m | 5.4m/s | -55.7°C | 5.2% | 0hPa | 2.7V | 00:00:00 | 00:00:00 | 00:00:00 | |
| OE5DRO-10 | 2026-09-05 03:22:08 | 47.02834 | 16.48608 | 21° | 7km/h | 20597m | 5.4m/s | -55.6°C | 5.2% | 0hPa | 2.7V | 00:00:00 | 00:00:00 | 00:00:00 | |
| OE8JPQ-2 | 2026-09-05 03:22:04 | 47.02825 | 16.48603 | 29° | 7km/h | 20575m | 4.2m/s | -55.4°C | 5.1% | 0hPa | 2.7V | 00:00:00 | 00:00:00 | 00:00:00 | |
| PG1ADW-2 | 2026-09-05 03:21:57 | 47.02812 | 16.48612 | 312° | 5km/h | 20536m | 3.7m/s | -55.1°C | 5.1% | 0hPa | 2.7V | 00:00:00 | 00:00:00 | 08:30:00 | |
| PETON7-10 | 2026-09-05 03:21:56 | 47.02810 | 16.48614 | 331° | 7km/h | 20531m | 5.4m/s | -55.1°C | 5.1% | 0hPa | 2.7V | 00:00:00 | 01:35:29 | 00:00:00 | |
| OE5MMP-10 | 2026-09-05 03:21:55 | 47.02809 | 16.48614 | 22° | 7km/h | 20526m | 5.7m/s | -55.1°C | 5.1% | 0hPa | 2.7V | 00:00:00 | 01:35:28 | 00:00:00 | |
| OE3JTB-15 | 2026-09-05 03:21:53 | 47.02807 | 16.48612 | 51° | 16km/h | 20516m | 5.9m/s | -55.1°C | 5.1% | 0hPa | 2.7V | 00:00:00 | 01:35:26 | 00:00:00 | |
| OE5DRO-10 | 2026-09-05 03:21:49 | 47.02803 | 16.48612 | 278° | 5km/h | 20492m | 5.5m/s | -54.9°C | 5.0% | 0hPa | 2.7V | 00:00:00 | 00:00:00 | 00:00:00 | |
| OE5DXL-15 | 2026-09-05 03:21:47 | 47.02802 | 16.48617 | 295° | 9km/h | 20480m | 5.7m/s | -54.8°C | 5.0% | 0hPa | 2.7V | 00:00:00 | 01:35:20 | 00:00:00 | |
| OE5MMP-10 | 2026-09-05 03:21:45 | 47.02799 | 16.48624 | 304° | 5km/h | 20469m | 6.2m/s | -54.8°C | 5.0% | 0hPa | 2.7V | 00:00:00 | 01:35:18 | 00:00:00 | |
| OE8JPQ-2 | 2026-09-05 03:21:44 | 47.02799 | 16.48626 | 301° | 7km/h | 20464m | 4.3m/s | -54.7°C | 5.0% | 0hPa | 2.7V | 00:00:00 | 01:35:17 | 00:00:00 | |
| PETON7-10 | 2026-09-05 03:21:41 | 47.02796 | 16.48633 | 299° | 5km/h | 20448m | 4.3m/s | -54.6°C | 4.9% | 0hPa | 2.7V | 00:00:00 | 00:00:00 | 00:00:00 | |
| PG1ADW-2 | 2026-09-05 03:21:37 | 47.02795 | 16.48638 | 276° | 9km/h | 20425m | 5.9m/s | -54.5°C | 4.8% | 0hPa | 2.7V | 00:00:00 | 00:00:00 | 00:00:00 | |
| OE5MMP-10 | 2026-09-05 03:21:35 | 47.02795 | 16.48640 | 222° | 7km/h | 20413m | 6.6m/s | -54.5°C | 4.8% | 0hPa | 2.7V | 00:00:00 | 01:35:08 | 00:00:00 | |
| OE5DRO-10 | 2026-09-05 03:21:30 | 47.02799 | 16.48653 | 234° | 15km/h | 20385m | 5.3m/s | -54.7°C | 4.8% | 0hPa | 2.7V | 00:00:00 | 00:00:00 | 00:00:00 | |
| OE5WHR-10 | 2026-09-05 03:21:26 | 47.02805 | 16.48662 | 192° | 16km/h | 20362m | 5.1m/s | 0°C | 0% | 0hPa | 2.7V | 00:00:00 | 00:00:00 | 08:30:00 | |
| OE5MMP-10 | 2026-09-05 03:21:25 | 47.02808 | 16.48663 | 190° | 15km/h | 20356m | 6.3m/s | -54.8°C | 4.8% | 0hPa | 2.7V | 00:00:00 | 01:34:58 | 00:00:00 | |
| OE8JPQ-2 | 2026-09-05 03:21:24 | 47.02811 | 16.48663 | 192° | 20km/h | 20350m | 5.8m/s | -54.8°C | 4.9% | 0hPa | 2.7V | 00:00:00 | 00:00:00 | 00:00:00 | |
| PG1ADW-2 | 2026-09-05 03:21:17 | 47.02836 | 16.48668 | 199° | 24km/h | 20313m | 5.7m/s | -54.9°C | 4.9% | 0hPa | 2.6V | 00:00:00 | 00:00:00 | 00:00:00 | |
| OE5DXL-15 | 2026-09-05 03:21:16 | 47.02841 | 16.48670 | 196° | 24km/h | 20308m | 5.3m/s | -54.9°C | 4.9% | 0hPa | 2.6V | 00:00:00 | 00:00:00 | 00:00:00 | |
| OE5MMP-10 | 2026-09-05 03:21:15 | 47.02847 | 16.48672 | 194° | 24km/h | 20302m | 4.7m/s | -54.9°C | 4.9% | 0hPa | 2.6V | 00:00:00 | 01:34:48 | 00:00:00 | |
| PETON7-10 | 2026-09-05 03:21:11 | 47.02869 | 16.48678 | 184° | 24km/h | 20283m | 5.7m/s | -54.8°C | 4.9% | 0hPa | 2.6V | 00:00:00 | 01:34:44 | 00:00:00 | |
| OE3JTB-15 | 2026-09-05 03:21:08 | 47.02888 | 16.48677 | 174° | 13km/h | 20267m | 5.0m/s | -54.7°C | 4.9% | 0hPa | 2.6V | 00:00:00 | 00:00:00 | 00:00:00 | |
| OE8JPQ-2 | 2026-09-05 03:21:04 | 47.02912 | 16.48669 | 167° | 24km/h | 20246m | 6.5m/s | -54.7°C | 4.8% | 0hPa | 2.6V | 00:00:00 | 00:00:00 | 00:00:00 | |
| PG1ADW-2 | 2026-09-05 03:20:57 | 47.02951 | 16.48648 | 154° | 26km/h | 20207m | 5.8m/s | -55.1°C | 4.9% | 0hPa | 2.6V | 00:00:00 | 01:34:30 | 00:00:00 | |
| PETON7-10 | 2026-09-05 03:20:56 | 47.02957 | 16.48644 | 157° | 26km/h | 20201m | 5.1m/s | -55.2°C | 4.9% | 0hPa | 2.6V | 00:00:00 | 00:00:00 | 00:00:00 | |
| OE5MMP-10 | 2026-09-05 03:20:55 | 47.02963 | 16.48640 | 161° | 26km/h | 20196m | 4.5m/s | -55.2°C | 4.9% | 0hPa | 2.6V | 00:00:00 | 01:34:28 | 00:00:00 | |
| OE5DRO-10 | 2026-09-05 03:20:52 | 47.02982 | 16.48631 | 166° | 26km/h | 20181m | 5.1m/s | -55.3°C | 5.0% | 0hPa | 2.6V | 00:00:00 | 00:00:00 | 00:00:00 | |
| OE5DXL-15 | 2026-09-05 03:20:46 | 47.03018 | 16.48612 | 147° | 20km/h | 20150m | 4.9m/s | -55.3°C | 5.1% | 0hPa | 2.6V | 00:00:00 | 00:00:00 | 00:00:00 | |
| OE5MMP-10 | 2026-09-05 03:20:45 | 47.03023 | 16.48606 | 140° | 26km/h | 20145m | 3.9m/s | -55.3°C | 5.0% | 0hPa | 2.6V | 00:00:00 | 01:34:18 | 00:00:00 | |
| OE8JPQ-2 | 2026-09-05 03:20:44 | 47.03029 | 16.48599 | 135° | 26km/h | 20140m | 5.6m/s | -55.2°C | 5.0% | 0hPa | 2.6V | 00:00:00 | 01:34:17 | 00:00:00 | |
| PETON7-10 | 2026-09-05 03:20:41 | 47.03042 | 16.48579 | 135° | 24km/h | 20124m | 4.9m/s | -55.2°C | 5.0% | 0hPa | 2.6V | 00:00:00 | 00:00:00 | 00:00:00 | |
| PG1ADW-2 | 2026-09-05 03:20:37 | 47.03059 | 16.48551 | 133° | 20km/h | 20102m | 6.4m/s | -55.1°C | 4.9% | 0hPa | 2.6V | 00:00:00 | 00:00:00 | 00:00:00 | |
| OE5MMP-10 | 2026-09-05 03:20:35 | 47.03069 | 16.48536 | 133° | 22km/h | 20093m | 4.0m/s | -55.0°C | 4.9% | 0hPa | 2.6V | 00:00:00 | 01:34:08 | 08:30:00 | |
| OE5DRO-10 | 2026-09-05 03:20:33 | 47.03077 | 16.48523 | 127° | 16km/h | 20082m | 4.4m/s | -55.0°C | 4.9% | 0hPa | 2.6V | 00:00:00 | 00:00:00 | 08:30:00 | |
| PETON7-10 | 2026-09-05 03:20:26 | 47.03093 | 16.48476 | 119° | 15km/h | 20046m | 4.4m/s | -55.1°C | 4.9% | 0hPa | 2.6V | 00:00:00 | 01:33:59 | 00:00:00 | |
| OE5MMP-10 | 2026-09-05 03:20:25 | 47.03096 | 16.48470 | 125° | 15km/h | 20042m | 4.3m/s | -55.1°C | 4.9% | 0hPa | 2.6V | 00:00:00 | 01:33:58 | 00:00:00 | |
| PG1ADW-2 | 2026-09-05 03:20:17 | 47.03118 | 16.48443 | 122° | 11km/h | 20003m | 5.7m/s | -55.4°C | 5.1% | 0hPa | 2.6V | 00:00:00 | 00:00:00 | 00:00:00 | |
| OE5DXL-15 | 2026-09-05 03:20:16 | 47.03120 | 16.48439 | 120° | 9km/h | 19998m | 4.6m/s | -55.4°C | 5.1% | 0hPa | 2.6V | 00:00:00 | 00:00:00 | 00:00:00 | |
| OE5MMP-10 | 2026-09-05 03:20:15 | 47.03121 | 16.48434 | 117° | 11km/h | 19992m | 6.6m/s | -55.4°C | 5.0% | 0hPa | 2.6V | 00:00:00 | 01:33:48 | 00:00:00 | |
| OE5DRO-10 | 2026-09-05 03:20:14 | 47.03123 | 16.48430 | 121° | 11km/h | 19986m | 5.2m/s | -55.5°C | 5.1% | 0hPa | 2.6V | 00:00:00 | 00:00:00 | 00:00:00 | |
| PETON7-10 | 2026-09-05 03:20:11 | 47.03130 | 16.48421 | 147° | 11km/h | 19969m | 6.1m/s | -55.5°C | 5.1% | 0hPa | 2.6V | 00:00:00 | 00:00:00 | 08:30:00 | |
| OE5MMP-10 | 2026-09-05 03:20:05 | 47.03144 | 16.48412 | 139° | 9km/h | 19936m | 5.9m/s | -55.6°C | 5.1% | 0hPa | 2.6V | 00:00:00 | 01:33:38 | 00:00:00 | |
| OE8JPQ-2 | 2026-09-05 03:19:57 | 47.03161 | 16.48395 | 184° | 9km/h | 19893m | 4.6m/s | -55.6°C | 5.1% | 0hPa | 2.7V | 00:00:00 | 00:00:00 | 00:00:00 | |
| PETON7-10 | 2026-09-05 03:19:56 | 47.03163 | 16.48396 | 198° | 7km/h | 19888m | 6.1m/s | -55.6°C | 5.1% | 0hPa | 2.6V | 00:00:00 | 00:00:00 | 00:00:00 | |
| OE5MMP-10 | 2026-09-05 03:19:55 | 47.03164 | 16.48397 | 216° | 7km/h | 19882m | 5.2m/s | -55.5°C | 5.1% | 0hPa | 2.6V | 00:00:00 | 01:33:28 | 00:00:00 | |
| OE5DXL-15 | 2026-09-05 03:19:47 | 47.03176 | 16.48404 | 169° | 11km/h | 19840m | 6.0m/s | -55.3°C | 4.9% | 0hPa | 2.6V | 00:00:00 | 00:00:00 | 00:00:00 | |
| OE5MMP-10 | 2026-09-05 03:19:45 | 47.03180 | 16.48401 | 151° | 11km/h | 19829m | 4.4m/s | -55.4°C | 5.0% | 0hPa | 2.6V | 00:00:00 | 01:33:18 | 00:00:00 | |
| OE5WHR-10 | 2026-09-05 03:19:43 | 47.03185 | 16.48400 | 175° | 13km/h | 19819m | 5.7m/s | 0°C | 0% | 0hPa | 2.6V | 00:00:00 | 00:00:00 | 00:00:00 | |
| PETON7-10 | 2026-09-05 03:19:41 | 47.03191 | 16.48400 | 176° | 9km/h | 19809m | 6.1m/s | -55.4°C | 4.9% | 0hPa | 2.6V | 00:00:00 | 01:33:14 | 00:00:00 | |
| PG1ADW-2 | 2026-09-05 03:19:37 | 47.03201 | 16.48398 | 167° | 11km/h | 19787m | 5.4m/s | -55.5°C | 5.0% | 0hPa | 2.6V | 00:00:00 | 01:33:10 | 00:00:00 | |
| OE5DRO-10 | 2026-09-05 03:19:36 | 47.03203 | 16.48398 | 147° | 11km/h | 19781m | 5.8m/s | -55.4°C | 5.0% | 0hPa | 2.6V | 00:00:00 | 00:00:00 | 00:00:00 | |
| OE5MMP-10 | 2026-09-05 03:19:35 | 47.03204 | 16.48397 | 134° | 9km/h | 19776m | 4.9m/s | -55.4°C | 4.9% | 0hPa | 2.7V | 00:00:00 | 01:33:08 | 00:00:00 | |
| OE8JPQ-2 | 2026-09-05 03:19:33 | 47.03206 | 16.48394 | 149° | 11km/h | 19764m | 5.3m/s | -55.5°C | 5.0% | 0hPa | 2.6V | 00:00:00 | 00:00:00 | 00:00:00 | |
| PETON7-10 | 2026-09-05 03:19:26 | 47.03217 | 16.48372 | 120° | 13km/h | 19726m | 6.2m/s | -55.9°C | 5.1% | 0hPa | 2.6V | 00:00:00 | 00:00:00 | 00:00:00 | |
| OE5MMP-10 | 2026-09-05 03:19:25 | 47.03218 | 16.48369 | 116° | 13km/h | 19721m | 4.5m/s | -56.1°C | 5.2% | 0hPa | 2.6V | 00:00:00 | 01:32:58 | 00:00:00 | |
| PG1ADW-2 | 2026-09-05 03:19:17 | 47.03230 | 16.48336 | 130° | 15km/h | 19678m | 4.6m/s | -56.2°C | 5.3% | 0hPa | 2.6V | 00:00:00 | 00:00:00 | 00:00:00 | |
| OE5DXL-15 | 2026-09-05 03:19:16 | 47.03232 | 16.48333 | 124° | 18km/h | 19672m | 5.4m/s | -56.2°C | 5.3% | 0hPa | 2.6V | 00:00:00 | 00:00:00 | 00:00:00 | |
| OE5MMP-10 | 2026-09-05 03:19:15 | 47.03233 | 16.48329 | 126° | 15km/h | 19668m | 4.0m/s | -56.2°C | 0% | 0hPa | 2.6V | 00:00:00 | 01:32:48 | 00:00:00 | |
| OE5WHR-10 | 2026-09-05 03:19:14 | 47.03236 | 16.48325 | 137° | 18km/h | 19662m | 6.6m/s | 0°C | 0% | 0hPa | 2.6V | 00:00:00 | 01:32:47 | 00:00:00 | |
| PETON7-10 | 2026-09-05 03:19:11 | 47.03245 | 16.48313 | 137° | 16km/h | 19644m | 5.7m/s | -56.1°C | 5.3% | 0hPa | 2.6V | 00:00:00 | 00:00:00 | 00:00:00 | |
| OE3JTB-15 | 2026-09-05 03:19:09 | 47.03251 | 16.48306 | 152° | 26km/h | 19632m | 6.3m/s | -56.0°C | 5.2% | 0hPa | 2.6V | 00:00:00 | 01:32:42 | 00:00:00 | |
| OE5MMP-10 | 2026-09-05 03:19:05 | 47.03264 | 16.48297 | 163° | 16km/h | 19611m | 6.5m/s | 0°C | 0% | 0hPa | 2.6V | 00:00:00 | 01:32:38 | 08:30:00 | |
| OE5DRO-10 | 2026-09-05 03:18:58 | 47.03291 | 16.48278 | 164° | 29km/h | 19573m | 4.5m/s | -55.9°C | 5.1% | 0hPa | 2.6V | 00:00:00 | 00:00:00 | 00:00:00 | |
| PG1ADW-2 | 2026-09-05 03:18:57 | 47.03296 | 16.48276 | 163° | 29km/h | 19568m | 6.3m/s | -55.9°C | 5.1% | 0hPa | 2.6V | 00:00:00 | 00:00:00 | 08:30:00 | |
| PETON7-10 | 2026-09-05 03:18:56 | 47.03300 | 16.48274 | 158° | 27km/h | 19562m | 5.1m/s | -55.8°C | 5.1% | 0hPa | 2.6V | 00:00:00 | 01:32:29 | 00:00:00 | |
| OE5MMP-10 | 2026-09-05 03:18:55 | 47.03304 | 16.48271 | 155° | 27km/h | 19557m | 4.9m/s | 0°C | 0% | 0hPa | 2.6V | 00:00:00 | 01:32:28 | 00:00:00 | |
| OE8JPQ-2 | 2026-09-05 03:18:51 | 47.03326 | 16.48252 | 142° | 33km/h | 19535m | 6.1m/s | -55.8°C | 5.0% | 0hPa | 2.6V | 00:00:00 | 00:00:00 | 08:30:00 | |
| OE5WHR-10 | 2026-09-05 03:18:47 | 47.03349 | 16.48229 | 151° | 37km/h | 19511m | 6.8m/s | 0°C | 0% | 0hPa | 2.6V | 00:00:00 | 00:00:00 | 00:00:00 | |
| OE5DXL-15 | 2026-09-05 03:18:46 | 47.03355 | 16.48223 | 148° | 37km/h | 19504m | 6.0m/s | -56.1°C | 5.1% | 0hPa | 2.6V | 00:00:00 | 00:00:00 | 00:00:00 | |
| OE5MMP-10 | 2026-09-05 03:18:45 | 47.03362 | 16.48217 | 151° | 35km/h | 19499m | 4.7m/s | 0°C | 0% | 0hPa | 2.6V | 00:00:00 | 01:32:18 | 00:00:00 | |
| PETON7-10 | 2026-09-05 03:18:41 | 47.03390 | 16.48194 | 152° | 37km/h | 19475m | 5.3m/s | -56.3°C | 5.1% | 0hPa | 2.6V | 00:00:00 | 00:00:00 | 00:00:00 | |
| OE5DRO-10 | 2026-09-05 03:18:38 | 47.03414 | 16.48175 | 149° | 38km/h | 19458m | 6.5m/s | -56.5°C | 5.2% | 0hPa | 2.7V | 00:00:00 | 00:00:00 | 00:00:00 | |
| PG1ADW-2 | 2026-09-05 03:18:37 | 47.03421 | 16.48167 | 147° | 38km/h | 19452m | 4.7m/s | -56.5°C | 5.2% | 0hPa | 2.7V | 00:00:00 | 00:00:00 | 00:00:00 | |
| OE5MMP-10 | 2026-09-05 03:18:35 | 47.03437 | 16.48152 | 148° | 37km/h | 19440m | 5.1m/s | 0°C | 0% | 0hPa | 2.7V | 00:00:00 | 01:32:08 | 00:00:00 | |
| OE8JPQ-2 | 2026-09-05 03:18:31 | 47.03465 | 16.48119 | 136° | 38km/h | 19418m | 6.5m/s | -56.4°C | 5.3% | 0hPa | 2.7V | 00:00:00 | 00:00:00 | 00:00:00 | |
| PETON7-10 | 2026-09-05 03:18:26 | 47.03494 | 16.48065 | 127° | 40km/h | 19389m | 6.4m/s | -56.6°C | 5.4% | 0hPa | 2.7V | 00:00:00 | 00:00:00 | 00:00:00 | |
| OE5MMP-10 | 2026-09-05 03:18:25 | 47.03501 | 16.48053 | 131° | 42km/h | 19384m | 4.2m/s | 0°C | 0% | 0hPa | 2.7V | 00:00:00 | 01:31:58 | 00:00:00 | |
| OE5WHR-10 | 2026-09-05 03:18:21 | 47.03525 | 16.48006 | 126° | 37km/h | 19363m | 6.4m/s | 0°C | 0% | 0hPa | 2.7V | 00:00:00 | 00:00:00 | 00:00:00 | |
| OE5DRO-10 | 2026-09-05 03:18:19 | 47.03538 | 16.47980 | 127° | 38km/h | 19351m | 4.7m/s | -56.4°C | 5.4% | 0hPa | 2.7V | 00:00:00 | 00:00:00 | 00:00:00 | |
| PG1ADW-2 | 2026-09-05 03:18:17 | 47.03550 | 16.47955 | 123° | 37km/h | 19340m | 5.1m/s | -56.4°C | 5.4% | 0hPa | 2.7V | 00:00:00 | 01:31:50 | 00:00:00 | |
| OE5MMP-10 | 2026-09-05 03:18:15 | 47.03562 | 16.47931 | 128° | 37km/h | 19328m | 5.2m/s | 0°C | 0% | 0hPa | 2.7V | 00:00:00 | 01:31:48 | 00:00:00 | |
| OE5MMP-10 | 2026-09-05 03:18:05 | 47.03614 | 16.47817 | 123° | 35km/h | 19273m | 4.0m/s | 0°C | 0% | 0hPa | 2.7V | 00:00:00 | 01:31:38 | 00:00:00 | |
| OE5DRO-10 | 2026-09-05 03:18:00 | 47.03639 | 16.47756 | 124° | 31km/h | 19245m | 4.5m/s | -56.1°C | 5.1% | 0hPa | 2.7V | 00:00:00 | 00:00:00 | 00:00:00 | |
| PG1ADW-2 | 2026-09-05 03:17:57 | 47.03651 | 16.47726 | 118° | 31km/h | 19230m | 3.8m/s | -56.2°C | 5.1% | 0hPa | 2.7V | 00:00:00 | 00:00:00 | 00:00:00 | |
| PETON7-10 | 2026-09-05 03:17:56 | 47.03654 | 16.47717 | 123° | 31km/h | 19224m | 6.3m/s | -56.1°C | 5.0% | 0hPa | 2.7V | 00:00:00 | 00:00:00 | 08:30:00 | |
| OE5MMP-10 | 2026-09-05 03:17:55 | 47.03658 | 16.47709 | 124° | 31km/h | 19219m | 4.6m/s | 0°C | 0% | 0hPa | 2.7V | 00:00:00 | 01:31:28 | 00:00:00 | |
| OE8JPQ-2 | 2026-09-05 03:17:51 | 47.03669 | 16.47673 | 114° | 31km/h | 19198m | 5.1m/s | -56.2°C | 5.0% | 0hPa | 2.7V | 00:00:00 | 00:00:00 | 00:00:00 | |
| OE5MMP-10 | 2026-09-05 03:17:45 | 47.03687 | 16.47601 | 111° | 37km/h | 19166m | 6.7m/s | 0°C | 0% | 0hPa | 2.6V | 00:00:00 | 01:31:18 | 00:00:00 | |
| OE3JTB-15 | 2026-09-05 03:17:42 | 47.03697 | 16.47566 | 124° | 29km/h | 19149m | 5.9m/s | -56.6°C | 5.1% | 0hPa | 2.6V | 00:00:00 | 00:00:00 | 00:00:00 | |
| PETON7-10 | 2026-09-05 03:17:41 | 47.03701 | 16.47557 | 125° | 29km/h | 19144m | 3.3m/s | -56.6°C | 5.1% | 0hPa | 2.6V | 00:00:00 | 00:00:00 | 00:00:00 | |
| PG1ADW-2 | 2026-09-05 03:17:37 | 47.03712 | 16.47521 | 108° | 29km/h | 19123m | 6.3m/s | -56.8°C | 5.1% | 0hPa | 2.6V | 00:00:00 | 00:00:00 | 00:00:00 | |
| OE8JPQ-2 | 2026-09-05 03:17:31 | 47.03719 | 16.47453 | 94° | 29km/h | 19091m | 4.3m/s | -57.2°C | 5.3% | 0hPa | 2.6V | 00:00:00 | 00:00:00 | 00:00:00 | |
| PETON7-10 | 2026-09-05 03:17:26 | 47.03718 | 16.47402 | 87° | 29km/h | 19066m | 5.6m/s | -57.9°C | 5.5% | 0hPa | 2.6V | 00:00:00 | 01:30:59 | 00:00:00 | |
| OE5DRO-10 | 2026-09-05 03:17:22 | 47.03719 | 16.47365 | 107° | 33km/h | 19046m | 5.8m/s | -58.0°C | 5.6% | 0hPa | 2.6V | 00:00:00 | 00:00:00 | 00:00:00 | |
| PG1ADW-2 | 2026-09-05 03:17:17 | 47.03731 | 16.47308 | 112° | 35km/h | 19020m | 5.3m/s | -57.9°C | 5.6% | 0hPa | 2.6V | 00:00:00 | 00:00:00 | 00:00:00 | |
| OE5DXL-15 | 2026-09-05 03:17:14 | 47.03738 | 16.47274 | 101° | 38km/h | 19005m | 4.4m/s | -57.9°C | 5.6% | 0hPa | 2.6V | 00:00:00 | 00:00:00 | 00:00:00 | |
| OE3JTB-15 | 2026-09-05 03:17:13 | 47.03740 | 16.47263 | 104° | 33km/h | 19000m | 4.5m/s | -57.9°C | 5.6% | 0hPa | 2.6V | 00:00:00 | 01:30:46 | 00:00:00 | |
| OE8JPQ-2 | 2026-09-05 03:17:11 | 47.03745 | 16.47242 | 115° | 38km/h | 18991m | 3.5m/s | -57.9°C | 5.6% | 0hPa | 2.6V | 00:00:00 | 01:30:44 | 00:00:00 | |
| OE5DRO-10 | 2026-09-05 03:17:03 | 47.03766 | 16.47142 | 103° | 40km/h | 18951m | 4.7m/s | -57.7°C | 5.5% | 0hPa | 2.6V | 00:00:00 | 00:00:00 | 00:00:00 | |
| PG1ADW-2 | 2026-09-05 03:16:57 | 47.03780 | 16.47058 | 106° | 42km/h | 18920m | 4.7m/s | -57.9°C | 5.6% | 0hPa | 2.6V | 00:00:00 | 01:30:30 | 00:00:00 | |
| PETON7-10 | 2026-09-05 03:16:56 | 47.03783 | 16.47042 | 104° | 40km/h | 18915m | 5.5m/s | -57.9°C | 5.7% | 0hPa | 2.6V | 00:00:00 | 00:00:00 | 00:00:00 | |
| OE8JPQ-2 | 2026-09-05 03:16:51 | 47.03796 | 16.46963 | 104° | 38km/h | 18892m | 5.4m/s | -57.9°C | 5.6% | 0hPa | 2.6V | 00:00:00 | 00:00:00 | 00:00:00 | |
| OE5DXL-15 | 2026-09-05 03:16:44 | 47.03816 | 16.46868 | 107° | 38km/h | 18859m | 4.8m/s | -57.7°C | 5.6% | 0hPa | 2.7V | 00:00:00 | 00:00:00 | 00:00:00 | |
| PETON7-10 | 2026-09-05 03:16:41 | 47.03823 | 16.46823 | 100° | 40km/h | 18845m | 4.7m/s | -57.7°C | 5.5% | 0hPa | 2.7V | 00:00:00 | 01:30:14 | 00:00:00 | |
| PG1ADW-2 | 2026-09-05 03:16:37 | 47.03831 | 16.46760 | 102° | 38km/h | 18826m | 5.8m/s | -57.9°C | 5.5% | 0hPa | 2.7V | 00:00:00 | 00:00:00 | 00:00:00 | |
| OE5MMP-10 | 2026-09-05 03:16:35 | 47.03835 | 16.46732 | 100° | 35km/h | 18816m | 5.2m/s | 0°C | 0% | 0hPa | 2.7V | 00:00:00 | 01:30:08 | 08:30:00 | |
| OE8JPQ-2 | 2026-09-05 03:16:31 | 47.03838 | 16.46680 | 92° | 38km/h | 18797m | 3.6m/s | -57.9°C | 5.6% | 0hPa | 2.7V | 00:00:00 | 00:00:00 | 00:00:00 | |
| PETON7-10 | 2026-09-05 03:16:26 | 47.03845 | 16.46603 | 103° | 37km/h | 18771m | 5.8m/s | -57.9°C | 5.5% | 0hPa | 2.7V | 00:00:00 | 00:00:00 | 00:00:00 | |
| OE5WHR-10 | 2026-09-05 03:16:19 | 47.03858 | 16.46508 | 96° | 35km/h | 18736m | 5.8m/s | 0°C | 0% | 0hPa | 2.6V | 00:00:00 | 01:29:52 | 00:00:00 | |
| PG1ADW-2 | 2026-09-05 03:16:17 | 47.03859 | 16.46482 | 93° | 33km/h | 18726m | 5.3m/s | -58.1°C | 5.6% | 0hPa | 2.6V | 00:00:00 | 00:00:00 | 00:00:00 | |
| OE5DXL-15 | 2026-09-05 03:16:13 | 47.03862 | 16.46427 | 95° | 35km/h | 18707m | 4.4m/s | -58.1°C | 5.7% | 0hPa | 2.6V | 00:00:00 | 00:00:00 | 00:00:00 | |
| PETON7-10 | 2026-09-05 03:16:11 | 47.03865 | 16.46403 | 105° | 33km/h | 18697m | 5.5m/s | -58.2°C | 5.8% | 0hPa | 2.6V | 00:00:00 | 00:00:00 | 00:00:00 | |
| OE5DRO-10 | 2026-09-05 03:16:06 | 47.03874 | 16.46344 | 97° | 35km/h | 18672m | 5.0m/s | -58.2°C | 5.8% | 0hPa | 2.6V | 00:00:00 | 00:00:00 | 00:00:00 | |
| OE3JTB-15 | 2026-09-05 03:16:05 | 47.03875 | 16.46331 | 93° | 35km/h | 18667m | 4.6m/s | -58.1°C | 5.8% | 0hPa | 2.6V | 00:00:00 | 00:00:00 | 08:30:00 | |
| OE8JPQ-2 | 2026-09-05 03:15:58 | 47.03875 | 16.46248 | 103° | 35km/h | 18631m | 4.3m/s | -58.1°C | 5.7% | 0hPa | 2.6V | 00:00:00 | 01:29:31 | 00:00:00 | |
| OE5WHR-10 | 2026-09-05 03:15:57 | 47.03877 | 16.46237 | 106° | 37km/h | 18625m | 5.9m/s | 0°C | 0% | 0hPa | 2.6V | 00:00:00 | 00:00:00 | 00:00:00 | |
| PETON7-10 | 2026-09-05 03:15:56 | 47.03880 | 16.46226 | 105° | 37km/h | 18621m | 3.7m/s | -58.1°C | 5.7% | 0hPa | 2.6V | 00:00:00 | 01:29:29 | 00:00:00 | |
| OE5DRO-10 | 2026-09-05 03:15:47 | 47.03873 | 16.46107 | 81° | 38km/h | 18571m | 4.5m/s | -57.7°C | 5.6% | 0hPa | 2.6V | 00:00:00 | 00:00:00 | 00:00:00 | |
| OE5DXL-15 | 2026-09-05 03:15:43 | 47.03869 | 16.46053 | 90° | 38km/h | 18547m | 6.8m/s | -57.5°C | 5.4% | 0hPa | 2.7V | 00:00:00 | 00:00:00 | 00:00:00 | |
| PETON7-10 | 2026-09-05 03:15:41 | 47.03869 | 16.46026 | 87° | 38km/h | 18536m | 6.1m/s | -57.5°C | 5.4% | 0hPa | 2.7V | 00:00:00 | 00:00:00 | 08:30:00 | |
| PG1ADW-2 | 2026-09-05 03:15:37 | 47.03865 | 16.45971 | 85° | 38km/h | 18514m | 4.7m/s | -57.9°C | 5.6% | 0hPa | 2.6V | 00:00:00 | 01:29:10 | 00:00:00 | |
| OE5WHR-10 | 2026-09-05 03:15:36 | 47.03864 | 16.45957 | 80° | 38km/h | 18508m | 6.5m/s | 0°C | 0% | 0hPa | 2.6V | 00:00:00 | 00:00:00 | 00:00:00 | |
| OE5DRO-10 | 2026-09-05 03:15:28 | 47.03846 | 16.45847 | 81° | 42km/h | 18463m | 6.4m/s | -57.8°C | 5.6% | 0hPa | 2.6V | 00:00:00 | 00:00:00 | 00:00:00 | |
| OE8JPQ-2 | 2026-09-05 03:15:27 | 47.03845 | 16.45833 | 80° | 46km/h | 18457m | 4.7m/s | -57.8°C | 5.7% | 0hPa | 2.6V | 00:00:00 | 00:00:00 | 08:30:00 | |
| PETON7-10 | 2026-09-05 03:15:26 | 47.03842 | 16.45819 | 75° | 40km/h | 18451m | 6.6m/s | -57.8°C | 5.6% | 0hPa | 2.6V | 00:00:00 | 00:00:00 | 00:00:00 | |
| PG1ADW-2 | 2026-09-05 03:15:17 | 47.03813 | 16.45702 | 67° | 44km/h | 18397m | 6.8m/s | -57.8°C | 5.6% | 0hPa | 2.6V | 00:00:00 | 00:00:00 | 00:00:00 | |
| OE5DXL-15 | 2026-09-05 03:15:13 | 47.03793 | 16.45643 | 59° | 38km/h | 18372m | 6.3m/s | -57.9°C | 5.6% | 0hPa | 2.6V | 00:00:00 | 00:00:00 | 00:00:00 | |
| PETON7-10 | 2026-09-05 03:15:11 | 47.03780 | 16.45613 | 60° | 42km/h | 18362m | 6.8m/s | -57.9°C | 5.6% | 0hPa | 2.6V | 00:00:00 | 01:28:44 | 00:00:00 | |
| OE5DRO-10 | 2026-09-05 03:15:09 | 47.03769 | 16.45580 | 63° | 38km/h | 18350m | 3.9m/s | -58.0°C | 5.7% | 0hPa | 2.6V | 00:00:00 | 00:00:00 | 00:00:00 | |
| OE8JPQ-2 | 2026-09-05 03:15:05 | 47.03748 | 16.45521 | 65° | 33km/h | 18327m | 5.3m/s | -58.0°C | 5.7% | 0hPa | 2.6V | 00:00:00 | 00:00:00 | 00:00:00 | |
| OE5WHR-10 | 2026-09-05 03:15:03 | 47.03739 | 16.45495 | 61° | 31km/h | 18315m | 6.9m/s | 0°C | 0% | 0hPa | 2.6V | 00:00:00 | 01:28:36 | 00:00:00 | |
| PG1ADW-2 | 2026-09-05 03:14:57 | 47.03706 | 16.45425 | 53° | 33km/h | 18279m | 7.3m/s | -57.8°C | 5.6% | 0hPa | 2.6V | 00:00:00 | 00:00:00 | 00:00:00 | |
| PETON7-10 | 2026-09-05 03:14:56 | 47.03700 | 16.45414 | 53° | 33km/h | 18272m | 5.2m/s | -57.8°C | 5.6% | 0hPa | 2.6V | 00:00:00 | 00:00:00 | 00:00:00 | |
| OE5DRO-10 | 2026-09-05 03:14:50 | 47.03669 | 16.45358 | 57° | 31km/h | 18238m | 6.8m/s | -57.7°C | 5.5% | 0hPa | 2.7V | 00:00:00 | 00:00:00 | 08:30:00 | |
| OE8JPQ-2 | 2026-09-05 03:14:44 | 47.03645 | 16.45298 | 57° | 37km/h | 18205m | 5.0m/s | -57.5°C | 5.3% | 0hPa | 2.7V | 00:00:00 | 01:28:17 | 00:00:00 | |
| OE5DXL-15 | 2026-09-05 03:14:43 | 47.03640 | 16.45286 | 60° | 31km/h | 18199m | 6.2m/s | -57.4°C | 5.3% | 0hPa | 2.7V | 00:00:00 | 00:00:00 | 00:00:00 | |
| PETON7-10 | 2026-09-05 03:14:41 | 47.03630 | 16.45263 | 55° | 31km/h | 18188m | 6.2m/s | -57.4°C | 5.3% | 0hPa | 2.6V | 00:00:00 | 00:00:00 | 00:00:00 | |
| OE5WHR-10 | 2026-09-05 03:14:37 | 47.03613 | 16.45224 | 54° | 31km/h | 18166m | 7.0m/s | 0°C | 0% | 0hPa | 2.6V | 00:00:00 | 00:00:00 | 00:00:00 | |
| OE5DRO-10 | 2026-09-05 03:14:31 | 47.03581 | 16.45177 | 46° | 31km/h | 18133m | 4.1m/s | -58.7°C | 5.9% | 0hPa | 2.6V | 00:00:00 | 00:00:00 | 00:00:00 | |
| OE3JTB-15 | 2026-09-05 03:14:27 | 47.03561 | 16.45134 | 62° | 33km/h | 18110m | 4.9m/s | -58.8°C | 6.0% | 0hPa | 2.6V | 00:00:00 | 01:28:00 | 00:00:00 | |
| PETON7-10 | 2026-09-05 03:14:26 | 47.03557 | 16.45124 | 66° | 29km/h | 18105m | 6.3m/s | -58.8°C | 6.0% | 0hPa | 2.6V | 00:00:00 | 01:27:59 | 00:00:00 | |
| PG1ADW-2 | 2026-09-05 03:14:17 | 47.03523 | 16.45035 | 53° | 26km/h | 18055m | 4.2m/s | -58.5°C | 5.9% | 0hPa | 2.6V | 00:00:00 | 01:27:50 | 00:00:00 | |
| OE5DXL-15 | 2026-09-05 03:14:13 | 47.03512 | 16.44997 | 75° | 24km/h | 18034m | 5.2m/s | -58.3°C | 5.9% | 0hPa | 2.6V | 00:00:00 | 00:00:00 | 00:00:00 | |
| OE5DRO-10 | 2026-09-05 03:14:12 | 47.03510 | 16.44988 | 72° | 24km/h | 18028m | 5.8m/s | -58.3°C | 5.8% | 0hPa | 2.6V | 00:00:00 | 00:00:00 | 00:00:00 | |
| PETON7-10 | 2026-09-05 03:14:11 | 47.03508 | 16.44981 | 68° | 24km/h | 18023m | 5.0m/s | -58.3°C | 5.9% | 0hPa | 2.6V | 00:00:00 | 00:00:00 | 00:00:00 | |
| OE8JPQ-2 | 2026-09-05 03:14:10 | 47.03506 | 16.44973 | 71° | 24km/h | 18017m | 6.2m/s | -58.3°C | 5.8% | 0hPa | 2.7V | 00:00:00 | 00:00:00 | 00:00:00 | |
| PG1ADW-2 | 2026-09-05 03:13:57 | 47.03470 | 16.44869 | 63° | 24km/h | 17945m | 6.2m/s | -57.9°C | 5.8% | 0hPa | 2.6V | 00:00:00 | 00:00:00 | 00:00:00 | |
| PETON7-10 | 2026-09-05 03:13:56 | 47.03467 | 16.44861 | 64° | 24km/h | 17939m | 5.2m/s | -57.9°C | 5.8% | 0hPa | 2.7V | 00:00:00 | 00:00:00 | 00:00:00 | |
| OE5DRO-10 | 2026-09-05 03:13:53 | 47.03457 | 16.44839 | 56° | 24km/h | 17922m | 5.2m/s | -57.8°C | 5.8% | 0hPa | 2.7V | 00:00:00 | 00:00:00 | 00:00:00 | |
| OE8JPQ-2 | 2026-09-05 03:13:50 | 47.03449 | 16.44818 | 59° | 27km/h | 17906m | 5.8m/s | -57.7°C | 5.7% | 0hPa | 2.6V | 00:00:00 | 00:00:00 | 00:00:00 | |
| OE5DXL-15 | 2026-09-05 03:13:43 | 47.03425 | 16.44767 | 59° | 31km/h | 17869m | 5.3m/s | -57.5°C | 5.8% | 0hPa | 2.6V | 00:00:00 | 00:00:00 | 00:00:00 | |
| PETON7-10 | 2026-09-05 03:13:41 | 47.03418 | 16.44749 | 60° | 31km/h | 17859m | 5.8m/s | -57.4°C | 5.7% | 0hPa | 2.6V | 00:00:00 | 01:27:14 | 00:00:00 | |
| PG1ADW-2 | 2026-09-05 03:13:37 | 47.03403 | 16.44719 | 52° | 31km/h | 17838m | 4.7m/s | -57.2°C | 5.6% | 0hPa | 2.6V | 00:00:00 | 00:00:00 | 00:00:00 | |
| OE5DRO-10 | 2026-09-05 03:13:34 | 47.03390 | 16.44698 | 49° | 33km/h | 17822m | 5.1m/s | -57.1°C | 5.6% | 0hPa | 2.6V | 00:00:00 | 00:00:00 | 00:00:00 | |
| OE8JPQ-2 | 2026-09-05 03:13:29 | 47.03364 | 16.44649 | 54° | 35km/h | 17795m | 4.2m/s | -57.0°C | 5.7% | 0hPa | 2.6V | 00:00:00 | 01:27:02 | 00:00:00 | |
| PETON7-10 | 2026-09-05 03:13:26 | 47.03348 | 16.44614 | 54° | 33km/h | 17781m | 5.9m/s | -56.8°C | 5.6% | 0hPa | 2.6V | 00:00:00 | 00:00:00 | 08:30:00 | |
| PG1ADW-2 | 2026-09-05 03:13:17 | 47.03314 | 16.44531 | 60° | 37km/h | 17732m | 6.3m/s | -56.6°C | 5.7% | 0hPa | 2.7V | 00:00:00 | 00:00:00 | 00:00:00 | |
| OE5DXL-15 | 2026-09-05 03:13:13 | 47.03289 | 16.44480 | 60° | 35km/h | 17711m | 5.8m/s | -56.4°C | 5.6% | 0hPa | 2.7V | 00:00:00 | 00:00:00 | 08:30:00 | |
| PETON7-10 | 2026-09-05 03:13:11 | 47.03282 | 16.44459 | 62° | 35km/h | 17699m | 7.2m/s | -56.3°C | 5.5% | 0hPa | 2.6V | 00:00:00 | 00:00:00 | 00:00:00 | |
| OE8JPQ-2 | 2026-09-05 03:13:09 | 47.03274 | 16.44439 | 64° | 35km/h | 17686m | 7.7m/s | -56.1°C | 5.4% | 0hPa | 2.6V | 00:00:00 | 00:00:00 | 00:00:00 | |
| OE3JTB-15 | 2026-09-05 03:13:03 | 47.03249 | 16.44359 | 67° | 40km/h | 17646m | 8.5m/s | -56.0°C | 5.5% | 0hPa | 2.6V | 00:00:00 | 00:00:00 | 00:00:00 | |
| PG1ADW-2 | 2026-09-05 03:12:57 | 47.03229 | 16.44294 | 92° | 33km/h | 17610m | 6.3m/s | -55.6°C | 5.3% | 0hPa | 2.6V | 00:00:00 | 01:26:30 | 08:30:00 | |
| PETON7-10 | 2026-09-05 03:12:56 | 47.03229 | 16.44286 | 93° | 35km/h | 17603m | 7.4m/s | -55.5°C | 5.2% | 0hPa | 2.6V | 00:00:00 | 01:26:29 | 00:00:00 | |
| OE8JPQ-2 | 2026-09-05 03:12:49 | 47.03212 | 16.44199 | 73° | 35km/h | 17559m | 7.7m/s | -55.1°C | 4.9% | 0hPa | 2.6V | 00:00:00 | 00:00:00 | 00:00:00 | |
| OE5DXL-15 | 2026-09-05 03:12:42 | 47.03204 | 16.44115 | 100° | 40km/h | 17508m | 6.9m/s | -55.8°C | 5.2% | 0hPa | 2.6V | 00:00:00 | 00:00:00 | 00:00:00 | |
| PETON7-10 | 2026-09-05 03:12:41 | 47.03206 | 16.44103 | 102° | 37km/h | 17501m | 7.7m/s | -55.9°C | 5.2% | 0hPa | 2.6V | 00:00:00 | 00:00:00 | 00:00:00 | |
| OE5DRO-10 | 2026-09-05 03:12:37 | 47.03207 | 16.44053 | 84° | 40km/h | 17481m | 4.0m/s | -56.2°C | 5.1% | 0hPa | 2.6V | 00:00:00 | 00:00:00 | 00:00:00 | |
| OE8JPQ-2 | 2026-09-05 03:12:29 | 47.03215 | 16.43946 | 104° | 46km/h | 17439m | 3.9m/s | -57.0°C | 5.4% | 0hPa | 2.6V | 00:00:00 | 01:26:02 | 00:00:00 | |
| PETON7-10 | 2026-09-05 03:12:26 | 47.03221 | 16.43902 | 101° | 46km/h | 17425m | 5.4m/s | -57.0°C | 5.3% | 0hPa | 2.6V | 00:00:00 | 00:00:00 | 00:00:00 | |
| OE5DRO-10 | 2026-09-05 03:12:18 | 47.03241 | 16.43775 | 106° | 46km/h | 17386m | 5.5m/s | -58.6°C | 5.8% | 0hPa | 2.6V | 00:00:00 | 00:00:00 | 00:00:00 | |
| PG1ADW-2 | 2026-09-05 03:12:17 | 47.03244 | 16.43756 | 103° | 44km/h | 17381m | 4.9m/s | -58.8°C | 5.9% | 0hPa | 2.6V | 00:00:00 | 00:00:00 | 00:00:00 | |
| OE5DXL-15 | 2026-09-05 03:12:13 | 47.03254 | 16.43685 | 101° | 44km/h | 17360m | 4.7m/s | -59.2°C | 6.1% | 0hPa | 2.6V | 00:00:00 | 00:00:00 | 00:00:00 | |
| PETON7-10 | 2026-09-05 03:12:11 | 47.03259 | 16.43652 | 106° | 42km/h | 17351m | 5.2m/s | -60.1°C | 6.7% | 0hPa | 2.6V | 00:00:00 | 01:25:44 | 00:00:00 | |
| OE8JPQ-2 | 2026-09-05 03:12:09 | 47.03266 | 16.43619 | 107° | 46km/h | 17339m | 6.7m/s | -60.2°C | 6.8% | 0hPa | 2.6V | 00:00:00 | 00:00:00 | 08:30:00 | |
| OE5DRO-10 | 2026-09-05 03:11:59 | 47.03290 | 16.43468 | 100° | 46km/h | 17289m | 6.8m/s | -60.4°C | 6.9% | 0hPa | 2.7V | 00:00:00 | 00:00:00 | 08:30:00 | |
| PG1ADW-2 | 2026-09-05 03:11:57 | 47.03293 | 16.43438 | 104° | 49km/h | 17277m | 6.3m/s | -60.3°C | 6.9% | 0hPa | 2.6V | 00:00:00 | 00:00:00 | 00:00:00 | |
| PETON7-10 | 2026-09-05 03:11:56 | 47.03296 | 16.43423 | 110° | 47km/h | 17271m | 5.7m/s | -60.3°C | 6.9% | 0hPa | 2.6V | 00:00:00 | 00:00:00 | 00:00:00 | |
| OE3JTB-15 | 2026-09-05 03:11:48 | 47.03316 | 16.43284 | 98° | 57km/h | 17228m | 5.8m/s | -60.6°C | 7.0% | 0hPa | 2.7V | 00:00:00 | 01:25:21 | 00:00:00 | |
| OE5DXL-15 | 2026-09-05 03:11:43 | 47.03324 | 16.43202 | 98° | 58km/h | 17201m | 4.8m/s | -60.6°C | 7.0% | 0hPa | 2.7V | 00:00:00 | 00:00:00 | 00:00:00 | |
| PETON7-10 | 2026-09-05 03:11:41 | 47.03329 | 16.43164 | 105° | 58km/h | 17190m | 5.9m/s | -60.7°C | 7.1% | 0hPa | 2.6V | 00:00:00 | 00:00:00 | 00:00:00 | |
| OE5DRO-10 | 2026-09-05 03:11:40 | 47.03332 | 16.43144 | 104° | 60km/h | 17185m | 4.1m/s | -60.7°C | 7.1% | 0hPa | 2.6V | 00:00:00 | 00:00:00 | 00:00:00 | |
| PG1ADW-2 | 2026-09-05 03:11:37 | 47.03341 | 16.43079 | 100° | 60km/h | 17169m | 4.8m/s | -60.7°C | 7.0% | 0hPa | 2.6V | 00:00:00 | 01:25:10 | 00:00:00 | |
| PETON7-10 | 2026-09-05 03:11:26 | 47.03347 | 16.42842 | 89° | 62km/h | 17110m | 6.5m/s | -61.0°C | 7.1% | 0hPa | 2.6V | 00:00:00 | 01:24:59 | 00:00:00 | |
| OE5DRO-10 | 2026-09-05 03:11:21 | 47.03346 | 16.42723 | 90° | 57km/h | 17081m | 4.6m/s | -61.3°C | 7.4% | 0hPa | 2.6V | 00:00:00 | 00:00:00 | 00:00:00 | |
| OE3JTB-15 | 2026-09-05 03:11:19 | 47.03347 | 16.42677 | 94° | 55km/h | 17071m | 4.8m/s | -61.5°C | 7.5% | 0hPa | 2.6V | 00:00:00 | 00:00:00 | 00:00:00 | |
| PG1ADW-2 | 2026-09-05 03:11:17 | 47.03348 | 16.42632 | 90° | 55km/h | 17061m | 5.4m/s | -61.5°C | 7.5% | 0hPa | 2.6V | 00:00:00 | 00:00:00 | 00:00:00 | |
| OE5DXL-15 | 2026-09-05 03:11:13 | 47.03345 | 16.42545 | 86° | 51km/h | 17041m | 4.8m/s | -61.4°C | 7.6% | 0hPa | 2.6V | 00:00:00 | 00:00:00 | 00:00:00 | |
| PETON7-10 | 2026-09-05 03:11:11 | 47.03342 | 16.42503 | 85° | 53km/h | 17031m | 4.6m/s | -61.4°C | 7.7% | 0hPa | 2.6V | 00:00:00 | 00:00:00 | 08:30:00 | |
| OE5DRO-10 | 2026-09-05 03:11:02 | 47.03340 | 16.42328 | 83° | 51km/h | 16986m | 4.0m/s | -61.2°C | 7.6% | 0hPa | 2.6V | 00:00:00 | 00:00:00 | 00:00:00 | |
| PG1ADW-2 | 2026-09-05 03:10:57 | 47.03334 | 16.42234 | 91° | 49km/h | 16959m | 4.4m/s | -61.2°C | 7.4% | 0hPa | 2.7V | 00:00:00 | 00:00:00 | 00:00:00 | |
| PETON7-10 | 2026-09-05 03:10:56 | 47.03334 | 16.42214 | 93° | 49km/h | 16955m | 5.3m/s | -61.3°C | 7.5% | 0hPa | 2.6V | 00:00:00 | 00:00:00 | 00:00:00 | |
| OE3JTB-15 | 2026-09-05 03:10:50 | 47.03340 | 16.42098 | 89° | 47km/h | 16924m | 4.0m/s | -61.3°C | 7.7% | 0hPa | 2.6V | 00:00:00 | 00:00:00 | 00:00:00 | |
| OE5DRO-10 | 2026-09-05 03:10:43 | 47.03333 | 16.41975 | 89° | 47km/h | 16888m | 4.7m/s | -61.2°C | 7.7% | 0hPa | 2.6V | 00:00:00 | 00:00:00 | 00:00:00 | |
| OE5DXL-15 | 2026-09-05 03:10:42 | 47.03333 | 16.41957 | 92° | 46km/h | 16883m | 4.4m/s | -61.2°C | 7.7% | 0hPa | 2.6V | 00:00:00 | 00:00:00 | 00:00:00 | |
| PETON7-10 | 2026-09-05 03:10:41 | 47.03333 | 16.41940 | 91° | 47km/h | 16878m | 5.7m/s | -61.2°C | 7.7% | 0hPa | 2.6V | 00:00:00 | 01:24:14 | 00:00:00 | |
| PG1ADW-2 | 2026-09-05 03:10:37 | 47.03334 | 16.41869 | 87° | 46km/h | 16858m | 5.9m/s | -61.2°C | 7.7% | 0hPa | 2.6V | 00:00:00 | 00:00:00 | 00:00:00 | |
| PETON7-10 | 2026-09-05 03:10:26 | 47.03317 | 16.41680 | 89° | 46km/h | 16800m | 5.8m/s | -61.0°C | 7.6% | 0hPa | 2.6V | 00:00:00 | 00:00:00 | 00:00:00 | |
| OE5DRO-10 | 2026-09-05 03:10:24 | 47.03315 | 16.41648 | 81° | 46km/h | 16790m | 5.2m/s | -61.0°C | 7.6% | 0hPa | 2.6V | 00:00:00 | 00:00:00 | 00:00:00 | |
| OE3JTB-15 | 2026-09-05 03:10:21 | 47.03309 | 16.41599 | 78° | 44km/h | 16774m | 6.1m/s | -60.9°C | 7.6% | 0hPa | 2.6V | 00:00:00 | 01:23:54 | 00:00:00 | |
| PG1ADW-2 | 2026-09-05 03:10:17 | 47.03300 | 16.41534 | 83° | 46km/h | 16753m | 3.9m/s | -60.7°C | 7.7% | 0hPa | 2.6V | 00:00:00 | 01:23:50 | 00:00:00 | |
| OE5DXL-15 | 2026-09-05 03:10:12 | 47.03293 | 16.41448 | 83° | 46km/h | 16728m | 5.4m/s | -60.7°C | 7.7% | 0hPa | 2.6V | 00:00:00 | 00:00:00 | 00:00:00 | |
| PETON7-10 | 2026-09-05 03:10:11 | 47.03291 | 16.41431 | 81° | 46km/h | 16723m | 3.9m/s | -60.6°C | 7.7% | 0hPa | 2.7V | 00:00:00 | 00:00:00 | 00:00:00 | |
| PG1ADW-2 | 2026-09-05 03:09:57 | 47.03257 | 16.41199 | 85° | 44km/h | 16653m | 4.4m/s | -60.2°C | 7.3% | 0hPa | 2.7V | 00:00:00 | 00:00:00 | 08:30:00 | |
| PETON7-10 | 2026-09-05 03:09:56 | 47.03256 | 16.41184 | 85° | 44km/h | 16648m | 5.2m/s | -60.2°C | 7.3% | 0hPa | 2.7V | 00:00:00 | 01:23:29 | 00:00:00 | |
| OE3JTB-15 | 2026-09-05 03:09:52 | 47.03252 | 16.41123 | 84° | 46km/h | 16626m | 4.0m/s | -60.1°C | 7.1% | 0hPa | 2.7V | 00:00:00 | 00:00:00 | 08:30:00 | |
| OE5DRO-10 | 2026-09-05 03:09:46 | 47.03236 | 16.41027 | 70° | 42km/h | 16591m | 5.5m/s | -59.9°C | 6.9% | 0hPa | 2.7V | 00:00:00 | 00:00:00 | 00:00:00 | |
| OE5DXL-15 | 2026-09-05 03:09:42 | 47.03224 | 16.40958 | 82° | 44km/h | 16565m | 7.3m/s | -60.6°C | 7.3% | 0hPa | 2.7V | 00:00:00 | 00:00:00 | 00:00:00 | |
| PETON7-10 | 2026-09-05 03:09:41 | 47.03223 | 16.40943 | 87° | 42km/h | 16558m | 6.2m/s | -60.6°C | 7.3% | 0hPa | 2.7V | 00:00:00 | 00:00:00 | 00:00:00 | |
| PG1ADW-2 | 2026-09-05 03:09:37 | 47.03225 | 16.40881 | 90° | 44km/h | 16533m | 5.4m/s | -61.3°C | 7.9% | 0hPa | 2.7V | 00:00:00 | 00:00:00 | 00:00:00 | |
| OE5DRO-10 | 2026-09-05 03:09:27 | 47.03220 | 16.40729 | 87° | 46km/h | 16478m | 4.4m/s | -61.2°C | 7.7% | 0hPa | 2.7V | 00:00:00 | 00:00:00 | 00:00:00 | |
| PETON7-10 | 2026-09-05 03:09:26 | 47.03219 | 16.40714 | 87° | 47km/h | 16473m | 6.6m/s | -61.2°C | 7.7% | 0hPa | 2.7V | 00:00:00 | 00:00:00 | 00:00:00 | |
| OE8JPQ-2 | 2026-09-05 03:09:20 | 47.03226 | 16.40616 | 98° | 46km/h | 16439m | 5.3m/s | -61.3°C | 8.0% | 0hPa | 2.7V | 00:00:00 | 00:00:00 | 00:00:00 | |
| PG1ADW-2 | 2026-09-05 03:09:17 | 47.03230 | 16.40563 | 96° | 47km/h | 16422m | 6.7m/s | -61.1°C | 7.9% | 0hPa | 2.7V | 00:00:00 | 00:00:00 | 00:00:00 | |
| OE5DXL-15 | 2026-09-05 03:09:12 | 47.03235 | 16.40474 | 98° | 46km/h | 16394m | 6.0m/s | -60.9°C | 7.8% | 0hPa | 2.7V | 00:00:00 | 00:00:00 | 00:00:00 | |
| PETON7-10 | 2026-09-05 03:09:11 | 47.03237 | 16.40456 | 99° | 46km/h | 16389m | 4.8m/s | -60.8°C | 7.8% | 0hPa | 2.7V | 00:00:00 | 01:22:44 | 00:00:00 | |
| OE5DRO-10 | 2026-09-05 03:09:08 | 47.03242 | 16.40406 | 100° | 46km/h | 16372m | 6.4m/s | -60.7°C | 7.7% | 0hPa | 2.7V | 00:00:00 | 00:00:00 | 08:30:00 | |
| PG1ADW-2 | 2026-09-05 03:08:57 | 47.03258 | 16.40219 | 101° | 47km/h | 16310m | 5.9m/s | -60.2°C | 7.5% | 0hPa | 2.7V | 00:00:00 | 01:22:30 | 00:00:00 | |
| PETON7-10 | 2026-09-05 03:08:56 | 47.03260 | 16.40202 | 101° | 46km/h | 16304m | 4.9m/s | -60.1°C | 7.5% | 0hPa | 2.7V | 00:00:00 | 00:00:00 | 08:30:00 | |
| OE5DRO-10 | 2026-09-05 03:08:49 | 47.03272 | 16.40084 | 101° | 47km/h | 16265m | 6.5m/s | -59.9°C | 7.3% | 0hPa | 2.6V | 00:00:00 | 00:00:00 | 00:00:00 | |
| OE8JPQ-2 | 2026-09-05 03:08:48 | 47.03275 | 16.40068 | 102° | 47km/h | 16260m | 5.2m/s | -59.9°C | 7.3% | 0hPa | 2.6V | 00:00:00 | 01:22:21 | 00:00:00 | |
| OE5DXL-15 | 2026-09-05 03:08:42 | 47.03285 | 16.39965 | 93° | 49km/h | 16225m | 5.2m/s | -60.1°C | 7.5% | 0hPa | 2.6V | 00:00:00 | 00:00:00 | 08:30:00 | |
| PETON7-10 | 2026-09-05 03:08:41 | 47.03286 | 16.39947 | 91° | 49km/h | 16219m | 6.8m/s | -60.1°C | 7.4% | 0hPa | 2.6V | 00:00:00 | 00:00:00 | 00:00:00 | |
| PG1ADW-2 | 2026-09-05 03:08:37 | 47.03287 | 16.39874 | 94° | 49km/h | 16197m | 4.8m/s | -60.0°C | 7.5% | 0hPa | 2.6V | 00:00:00 | 00:00:00 | 00:00:00 | |
| OE5DRO-10 | 2026-09-05 03:08:30 | 47.03297 | 16.39752 | 98° | 51km/h | 16159m | 6.2m/s | -59.6°C | 7.3% | 0hPa | 2.6V | 00:00:00 | 00:00:00 | 00:00:00 | |
| OE8JPQ-2 | 2026-09-05 03:08:28 | 47.03301 | 16.39716 | 101° | 51km/h | 16149m | 4.9m/s | -59.5°C | 7.3% | 0hPa | 2.6V | 00:00:00 | 00:00:00 | 00:00:00 | |
| PETON7-10 | 2026-09-05 03:08:26 | 47.03306 | 16.39681 | 104° | 51km/h | 16138m | 5.0m/s | -59.4°C | 7.3% | 0hPa | 2.6V | 00:00:00 | 01:21:59 | 00:00:00 | |
| PG1ADW-2 | 2026-09-05 03:08:17 | 47.03327 | 16.39518 | 100° | 51km/h | 16089m | 4.5m/s | -59.2°C | 7.4% | 0hPa | 2.6V | 00:00:00 | 00:00:00 | 00:00:00 | |
| OE5DXL-15 | 2026-09-05 03:08:12 | 47.03340 | 16.39425 | 107° | 53km/h | 16063m | 5.2m/s | -59.1°C | 7.3% | 0hPa | 2.6V | 00:00:00 | 00:00:00 | 00:00:00 | |
| PETON7-10 | 2026-09-05 03:08:11 | 47.03344 | 16.39406 | 106° | 51km/h | 16057m | 5.7m/s | -59.1°C | 7.3% | 0hPa | 2.6V | 00:00:00 | 00:00:00 | 00:00:00 | |
| OE8JPQ-2 | 2026-09-05 03:08:08 | 47.03355 | 16.39350 | 104° | 53km/h | 16040m | 6.6m/s | -59.1°C | 7.2% | 0hPa | 2.7V | 00:00:00 | 00:00:00 | 00:00:00 | |
| PG1ADW-2 | 2026-09-05 03:07:57 | 47.03398 | 16.39153 | 120° | 55km/h | 15982m | 5.4m/s | -58.9°C | 7.1% | 0hPa | 2.7V | 00:00:00 | 00:00:00 | 00:00:00 | |
| PETON7-10 | 2026-09-05 03:07:56 | 47.03404 | 16.39136 | 119° | 55km/h | 15977m | 4.8m/s | -58.9°C | 7.2% | 0hPa | 2.6V | 00:00:00 | 00:00:00 | 00:00:00 | |
| OE5DRO-10 | 2026-09-05 03:07:52 | 47.03429 | 16.39066 | 116° | 57km/h | 15957m | 5.3m/s | -58.7°C | 7.1% | 0hPa | 2.6V | 00:00:00 | 00:00:00 | 00:00:00 | |
| OE8JPQ-2 | 2026-09-05 03:07:48 | 47.03454 | 16.38992 | 117° | 60km/h | 15937m | 6.3m/s | -58.6°C | 7.0% | 0hPa | 2.6V | 00:00:00 | 01:21:21 | 00:00:00 | |
| PETON7-10 | 2026-09-05 03:07:41 | 47.03494 | 16.38865 | 111° | 64km/h | 15904m | 5.9m/s | -59.2°C | 7.4% | 0hPa | 2.6V | 00:00:00 | 01:21:14 | 00:00:00 | |
| PG1ADW-2 | 2026-09-05 03:07:37 | 47.03516 | 16.38785 | 114° | 66km/h | 15883m | 6.1m/s | -59.4°C | 7.4% | 0hPa | 2.6V | 00:00:00 | 01:21:10 | 00:00:00 | |
| OE5DRO-10 | 2026-09-05 03:07:33 | 47.03540 | 16.38699 | 109° | 66km/h | 15864m | 5.3m/s | -59.3°C | 7.4% | 0hPa | 2.6V | 00:00:00 | 00:00:00 | 00:00:00 | |
| OE8JPQ-2 | 2026-09-05 03:07:28 | 47.03558 | 16.38580 | 100° | 68km/h | 15841m | 3.2m/s | -59.2°C | 7.3% | 0hPa | 2.6V | 00:00:00 | 00:00:00 | 00:00:00 | |
| PETON7-10 | 2026-09-05 03:07:26 | 47.03564 | 16.38530 | 102° | 66km/h | 15832m | 4.5m/s | -59.2°C | 7.2% | 0hPa | 2.6V | 00:00:00 | 00:00:00 | 00:00:00 | |
| PG1ADW-2 | 2026-09-05 03:07:17 | 47.03606 | 16.38316 | 103° | 58km/h | 15793m | 4.4m/s | -59.4°C | 7.3% | 0hPa | 2.7V | 00:00:00 | 00:00:00 | 00:00:00 | |
| OE5DRO-10 | 2026-09-05 03:07:14 | 47.03615 | 16.38247 | 100° | 57km/h | 15781m | 4.7m/s | -59.6°C | 7.3% | 0hPa | 2.7V | 00:00:00 | 00:00:00 | 00:00:00 | |
| OE5DXL-15 | 2026-09-05 03:07:12 | 47.03621 | 16.38200 | 104° | 57km/h | 15773m | 4.7m/s | -60.0°C | 7.5% | 0hPa | 2.6V | 00:00:00 | 00:00:00 | 00:00:00 | |
| PETON7-10 | 2026-09-05 03:07:11 | 47.03625 | 16.38178 | 103° | 57km/h | 15769m | 3.1m/s | -60.2°C | 7.6% | 0hPa | 2.7V | 00:00:00 | 00:00:00 | 00:00:00 | |
| OE8JPQ-2 | 2026-09-05 03:07:08 | 47.03635 | 16.38110 | 104° | 58km/h | 15756m | 4.2m/s | -60.8°C | 8.1% | 0hPa | 2.7V | 00:00:00 | 00:00:00 | 00:00:00 | |
| PG1ADW-2 | 2026-09-05 03:06:57 | 47.03657 | 16.37891 | 94° | 57km/h | 15708m | 4.9m/s | -60.6°C | 8.3% | 0hPa | 2.7V | 00:00:00 | 00:00:00 | 08:30:00 | |
| OE5DRO-10 | 2026-09-05 03:06:55 | 47.03659 | 16.37851 | 97° | 57km/h | 15699m | 5.5m/s | -60.6°C | 8.2% | 0hPa | 2.7V | 00:00:00 | 00:00:00 | 00:00:00 | |
| OE5DXL-15 | 2026-09-05 03:06:42 | 47.03682 | 16.37587 | 93° | 62km/h | 15642m | 4.4m/s | -60.6°C | 8.3% | 0hPa | 2.7V | 00:00:00 | 00:00:00 | 00:00:00 | |
| PETON7-10 | 2026-09-05 03:06:41 | 47.03683 | 16.37565 | 93° | 62km/h | 15637m | 4.2m/s | -60.6°C | 8.2% | 0hPa | 2.7V | 00:00:00 | 00:00:00 | 08:30:00 | |
| PG1ADW-2 | 2026-09-05 03:06:37 | 47.03684 | 16.37477 | 92° | 62km/h | 15620m | 4.0m/s | -60.5°C | 8.1% | 0hPa | 2.6V | 00:00:00 | 00:00:00 | 00:00:00 | |
| OE5DRO-10 | 2026-09-05 03:06:36 | 47.03685 | 16.37455 | 91° | 62km/h | 15616m | 3.9m/s | -60.5°C | 8.2% | 0hPa | 2.6V | 00:00:00 | 00:00:00 | 00:00:00 | |
| PETON7-10 | 2026-09-05 03:06:26 | 47.03686 | 16.37221 | 90° | 62km/h | 15575m | 4.3m/s | -60.2°C | 8.0% | 0hPa | 2.6V | 00:00:00 | 00:00:00 | 00:00:00 | |
| PG1ADW-2 | 2026-09-05 03:06:17 | 47.03692 | 16.37015 | 94° | 57km/h | 15536m | 4.5m/s | -60.6°C | 8.4% | 0hPa | 2.6V | 00:00:00 | 01:19:50 | 00:00:00 | |
| OE8JPQ-2 | 2026-09-05 03:06:13 | 47.03695 | 16.36924 | 93° | 53km/h | 15517m | 3.6m/s | -60.7°C | 8.2% | 0hPa | 2.6V | 00:00:00 | 01:19:46 | 00:00:00 | |
| OE5DXL-15 | 2026-09-05 03:06:12 | 47.03696 | 16.36900 | 93° | 51km/h | 15513m | 5.2m/s | -60.8°C | 8.3% | 0hPa | 2.6V | 00:00:00 | 00:00:00 | 00:00:00 | |
| OE3OSB-13 | 2026-09-05 03:06:11 | 47.03698 | 16.36832 | 92° | 58km/h | 15500m | 4.2m/s | 0°C | -1.0% | -1.0hPa | 2.6V | 00:00:00 | 00:00:00 | 00:00:00 | |
| OE5DRO-10 | 2026-09-05 03:05:58 | 47.03719 | 16.36620 | 105° | 49km/h | 15452m | 4.6m/s | -60.9°C | 8.9% | 0hPa | 2.6V | 00:00:00 | 00:00:00 | 00:00:00 | |
| PG1ADW-2 | 2026-09-05 03:05:57 | 47.03722 | 16.36602 | 104° | 49km/h | 15447m | 4.7m/s | -60.9°C | 8.8% | 0hPa | 2.6V | 00:00:00 | 00:00:00 | 00:00:00 | |
| PETON7-10 | 2026-09-05 03:05:56 | 47.03725 | 16.36585 | 103° | 47km/h | 15443m | 4.1m/s | -60.9°C | 8.7% | 0hPa | 2.6V | 00:00:00 | 00:00:00 | 00:00:00 | |
| OE8JPQ-2 | 2026-09-05 03:05:51 | 47.03739 | 16.36499 | 103° | 49km/h | 15421m | 3.8m/s | -60.8°C | 8.6% | 0hPa | 2.6V | 00:00:00 | 00:00:00 | 08:30:00 | |
| OE5DXL-15 | 2026-09-05 03:05:42 | 47.03762 | 16.36347 | 99° | 53km/h | 15380m | 3.6m/s | -60.8°C | 8.6% | 0hPa | 2.6V | 00:00:00 | 00:00:00 | 00:00:00 | |
| PETON7-10 | 2026-09-05 03:05:41 | 47.03765 | 16.36326 | 100° | 51km/h | 15375m | 4.8m/s | -60.8°C | 8.6% | 0hPa | 2.6V | 00:00:00 | 00:00:00 | 00:00:00 | |
| OE5DRO-10 | 2026-09-05 03:05:39 | 47.03769 | 16.36286 | 99° | 49km/h | 15366m | 4.5m/s | -60.7°C | 8.6% | 0hPa | 2.6V | 00:00:00 | 00:00:00 | 00:00:00 | |
| PG1ADW-2 | 2026-09-05 03:05:37 | 47.03773 | 16.36247 | 103° | 51km/h | 15357m | 4.5m/s | -60.8°C | 8.8% | 0hPa | 2.6V | 00:00:00 | 00:00:00 | 00:00:00 | |
| OE8JPQ-2 | 2026-09-05 03:05:31 | 47.03786 | 16.36143 | 102° | 53km/h | 15332m | 3.2m/s | -60.9°C | 9.0% | 0hPa | 2.6V | 00:00:00 | 00:00:00 | 00:00:00 | |
| PETON7-10 | 2026-09-05 03:05:26 | 47.03795 | 16.36051 | 96° | 55km/h | 15308m | 5.9m/s | -60.8°C | 8.8% | 0hPa | 2.6V | 00:00:00 | 01:18:59 | 00:00:00 | |
| OE5DRO-10 | 2026-09-05 03:05:20 | 47.03801 | 16.35938 | 95° | 57km/h | 15280m | 4.1m/s | -60.7°C | 8.8% | 0hPa | 2.6V | 00:00:00 | 00:00:00 | 00:00:00 | |
| PG1ADW-2 | 2026-09-05 03:05:17 | 47.03804 | 16.35878 | 94° | 58km/h | 15266m | 5.8m/s | -60.6°C | 8.7% | 0hPa | 2.7V | 00:00:00 | 00:00:00 | 00:00:00 | |
| OE5DXL-15 | 2026-09-05 03:05:12 | 47.03809 | 16.35768 | 93° | 64km/h | 15242m | 4.1m/s | -60.6°C | 8.8% | 0hPa | 2.7V | 00:00:00 | 00:00:00 | 00:00:00 | |
| OE8JPQ-2 | 2026-09-05 03:05:11 | 47.03810 | 16.35746 | 96° | 60km/h | 15238m | 5.5m/s | -60.5°C | 8.8% | 0hPa | 2.7V | 00:00:00 | 01:18:44 | 00:00:00 | |
| OE3OSB-13 | 2026-09-05 03:05:08 | 47.03816 | 16.35663 | 96° | 57km/h | 15220m | 4.6m/s | -60.6°C | 4.5% | -1.0hPa | 2.7V | 00:00:00 | 00:00:00 | 00:00:00 | |
| OE5DRO-10 | 2026-09-05 03:05:01 | 47.03826 | 16.35535 | 99° | 69km/h | 15194m | 4.4m/s | -60.5°C | 8.7% | 0hPa | 2.7V | 00:00:00 | 00:00:00 | 00:00:00 | |
| PG1ADW-2 | 2026-09-05 03:04:57 | 47.03834 | 16.35444 | 100° | 69km/h | 15174m | 4.7m/s | -60.6°C | 8.9% | 0hPa | 2.7V | 00:00:00 | 01:18:30 | 00:00:00 | |
| PETON7-10 | 2026-09-05 03:04:56 | 47.03837 | 16.35420 | 101° | 69km/h | 15169m | 4.2m/s | -60.6°C | 8.9% | 0hPa | 2.6V | 00:00:00 | 00:00:00 | 00:00:00 | |
| OE8JPQ-2 | 2026-09-05 03:04:51 | 47.03855 | 16.35299 | 103° | 71km/h | 15145m | 5.5m/s | -60.4°C | 8.8% | 0hPa | 2.6V | 00:00:00 | 00:00:00 | 00:00:00 | |
| OE5DXL-15 | 2026-09-05 03:04:42 | 47.03882 | 16.35066 | 98° | 77km/h | 15101m | 4.7m/s | -60.2°C | 8.8% | 0hPa | 2.6V | 00:00:00 | 00:00:00 | 00:00:00 | |
| PETON7-10 | 2026-09-05 03:04:41 | 47.03884 | 16.35040 | 97° | 73km/h | 15097m | 4.1m/s | -60.2°C | 8.7% | 0hPa | 2.6V | 00:00:00 | 01:18:14 | 00:00:00 | |
| PG1ADW-2 | 2026-09-05 03:04:37 | 47.03892 | 16.34934 | 99° | 75km/h | 15078m | 3.9m/s | -60.2°C | 8.7% | 0hPa | 2.6V | 00:00:00 | 00:00:00 | 00:00:00 | |
| OE8JPQ-2 | 2026-09-05 03:04:31 | 47.03908 | 16.34773 | 97° | 78km/h | 15048m | 4.0m/s | -60.1°C | 8.6% | 0hPa | 2.6V | 00:00:00 | 00:00:00 | 00:00:00 | |
| PETON7-10 | 2026-09-05 03:04:26 | 47.03917 | 16.34636 | 98° | 78km/h | 15022m | 6.3m/s | -60.1°C | 8.7% | 0hPa | 2.6V | 00:00:00 | 00:00:00 | 08:30:00 | |
| OE5DRO-10 | 2026-09-05 03:04:23 | 47.03924 | 16.34552 | 97° | 78km/h | 15007m | 4.9m/s | -60.1°C | 8.8% | 0hPa | 2.6V | 00:00:00 | 00:00:00 | 00:00:00 | |
| PG1ADW-2 | 2026-09-05 03:04:17 | 47.03934 | 16.34377 | 93° | 75km/h | 14975m | 6.4m/s | -60.3°C | 9.0% | 0hPa | 2.7V | 00:00:00 | 00:00:00 | 00:00:00 | |
| OE5DXL-15 | 2026-09-05 03:04:12 | 47.03938 | 16.34228 | 93° | 71km/h | 14946m | 5.3m/s | -60.2°C | 8.8% | 0hPa | 2.7V | 00:00:00 | 00:00:00 | 08:30:00 | |
| OE8JPQ-2 | 2026-09-05 03:04:11 | 47.03939 | 16.34199 | 93° | 73km/h | 14941m | 6.3m/s | -60.1°C | 8.9% | 0hPa | 2.7V | 00:00:00 | 01:17:44 | 00:00:00 | |
| OE5DRO-10 | 2026-09-05 03:04:04 | 47.03938 | 16.34007 | 87° | 68km/h | 14900m | 5.3m/s | -59.8°C | 8.7% | 0hPa | 2.7V | 00:00:00 | 00:00:00 | 00:00:00 | |
| PG1ADW-2 | 2026-09-05 03:03:57 | 47.03932 | 16.33819 | 88° | 68km/h | 14859m | 4.8m/s | -59.5°C | 8.9% | 0hPa | 2.7V | 00:00:00 | 00:00:00 | 08:30:00 | |
| PETON7-10 | 2026-09-05 03:03:56 | 47.03931 | 16.33794 | 86° | 68km/h | 14854m | 6.6m/s | -59.5°C | 8.9% | 0hPa | 2.7V | 00:00:00 | 01:17:29 | 00:00:00 | |
| OE8JPQ-2 | 2026-09-05 03:03:51 | 47.03923 | 16.33668 | 84° | 64km/h | 14826m | 5.6m/s | -59.3°C | 8.8% | 0hPa | 2.7V | 00:00:00 | 00:00:00 | 00:00:00 | |
| OE5DRO-10 | 2026-09-05 03:03:43 | 47.03912 | 16.33471 | 86° | 60km/h | 14782m | 4.6m/s | -59.0°C | 8.6% | 0hPa | 2.7V | 00:00:00 | 00:00:00 | 00:00:00 | |
| OE5DXL-15 | 2026-09-05 03:03:42 | 47.03911 | 16.33447 | 88° | 60km/h | 14776m | 6.2m/s | -59.0°C | 8.6% | 0hPa | 2.7V | 00:00:00 | 00:00:00 | 00:00:00 | |
| PETON7-10 | 2026-09-05 03:03:41 | 47.03911 | 16.33422 | 88° | 60km/h | 14771m | 4.2m/s | -59.0°C | 8.6% | 0hPa | 2.7V | 00:00:00 | 00:00:00 | 00:00:00 | |
| PG1ADW-2 | 2026-09-05 03:03:37 | 47.03906 | 16.33328 | 82° | 58km/h | 14749m | 4.6m/s | -58.8°C | 8.7% | 0hPa | 2.7V | 00:00:00 | 01:17:10 | 00:00:00 | |
| OE8JPQ-2 | 2026-09-05 03:03:31 | 47.03887 | 16.33197 | 77° | 60km/h | 14720m | 5.4m/s | -58.7°C | 8.7% | 0hPa | 2.7V | 00:00:00 | 00:00:00 | 00:00:00 | |
| PETON7-10 | 2026-09-05 03:03:26 | 47.03871 | 16.33092 | 79° | 60km/h | 14694m | 4.4m/s | -58.6°C | 8.6% | 0hPa | 2.7V | 00:00:00 | 00:00:00 | 00:00:00 | |
| OE5DRO-10 | 2026-09-05 03:03:24 | 47.03865 | 16.33050 | 78° | 62km/h | 14684m | 4.6m/s | -58.5°C | 8.5% | 0hPa | 2.7V | 00:00:00 | 00:00:00 | 08:30:00 | |
| PG1ADW-2 | 2026-09-05 03:03:17 | 47.03845 | 16.32899 | 82° | 60km/h | 14650m | 4.7m/s | -59.2°C | 8.9% | 0hPa | 2.6V | 00:00:00 | 00:00:00 | 00:00:00 | |
| OE5DXL-15 | 2026-09-05 03:03:12 | 47.03836 | 16.32782 | 87° | 64km/h | 14627m | 3.7m/s | -59.4°C | 9.4% | 0hPa | 2.6V | 00:00:00 | 00:00:00 | 00:00:00 | |
| PETON7-10 | 2026-09-05 03:03:11 | 47.03836 | 16.32758 | 88° | 60km/h | 14623m | 4.8m/s | -59.4°C | 9.5% | 0hPa | 2.6V | 00:00:00 | 01:16:44 | 00:00:00 | |
| OE5DRO-10 | 2026-09-05 03:03:05 | 47.03827 | 16.32623 | 84° | 64km/h | 14596m | 4.9m/s | -59.6°C | 9.5% | 0hPa | 2.6V | 00:00:00 | 00:00:00 | 00:00:00 | |
| OE3OSB-13 | 2026-09-05 03:03:04 | 47.03824 | 16.32580 | 82° | 57km/h | 14587m | 4.9m/s | -59.8°C | 5.3% | -1.0hPa | 2.6V | 00:00:00 | 00:00:00 | 00:00:00 | |
| OE3JTB-15 | 2026-09-05 03:03:00 | 47.03819 | 16.32517 | 85° | 71km/h | 14573m | 4.5m/s | -59.9°C | 9.6% | 0hPa | 2.6V | 00:00:00 | 00:00:00 | 00:00:00 | |
| PG1ADW-2 | 2026-09-05 03:02:57 | 47.03817 | 16.32450 | 89° | 71km/h | 14561m | 2.7m/s | -59.9°C | 9.6% | 0hPa | 2.6V | 00:00:00 | 00:00:00 | 00:00:00 | |
| PETON7-10 | 2026-09-05 03:02:56 | 47.03816 | 16.32427 | 89° | 69km/h | 14557m | 4.7m/s | -60.0°C | 9.6% | 0hPa | 2.6V | 00:00:00 | 00:00:00 | 00:00:00 | |
| OE8JPQ-2 | 2026-09-05 03:02:51 | 47.03818 | 16.32308 | 93° | 77km/h | 14535m | 3.9m/s | -60.0°C | 9.6% | 0hPa | 2.6V | 00:00:00 | 00:00:00 | 08:30:00 | |
| OE5DRO-10 | 2026-09-05 03:02:46 | 47.03824 | 16.32178 | 95° | 80km/h | 14513m | 4.4m/s | -60.0°C | 9.8% | 0hPa | 2.6V | 00:00:00 | 00:00:00 | 00:00:00 | |
| OE5DXL-15 | 2026-09-05 03:02:42 | 47.03831 | 16.32064 | 96° | 86km/h | 14495m | 4.2m/s | -60.0°C | 9.8% | 0hPa | 2.6V | 00:00:00 | 00:00:00 | 00:00:00 | |
| PETON7-10 | 2026-09-05 03:02:41 | 47.03833 | 16.32036 | 96° | 82km/h | 14491m | 4.0m/s | -60.0°C | 9.8% | 0hPa | 2.6V | 00:00:00 | 00:00:00 | 00:00:00 | |
| PG1ADW-2 | 2026-09-05 03:02:36 | 47.03842 | 16.31893 | 96° | 88km/h | 14469m | 3.4m/s | -60.2°C | 9.9% | 0hPa | 2.6V | 00:00:00 | 00:00:00 | 00:00:00 | |
| OE8JPQ-2 | 2026-09-05 03:02:31 | 47.03852 | 16.31745 | 97° | 91km/h | 14448m | 5.9m/s | -60.6°C | 10.5% | 0hPa | 2.6V | 00:00:00 | 00:00:00 | 00:00:00 | |
| OE3JTB-15 | 2026-09-05 03:02:30 | 47.03854 | 16.31713 | 96° | 89km/h | 14443m | 4.0m/s | -60.6°C | 10.6% | 0hPa | 2.6V | 00:00:00 | 00:00:00 | 00:00:00 | |
| OE5DRO-10 | 2026-09-05 03:02:27 | 47.03861 | 16.31612 | 95° | 91km/h | 14429m | 5.3m/s | -60.5°C | 10.7% | 0hPa | 2.6V | 00:00:00 | 00:00:00 | 00:00:00 | |
| PETON7-10 | 2026-09-05 03:02:26 | 47.03863 | 16.31578 | 94° | 91km/h | 14425m | 3.7m/s | -60.5°C | 10.7% | 0hPa | 2.7V | 00:00:00 | 01:15:59 | 00:00:00 | |
| PG1ADW-2 | 2026-09-05 03:02:16 | 47.03879 | 16.31247 | 94° | 91km/h | 14384m | 4.9m/s | -60.6°C | 10.7% | 0hPa | 2.7V | 00:00:00 | 01:15:49 | 00:00:00 | |
| OE5DXL-15 | 2026-09-05 03:02:12 | 47.03883 | 16.31111 | 94° | 89km/h | 14366m | 4.8m/s | -60.5°C | 10.8% | 0hPa | 2.7V | 00:00:00 | 00:00:00 | 00:00:00 | |
| OE8JPQ-2 | 2026-09-05 03:02:11 | 47.03885 | 16.31077 | 94° | 89km/h | 14362m | 3.4m/s | -60.5°C | 10.9% | 0hPa | 2.7V | 00:00:00 | 01:15:44 | 00:00:00 | |
| OE5DRO-10 | 2026-09-05 03:02:08 | 47.03887 | 16.30978 | 92° | 91km/h | 14349m | 5.1m/s | -60.5°C | 10.9% | 0hPa | 2.7V | 00:00:00 | 00:00:00 | 00:00:00 | |
| OE3JTB-15 | 2026-09-05 03:01:57 | 47.03884 | 16.30612 | 89° | 91km/h | 14300m | 4.6m/s | -60.2°C | 11.1% | 0hPa | 2.7V | 00:00:00 | 01:15:30 | 00:00:00 | |
| PG1ADW-2 | 2026-09-05 03:01:56 | 47.03883 | 16.30579 | 87° | 89km/h | 14295m | 4.5m/s | -60.2°C | 11.2% | 0hPa | 2.7V | 00:00:00 | 00:00:00 | 00:00:00 | |
| OE8JPQ-2 | 2026-09-05 03:01:51 | 47.03877 | 16.30410 | 86° | 89km/h | 14274m | 3.1m/s | -60.2°C | 11.3% | 0hPa | 2.7V | 00:00:00 | 00:00:00 | 00:00:00 | |
| OE5DRO-10 | 2026-09-05 03:01:49 | 47.03874 | 16.30341 | 87° | 89km/h | 14266m | 3.9m/s | -60.1°C | 11.4% | 0hPa | 2.7V | 00:00:00 | 00:00:00 | 00:00:00 | |
| OE5DXL-15 | 2026-09-05 03:01:42 | 47.03867 | 16.30113 | 89° | 89km/h | 14234m | 4.4m/s | -59.9°C | 11.6% | 0hPa | 2.7V | 00:00:00 | 00:00:00 | 00:00:00 | |
| PETON7-10 | 2026-09-05 03:01:41 | 47.03867 | 16.30081 | 90° | 89km/h | 14229m | 4.8m/s | -59.9°C | 11.7% | 0hPa | 2.7V | 00:00:00 | 01:15:14 | 00:00:00 | |
| PG1ADW-2 | 2026-09-05 03:01:36 | 47.03865 | 16.29911 | 90° | 89km/h | 14206m | 5.3m/s | -59.9°C | 11.8% | 0hPa | 2.7V | 00:00:00 | 00:00:00 | 00:00:00 | |
| OE8JPQ-2 | 2026-09-05 03:01:31 | 47.03867 | 16.29747 | 92° | 89km/h | 14181m | 3.6m/s | -59.8°C | 11.8% | 0hPa | 2.7V | 00:00:00 | 00:00:00 | 00:00:00 | |
| OE5DRO-10 | 2026-09-05 03:01:30 | 47.03868 | 16.29716 | 94° | 91km/h | 14177m | 5.4m/s | -59.8°C | 11.9% | 0hPa | 2.7V | 00:00:00 | 00:00:00 | 00:00:00 | |
| OE3JTB-15 | 2026-09-05 03:01:28 | 47.03871 | 16.29654 | 95° | 95km/h | 14167m | 5.3m/s | -59.7°C | 12.0% | 0hPa | 2.7V | 00:00:00 | 00:00:00 | 00:00:00 | |
| PG1ADW-2 | 2026-09-05 03:01:16 | 47.03888 | 16.29251 | 94° | 95km/h | 14112m | 4.5m/s | -59.8°C | 12.4% | 0hPa | 2.7V | 00:00:00 | 00:00:00 | 00:00:00 | |
| OE5DXL-15 | 2026-09-05 03:01:12 | 47.03895 | 16.29112 | 93° | 97km/h | 14095m | 5.1m/s | -60.1°C | 13.0% | 0hPa | 2.7V | 00:00:00 | 00:00:00 | 00:00:00 | |
| OE8JPQ-2 | 2026-09-05 03:01:11 | 47.03896 | 16.29076 | 92° | 97km/h | 14090m | 4.6m/s | -60.2°C | 13.2% | 0hPa | 2.7V | 00:00:00 | 01:14:44 | 00:00:00 | |
| OE3JTB-15 | 2026-09-05 03:00:57 | 47.03880 | 16.28581 | 89° | 99km/h | 14025m | 3.5m/s | -61.0°C | 15.6% | 0hPa | 2.7V | 00:00:00 | 00:00:00 | 00:00:00 | |
| PG1ADW-2 | 2026-09-05 03:00:56 | 47.03879 | 16.28545 | 88° | 99km/h | 14021m | 4.2m/s | -61.0°C | 15.7% | 0hPa | 2.7V | 00:00:00 | 01:14:29 | 08:30:00 | |
| OE5DRO-10 | 2026-09-05 03:00:52 | 47.03871 | 16.28400 | 85° | 99km/h | 14003m | 4.2m/s | -60.9°C | 16.2% | 0hPa | 2.7V | 00:00:00 | 00:00:00 | 00:00:00 | |
| OE8JPQ-2 | 2026-09-05 03:00:50 | 47.03866 | 16.28328 | 84° | 99km/h | 13995m | 4.8m/s | -60.8°C | 16.3% | 0hPa | 2.7V | 00:00:00 | 00:00:00 | 00:00:00 | |
| OE5DXL-15 | 2026-09-05 03:00:42 | 47.03838 | 16.28041 | 79° | 100km/h | 13958m | 3.7m/s | -61.5°C | 18.3% | 0hPa | 2.7V | 00:00:00 | 00:00:00 | 00:00:00 | |
| PETON7-10 | 2026-09-05 03:00:41 | 47.03833 | 16.28006 | 79° | 100km/h | 13953m | 5.2m/s | -61.5°C | 18.5% | 0hPa | 2.7V | 00:00:00 | 00:00:00 | 00:00:00 | |
| PG1ADW-2 | 2026-09-05 03:00:36 | 47.03810 | 16.27828 | 82° | 102km/h | 13931m | 3.5m/s | -61.5°C | 19.6% | 0hPa | 2.7V | 00:00:00 | 00:00:00 | 00:00:00 | |
| OE5DRO-10 | 2026-09-05 03:00:33 | 47.03800 | 16.27716 | 85° | 102km/h | 13917m | 4.9m/s | -61.7°C | 20.2% | 0hPa | 2.7V | 00:00:00 | 00:00:00 | 08:30:00 | |
| OE8JPQ-2 | 2026-09-05 03:00:30 | 47.03793 | 16.27603 | 84° | 100km/h | 13904m | 4.1m/s | -61.9°C | 21.1% | 0hPa | 2.7V | 00:00:00 | 00:00:00 | 00:00:00 | |
| OE3JTB-15 | 2026-09-05 03:00:28 | 47.03787 | 16.27529 | 84° | 100km/h | 13895m | 4.3m/s | -61.9°C | 21.4% | 0hPa | 2.7V | 00:00:00 | 01:14:01 | 00:00:00 | |
| PETON7-10 | 2026-09-05 03:00:26 | 47.03781 | 16.27454 | 83° | 100km/h | 13886m | 5.2m/s | -61.9°C | 21.6% | 0hPa | 2.7V | 00:00:00 | 00:00:00 | 00:00:00 | |
| PG1ADW-2 | 2026-09-05 03:00:16 | 47.03747 | 16.27082 | 82° | 99km/h | 13838m | 4.1m/s | -61.7°C | 22.2% | 0hPa | 2.7V | 00:00:00 | 00:00:00 | 00:00:00 | |
| OE5DRO-10 | 2026-09-05 03:00:14 | 47.03739 | 16.27009 | 81° | 99km/h | 13829m | 3.4m/s | -61.7°C | 22.2% | 0hPa | 2.7V | 00:00:00 | 00:00:00 | 00:00:00 | |
| PETON7-10 | 2026-09-05 03:00:12 | 47.03727 | 16.26901 | 81° | 99km/h | 13816m | 4.7m/s | -61.7°C | 22.5% | 0hPa | 2.7V | 00:00:00 | 01:13:44 | 00:00:00 | |
| OE8JPQ-2 | 2026-09-05 03:00:10 | 47.03723 | 16.26864 | 82° | 99km/h | 13811m | 4.0m/s | -61.7°C | 22.8% | 0hPa | 2.7V | 00:00:00 | 01:13:43 | 00:00:00 | |
| OE3JTB-15 | 2026-09-05 02:59:59 | 47.03690 | 16.26467 | 86° | 100km/h | 13762m | 4.7m/s | -62.1°C | 24.9% | 0hPa | 2.7V | 00:00:00 | 00:00:00 | 08:30:00 | |
| PG1ADW-2 | 2026-09-05 02:59:56 | 47.03686 | 16.26357 | 88° | 99km/h | 13749m | 5.0m/s | -62.4°C | 26.1% | 0hPa | 2.7V | 00:00:00 | 00:00:00 | 00:00:00 | |
| OE8JPQ-2 | 2026-09-05 02:59:50 | 47.03678 | 16.26142 | 86° | 100km/h | 13721m | 5.5m/s | -62.6°C | 28.2% | 0hPa | 2.7V | 00:00:00 | 00:00:00 | 08:30:00 | |
| OE5DXL-15 | 2026-09-05 02:59:42 | 47.03660 | 16.25848 | 86° | 99km/h | 13685m | 4.9m/s | -62.8°C | 31.0% | 0hPa | 2.7V | 00:00:00 | 01:13:15 | 08:30:00 | |
| PETON7-10 | 2026-09-05 02:59:41 | 47.03658 | 16.25811 | 86° | 100km/h | 13681m | 4.3m/s | -62.8°C | 31.5% | 0hPa | 2.7V | 00:00:00 | 00:00:00 | 00:00:00 | |
| PG1ADW-2 | 2026-09-05 02:59:36 | 47.03647 | 16.25628 | 85° | 99km/h | 13658m | 4.6m/s | -62.9°C | 32.9% | 0hPa | 2.7V | 00:00:00 | 01:13:09 | 00:00:00 | |
| OE8JPQ-2 | 2026-09-05 02:59:30 | 47.03635 | 16.25402 | 87° | 97km/h | 13631m | 5.3m/s | -63.1°C | 35.4% | 0hPa | 2.7V | 00:00:00 | 00:00:00 | 00:00:00 | |
| PETON7-10 | 2026-09-05 02:59:26 | 47.03627 | 16.25257 | 84° | 97km/h | 13611m | 5.4m/s | -63.5°C | 38.2% | 0hPa | 2.7V | 00:00:00 | 01:12:59 | 00:00:00 | |
| OE5DRO-10 | 2026-09-05 02:59:17 | 47.03600 | 16.24942 | 85° | 102km/h | 13571m | 4.0m/s | -63.4°C | 39.8% | 0hPa | 2.7V | 00:00:00 | 00:00:00 | 00:00:00 | |
| PG1ADW-2 | 2026-09-05 02:59:16 | 47.03597 | 16.24906 | 86° | 104km/h | 13566m | 5.4m/s | -63.4°C | 39.9% | 0hPa | 2.7V | 00:00:00 | 00:00:00 | 00:00:00 | |
| OE5DXL-15 | 2026-09-05 02:59:12 | 47.03589 | 16.24762 | 85° | 108km/h | 13549m | 4.0m/s | -63.3°C | 40.7% | 0hPa | 2.7V | 00:00:00 | 00:00:00 | 00:00:00 | |
| PETON7-10 | 2026-09-05 02:59:11 | 47.03587 | 16.24726 | 86° | 104km/h | 13544m | 4.7m/s | -63.3°C | 41.0% | 0hPa | 2.7V | 00:00:00 | 00:00:00 | 00:00:00 | |
| OE8JPQ-2 | 2026-09-05 02:59:10 | 47.03585 | 16.24690 | 87° | 108km/h | 13540m | 3.9m/s | -63.3°C | 41.3% | 0hPa | 2.7V | 00:00:00 | 01:12:43 | 00:00:00 | |
| OE3JTB-15 | 2026-09-05 02:59:01 | 47.03571 | 16.24338 | 87° | 111km/h | 13496m | 5.6m/s | -63.3°C | 44.2% | 0hPa | 2.7V | 00:00:00 | 01:12:34 | 00:00:00 | |
| OE5DRO-10 | 2026-09-05 02:58:58 | 47.03567 | 16.24220 | 87° | 110km/h | 13482m | 3.1m/s | -63.4°C | 46.0% | 0hPa | 2.7V | 00:00:00 | 00:00:00 | 00:00:00 | |
| PG1ADW-2 | 2026-09-05 02:58:56 | 47.03563 | 16.24142 | 86° | 110km/h | 13473m | 4.3m/s | -63.4°C | 46.7% | 0hPa | 2.7V | 00:00:00 | 00:00:00 | 00:00:00 | |
| OE8JPQ-2 | 2026-09-05 02:58:50 | 47.03552 | 16.23899 | 87° | 111km/h | 13445m | 4.1m/s | -64.0°C | 50.3% | 0hPa | 2.7V | 00:00:00 | 00:00:00 | 00:00:00 | |
| OE5DXL-15 | 2026-09-05 02:58:42 | 47.03520 | 16.23578 | 80° | 117km/h | 13405m | 5.8m/s | -64.3°C | 55.1% | 0hPa | 2.7V | 00:00:00 | 00:00:00 | 00:00:00 | |
| OE5DRO-10 | 2026-09-05 02:58:39 | 47.03505 | 16.23458 | 81° | 115km/h | 13392m | 4.4m/s | -64.4°C | 55.8% | 0hPa | 2.7V | 00:00:00 | 00:00:00 | 00:00:00 | |
| PG1ADW-2 | 2026-09-05 02:58:36 | 47.03490 | 16.23340 | 80° | 117km/h | 13378m | 5.1m/s | -64.3°C | 55.5% | 0hPa | 2.7V | 00:00:00 | 00:00:00 | 00:00:00 | |
| OE8JPQ-2 | 2026-09-05 02:58:30 | 47.03460 | 16.23090 | 80° | 120km/h | 13351m | 5.4m/s | -64.1°C | 57.5% | 0hPa | 2.7V | 00:00:00 | 00:00:00 | 00:00:00 | |
| PETON7-10 | 2026-09-05 02:58:26 | 47.03438 | 16.22915 | 80° | 119km/h | 13333m | 3.8m/s | -64.1°C | 59.8% | 0hPa | 2.7V | 00:00:00 | 00:00:00 | 00:00:00 | |
| OE5DRO-10 | 2026-09-05 02:58:20 | 47.03409 | 16.22659 | 81° | 124km/h | 13307m | 3.6m/s | -64.5°C | 62.7% | 0hPa | 2.7V | 00:00:00 | 00:00:00 | 00:00:00 | |
| PG1ADW-2 | 2026-09-05 02:58:16 | 47.03388 | 16.22485 | 79° | 126km/h | 13288m | 3.9m/s | -64.5°C | 64.2% | 0hPa | 2.7V | 00:00:00 | 01:11:49 | 00:00:00 | |
| OE5DXL-15 | 2026-09-05 02:58:12 | 47.03363 | 16.22307 | 78° | 128km/h | 13270m | 2.9m/s | -64.4°C | 64.2% | 0hPa | 2.7V | 00:00:00 | 00:00:00 | 00:00:00 | |
| PETON7-10 | 2026-09-05 02:58:11 | 47.03356 | 16.22262 | 79° | 126km/h | 13266m | 5.8m/s | -64.4°C | 63.6% | 0hPa | 2.7V | 00:00:00 | 00:00:00 | 00:00:00 | |
| OE8JPQ-2 | 2026-09-05 02:58:10 | 47.03350 | 16.22217 | 79° | 128km/h | 13261m | 4.2m/s | -64.3°C | 63.8% | 0hPa | 2.7V | 00:00:00 | 01:11:43 | 00:00:00 | |
| OE3JTB-15 | 2026-09-05 02:58:01 | 47.03292 | 16.21803 | 79° | 128km/h | 13217m | 3.6m/s | -64.3°C | 64.1% | 0hPa | 2.7V | 00:00:00 | 00:00:00 | 00:00:00 | |
| PETON7-10 | 2026-09-05 02:57:56 | 47.03259 | 16.21571 | 78° | 130km/h | 13194m | 4.8m/s | -64.3°C | 64.9% | 0hPa | 2.7V | 00:00:00 | 01:11:29 | 00:00:00 | |
| OE8JPQ-2 | 2026-09-05 02:57:50 | 47.03210 | 16.21290 | 76° | 128km/h | 13167m | 4.9m/s | -64.2°C | 65.5% | 0hPa | 2.7V | 00:00:00 | 00:00:00 | 00:00:00 | |
| OE5DXL-15 | 2026-09-05 02:57:42 | 47.03147 | 16.20924 | 75° | 128km/h | 13131m | 5.1m/s | -63.9°C | 64.9% | 0hPa | 2.7V | 00:00:00 | 00:00:00 | 00:00:00 | |
| PETON7-10 | 2026-09-05 02:57:41 | 47.03138 | 16.20879 | 75° | 128km/h | 13127m | 3.2m/s | -63.9°C | 65.0% | 0hPa | 2.7V | 00:00:00 | 00:00:00 | 08:30:00 | |
| PG1ADW-2 | 2026-09-05 02:57:36 | 47.03100 | 16.20652 | 77° | 128km/h | 13105m | 4.2m/s | -63.7°C | 64.5% | 0hPa | 2.7V | 00:00:00 | 00:00:00 | 00:00:00 | |
| OE3JTB-15 | 2026-09-05 02:57:32 | 47.03068 | 16.20467 | 77° | 128km/h | 13087m | 4.0m/s | -63.7°C | 65.0% | 0hPa | 2.7V | 00:00:00 | 01:11:05 | 00:00:00 | |
| OE8JPQ-2 | 2026-09-05 02:57:30 | 47.03052 | 16.20375 | 76° | 128km/h | 13078m | 4.2m/s | -63.6°C | 64.5% | 0hPa | 2.7V | 00:00:00 | 00:00:00 | 00:00:00 | |
| PETON7-10 | 2026-09-05 02:57:26 | 47.03019 | 16.20189 | 76° | 128km/h | 13060m | 4.4m/s | -63.5°C | 65.1% | 0hPa | 2.7V | 00:00:00 | 00:00:00 | 00:00:00 | |
| OE5DRO-10 | 2026-09-05 02:57:23 | 47.02995 | 16.20050 | 77° | 128km/h | 13047m | 5.1m/s | -63.4°C | 64.1% | 0hPa | 2.7V | 00:00:00 | 00:00:00 | 00:00:00 | |
| PG1ADW-2 | 2026-09-05 02:57:16 | 47.02945 | 16.19728 | 77° | 128km/h | 13015m | 5.0m/s | -63.2°C | 63.5% | 0hPa | 2.7V | 00:00:00 | 00:00:00 | 00:00:00 | |
| OE5DXL-15 | 2026-09-05 02:57:12 | 47.02915 | 16.19543 | 78° | 126km/h | 12996m | 5.2m/s | -63.1°C | 63.0% | 0hPa | 2.7V | 00:00:00 | 00:00:00 | 00:00:00 | |
| PETON7-10 | 2026-09-05 02:57:11 | 47.02908 | 16.19497 | 78° | 128km/h | 12991m | 4.8m/s | -63.0°C | 63.1% | 0hPa | 2.7V | 00:00:00 | 01:10:44 | 00:00:00 | |
| OE8JPQ-2 | 2026-09-05 02:57:10 | 47.02901 | 16.19452 | 77° | 126km/h | 12986m | 4.7m/s | -63.0°C | 63.2% | 0hPa | 2.7V | 00:00:00 | 01:10:43 | 00:00:00 | |
| OE5DRO-10 | 2026-09-05 02:57:04 | 47.02857 | 16.19178 | 79° | 126km/h | 12959m | 4.7m/s | -63.0°C | 63.0% | 0hPa | 2.7V | 00:00:00 | 00:00:00 | 00:00:00 | |
| OE3JTB-15 | 2026-09-05 02:57:03 | 47.02850 | 16.19131 | 78° | 126km/h | 12955m | 3.9m/s | -62.9°C | 62.9% | 0hPa | 2.7V | 00:00:00 | 00:00:00 | 00:00:00 | |
| PETON7-10 | 2026-09-05 02:56:56 | 47.02802 | 16.18810 | 79° | 126km/h | 12920m | 3.9m/s | -62.7°C | 62.2% | 0hPa | 2.7V | 00:00:00 | 00:00:00 | 00:00:00 | |
| OE8JPQ-2 | 2026-09-05 02:56:50 | 47.02764 | 16.18539 | 78° | 126km/h | 12892m | 3.3m/s | -62.6°C | 62.6% | 0hPa | 2.7V | 00:00:00 | 00:00:00 | 08:30:00 | |
| OE5DRO-10 | 2026-09-05 02:56:45 | 47.02732 | 16.18308 | 79° | 126km/h | 12869m | 5.6m/s | -62.4°C | 61.1% | 0hPa | 2.7V | 00:00:00 | 00:00:00 | 00:00:00 | |
| OE5DXL-15 | 2026-09-05 02:56:42 | 47.02713 | 16.18171 | 79° | 126km/h | 12855m | 4.6m/s | -62.3°C | 60.8% | 0hPa | 2.7V | 00:00:00 | 00:00:00 | 00:00:00 | |
| PETON7-10 | 2026-09-05 02:56:41 | 47.02707 | 16.18125 | 80° | 124km/h | 12850m | 5.0m/s | -62.2°C | 60.7% | 0hPa | 2.7V | 00:00:00 | 00:00:00 | 00:00:00 | |
| PG1ADW-2 | 2026-09-05 02:56:36 | 47.02677 | 16.17897 | 80° | 126km/h | 12826m | 4.1m/s | -62.0°C | 59.2% | 0hPa | 2.7V | 00:00:00 | 00:00:00 | 00:00:00 | |
| OE3JTB-15 | 2026-09-05 02:56:34 | 47.02666 | 16.17807 | 81° | 128km/h | 12816m | 5.2m/s | -61.9°C | 58.5% | 0hPa | 2.7V | 00:00:00 | 00:00:00 | 00:00:00 | |
| OE8JPQ-2 | 2026-09-05 02:56:30 | 47.02645 | 16.17627 | 81° | 128km/h | 12795m | 5.8m/s | -61.8°C | 57.6% | 0hPa | 2.7V | 00:00:00 | 00:00:00 | 00:00:00 | |
| PETON7-10 | 2026-09-05 02:56:26 | 47.02625 | 16.17442 | 81° | 128km/h | 12774m | 5.9m/s | -61.6°C | 56.4% | 0hPa | 2.7V | 00:00:00 | 01:09:59 | 00:00:00 | |
| PG1ADW-2 | 2026-09-05 02:56:16 | 47.02569 | 16.16979 | 81° | 128km/h | 12725m | 6.0m/s | -61.1°C | 54.0% | 0hPa | 2.7V | 00:00:00 | 00:00:00 | 00:00:00 | |
| OE5DXL-15 | 2026-09-05 02:56:12 | 47.02548 | 16.16791 | 81° | 128km/h | 12704m | 6.2m/s | -60.9°C | 52.9% | 0hPa | 2.7V | 00:00:00 | 00:00:00 | 00:00:00 | |
| PETON7-10 | 2026-09-05 02:56:11 | 47.02543 | 16.16744 | 82° | 128km/h | 12699m | 4.4m/s | -60.9°C | 52.8% | 0hPa | 2.7V | 00:00:00 | 00:00:00 | 00:00:00 | |
| OE8JPQ-2 | 2026-09-05 02:56:08 | 47.02528 | 16.16603 | 82° | 128km/h | 12682m | 6.1m/s | -60.7°C | 51.9% | 0hPa | 2.7V | 00:00:00 | 01:09:41 | 00:00:00 | |
| OE5DRO-10 | 2026-09-05 02:56:07 | 47.02523 | 16.16556 | 82° | 128km/h | 12677m | 4.4m/s | -60.7°C | 51.8% | 0hPa | 2.7V | 00:00:00 | 00:00:00 | 00:00:00 | |
| OE3JTB-15 | 2026-09-05 02:56:05 | 47.02514 | 16.16463 | 82° | 130km/h | 12667m | 4.7m/s | -60.6°C | 51.0% | 0hPa | 2.7V | 00:00:00 | 01:09:38 | 00:00:00 | |
| PG1ADW-2 | 2026-09-05 02:55:56 | 47.02473 | 16.16041 | 83° | 130km/h | 12619m | 4.6m/s | -60.1°C | 49.1% | 0hPa | 2.7V | 00:00:00 | 00:00:00 | 00:00:00 | |
| OE8JPQ-2 | 2026-09-05 02:55:48 | 47.02440 | 16.15663 | 83° | 130km/h | 12577m | 5.5m/s | -59.7°C | 47.5% | 0hPa | 2.7V | 00:00:00 | 00:00:00 | 00:00:00 | |
| OE5DXL-15 | 2026-09-05 02:55:42 | 47.02412 | 16.15377 | 83° | 131km/h | 12546m | 5.5m/s | -59.4°C | 46.4% | 0hPa | 2.7V | 00:00:00 | 00:00:00 | 00:00:00 | |
| PETON7-10 | 2026-09-05 02:55:41 | 47.02408 | 16.15329 | 83° | 130km/h | 12541m | 4.6m/s | -59.4°C | 46.1% | 0hPa | 2.7V | 00:00:00 | 01:09:14 | 00:00:00 | |
| PG1ADW-2 | 2026-09-05 02:55:36 | 47.02390 | 16.15090 | 84° | 130km/h | 12514m | 4.5m/s | -59.2°C | 45.2% | 0hPa | 2.7V | 00:00:00 | 01:09:09 | 00:00:00 | |
| OE5DRO-10 | 2026-09-05 02:55:29 | 47.02365 | 16.14755 | 85° | 131km/h | 12479m | 5.7m/s | -58.8°C | 44.1% | 0hPa | 2.7V | 00:00:00 | 00:00:00 | 00:00:00 | |
| OE8JPQ-2 | 2026-09-05 02:55:26 | 47.02353 | 16.14610 | 83° | 131km/h | 12464m | 4.6m/s | -58.7°C | 43.6% | 0hPa | 2.7V | 00:00:00 | 00:00:00 | 00:00:00 | |
| PG1ADW-2 | 2026-09-05 02:55:16 | 47.02314 | 16.14130 | 83° | 133km/h | 12413m | 5.2m/s | -58.3°C | 41.5% | 0hPa | 2.7V | 00:00:00 | 00:00:00 | 00:00:00 | |
| OE5DXL-15 | 2026-09-05 02:55:12 | 47.02298 | 16.13935 | 84° | 133km/h | 12393m | 5.7m/s | -58.2°C | 40.6% | 0hPa | 2.7V | 00:00:00 | 00:00:00 | 08:30:00 | |
| PETON7-10 | 2026-09-05 02:55:11 | 47.02294 | 16.13887 | 84° | 133km/h | 12388m | 4.1m/s | -58.1°C | 40.6% | 0hPa | 2.7V | 00:00:00 | 00:00:00 | 00:00:00 | |
| OE5DRO-10 | 2026-09-05 02:55:10 | 47.02291 | 16.13838 | 85° | 133km/h | 12383m | 6.0m/s | -58.1°C | 40.2% | 0hPa | 2.7V | 00:00:00 | 00:00:00 | 00:00:00 | |
| OE3JTB-15 | 2026-09-05 02:55:07 | 47.02280 | 16.13692 | 84° | 135km/h | 12367m | 4.7m/s | -58.0°C | 39.7% | 0hPa | 2.7V | 00:00:00 | 00:00:00 | 00:00:00 | |
| OE8JPQ-2 | 2026-09-05 02:55:06 | 47.02276 | 16.13642 | 84° | 133km/h | 12361m | 5.6m/s | -57.9°C | 39.6% | 0hPa | 2.7V | 00:00:00 | 01:08:39 | 00:00:00 | |
| PETON7-10 | 2026-09-05 02:54:56 | 47.02239 | 16.13147 | 85° | 133km/h | 12313m | 4.1m/s | -57.4°C | 38.5% | 0hPa | 2.7V | 00:00:00 | 01:08:29 | 00:00:00 | |
| OE5DRO-10 | 2026-09-05 02:54:51 | 47.02221 | 16.12903 | 83° | 133km/h | 12287m | 6.0m/s | -57.2°C | 37.5% | 0hPa | 2.7V | 00:00:00 | 00:00:00 | 08:30:00 | |
| OE8JPQ-2 | 2026-09-05 02:54:44 | 47.02193 | 16.12564 | 84° | 133km/h | 12254m | 4.8m/s | -56.9°C | 37.7% | 0hPa | 2.7V | 00:00:00 | 00:00:00 | 00:00:00 | |
| OE5DXL-15 | 2026-09-05 02:54:42 | 47.02186 | 16.12465 | 85° | 133km/h | 12244m | 5.2m/s | -56.8°C | 37.3% | 0hPa | 2.7V | 00:00:00 | 00:00:00 | 00:00:00 | |
| PETON7-10 | 2026-09-05 02:54:40 | 47.02180 | 16.12368 | 85° | 133km/h | 12234m | 5.0m/s | -56.7°C | 37.0% | 0hPa | 2.7V | 00:00:00 | 00:00:00 | 00:00:00 | |
| PG1ADW-2 | 2026-09-05 02:54:36 | 47.02167 | 16.12170 | 85° | 133km/h | 12214m | 6.2m/s | -56.5°C | 36.6% | 0hPa | 2.7V | 00:00:00 | 00:00:00 | 00:00:00 | |
| OE5DRO-10 | 2026-09-05 02:54:32 | 47.02152 | 16.11974 | 83° | 133km/h | 12194m | 4.5m/s | -56.3°C | 36.6% | 0hPa | 2.7V | 00:00:00 | 00:00:00 | 00:00:00 | |
| PETON7-10 | 2026-09-05 02:54:25 | 47.02125 | 16.11634 | 85° | 133km/h | 12160m | 4.6m/s | -56.0°C | 34.9% | 0hPa | 2.7V | 00:00:00 | 00:00:00 | 00:00:00 | |
| OE8JPQ-2 | 2026-09-05 02:54:24 | 47.02122 | 16.11584 | 85° | 133km/h | 12155m | 5.0m/s | -56.0°C | 34.7% | 0hPa | 2.7V | 00:00:00 | 00:00:00 | 00:00:00 | |
| PG1ADW-2 | 2026-09-05 02:54:16 | 47.02091 | 16.11186 | 83° | 133km/h | 12116m | 4.8m/s | -55.6°C | 33.6% | 0hPa | 2.7V | 00:00:00 | 01:07:49 | 00:00:00 | |
| OE3JTB-15 | 2026-09-05 02:54:13 | 47.02079 | 16.11042 | 83° | 133km/h | 12101m | 5.6m/s | -55.5°C | 33.0% | 0hPa | 2.7V | 00:00:00 | 01:07:46 | 00:00:00 | |
| OE5DXL-15 | 2026-09-05 02:54:12 | 47.02074 | 16.10993 | 83° | 133km/h | 12097m | 4.0m/s | -55.4°C | 33.0% | 0hPa | 2.7V | 00:00:00 | 00:00:00 | 00:00:00 | |
| PETON7-10 | 2026-09-05 02:54:10 | 47.02066 | 16.10896 | 84° | 133km/h | 12087m | 4.3m/s | -55.4°C | 32.6% | 0hPa | 2.7V | 00:00:00 | 01:07:43 | 00:00:00 | |
| OE8JPQ-2 | 2026-09-05 02:54:04 | 47.02038 | 16.10601 | 82° | 133km/h | 12057m | 4.4m/s | -55.1°C | 31.6% | 0hPa | 2.7V | 00:00:00 | 01:07:37 | 00:00:00 | |
| PG1ADW-2 | 2026-09-05 02:53:56 | 47.02005 | 16.10210 | 84° | 131km/h | 12019m | 4.4m/s | -54.8°C | 30.6% | 0hPa | 2.7V | 00:00:00 | 00:00:00 | 00:00:00 | |
| PETON7-10 | 2026-09-05 02:53:55 | 47.02001 | 16.10161 | 84° | 131km/h | 12014m | 5.2m/s | -54.7°C | 30.6% | 0hPa | 2.7V | 00:00:00 | 00:00:00 | 00:00:00 | |
| OE5DRO-10 | 2026-09-05 02:53:54 | 47.01996 | 16.10112 | 83° | 131km/h | 12009m | 4.6m/s | -54.7°C | 30.6% | 0hPa | 2.7V | 00:00:00 | 00:00:00 | 00:00:00 | |
| OE8JPQ-2 | 2026-09-05 02:53:44 | 47.01956 | 16.09626 | 85° | 131km/h | 11962m | 4.6m/s | -54.4°C | 31.1% | 0hPa | 2.7V | 00:00:00 | 00:00:00 | 08:30:00 | |
| OE5DXL-15 | 2026-09-05 02:53:42 | 47.01950 | 16.09530 | 84° | 131km/h | 11953m | 4.5m/s | -54.4°C | 31.2% | 0hPa | 2.7V | 00:00:00 | 00:00:00 | 00:00:00 | |
| PETON7-10 | 2026-09-05 02:53:40 | 47.01943 | 16.09434 | 85° | 131km/h | 11944m | 4.4m/s | -54.3°C | 31.0% | 0hPa | 2.7V | 00:00:00 | 00:00:00 | 00:00:00 | |
| OE3JTB-15 | 2026-09-05 02:53:31 | 47.01914 | 16.08992 | 84° | 131km/h | 11901m | 5.3m/s | -53.9°C | 29.6% | 0hPa | 2.7V | 00:00:00 | 00:00:00 | 00:00:00 | |
| PETON7-10 | 2026-09-05 02:53:25 | 47.01892 | 16.08707 | 85° | 131km/h | 11871m | 4.4m/s | -53.7°C | 29.4% | 0hPa | 2.7V | 00:00:00 | 01:06:58 | 00:00:00 | |
| OE8JPQ-2 | 2026-09-05 02:53:24 | 47.01888 | 16.08659 | 84° | 131km/h | 11866m | 5.2m/s | -53.6°C | 29.1% | 0hPa | 2.7V | 00:00:00 | 00:00:00 | 00:00:00 | |
| PG1ADW-2 | 2026-09-05 02:53:16 | 47.01858 | 16.08272 | 83° | 131km/h | 11827m | 5.5m/s | -53.3°C | 28.6% | 0hPa | 2.7V | 00:00:00 | 00:00:00 | 00:00:00 | |
| OE5DXL-15 | 2026-09-05 02:53:12 | 47.01843 | 16.08082 | 83° | 131km/h | 11809m | 5.4m/s | -53.1°C | 28.2% | 0hPa | 2.7V | 00:00:00 | 00:00:00 | 00:00:00 | |
| PETON7-10 | 2026-09-05 02:53:10 | 47.01834 | 16.07985 | 83° | 131km/h | 11801m | 5.0m/s | -53.0°C | 28.0% | 0hPa | 2.7V | 00:00:00 | 00:00:00 | 08:30:00 | |
| OE8JPQ-2 | 2026-09-05 02:53:04 | 47.01809 | 16.07694 | 83° | 131km/h | 11774m | 3.7m/s | -52.8°C | 27.9% | 0hPa | 2.7V | 00:00:00 | 01:06:37 | 00:00:00 | |
| OE3JTB-15 | 2026-09-05 02:53:00 | 47.01792 | 16.07503 | 83° | 130km/h | 11756m | 4.3m/s | -52.6°C | 27.6% | 0hPa | 2.7V | 00:00:00 | 00:00:00 | 00:00:00 | |
| OE5DRO-10 | 2026-09-05 02:52:57 | 47.01778 | 16.07358 | 82° | 130km/h | 11742m | 5.3m/s | -52.5°C | 27.5% | 0hPa | 2.7V | 00:00:00 | 00:00:00 | 00:00:00 | |
| PG1ADW-2 | 2026-09-05 02:52:56 | 47.01774 | 16.07310 | 83° | 130km/h | 11738m | 3.6m/s | -52.5°C | 27.6% | 0hPa | 2.7V | 00:00:00 | 01:06:29 | 00:00:00 | |
| PETON7-10 | 2026-09-05 02:52:55 | 47.01770 | 16.07263 | 84° | 131km/h | 11733m | 5.1m/s | -52.4°C | 27.4% | 0hPa | 2.7V | 00:00:00 | 00:00:00 | 00:00:00 | |
| OE8JPQ-2 | 2026-09-05 02:52:44 | 47.01723 | 16.06735 | 84° | 128km/h | 11685m | 5.1m/s | -52.0°C | 27.3% | 0hPa | 2.7V | 00:00:00 | 00:00:00 | 00:00:00 | |
| OE5DXL-15 | 2026-09-05 02:52:42 | 47.01715 | 16.06639 | 84° | 128km/h | 11675m | 5.4m/s | -52.0°C | 27.2% | 0hPa | 2.7V | 00:00:00 | 00:00:00 | 00:00:00 | |
| PETON7-10 | 2026-09-05 02:52:40 | 47.01708 | 16.06545 | 83° | 128km/h | 11666m | 5.8m/s | -51.9°C | 27.3% | 0hPa | 2.7V | 00:00:00 | 01:06:13 | 00:00:00 | |
| OE5DRO-10 | 2026-09-05 02:52:38 | 47.01699 | 16.06452 | 83° | 128km/h | 11656m | 6.2m/s | -51.9°C | 27.2% | 0hPa | 2.7V | 00:00:00 | 00:00:00 | 00:00:00 | |
| PG1ADW-2 | 2026-09-05 02:52:36 | 47.01690 | 16.06358 | 82° | 128km/h | 11647m | 5.0m/s | -51.8°C | 27.3% | 0hPa | 2.7V | 00:00:00 | 00:00:00 | 00:00:00 | |
| OE3JTB-15 | 2026-09-05 02:52:31 | 47.01668 | 16.06119 | 83° | 126km/h | 11624m | 5.3m/s | -51.7°C | 27.4% | 0hPa | 2.7V | 00:00:00 | 01:06:04 | 00:00:00 | |
| PETON7-10 | 2026-09-05 02:52:25 | 47.01645 | 16.05842 | 84° | 126km/h | 11595m | 5.2m/s | -51.4°C | 27.1% | 0hPa | 2.7V | 00:00:00 | 00:00:00 | 00:00:00 | |
| OE8JPQ-2 | 2026-09-05 02:52:24 | 47.01641 | 16.05795 | 84° | 126km/h | 11590m | 3.4m/s | -51.4°C | 27.2% | 0hPa | 2.7V | 00:00:00 | 00:00:00 | 00:00:00 | |
| OE5DRO-10 | 2026-09-05 02:52:19 | 47.01622 | 16.05560 | 84° | 126km/h | 11569m | 4.6m/s | -51.2°C | 26.8% | 0hPa | 2.7V | 00:00:00 | 00:00:00 | 00:00:00 | |
| PG1ADW-2 | 2026-09-05 02:52:16 | 47.01611 | 16.05421 | 84° | 126km/h | 11555m | 5.4m/s | -51.1°C | 26.8% | 0hPa | 2.7V | 00:00:00 | 00:00:00 | 00:00:00 | |
| OE5DXL-15 | 2026-09-05 02:52:12 | 47.01597 | 16.05239 | 84° | 126km/h | 11536m | 5.7m/s | -50.9°C | 26.6% | 0hPa | 2.7V | 00:00:00 | 00:00:00 | 00:00:00 | |
| PETON7-10 | 2026-09-05 02:52:10 | 47.01590 | 16.05147 | 84° | 126km/h | 11526m | 5.5m/s | -50.9°C | 26.7% | 0hPa | 2.7V | 00:00:00 | 00:00:00 | 00:00:00 | |
| OE3JTB-15 | 2026-09-05 02:52:02 | 47.01561 | 16.04779 | 84° | 128km/h | 11490m | 5.2m/s | -50.6°C | 26.3% | 0hPa | 2.7V | 00:00:00 | 00:00:00 | 00:00:00 | |
| OE5DRO-10 | 2026-09-05 02:52:00 | 47.01554 | 16.04685 | 85° | 126km/h | 11481m | 5.8m/s | -50.5°C | 26.1% | 0hPa | 2.7V | 00:00:00 | 00:00:00 | 08:30:00 | |
| PG1ADW-2 | 2026-09-05 02:51:56 | 47.01543 | 16.04496 | 86° | 126km/h | 11462m | 5.3m/s | -50.3°C | 26.0% | 0hPa | 2.7V | 00:00:00 | 00:00:00 | 08:30:00 | |
| PETON7-10 | 2026-09-05 02:51:55 | 47.01541 | 16.04449 | 86° | 126km/h | 11457m | 3.3m/s | -50.3°C | 26.1% | 0hPa | 2.7V | 00:00:00 | 01:05:28 | 00:00:00 | |
| OE8JPQ-2 | 2026-09-05 02:51:44 | 47.01514 | 16.03938 | 86° | 130km/h | 11408m | 4.2m/s | -49.9°C | 24.8% | 0hPa | 2.7V | 00:00:00 | 01:05:17 | 00:00:00 | |
| OE5DXL-15 | 2026-09-05 02:51:42 | 47.01509 | 16.03844 | 87° | 130km/h | 11399m | 5.1m/s | -49.9°C | 24.8% | 0hPa | 2.7V | 00:00:00 | 00:00:00 | 00:00:00 | |
| OE5DRO-10 | 2026-09-05 02:51:41 | 47.01508 | 16.03798 | 87° | 130km/h | 11395m | 3.9m/s | -49.8°C | 24.9% | 0hPa | 2.7V | 00:00:00 | 00:00:00 | 00:00:00 | |
| PETON7-10 | 2026-09-05 02:51:39 | 47.01503 | 16.03703 | 87° | 130km/h | 11385m | 3.9m/s | -49.8°C | 24.8% | 0hPa | 2.7V | 00:00:00 | 00:00:00 | 00:00:00 | |
| PG1ADW-2 | 2026-09-05 02:51:36 | 47.01496 | 16.03562 | 85° | 130km/h | 11372m | 5.1m/s | -49.6°C | 24.5% | 0hPa | 2.7V | 00:00:00 | 01:05:09 | 00:00:00 | |
| OE8JPQ-2 | 2026-09-05 02:51:24 | 47.01473 | 16.02983 | 88° | 131km/h | 11316m | 4.7m/s | -49.2°C | 24.9% | 0hPa | 2.7V | 00:00:00 | 00:00:00 | 00:00:00 | |
| OE5DRO-10 | 2026-09-05 02:51:22 | 47.01470 | 16.02887 | 87° | 131km/h | 11307m | 5.6m/s | -49.2°C | 24.9% | 0hPa | 2.7V | 00:00:00 | 00:00:00 | 00:00:00 | |
| PG1ADW-2 | 2026-09-05 02:51:16 | 47.01456 | 16.02598 | 87° | 131km/h | 11278m | 5.2m/s | -49.0°C | 25.1% | 0hPa | 2.7V | 00:00:00 | 00:00:00 | 00:00:00 | |
| OE5DXL-15 | 2026-09-05 02:51:12 | 47.01448 | 16.02403 | 87° | 130km/h | 11260m | 4.9m/s | -48.8°C | 25.2% | 0hPa | 2.7V | 00:00:00 | 00:00:00 | 00:00:00 | |
| PETON7-10 | 2026-09-05 02:51:09 | 47.01442 | 16.02258 | 87° | 130km/h | 11245m | 5.1m/s | -48.7°C | 25.2% | 0hPa | 2.7V | 00:00:00 | 01:04:42 | 00:00:00 | |
| OE5DRO-10 | 2026-09-05 02:51:03 | 47.01430 | 16.01967 | 87° | 130km/h | 11218m | 4.8m/s | -48.5°C | 25.2% | 0hPa | 2.7V | 00:00:00 | 00:00:00 | 00:00:00 | |
| OE8JPQ-2 | 2026-09-05 02:51:02 | 47.01428 | 16.01918 | 87° | 130km/h | 11213m | 4.7m/s | -48.5°C | 25.3% | 0hPa | 2.7V | 00:00:00 | 00:00:00 | 00:00:00 | |
| PG1ADW-2 | 2026-09-05 02:50:56 | 47.01413 | 16.01634 | 86° | 130km/h | 11184m | 5.1m/s | -48.3°C | 25.5% | 0hPa | 2.7V | 00:00:00 | 00:00:00 | 00:00:00 | |
| OE3JTB-15 | 2026-09-05 02:50:55 | 47.01411 | 16.01587 | 86° | 130km/h | 11180m | 3.7m/s | -48.3°C | 25.6% | 0hPa | 2.7V | 00:00:00 | 00:00:00 | 00:00:00 | |
| PETON7-10 | 2026-09-05 02:50:54 | 47.01409 | 16.01540 | 87° | 130km/h | 11175m | 4.4m/s | -48.2°C | 25.5% | 0hPa | 2.7V | 00:00:00 | 00:00:00 | 08:30:00 | |
| OE5DRO-10 | 2026-09-05 02:50:44 | 47.01390 | 16.01056 | 87° | 130km/h | 11129m | 5.8m/s | -47.8°C | 25.1% | 0hPa | 2.7V | 00:00:00 | 00:00:00 | 00:00:00 | |
| OE5DXL-15 | 2026-09-05 02:50:42 | 47.01385 | 16.00961 | 87° | 130km/h | 11119m | 6.3m/s | -47.7°C | 24.9% | 0hPa | 2.7V | 00:00:00 | 00:00:00 | 08:30:00 | |
| OE8JPQ-2 | 2026-09-05 02:50:40 | 47.01381 | 16.00865 | 87° | 130km/h | 11109m | 5.8m/s | -47.6°C | 24.9% | 0hPa | 2.7V | 00:00:00 | 01:04:13 | 00:00:00 | |
| PETON7-10 | 2026-09-05 02:50:39 | 47.01380 | 16.00817 | 87° | 130km/h | 11104m | 3.9m/s | -47.6°C | 25.0% | 0hPa | 2.7V | 00:00:00 | 00:00:00 | 00:00:00 | |
| PG1ADW-2 | 2026-09-05 02:50:36 | 47.01374 | 16.00671 | 88° | 130km/h | 11090m | 4.8m/s | -47.5°C | 25.1% | 0hPa | 2.7V | 00:00:00 | 00:00:00 | 00:00:00 | |
| OE3JTB-15 | 2026-09-05 02:50:26 | 47.01357 | 16.00192 | 87° | 130km/h | 11044m | 3.7m/s | -47.1°C | 24.3% | 0hPa | 2.7V | 00:00:00 | 01:03:59 | 00:00:00 | |
| OE5DRO-10 | 2026-09-05 02:50:25 | 47.01355 | 16.00144 | 87° | 130km/h | 11039m | 4.6m/s | -47.1°C | 24.2% | 0hPa | 2.7V | 00:00:00 | 00:00:00 | 00:00:00 | |
| PETON7-10 | 2026-09-05 02:50:24 | 47.01353 | 16.00096 | 87° | 130km/h | 11034m | 5.2m/s | -47.0°C | 24.0% | 0hPa | 2.7V | 00:00:00 | 01:03:57 | 00:00:00 | |
| OE8JPQ-2 | 2026-09-05 02:50:20 | 47.01347 | 15.99904 | 88° | 130km/h | 11016m | 4.3m/s | -46.9°C | 23.8% | 0hPa | 2.7V | 00:00:00 | 00:00:00 | 08:30:00 | |
| PG1ADW-2 | 2026-09-05 02:50:16 | 47.01340 | 15.99716 | 87° | 130km/h | 10997m | 5.6m/s | -46.7°C | 23.5% | 0hPa | 2.7V | 00:00:00 | 01:03:49 | 00:00:00 | |
| PETON7-10 | 2026-09-05 02:50:09 | 47.01325 | 15.99377 | 87° | 130km/h | 10966m | 4.0m/s | -46.4°C | 23.0% | 0hPa | 2.7V | 00:00:00 | 00:00:00 | 00:00:00 | |
| OE5DRO-10 | 2026-09-05 02:50:06 | 47.01318 | 15.99235 | 87° | 130km/h | 10951m | 6.3m/s | -46.3°C | 22.5% | 0hPa | 2.7V | 00:00:00 | 00:00:00 | 00:00:00 | |
| OE8JPQ-2 | 2026-09-05 02:50:00 | 47.01305 | 15.98947 | 86° | 130km/h | 10922m | 5.8m/s | -46.1°C | 21.9% | 0hPa | 2.7V | 00:00:00 | 00:00:00 | 00:00:00 | |
| OE3JTB-15 | 2026-09-05 02:49:57 | 47.01298 | 15.98802 | 87° | 128km/h | 10907m | 3.2m/s | -45.9°C | 21.9% | 0hPa | 2.7V | 00:00:00 | 00:00:00 | 08:30:00 | |
| PG1ADW-2 | 2026-09-05 02:49:56 | 47.01296 | 15.98754 | 87° | 128km/h | 10903m | 5.3m/s | -45.9°C | 21.6% | 0hPa | 2.7V | 00:00:00 | 00:00:00 | 00:00:00 | |
| PETON7-10 | 2026-09-05 02:49:54 | 47.01292 | 15.98659 | 87° | 128km/h | 10894m | 5.7m/s | -45.8°C | 21.3% | 0hPa | 2.7V | 00:00:00 | 00:00:00 | 00:00:00 | |
| OE5DRO-10 | 2026-09-05 02:49:47 | 47.01278 | 15.98325 | 87° | 128km/h | 10860m | 4.4m/s | -45.5°C | 20.7% | 0hPa | 2.7V | 00:00:00 | 00:00:00 | 00:00:00 | |
| OE5DXL-15 | 2026-09-05 02:49:42 | 47.01271 | 15.98088 | 89° | 126km/h | 10836m | 3.6m/s | -45.4°C | 20.6% | 0hPa | 2.7V | 00:00:00 | 00:00:00 | 00:00:00 | |
| OE8JPQ-2 | 2026-09-05 02:49:39 | 47.01267 | 15.97947 | 88° | 126km/h | 10823m | 5.0m/s | -45.3°C | 20.5% | 0hPa | 2.7V | 00:00:00 | 01:03:12 | 00:00:00 | |
| PG1ADW-2 | 2026-09-05 02:49:36 | 47.01261 | 15.97807 | 87° | 126km/h | 10809m | 5.5m/s | -45.3°C | 20.6% | 0hPa | 2.7V | 00:00:00 | 00:00:00 | 00:00:00 | |
| OE3JTB-15 | 2026-09-05 02:49:28 | 47.01245 | 15.97430 | 87° | 126km/h | 10771m | 5.3m/s | -45.0°C | 20.9% | 0hPa | 2.7V | 00:00:00 | 00:00:00 | 00:00:00 | |
| PETON7-10 | 2026-09-05 02:49:24 | 47.01238 | 15.97246 | 88° | 126km/h | 10751m | 5.8m/s | -44.9°C | 21.3% | 0hPa | 2.7V | 00:00:00 | 00:00:00 | 00:00:00 | |
| OE8JPQ-2 | 2026-09-05 02:49:19 | 47.01229 | 15.97016 | 87° | 128km/h | 10727m | 4.5m/s | -44.9°C | 22.0% | 0hPa | 2.7V | 00:00:00 | 00:00:00 | 00:00:00 | |
| PG1ADW-2 | 2026-09-05 02:49:16 | 47.01221 | 15.96876 | 86° | 128km/h | 10713m | 4.3m/s | -44.8°C | 22.1% | 0hPa | 2.7V | 00:00:00 | 00:00:00 | 00:00:00 | |
| OE5DXL-15 | 2026-09-05 02:49:12 | 47.01213 | 15.96690 | 88° | 128km/h | 10696m | 5.4m/s | -44.6°C | 21.9% | 0hPa | 2.7V | 00:00:00 | 00:00:00 | 00:00:00 | |
| PETON7-10 | 2026-09-05 02:49:09 | 47.01208 | 15.96550 | 88° | 128km/h | 10682m | 4.4m/s | -44.6°C | 21.6% | 0hPa | 2.7V | 00:00:00 | 00:00:00 | 00:00:00 | |
| OE3OSB-13 | 2026-09-05 02:49:05 | 47.01200 | 15.96314 | 87° | 128km/h | 10657m | 5.0m/s | -44.4°C | 17.2% | -1.0hPa | 2.7V | 00:00:00 | 00:00:00 | 00:00:00 | |
| OE3JTB-15 | 2026-09-05 02:48:59 | 47.01194 | 15.96078 | 88° | 128km/h | 10632m | 5.1m/s | -44.1°C | 19.7% | 0hPa | 2.7V | 00:00:00 | 01:02:32 | 00:00:00 | |
| PG1ADW-2 | 2026-09-05 02:48:56 | 47.01188 | 15.95935 | 87° | 128km/h | 10619m | 3.6m/s | -44.0°C | 18.9% | 0hPa | 2.7V | 00:00:00 | 01:02:29 | 08:30:00 | |
| OE8JPQ-2 | 2026-09-05 02:48:55 | 47.01186 | 15.95888 | 87° | 128km/h | 10614m | 4.6m/s | -44.0°C | 18.6% | 0hPa | 2.7V | 00:00:00 | 00:00:00 | 00:00:00 | |
| PETON7-10 | 2026-09-05 02:48:54 | 47.01185 | 15.95841 | 88° | 128km/h | 10610m | 3.6m/s | -43.9°C | 18.5% | 0hPa | 2.7V | 00:00:00 | 01:02:27 | 00:00:00 | |
| OE5DRO-10 | 2026-09-05 02:48:50 | 47.01180 | 15.95653 | 88° | 128km/h | 10591m | 4.3m/s | -43.8°C | 17.6% | 0hPa | 2.7V | 00:00:00 | 00:00:00 | 00:00:00 | |
| OE5DXL-15 | 2026-09-05 02:48:42 | 47.01170 | 15.95275 | 88° | 124km/h | 10552m | 4.7m/s | -43.5°C | 17.3% | 0hPa | 2.7V | 00:00:00 | 00:00:00 | 00:00:00 | |
| PETON7-10 | 2026-09-05 02:48:39 | 47.01167 | 15.95136 | 88° | 126km/h | 10538m | 4.1m/s | -43.4°C | 17.3% | 0hPa | 2.7V | 00:00:00 | 00:00:00 | 08:30:00 | |
| PG1ADW-2 | 2026-09-05 02:48:36 | 47.01164 | 15.94996 | 88° | 122km/h | 10524m | 5.6m/s | -43.3°C | 17.4% | 0hPa | 2.9V | 00:00:00 | 00:00:00 | 00:00:00 | |
| OE8JPQ-2 | 2026-09-05 02:48:35 | 47.01163 | 15.94949 | 89° | 122km/h | 10519m | 4.5m/s | -43.3°C | 17.6% | 0hPa | 2.9V | 00:00:00 | 01:02:08 | 00:00:00 | |
| OE5DRO-10 | 2026-09-05 02:48:31 | 47.01158 | 15.94760 | 89° | 122km/h | 10499m | 5.5m/s | -43.2°C | 18.4% | 0hPa | 2.9V | 00:00:00 | 00:00:00 | 00:00:00 | |
| OE3JTB-15 | 2026-09-05 02:48:30 | 47.01157 | 15.94714 | 89° | 122km/h | 10494m | 4.1m/s | -43.2°C | 18.7% | 0hPa | 2.9V | 00:00:00 | 00:00:00 | 00:00:00 | |
| PETON7-10 | 2026-09-05 02:48:24 | 47.01151 | 15.94440 | 89° | 120km/h | 10465m | 5.1m/s | -43.1°C | 19.6% | 0hPa | 2.9V | 00:00:00 | 00:00:00 | 00:00:00 | |
| PG1ADW-2 | 2026-09-05 02:48:16 | 47.01149 | 15.94086 | 92° | 120km/h | 10426m | 6.9m/s | -42.9°C | 20.6% | 0hPa | 2.9V | 00:00:00 | 00:00:00 | 00:00:00 | |
| OE8JPQ-2 | 2026-09-05 02:48:14 | 47.01151 | 15.93996 | 93° | 122km/h | 10415m | 5.1m/s | -42.9°C | 20.7% | 0hPa | 2.9V | 00:00:00 | 00:00:00 | 00:00:00 | |
| OE5DXL-15 | 2026-09-05 02:48:12 | 47.01153 | 15.93906 | 94° | 117km/h | 10406m | 4.8m/s | -42.8°C | 20.6% | 0hPa | 2.7V | 00:00:00 | 00:00:00 | 00:00:00 | |
| PETON7-10 | 2026-09-05 02:48:09 | 47.01159 | 15.93770 | 94° | 120km/h | 10392m | 5.1m/s | -42.7°C | 20.3% | 0hPa | 2.7V | 00:00:00 | 01:01:42 | 00:00:00 | |
| OE3OSB-13 | 2026-09-05 02:48:03 | 47.01167 | 15.93457 | 90° | 120km/h | 10358m | 4.0m/s | -42.6°C | 16.6% | -1.0hPa | 2.7V | 00:00:00 | 00:00:00 | 00:00:00 | |
| OE3JTB-15 | 2026-09-05 02:48:01 | 47.01167 | 15.93412 | 91° | 115km/h | 10353m | 5.6m/s | -42.5°C | 19.6% | 0hPa | 2.7V | 00:00:00 | 00:00:00 | 00:00:00 | |
| PG1ADW-2 | 2026-09-05 02:47:56 | 47.01166 | 15.93192 | 91° | 113km/h | 10329m | 5.0m/s | -42.4°C | 19.6% | 0hPa | 2.7V | 00:00:00 | 00:00:00 | 00:00:00 | |
| OE8JPQ-2 | 2026-09-05 02:47:54 | 47.01167 | 15.93105 | 92° | 113km/h | 10319m | 5.7m/s | -42.4°C | 19.5% | 0hPa | 2.7V | 00:00:00 | 00:00:00 | 00:00:00 | |
| OE5DRO-10 | 2026-09-05 02:47:53 | 47.01168 | 15.93062 | 92° | 113km/h | 10314m | 4.4m/s | -42.3°C | 19.6% | 0hPa | 2.7V | 00:00:00 | 00:00:00 | 00:00:00 | |
| OE5DXL-15 | 2026-09-05 02:47:42 | 47.01176 | 15.92603 | 92° | 113km/h | 10260m | 3.8m/s | -41.9°C | 19.1% | 0hPa | 2.7V | 00:00:00 | 00:00:00 | 00:00:00 | |
| PETON7-10 | 2026-09-05 02:47:39 | 47.01179 | 15.92479 | 93° | 113km/h | 10245m | 5.3m/s | -41.8°C | 19.1% | 0hPa | 2.9V | 00:00:00 | 00:00:00 | 00:00:00 | |
| OE5DRO-10 | 2026-09-05 02:47:34 | 47.01188 | 15.92271 | 95° | 113km/h | 10221m | 4.9m/s | -41.7°C | 19.0% | 0hPa | 2.9V | 00:00:00 | 00:00:00 | 00:00:00 | |
| OE8JPQ-2 | 2026-09-05 02:47:32 | 47.01192 | 15.92186 | 95° | 113km/h | 10211m | 4.7m/s | -41.6°C | 18.9% | 0hPa | 2.9V | 00:00:00 | 01:01:05 | 00:00:00 | |
| PETON7-10 | 2026-09-05 02:47:24 | 47.01212 | 15.91857 | 98° | 113km/h | 10171m | 6.4m/s | -41.3°C | 18.5% | 0hPa | 2.9V | 00:00:00 | 01:00:57 | 00:00:00 | |
| OE5DRO-10 | 2026-09-05 02:47:15 | 47.01243 | 15.91479 | 95° | 113km/h | 10125m | 6.5m/s | -40.9°C | 18.2% | 0hPa | 2.9V | 00:00:00 | 00:00:00 | 00:00:00 | |
| OE5DXL-15 | 2026-09-05 02:47:12 | 47.01251 | 15.91354 | 96° | 113km/h | 10110m | 3.5m/s | -40.7°C | 18.3% | 0hPa | 2.9V | 00:00:00 | 00:00:00 | 00:00:00 | |
| PETON7-10 | 2026-09-05 02:47:09 | 47.01259 | 15.91229 | 97° | 113km/h | 10095m | 5.0m/s | -40.6°C | 17.9% | 0hPa | 2.9V | 00:00:00 | 00:00:00 | 00:00:00 | |
| PG1ADW-2 | 2026-09-05 02:46:56 | 47.01293 | 15.90683 | 95° | 113km/h | 10032m | 5.0m/s | -40.0°C | 17.1% | 0hPa | 2.7V | 00:00:00 | 00:00:00 | 00:00:00 | |
| PETON7-10 | 2026-09-05 02:46:54 | 47.01298 | 15.90599 | 96° | 113km/h | 10022m | 4.3m/s | -39.9°C | 16.9% | 0hPa | 2.9V | 00:00:00 | 00:00:00 | 00:00:00 | |
| OE8JPQ-2 | 2026-09-05 02:46:52 | 47.01302 | 15.90515 | 94° | 113km/h | 10012m | 4.5m/s | -39.8°C | 16.9% | 0hPa | 2.9V | 00:00:00 | 00:00:00 | 00:00:00 | |
| OE5DXL-15 | 2026-09-05 02:46:42 | 47.01322 | 15.90096 | 93° | 113km/h | 9962m | 5.3m/s | -39.3°C | 16.1% | 0hPa | 2.9V | 00:00:00 | 00:00:00 | 00:00:00 | |
| PETON7-10 | 2026-09-05 02:46:39 | 47.01326 | 15.89974 | 93° | 113km/h | 9950m | 3.8m/s | -39.2°C | 16.0% | 0hPa | 2.9V | 00:00:00 | 01:00:12 | 00:00:00 | |
| OE5DRO-10 | 2026-09-05 02:46:37 | 47.01328 | 15.89891 | 94° | 113km/h | 9941m | 5.4m/s | -39.1°C | 15.8% | 0hPa | 2.9V | 00:00:00 | 00:00:00 | 00:00:00 | |
| PG1ADW-2 | 2026-09-05 02:46:36 | 47.01330 | 15.89849 | 94° | 113km/h | 9936m | 4.4m/s | -39.0°C | 15.8% | 0hPa | 2.9V | 00:00:00 | 00:00:00 | 00:00:00 | |
| OE8JPQ-2 | 2026-09-05 02:46:32 | 47.01336 | 15.89680 | 94° | 115km/h | 9916m | 3.6m/s | -38.9°C | 15.6% | 0hPa | 2.9V | 00:00:00 | 01:00:05 | 00:00:00 | |
| PETON7-10 | 2026-09-05 02:46:24 | 47.01352 | 15.89345 | 93° | 113km/h | 9879m | 4.5m/s | -38.5°C | 15.4% | 0hPa | 2.9V | 00:00:00 | 00:00:00 | 08:30:00 | |
| OE5DRO-10 | 2026-09-05 02:46:18 | 47.01361 | 15.89095 | 94° | 115km/h | 9851m | 3.3m/s | -38.3°C | 15.8% | 0hPa | 2.9V | 00:00:00 | 00:00:00 | 08:30:00 | |
| PG1ADW-2 | 2026-09-05 02:46:16 | 47.01365 | 15.89010 | 94° | 115km/h | 9841m | 5.2m/s | -38.2°C | 15.7% | 0hPa | 2.9V | 00:00:00 | 00:59:49 | 00:00:00 | |
| OE5DXL-15 | 2026-09-05 02:46:12 | 47.01373 | 15.88838 | 95° | 113km/h | 9822m | 5.4m/s | -38.1°C | 16.0% | 0hPa | 2.9V | 00:00:00 | 00:00:00 | 08:30:00 | |
| OE8JPQ-2 | 2026-09-05 02:46:11 | 47.01375 | 15.88797 | 94° | 113km/h | 9817m | 4.3m/s | -38.1°C | 16.1% | 0hPa | 2.9V | 00:00:00 | 00:00:00 | 00:00:00 | |
| PETON7-10 | 2026-09-05 02:46:09 | 47.01378 | 15.88712 | 92° | 113km/h | 9808m | 4.6m/s | -38.0°C | 16.4% | 0hPa | 2.9V | 00:00:00 | 00:00:00 | 00:00:00 | |
| OE5DRO-10 | 2026-09-05 02:45:59 | 47.01379 | 15.88291 | 91° | 111km/h | 9761m | 3.5m/s | -37.8°C | 19.0% | 0hPa | 2.9V | 00:00:00 | 00:00:00 | 00:00:00 | |
| PG1ADW-2 | 2026-09-05 02:45:56 | 47.01380 | 15.88163 | 91° | 111km/h | 9747m | 3.9m/s | -37.8°C | 19.4% | 0hPa | 2.9V | 00:00:00 | 00:00:00 | 08:30:00 | |
| PETON7-10 | 2026-09-05 02:45:54 | 47.01380 | 15.88080 | 90° | 111km/h | 9738m | 4.6m/s | -37.7°C | 19.2% | 0hPa | 2.9V | 00:00:00 | 00:59:27 | 00:00:00 | |
| OE8JPQ-2 | 2026-09-05 02:45:51 | 47.01380 | 15.87957 | 90° | 110km/h | 9724m | 5.5m/s | -37.6°C | 18.9% | 0hPa | 2.9V | 00:00:00 | 00:00:00 | 00:00:00 | |
| OE5DXL-15 | 2026-09-05 02:45:42 | 47.01379 | 15.87587 | 90° | 110km/h | 9682m | 4.2m/s | -37.3°C | 19.0% | 0hPa | 2.9V | 00:00:00 | 00:00:00 | 00:00:00 | |
| OE5DRO-10 | 2026-09-05 02:45:40 | 47.01378 | 15.87506 | 90° | 111km/h | 9673m | 3.5m/s | -37.2°C | 18.9% | 0hPa | 2.9V | 00:00:00 | 00:00:00 | 00:00:00 | |
| PETON7-10 | 2026-09-05 02:45:39 | 47.01378 | 15.87464 | 90° | 111km/h | 9669m | 4.5m/s | -37.1°C | 18.7% | 0hPa | 2.9V | 00:00:00 | 00:00:00 | 00:00:00 | |
| PG1ADW-2 | 2026-09-05 02:45:36 | 47.01379 | 15.87339 | 90° | 110km/h | 9656m | 4.2m/s | -37.0°C | 18.2% | 0hPa | 2.9V | 00:00:00 | 00:00:00 | 00:00:00 | |
| PETON7-10 | 2026-09-05 02:45:24 | 47.01375 | 15.86850 | 89° | 108km/h | 9603m | 3.7m/s | -36.6°C | 16.4% | 0hPa | 2.9V | 00:00:00 | 00:00:00 | 00:00:00 | |
| OE8JPQ-2 | 2026-09-05 02:45:22 | 47.01374 | 15.86768 | 90° | 108km/h | 9595m | 4.2m/s | -36.5°C | 16.1% | 0hPa | 2.9V | 00:00:00 | 00:58:55 | 00:00:00 | |
| OE5DRO-10 | 2026-09-05 02:45:21 | 47.01374 | 15.86728 | 90° | 106km/h | 9591m | 4.5m/s | -36.5°C | 15.9% | 0hPa | 2.9V | 00:00:00 | 00:00:00 | 00:00:00 | |
| PG1ADW-2 | 2026-09-05 02:45:16 | 47.01369 | 15.86524 | 87° | 104km/h | 9569m | 5.2m/s | -36.3°C | 15.3% | 0hPa | 2.9V | 00:00:00 | 00:00:00 | 00:00:00 | |
| OE5DXL-15 | 2026-09-05 02:45:12 | 47.01365 | 15.86366 | 89° | 102km/h | 9552m | 3.4m/s | -36.2°C | 15.1% | 0hPa | 2.9V | 00:00:00 | 00:00:00 | 00:00:00 | |
| PETON7-10 | 2026-09-05 02:45:09 | 47.01364 | 15.86250 | 89° | 104km/h | 9539m | 4.7m/s | -36.1°C | 15.2% | 0hPa | 2.9V | 00:00:00 | 00:58:42 | 00:00:00 | |
| PG1ADW-2 | 2026-09-05 02:44:56 | 47.01352 | 15.85751 | 90° | 102km/h | 9482m | 4.4m/s | -36.0°C | 20.0% | 0hPa | 2.9V | 00:00:00 | 00:58:29 | 00:00:00 | |
| PETON7-10 | 2026-09-05 02:44:54 | 47.01352 | 15.85675 | 91° | 102km/h | 9473m | 5.2m/s | -35.9°C | 19.8% | 0hPa | 2.9V | 00:00:00 | 00:00:00 | 00:00:00 | |
| OE5DRO-10 | 2026-09-05 02:44:43 | 47.01352 | 15.85259 | 90° | 102km/h | 9425m | 4.1m/s | -35.5°C | 19.4% | 0hPa | 2.9V | 00:00:00 | 00:00:00 | 00:00:00 | |
| OE8JPQ-2 | 2026-09-05 02:44:42 | 47.01352 | 15.85221 | 90° | 102km/h | 9421m | 5.0m/s | -35.5°C | 19.2% | 0hPa | 2.9V | 00:00:00 | 00:00:00 | 00:00:00 | |
| PETON7-10 | 2026-09-05 02:44:39 | 47.01351 | 15.85107 | 89° | 102km/h | 9407m | 3.9m/s | -35.4°C | 19.0% | 0hPa | 2.9V | 00:00:00 | 00:00:00 | 00:00:00 | |
| PG1ADW-2 | 2026-09-05 02:44:36 | 47.01348 | 15.84995 | 87° | 102km/h | 9394m | 4.1m/s | -35.3°C | 18.8% | 0hPa | 2.9V | 00:00:00 | 00:00:00 | 00:00:00 | |
| PETON7-10 | 2026-09-05 02:44:24 | 47.01338 | 15.84542 | 89° | 102km/h | 9339m | 5.7m/s | -34.8°C | 17.8% | 0hPa | 2.9V | 00:00:00 | 00:57:57 | 00:00:00 | |
| OE8JPQ-2 | 2026-09-05 02:44:19 | 47.01335 | 15.84353 | 88° | 100km/h | 9317m | 4.2m/s | -34.6°C | 17.8% | 0hPa | 2.9V | 00:00:00 | 00:57:52 | 00:00:00 | |
| PG1ADW-2 | 2026-09-05 02:44:16 | 47.01333 | 15.84242 | 89° | 102km/h | 9304m | 3.1m/s | -34.5°C | 17.8% | 0hPa | 2.9V | 00:00:00 | 00:00:00 | 00:00:00 | |
| OE5DXL-15 | 2026-09-05 02:44:12 | 47.01327 | 15.84092 | 87° | 100km/h | 9289m | 3.9m/s | -34.3°C | 17.5% | 0hPa | 2.9V | 00:00:00 | 00:00:00 | 00:00:00 | |
| PETON7-10 | 2026-09-05 02:44:08 | 47.01320 | 15.83939 | 86° | 100km/h | 9270m | 6.4m/s | -34.2°C | 16.6% | 0hPa | 2.9V | 00:00:00 | 00:00:00 | 08:30:00 | |
| OE5DRO-10 | 2026-09-05 02:44:05 | 47.01314 | 15.83826 | 86° | 100km/h | 9255m | 4.1m/s | -34.0°C | 16.5% | 0hPa | 2.7V | 00:00:00 | 00:00:00 | 00:00:00 | |
| PG1ADW-2 | 2026-09-05 02:43:56 | 47.01297 | 15.83492 | 87° | 100km/h | 9216m | 3.3m/s | -33.7°C | 15.4% | 0hPa | 2.7V | 00:00:00 | 00:00:00 | 00:00:00 | |
| PETON7-10 | 2026-09-05 02:43:53 | 47.01292 | 15.83381 | 86° | 100km/h | 9203m | 5.1m/s | -33.6°C | 15.1% | 0hPa | 2.9V | 00:00:00 | 00:00:00 | 00:00:00 | |
| OE5DRO-10 | 2026-09-05 02:43:46 | 47.01280 | 15.83123 | 88° | 100km/h | 9175m | 4.6m/s | -33.4°C | 14.2% | 0hPa | 2.9V | 00:00:00 | 00:00:00 | 00:00:00 | |
| OE5DXL-15 | 2026-09-05 02:43:42 | 47.01275 | 15.82974 | 88° | 100km/h | 9159m | 3.8m/s | -33.3°C | 13.7% | 0hPa | 2.9V | 00:00:00 | 00:00:00 | 00:00:00 | |
| PETON7-10 | 2026-09-05 02:43:38 | 47.01270 | 15.82825 | 86° | 100km/h | 9141m | 3.9m/s | -33.1°C | 13.2% | 0hPa | 2.9V | 00:00:00 | 00:57:11 | 00:00:00 | |
| PG1ADW-2 | 2026-09-05 02:43:36 | 47.01265 | 15.82751 | 86° | 100km/h | 9133m | 4.1m/s | -33.1°C | 13.2% | 0hPa | 2.9V | 00:00:00 | 00:57:09 | 00:00:00 | |
| OE3JTB-15 | 2026-09-05 02:43:35 | 47.01263 | 15.82714 | 86° | 99km/h | 9129m | 3.1m/s | -33.1°C | 13.2% | 0hPa | 2.9V | 00:00:00 | 00:57:08 | 00:00:00 | |
| OE8JPQ-2 | 2026-09-05 02:43:29 | 47.01255 | 15.82491 | 87° | 100km/h | 9107m | 4.7m/s | -32.9°C | 13.3% | 0hPa | 2.9V | 00:00:00 | 00:00:00 | 08:30:00 | |
| OE5DRO-10 | 2026-09-05 02:43:27 | 47.01251 | 15.82415 | 87° | 100km/h | 9099m | 3.8m/s | -33.0°C | 13.8% | 0hPa | 2.7V | 00:00:00 | 00:00:00 | 08:30:00 | |
| PETON7-10 | 2026-09-05 02:43:23 | 47.01245 | 15.82264 | 87° | 99km/h | 9082m | 3.4m/s | -32.9°C | 14.0% | 0hPa | 2.9V | 00:00:00 | 00:00:00 | 00:00:00 | |
| PG1ADW-2 | 2026-09-05 02:43:16 | 47.01233 | 15.82008 | 86° | 97km/h | 9053m | 2.7m/s | -32.7°C | 14.3% | 0hPa | 2.9V | 00:00:00 | 00:00:00 | 00:00:00 | |
| OE5DXL-15 | 2026-09-05 02:43:12 | 47.01226 | 15.81861 | 87° | 97km/h | 9036m | 3.1m/s | -32.5°C | 14.3% | 0hPa | 2.9V | 00:00:00 | 00:00:00 | 00:00:00 | |
| OE8JPQ-2 | 2026-09-05 02:43:08 | 47.01221 | 15.81717 | 87° | 99km/h | 9020m | 5.3m/s | -32.4°C | 14.2% | 0hPa | 2.9V | 00:00:00 | 00:00:00 | 00:00:00 | |
| PG1ADW-2 | 2026-09-05 02:42:56 | 47.01203 | 15.81290 | 87° | 99km/h | 8971m | 3.5m/s | -32.1°C | 14.7% | 0hPa | 2.9V | 00:00:00 | 00:00:00 | 08:30:00 | |
| PETON7-10 | 2026-09-05 02:42:53 | 47.01199 | 15.81179 | 87° | 97km/h | 8959m | 5.3m/s | -32.0°C | 14.5% | 0hPa | 2.7V | 00:00:00 | 00:56:26 | 00:00:00 | |
| OE5DRO-10 | 2026-09-05 02:42:49 | 47.01194 | 15.81031 | 87° | 97km/h | 8942m | 4.8m/s | -31.8°C | 14.5% | 0hPa | 2.7V | 00:00:00 | 00:00:00 | 00:00:00 | |
| OE8JPQ-2 | 2026-09-05 02:42:45 | 47.01189 | 15.80888 | 87° | 99km/h | 8925m | 3.1m/s | -31.7°C | 14.3% | 0hPa | 2.7V | 00:00:00 | 00:56:18 | 00:00:00 | |
| OE5DXL-15 | 2026-09-05 02:42:42 | 47.01186 | 15.80782 | 88° | 97km/h | 8912m | 5.9m/s | -31.5°C | 14.0% | 0hPa | 2.7V | 00:00:00 | 00:00:00 | 00:00:00 | |
| PG1ADW-2 | 2026-09-05 02:42:36 | 47.01180 | 15.80564 | 89° | 97km/h | 8886m | 4.1m/s | -31.3°C | 13.5% | 0hPa | 2.7V | 00:00:00 | 00:00:00 | 00:00:00 | |
| OE5DRO-10 | 2026-09-05 02:42:30 | 47.01172 | 15.80354 | 88° | 97km/h | 8859m | 4.3m/s | -31.1°C | 12.5% | 0hPa | 2.7V | 00:00:00 | 00:00:00 | 00:00:00 | |
| PETON7-10 | 2026-09-05 02:42:23 | 47.01164 | 15.80098 | 89° | 95km/h | 8829m | 5.3m/s | -31.0°C | 12.4% | 0hPa | 2.9V | 00:00:00 | 00:00:00 | 00:00:00 | |
| OE8JPQ-2 | 2026-09-05 02:42:19 | 47.01161 | 15.79952 | 89° | 93km/h | 8812m | 5.1m/s | -30.9°C | 13.2% | 0hPa | 2.9V | 00:00:00 | 00:00:00 | 00:00:00 | |
| PG1ADW-2 | 2026-09-05 02:42:16 | 47.01159 | 15.79845 | 90° | 91km/h | 8799m | 4.5m/s | -30.9°C | 13.7% | 0hPa | 2.9V | 00:00:00 | 00:55:49 | 00:00:00 | |
| OE5DXL-15 | 2026-09-05 02:42:12 | 47.01158 | 15.79704 | 90° | 91km/h | 8783m | 4.5m/s | -30.7°C | 14.0% | 0hPa | 2.9V | 00:00:00 | 00:00:00 | 00:00:00 | |
| OE5DRO-10 | 2026-09-05 02:42:11 | 47.01157 | 15.79669 | 89° | 91km/h | 8778m | 4.9m/s | -30.7°C | 14.2% | 0hPa | 2.9V | 00:00:00 | 00:00:00 | 00:00:00 | |
| PETON7-10 | 2026-09-05 02:42:08 | 47.01155 | 15.79566 | 89° | 91km/h | 8764m | 3.4m/s | -30.6°C | 14.6% | 0hPa | 2.9V | 00:00:00 | 00:55:41 | 00:00:00 | |
| OE8JPQ-2 | 2026-09-05 02:41:59 | 47.01147 | 15.79264 | 89° | 89km/h | 8726m | 3.6m/s | -30.3°C | 14.8% | 0hPa | 2.9V | 00:00:00 | 00:00:00 | 00:00:00 | |
| PG1ADW-2 | 2026-09-05 02:41:56 | 47.01145 | 15.79164 | 90° | 89km/h | 8713m | 3.6m/s | -30.2°C | 14.7% | 0hPa | 2.9V | 00:00:00 | 00:00:00 | 00:00:00 | |
| PETON7-10 | 2026-09-05 02:41:53 | 47.01143 | 15.79063 | 88° | 89km/h | 8699m | 3.6m/s | -30.1°C | 14.6% | 0hPa | 2.9V | 00:00:00 | 00:00:00 | 08:30:00 | |
| OE5DRO-10 | 2026-09-05 02:41:52 | 47.01143 | 15.79029 | 89° | 89km/h | 8695m | 4.4m/s | -30.0°C | 14.6% | 0hPa | 2.7V | 00:00:00 | 00:00:00 | 00:00:00 | |
| OE5DXL-15 | 2026-09-05 02:41:42 | 47.01136 | 15.78697 | 90° | 89km/h | 8652m | 4.2m/s | -29.7°C | 14.4% | 0hPa | 2.7V | 00:00:00 | 00:00:00 | 08:30:00 | |
| OE8JPQ-2 | 2026-09-05 02:41:39 | 47.01135 | 15.78597 | 89° | 89km/h | 8638m | 4.7m/s | -29.6°C | 14.2% | 0hPa | 2.7V | 00:00:00 | 00:55:12 | 00:00:00 | |
| PETON7-10 | 2026-09-05 02:41:38 | 47.01135 | 15.78564 | 90° | 89km/h | 8634m | 4.2m/s | -29.6°C | 14.2% | 0hPa | 2.7V | 00:00:00 | 00:00:00 | 00:00:00 | |
| PG1ADW-2 | 2026-09-05 02:41:36 | 47.01134 | 15.78499 | 90° | 89km/h | 8625m | 5.4m/s | -29.5°C | 14.2% | 0hPa | 2.7V | 00:00:00 | 00:00:00 | 00:00:00 | |
| OE3JTB-15 | 2026-09-05 02:41:33 | 47.01134 | 15.78402 | 90° | 89km/h | 8612m | 4.1m/s | -29.4°C | 14.3% | 0hPa | 2.7V | 00:00:00 | 00:55:06 | 00:00:00 | |
| PETON7-10 | 2026-09-05 02:41:23 | 47.01129 | 15.78071 | 90° | 88km/h | 8566m | 3.5m/s | -29.0°C | 14.4% | 0hPa | 2.7V | 00:00:00 | 00:54:56 | 00:00:00 | |
| OE8JPQ-2 | 2026-09-05 02:41:17 | 47.01129 | 15.77872 | 90° | 89km/h | 8538m | 5.1m/s | -28.8°C | 14.1% | 0hPa | 2.7V | 00:00:00 | 00:00:00 | 00:00:00 | |
| PG1ADW-2 | 2026-09-05 02:41:16 | 47.01129 | 15.77838 | 91° | 88km/h | 8533m | 4.0m/s | -28.7°C | 14.1% | 0hPa | 2.9V | 00:00:00 | 00:00:00 | 00:00:00 | |
| OE5DRO-10 | 2026-09-05 02:41:14 | 47.01129 | 15.77773 | 91° | 88km/h | 8524m | 4.4m/s | -28.6°C | 14.1% | 0hPa | 2.9V | 00:00:00 | 00:00:00 | 00:00:00 | |
| OE5DXL-15 | 2026-09-05 02:41:12 | 47.01130 | 15.77709 | 92° | 88km/h | 8515m | 5.0m/s | -28.6°C | 14.0% | 0hPa | 2.9V | 00:00:00 | 00:00:00 | 00:00:00 | |
| PETON7-10 | 2026-09-05 02:41:08 | 47.01131 | 15.77580 | 92° | 88km/h | 8496m | 5.6m/s | -28.4°C | 14.1% | 0hPa | 2.9V | 00:00:00 | 00:00:00 | 00:00:00 | |
| OE3JTB-15 | 2026-09-05 02:41:04 | 47.01134 | 15.77449 | 91° | 89km/h | 8477m | 4.0m/s | -28.2°C | 14.2% | 0hPa | 2.9V | 00:00:00 | 00:00:00 | 00:00:00 | |
| PG1ADW-2 | 2026-09-05 02:40:56 | 47.01134 | 15.77192 | 90° | 89km/h | 8440m | 4.9m/s | -28.0°C | 14.2% | 0hPa | 2.9V | 00:00:00 | 00:54:29 | 00:00:00 | |
| OE5DRO-10 | 2026-09-05 02:40:55 | 47.01134 | 15.77160 | 90° | 89km/h | 8435m | 4.4m/s | -27.9°C | 14.2% | 0hPa | 2.7V | 00:00:00 | 00:00:00 | 00:00:00 | |
| PETON7-10 | 2026-09-05 02:40:53 | 47.01134 | 15.77097 | 93° | 89km/h | 8427m | 3.7m/s | -27.9°C | 14.1% | 0hPa | 2.7V | 00:00:00 | 00:00:00 | 00:00:00 | |
| OE8JPQ-2 | 2026-09-05 02:40:46 | 47.01139 | 15.76860 | 92° | 88km/h | 8395m | 5.5m/s | -27.6°C | 13.9% | 0hPa | 2.7V | 00:00:00 | 00:00:00 | 00:00:00 | |
| OE5DXL-15 | 2026-09-05 02:40:42 | 47.01141 | 15.76729 | 93° | 88km/h | 8376m | 4.2m/s | -27.4°C | 14.0% | 0hPa | 2.7V | 00:00:00 | 00:00:00 | 00:00:00 | |
| PETON7-10 | 2026-09-05 02:40:38 | 47.01145 | 15.76598 | 94° | 88km/h | 8357m | 3.2m/s | -27.3°C | 13.9% | 0hPa | 2.7V | 00:00:00 | 00:54:11 | 00:00:00 | |
| PG1ADW-2 | 2026-09-05 02:40:36 | 47.01147 | 15.76532 | 92° | 88km/h | 8347m | 3.3m/s | -27.2°C | 14.0% | 0hPa | 2.7V | 00:00:00 | 00:00:00 | 00:00:00 | |
| OE3JTB-15 | 2026-09-05 02:40:35 | 47.01148 | 15.76499 | 93° | 88km/h | 8343m | 5.3m/s | -27.2°C | 13.9% | 0hPa | 2.7V | 00:00:00 | 00:00:00 | 00:00:00 | |
| OE8JPQ-2 | 2026-09-05 02:40:26 | 47.01154 | 15.76207 | 93° | 89km/h | 8300m | 5.3m/s | -26.8°C | 13.8% | 0hPa | 2.7V | 00:00:00 | 00:53:59 | 00:00:00 | |
| PETON7-10 | 2026-09-05 02:40:23 | 47.01158 | 15.76109 | 94° | 88km/h | 8285m | 4.3m/s | -26.7°C | 13.8% | 0hPa | 2.7V | 00:00:00 | 00:00:00 | 00:00:00 | |
| OE5DRO-10 | 2026-09-05 02:40:17 | 47.01165 | 15.75916 | 95° | 89km/h | 8259m | 3.9m/s | -26.5°C | 13.6% | 0hPa | 2.7V | 00:00:00 | 00:00:00 | 00:00:00 | |
| PG1ADW-2 | 2026-09-05 02:40:16 | 47.01167 | 15.75884 | 95° | 89km/h | 8254m | 5.3m/s | -26.4°C | 13.5% | 0hPa | 2.7V | 00:00:00 | 00:00:00 | 00:00:00 | |
| OE5DXL-15 | 2026-09-05 02:40:12 | 47.01173 | 15.75753 | 94° | 91km/h | 8236m | 4.2m/s | 0°C | 0% | 0hPa | 2.7V | 00:00:00 | 00:00:00 | 00:00:00 | |
| PETON7-10 | 2026-09-05 02:40:08 | 47.01180 | 15.75619 | 95° | 89km/h | 8218m | 4.0m/s | -26.1°C | 13.2% | 0hPa | 2.7V | 00:00:00 | 00:00:00 | 00:00:00 | |
| OE8JPQ-2 | 2026-09-05 02:40:06 | 47.01183 | 15.75553 | 94° | 91km/h | 8209m | 4.9m/s | -26.0°C | 13.1% | 0hPa | 2.7V | 00:00:00 | 00:00:00 | 08:30:00 | |
| OE5DRO-10 | 2026-09-05 02:39:58 | 47.01197 | 15.75288 | 97° | 91km/h | 8170m | 6.0m/s | -25.8°C | 12.8% | 0hPa | 2.7V | 00:00:00 | 00:00:00 | 00:00:00 | |
| PG1ADW-2 | 2026-09-05 02:39:56 | 47.01202 | 15.75221 | 96° | 91km/h | 8160m | 5.9m/s | -25.8°C | 13.0% | 0hPa | 2.7V | 00:00:00 | 00:00:00 | 08:30:00 | |
| PETON7-10 | 2026-09-05 02:39:53 | 47.01208 | 15.75119 | 94° | 91km/h | 8147m | 5.2m/s | -25.7°C | 13.0% | 0hPa | 2.9V | 00:00:00 | 00:53:26 | 00:00:00 | |
| OE8JPQ-2 | 2026-09-05 02:39:46 | 47.01217 | 15.74881 | 93° | 97km/h | 8113m | 4.8m/s | -25.5°C | 12.5% | 0hPa | 2.9V | 00:00:00 | 00:00:00 | 00:00:00 | |
| OE5DXL-15 | 2026-09-05 02:39:42 | 47.01220 | 15.74745 | 93° | 97km/h | 8095m | 5.4m/s | 0°C | 0% | 0hPa | 2.9V | 00:00:00 | 00:00:00 | 00:00:00 | |
| OE5DRO-10 | 2026-09-05 02:39:39 | 47.01225 | 15.74643 | 95° | 95km/h | 8081m | 4.6m/s | -25.3°C | 13.1% | 0hPa | 2.9V | 00:00:00 | 00:00:00 | 00:00:00 | |
| PETON7-10 | 2026-09-05 02:39:38 | 47.01226 | 15.74608 | 95° | 95km/h | 8077m | 4.6m/s | -25.3°C | 13.1% | 0hPa | 2.9V | 00:00:00 | 00:00:00 | 08:30:00 | |
| OE3JTB-15 | 2026-09-05 02:39:37 | 47.01228 | 15.74574 | 93° | 97km/h | 8072m | 4.4m/s | -25.3°C | 13.2% | 0hPa | 2.9V | 00:00:00 | 00:00:00 | 00:00:00 | |
| PG1ADW-2 | 2026-09-05 02:39:36 | 47.01229 | 15.74539 | 93° | 97km/h | 8067m | 4.4m/s | -25.2°C | 13.2% | 0hPa | 2.9V | 00:00:00 | 00:53:09 | 00:00:00 | |
| PETON7-10 | 2026-09-05 02:39:23 | 47.01245 | 15.74078 | 93° | 99km/h | 8005m | 4.2m/s | -24.8°C | 13.3% | 0hPa | 2.9V | 00:00:00 | 00:00:00 | 00:00:00 | |
| PG1ADW-2 | 2026-09-05 02:39:16 | 47.01255 | 15.73825 | 94° | 99km/h | 7972m | 6.1m/s | -24.7°C | 11.0% | 0hPa | 2.9V | 00:00:00 | 00:00:00 | 00:00:00 | |
| OE5DXL-15 | 2026-09-05 02:39:12 | 47.01262 | 15.73680 | 95° | 99km/h | 7952m | 5.0m/s | 0°C | 0% | 0hPa | 2.9V | 00:00:00 | 00:00:00 | 00:00:00 | |
| OE3JTB-15 | 2026-09-05 02:39:08 | 47.01272 | 15.73535 | 96° | 99km/h | 7932m | 3.6m/s | -24.5°C | 9.9% | 0hPa | 2.9V | 00:00:00 | 00:00:00 | 00:00:00 | |
| OE8JPQ-2 | 2026-09-05 02:39:06 | 47.01277 | 15.73463 | 96° | 97km/h | 7923m | 4.2m/s | -24.5°C | 10.3% | 0hPa | 2.9V | 00:00:00 | 00:52:39 | 00:00:00 | |
| OE5DRO-10 | 2026-09-05 02:39:01 | 47.01288 | 15.73284 | 97° | 99km/h | 7899m | 5.0m/s | -24.3°C | 10.4% | 0hPa | 2.9V | 00:00:00 | 00:00:00 | 00:00:00 | |
| PG1ADW-2 | 2026-09-05 02:38:56 | 47.01298 | 15.73103 | 94° | 99km/h | 7876m | 4.9m/s | -24.2°C | 13.8% | 0hPa | 2.9V | 00:00:00 | 00:00:00 | 00:00:00 | |
| PETON7-10 | 2026-09-05 02:38:53 | 47.01304 | 15.72996 | 96° | 99km/h | 7863m | 5.1m/s | -24.3°C | 14.8% | 0hPa | 2.9V | 00:00:00 | 00:00:00 | 00:00:00 | |
| OE8JPQ-2 | 2026-09-05 02:38:46 | 47.01318 | 15.72745 | 95° | 100km/h | 7830m | 6.0m/s | -24.2°C | 14.6% | 0hPa | 2.9V | 00:00:00 | 00:00:00 | 00:00:00 | |
| OE5DRO-10 | 2026-09-05 02:38:42 | 47.01328 | 15.72599 | 96° | 102km/h | 7810m | 5.0m/s | -24.1°C | 15.5% | 0hPa | 2.9V | 00:00:00 | 00:00:00 | 00:00:00 | |
| OE5DXL-15 | 2026-09-05 02:38:39 | 47.01334 | 15.72487 | 94° | 104km/h | 7795m | 5.9m/s | 0°C | 0% | 0hPa | 2.9V | 00:00:00 | 00:00:00 | 00:00:00 | |
| PETON7-10 | 2026-09-05 02:38:38 | 47.01336 | 15.72449 | 94° | 102km/h | 7790m | 3.7m/s | -24.0°C | 17.0% | 0hPa | 2.9V | 00:00:00 | 00:00:00 | 00:00:00 | |
| PG1ADW-2 | 2026-09-05 02:38:36 | 47.01340 | 15.72375 | 95° | 104km/h | 7780m | 4.4m/s | -23.9°C | 17.8% | 0hPa | 2.9V | 00:00:00 | 00:00:00 | 00:00:00 | |
| OE8JPQ-2 | 2026-09-05 02:38:26 | 47.01364 | 15.72002 | 95° | 104km/h | 7733m | 5.6m/s | -23.6°C | 19.0% | 0hPa | 2.9V | 00:00:00 | 00:00:00 | 00:00:00 | |
| PETON7-10 | 2026-09-05 02:38:23 | 47.01370 | 15.71883 | 94° | 104km/h | 7718m | 5.1m/s | -23.4°C | 18.6% | 0hPa | 2.9V | 00:00:00 | 00:51:56 | 00:00:00 | |
| PG1ADW-2 | 2026-09-05 02:38:16 | 47.01383 | 15.71612 | 96° | 104km/h | 7679m | 7.2m/s | -23.1°C | 17.2% | 0hPa | 2.9V | 00:00:00 | 00:51:49 | 00:00:00 | |
| OE3JTB-15 | 2026-09-05 02:38:10 | 47.01400 | 15.71386 | 97° | 104km/h | 7647m | 5.5m/s | -22.8°C | 18.6% | 0hPa | 2.9V | 00:00:00 | 00:00:00 | 08:30:00 | |
| PETON7-10 | 2026-09-05 02:38:08 | 47.01405 | 15.71309 | 95° | 104km/h | 7634m | 6.6m/s | -22.7°C | 19.5% | 0hPa | 2.7V | 00:00:00 | 00:00:00 | 00:00:00 | |
| OE8JPQ-2 | 2026-09-05 02:38:06 | 47.01409 | 15.71234 | 95° | 104km/h | 7623m | 6.7m/s | -22.6°C | 19.9% | 0hPa | 2.9V | 00:00:00 | 00:51:39 | 00:00:00 | |
| OE5DRO-10 | 2026-09-05 02:38:04 | 47.01414 | 15.71160 | 97° | 104km/h | 7612m | 4.4m/s | -22.5°C | 20.8% | 0hPa | 2.9V | 00:00:00 | 00:00:00 | 00:00:00 | |
| OE5DXL-15 | 2026-09-05 02:38:00 | 47.01424 | 15.71006 | 96° | 104km/h | 7592m | 5.6m/s | 0°C | 0% | 0hPa | 2.9V | 00:00:00 | 00:00:00 | 00:00:00 | |
| PG1ADW-2 | 2026-09-05 02:37:56 | 47.01436 | 15.70849 | 97° | 106km/h | 7575m | 5.1m/s | -22.2°C | 23.1% | 0hPa | 2.9V | 00:00:00 | 00:00:00 | 00:00:00 | |
| PETON7-10 | 2026-09-05 02:37:53 | 47.01445 | 15.70734 | 96° | 106km/h | 7561m | 4.1m/s | -22.1°C | 22.6% | 0hPa | 2.9V | 00:00:00 | 00:00:00 | 00:00:00 | |
| OE8JPQ-2 | 2026-09-05 02:37:46 | 47.01460 | 15.70464 | 96° | 106km/h | 7530m | 3.7m/s | -21.8°C | 19.8% | 0hPa | 2.9V | 00:00:00 | 00:00:00 | 00:00:00 | |
| OE5DRO-10 | 2026-09-05 02:37:45 | 47.01463 | 15.70426 | 97° | 106km/h | 7525m | 5.9m/s | -21.8°C | 19.2% | 0hPa | 2.9V | 00:00:00 | 00:00:00 | 08:30:00 | |
| OE3JTB-15 | 2026-09-05 02:37:41 | 47.01474 | 15.70270 | 97° | 106km/h | 7506m | 4.7m/s | -21.6°C | 18.6% | 0hPa | 2.9V | 00:00:00 | 00:00:00 | 00:00:00 | |
| PETON7-10 | 2026-09-05 02:37:38 | 47.01483 | 15.70152 | 96° | 106km/h | 7491m | 5.5m/s | -21.5°C | 18.5% | 0hPa | 2.9V | 00:00:00 | 00:51:11 | 00:00:00 | |
| PG1ADW-2 | 2026-09-05 02:37:36 | 47.01488 | 15.70073 | 96° | 104km/h | 7481m | 5.2m/s | -21.4°C | 18.3% | 0hPa | 2.9V | 00:00:00 | 00:00:00 | 00:00:00 | |
| OE8JPQ-2 | 2026-09-05 02:37:26 | 47.01517 | 15.69684 | 98° | 104km/h | 7437m | 3.3m/s | -20.9°C | 16.2% | 0hPa | 2.9V | 00:00:00 | 00:00:00 | 00:00:00 | |
| PETON7-10 | 2026-09-05 02:37:23 | 47.01528 | 15.69569 | 98° | 104km/h | 7421m | 5.9m/s | -20.8°C | 15.9% | 0hPa | 2.9V | 00:00:00 | 00:00:00 | 08:30:00 | |
| PG1ADW-2 | 2026-09-05 02:37:16 | 47.01546 | 15.69301 | 98° | 106km/h | 7388m | 5.8m/s | -20.5°C | 14.8% | 0hPa | 2.9V | 00:00:00 | 00:00:00 | 00:00:00 | |
| OE3JTB-15 | 2026-09-05 02:37:12 | 47.01559 | 15.69146 | 98° | 106km/h | 7371m | 4.5m/s | -20.5°C | 16.4% | 0hPa | 2.9V | 00:00:00 | 00:50:45 | 00:00:00 | |
| PETON7-10 | 2026-09-05 02:37:08 | 47.01570 | 15.68994 | 96° | 106km/h | 7354m | 3.8m/s | -20.6°C | 21.5% | 0hPa | 2.9V | 00:00:00 | 00:00:00 | 00:00:00 | |
| OE5DRO-10 | 2026-09-05 02:37:07 | 47.01573 | 15.68956 | 96° | 108km/h | 7350m | 5.3m/s | -20.6°C | 21.3% | 0hPa | 2.9V | 00:00:00 | 00:00:00 | 00:00:00 | |
| OE8JPQ-2 | 2026-09-05 02:37:06 | 47.01576 | 15.68917 | 97° | 108km/h | 7345m | 3.9m/s | -20.5°C | 21.2% | 0hPa | 2.9V | 00:00:00 | 00:50:39 | 00:00:00 | |
| OE5DXL-15 | 2026-09-05 02:37:03 | 47.01585 | 15.68801 | 98° | 104km/h | 7331m | 4.5m/s | 0°C | 0% | 0hPa | 2.9V | 00:00:00 | 00:50:36 | 00:00:00 | |
| PG1ADW-2 | 2026-09-05 02:36:56 | 47.01607 | 15.68525 | 95° | 106km/h | 7301m | 3.8m/s | -20.1°C | 19.6% | 0hPa | 2.9V | 00:00:00 | 00:50:29 | 08:30:00 | |
| PETON7-10 | 2026-09-05 02:36:53 | 47.01612 | 15.68407 | 95° | 106km/h | 7287m | 4.5m/s | -20.0°C | 18.6% | 0hPa | 2.9V | 00:00:00 | 00:50:26 | 00:00:00 | |
| OE5DRO-10 | 2026-09-05 02:36:48 | 47.01622 | 15.68208 | 95° | 106km/h | 7266m | 3.6m/s | -19.8°C | 17.4% | 0hPa | 2.9V | 00:00:00 | 00:00:00 | 00:00:00 | |
| OE8JPQ-2 | 2026-09-05 02:36:46 | 47.01626 | 15.68128 | 94° | 104km/h | 7257m | 3.6m/s | -19.8°C | 17.2% | 0hPa | 2.9V | 00:00:00 | 00:00:00 | 08:30:00 | |
| OE3JTB-15 | 2026-09-05 02:36:43 | 47.01631 | 15.68011 | 94° | 104km/h | 7244m | 4.3m/s | -19.7°C | 16.6% | 0hPa | 2.9V | 00:00:00 | 00:00:00 | 00:00:00 | |
| PETON7-10 | 2026-09-05 02:36:38 | 47.01639 | 15.67817 | 94° | 104km/h | 7221m | 5.7m/s | -19.5°C | 12.7% | 0hPa | 2.9V | 00:00:00 | 00:00:00 | 00:00:00 | |
| PG1ADW-2 | 2026-09-05 02:36:36 | 47.01642 | 15.67739 | 93° | 104km/h | 7212m | 4.6m/s | -19.4°C | 12.3% | 0hPa | 2.9V | 00:00:00 | 00:00:00 | 00:00:00 | |
| OE5DRO-10 | 2026-09-05 02:36:29 | 47.01651 | 15.67471 | 93° | 104km/h | 7181m | 4.2m/s | -19.2°C | 11.5% | 0hPa | 2.9V | 00:00:00 | 00:00:00 | 00:00:00 | |
| PETON7-10 | 2026-09-05 02:36:23 | 47.01659 | 15.67241 | 92° | 104km/h | 7155m | 3.6m/s | -19.0°C | 11.5% | 0hPa | 2.9V | 00:00:00 | 00:00:00 | 00:00:00 | |
| PG1ADW-2 | 2026-09-05 02:36:16 | 47.01664 | 15.66973 | 92° | 104km/h | 7124m | 3.2m/s | -18.8°C | 11.1% | 0hPa | 2.9V | 00:00:00 | 00:00:00 | 00:00:00 | |
| OE3JTB-15 | 2026-09-05 02:36:14 | 47.01666 | 15.66896 | 93° | 102km/h | 7117m | 3.0m/s | -18.8°C | 11.3% | 0hPa | 2.9V | 00:00:00 | 00:00:00 | 00:00:00 | |
| OE5DRO-10 | 2026-09-05 02:36:10 | 47.01672 | 15.66744 | 94° | 102km/h | 7099m | 4.6m/s | -18.7°C | 12.3% | 0hPa | 2.9V | 00:00:00 | 00:00:00 | 00:00:00 | |
| OE5DXL-15 | 2026-09-05 02:36:08 | 47.01674 | 15.66669 | 93° | 102km/h | 7090m | 5.4m/s | 0°C | 0% | 0hPa | 2.9V | 00:00:00 | 00:00:00 | 00:00:00 | |
| PETON7-10 | 2026-09-05 02:36:07 | 47.01676 | 15.66631 | 94° | 104km/h | 7086m | 3.3m/s | -18.6°C | 12.6% | 0hPa | 2.9V | 00:00:00 | 00:49:40 | 00:00:00 | |
| OE8JPQ-2 | 2026-09-05 02:36:05 | 47.01679 | 15.66554 | 94° | 102km/h | 7077m | 4.0m/s | -18.6°C | 13.2% | 0hPa | 2.9V | 00:00:00 | 00:49:38 | 00:00:00 | |
| PG1ADW-2 | 2026-09-05 02:35:56 | 47.01694 | 15.66210 | 93° | 100km/h | 7038m | 5.3m/s | -18.7°C | 20.5% | 0hPa | 2.9V | 00:00:00 | 00:00:00 | 00:00:00 | |
| PETON7-10 | 2026-09-05 02:35:52 | 47.01699 | 15.66059 | 94° | 99km/h | 7021m | 3.4m/s | -18.7°C | 23.0% | 0hPa | 2.9V | 00:00:00 | 00:00:00 | 00:00:00 | |
| OE5DRO-10 | 2026-09-05 02:35:51 | 47.01700 | 15.66023 | 93° | 100km/h | 7017m | 4.5m/s | -18.7°C | 23.5% | 0hPa | 2.9V | 00:00:00 | 00:00:00 | 00:00:00 | |
| OE8JPQ-2 | 2026-09-05 02:35:45 | 47.01706 | 15.65806 | 93° | 100km/h | 6991m | 4.3m/s | -18.7°C | 28.9% | 0hPa | 2.9V | 00:00:00 | 00:00:00 | 00:00:00 | |
| PETON7-10 | 2026-09-05 02:35:37 | 47.01714 | 15.65508 | 92° | 102km/h | 6957m | 3.2m/s | -18.5°C | 36.4% | 0hPa | 2.9V | 00:00:00 | 00:00:00 | 00:00:00 | |
| PG1ADW-2 | 2026-09-05 02:35:36 | 47.01714 | 15.65471 | 91° | 102km/h | 6953m | 4.3m/s | -18.5°C | 37.1% | 0hPa | 2.9V | 00:00:00 | 00:49:09 | 00:00:00 | |
| OE5DRO-10 | 2026-09-05 02:35:32 | 47.01716 | 15.65322 | 91° | 102km/h | 6937m | 3.3m/s | -18.4°C | 39.7% | 0hPa | 2.9V | 00:00:00 | 00:00:00 | 00:00:00 | |
| OE8JPQ-2 | 2026-09-05 02:35:25 | 47.01718 | 15.65060 | 90° | 104km/h | 6909m | 4.3m/s | -18.2°C | 44.7% | 0hPa | 2.9V | 00:00:00 | 00:00:00 | 00:00:00 | |
| PETON7-10 | 2026-09-05 02:35:22 | 47.01719 | 15.64945 | 91° | 104km/h | 6898m | 4.4m/s | -18.2°C | 45.6% | 0hPa | 2.9V | 00:00:00 | 00:48:55 | 00:00:00 | |
| PG1ADW-2 | 2026-09-05 02:35:16 | 47.01718 | 15.64712 | 89° | 104km/h | 6875m | 4.5m/s | -18.1°C | 48.8% | 0hPa | 2.9V | 00:00:00 | 00:00:00 | 00:00:00 | |
| OE5DRO-10 | 2026-09-05 02:35:13 | 47.01717 | 15.64597 | 90° | 104km/h | 6862m | 4.4m/s | -18.0°C | 47.1% | 0hPa | 2.9V | 00:00:00 | 00:00:00 | 00:00:00 | |
| PETON7-10 | 2026-09-05 02:35:07 | 47.01713 | 15.64364 | 91° | 102km/h | 6837m | 4.8m/s | -18.0°C | 50.6% | 0hPa | 2.9V | 00:00:00 | 00:00:00 | 08:30:00 | |
| OE8JPQ-2 | 2026-09-05 02:35:05 | 47.01714 | 15.64287 | 92° | 102km/h | 6829m | 4.2m/s | -18.0°C | 56.1% | 0hPa | 2.9V | 00:00:00 | 00:48:38 | 00:00:00 | |
| PG1ADW-2 | 2026-09-05 02:34:56 | 47.01716 | 15.63945 | 89° | 100km/h | 6793m | 3.2m/s | -17.7°C | 60.9% | 0hPa | 2.9V | 00:00:00 | 00:00:00 | 00:00:00 | |
| OE5DRO-10 | 2026-09-05 02:34:54 | 47.01714 | 15.63872 | 89° | 100km/h | 6785m | 3.7m/s | -17.7°C | 63.5% | 0hPa | 2.9V | 00:00:00 | 00:00:00 | 08:30:00 | |
| PETON7-10 | 2026-09-05 02:34:52 | 47.01713 | 15.63798 | 88° | 100km/h | 6776m | 3.2m/s | -17.6°C | 63.9% | 0hPa | 2.9V | 00:00:00 | 00:00:00 | 00:00:00 | |
| OE8JPQ-2 | 2026-09-05 02:34:45 | 47.01705 | 15.63536 | 89° | 99km/h | 6747m | 4.3m/s | -17.7°C | 74.8% | 0hPa | 2.9V | 00:00:00 | 00:00:00 | 00:00:00 | |
| PETON7-10 | 2026-09-05 02:34:37 | 47.01691 | 15.63243 | 87° | 99km/h | 6709m | 4.7m/s | -17.4°C | 65.7% | 0hPa | 2.7V | 00:00:00 | 00:48:10 | 00:00:00 | |
| PG1ADW-2 | 2026-09-05 02:34:36 | 47.01689 | 15.63207 | 86° | 95km/h | 6703m | 5.2m/s | -17.3°C | 63.5% | 0hPa | 2.7V | 00:00:00 | 00:00:00 | 00:00:00 | |
| OE5DRO-10 | 2026-09-05 02:34:35 | 47.01688 | 15.63170 | 87° | 97km/h | 6699m | 3.1m/s | -17.3°C | 62.4% | 0hPa | 2.7V | 00:00:00 | 00:00:00 | 00:00:00 | |
| OE8JPQ-2 | 2026-09-05 02:34:25 | 47.01673 | 15.62803 | 86° | 95km/h | 6659m | 4.2m/s | 0°C | 0% | 0hPa | 2.7V | 00:00:00 | 00:00:00 | 00:00:00 | |
| PETON7-10 | 2026-09-05 02:34:22 | 47.01666 | 15.62698 | 85° | 95km/h | 6648m | 3.2m/s | -17.0°C | 66.0% | 0hPa | 2.7V | 00:00:00 | 00:00:00 | 00:00:00 | |
| OE5DRO-10 | 2026-09-05 02:34:16 | 47.01653 | 15.62489 | 84° | 93km/h | 6625m | 3.7m/s | -16.8°C | 63.8% | 0hPa | 2.9V | 00:00:00 | 00:00:00 | 00:00:00 | |
| PG1ADW-2 | 2026-09-05 02:34:13 | 47.01643 | 15.62384 | 81° | 93km/h | 6613m | 3.5m/s | 0°C | 0% | 0hPa | 2.9V | 00:00:00 | 00:47:46 | 00:00:00 | |
| PETON7-10 | 2026-09-05 02:34:07 | 47.01627 | 15.62176 | 86° | 93km/h | 6589m | 5.1m/s | -16.6°C | 66.7% | 0hPa | 2.9V | 00:00:00 | 00:00:00 | 00:00:00 | |
| OE3JTB-15 | 2026-09-05 02:34:06 | 47.01625 | 15.62142 | 86° | 88km/h | 6586m | 2.9m/s | -16.6°C | 68.1% | 0hPa | 2.9V | 00:00:00 | 00:00:00 | 00:00:00 | |
| OE8JPQ-2 | 2026-09-05 02:34:05 | 47.01623 | 15.62109 | 85° | 93km/h | 6582m | 4.7m/s | 0°C | 0% | 0hPa | 2.9V | 00:00:00 | 00:47:38 | 00:00:00 | |
| OE3OSB-13 | 2026-09-05 02:34:04 | 47.01619 | 15.62041 | 84° | 91km/h | 6573m | 5.4m/s | -16.6°C | 67.2% | -1.0hPa | 2.9V | 00:00:00 | 00:00:00 | 00:00:00 | |
| OE5DRO-10 | 2026-09-05 02:33:57 | 47.01604 | 15.61834 | 84° | 93km/h | 6549m | 4.8m/s | -16.3°C | 69.2% | 0hPa | 2.9V | 00:00:00 | 00:00:00 | 00:00:00 | |
| PG1ADW-2 | 2026-09-05 02:33:53 | 47.01593 | 15.61695 | 84° | 91km/h | 6532m | 3.3m/s | 0°C | 0% | 0hPa | 2.7V | 00:00:00 | 00:00:00 | 08:30:00 | |
| PETON7-10 | 2026-09-05 02:33:52 | 47.01590 | 15.61661 | 84° | 91km/h | 6528m | 4.6m/s | -16.2°C | 66.1% | 0hPa | 2.7V | 00:00:00 | 00:47:25 | 00:00:00 | |
| OE8JPQ-2 | 2026-09-05 02:33:45 | 47.01572 | 15.61427 | 85° | 89km/h | 6500m | 4.9m/s | 0°C | 0% | 0hPa | 2.7V | 00:00:00 | 00:00:00 | 08:30:00 | |
| OE5DRO-10 | 2026-09-05 02:33:38 | 47.01552 | 15.61191 | 85° | 88km/h | 6471m | 3.3m/s | -15.8°C | 60.3% | 0hPa | 2.7V | 00:00:00 | 00:00:00 | 00:00:00 | |
| PETON7-10 | 2026-09-05 02:33:37 | 47.01550 | 15.61158 | 85° | 86km/h | 6466m | 4.9m/s | -15.7°C | 59.9% | 0hPa | 2.7V | 00:00:00 | 00:00:00 | 00:00:00 | |
| PG1ADW-2 | 2026-09-05 02:33:33 | 47.01540 | 15.61032 | 84° | 88km/h | 6451m | 3.8m/s | 0°C | 0% | 0hPa | 2.9V | 00:00:00 | 00:00:00 | 00:00:00 | |
| OE8JPQ-2 | 2026-09-05 02:33:25 | 47.01520 | 15.60778 | 84° | 88km/h | 6421m | 3.8m/s | 0°C | 0% | 0hPa | 2.9V | 00:00:00 | 00:00:00 | 00:00:00 | |
| PETON7-10 | 2026-09-05 02:33:22 | 47.01512 | 15.60680 | 83° | 88km/h | 6410m | 4.9m/s | -15.3°C | 59.8% | 0hPa | 2.9V | 00:00:00 | 00:00:00 | 00:00:00 | |
| OE3JTB-15 | 2026-09-05 02:33:19 | 47.01504 | 15.60583 | 84° | 86km/h | 6399m | 3.2m/s | -15.2°C | 59.9% | 0hPa | 2.9V | 00:00:00 | 00:46:52 | 00:00:00 | |
| PG1ADW-2 | 2026-09-05 02:33:13 | 47.01488 | 15.60389 | 84° | 86km/h | 6376m | 2.7m/s | 0°C | 0% | 0hPa | 2.9V | 00:00:00 | 00:00:00 | 00:00:00 | |
| PETON7-10 | 2026-09-05 02:33:07 | 47.01474 | 15.60195 | 82° | 84km/h | 6352m | 6.0m/s | -15.0°C | 67.5% | 0hPa | 2.9V | 00:00:00 | 00:46:40 | 00:00:00 | |
| OE8JPQ-2 | 2026-09-05 02:33:05 | 47.01467 | 15.60135 | 79° | 84km/h | 6343m | 5.5m/s | 0°C | 0% | 0hPa | 2.9V | 00:00:00 | 00:46:38 | 00:00:00 | |
| OE5DRO-10 | 2026-09-05 02:33:00 | 47.01447 | 15.59980 | 83° | 84km/h | 6316m | 6.6m/s | -14.7°C | 65.5% | 0hPa | 2.9V | 00:00:00 | 00:00:00 | 00:00:00 | |
| PG1ADW-2 | 2026-09-05 02:32:53 | 47.01432 | 15.59763 | 82° | 84km/h | 6274m | 6.0m/s | 0°C | 0% | 0hPa | 2.9V | 00:00:00 | 00:46:26 | 00:00:00 | |
| PETON7-10 | 2026-09-05 02:32:52 | 47.01429 | 15.59732 | 81° | 84km/h | 6269m | 2.8m/s | -14.4°C | 62.1% | 0hPa | 2.9V | 00:00:00 | 00:00:00 | 08:30:00 | |
| OE3JTB-15 | 2026-09-05 02:32:50 | 47.01420 | 15.59670 | 77° | 80km/h | 6260m | 4.0m/s | -14.3°C | 61.3% | 0hPa | 2.9V | 00:00:00 | 00:00:00 | 08:30:00 | |
| OE8JPQ-2 | 2026-09-05 02:32:45 | 47.01407 | 15.59517 | 90° | 80km/h | 6235m | 7.9m/s | 0°C | 0% | 0hPa | 2.9V | 00:00:00 | 00:00:00 | 00:00:00 | |
| OE5DRO-10 | 2026-09-05 02:32:41 | 47.01398 | 15.59395 | 81° | 78km/h | 6208m | 4.8m/s | -13.9°C | 58.6% | 0hPa | 2.9V | 00:00:00 | 00:00:00 | 00:00:00 | |
| PETON7-10 | 2026-09-05 02:32:37 | 47.01382 | 15.59274 | 78° | 78km/h | 6188m | 4.4m/s | -13.8°C | 58.5% | 0hPa | 2.9V | 00:00:00 | 00:00:00 | 00:00:00 | |
| PG1ADW-2 | 2026-09-05 02:32:33 | 47.01366 | 15.59162 | 79° | 78km/h | 6168m | 5.0m/s | 0°C | 0% | 0hPa | 2.9V | 00:00:00 | 00:00:00 | 00:00:00 | |
| PETON7-10 | 2026-09-05 02:32:22 | 47.01324 | 15.58849 | 79° | 77km/h | 6119m | 4.3m/s | -13.3°C | 58.2% | 0hPa | 2.9V | 00:00:00 | 00:45:55 | 00:00:00 | |
| OE3JTB-15 | 2026-09-05 02:32:21 | 47.01320 | 15.58820 | 78° | 77km/h | 6114m | 5.0m/s | -13.2°C | 58.2% | 0hPa | 2.9V | 00:00:00 | 00:00:00 | 00:00:00 | |
| PG1ADW-2 | 2026-09-05 02:32:10 | 47.01272 | 15.58510 | 77° | 77km/h | 6066m | 3.0m/s | 0°C | 0% | 0hPa | 2.9V | 00:00:00 | 00:00:00 | 00:00:00 | |
| PETON7-10 | 2026-09-05 02:32:07 | 47.01258 | 15.58430 | 75° | 77km/h | 6053m | 4.2m/s | -12.7°C | 57.8% | 0hPa | 2.9V | 00:00:00 | 00:00:00 | 00:00:00 | |
| OE8JPQ-2 | 2026-09-05 02:32:04 | 47.01243 | 15.58348 | 75° | 64km/h | 6041m | 4.7m/s | 0°C | 0% | 0hPa | 2.9V | 00:00:00 | 00:45:37 | 00:00:00 | |
| OE5DRO-10 | 2026-09-05 02:32:03 | 47.01238 | 15.58320 | 77° | 78km/h | 6037m | 3.1m/s | -12.6°C | 58.2% | 0hPa | 2.9V | 00:00:00 | 00:00:00 | 08:30:00 | |
| PETON7-10 | 2026-09-05 02:31:52 | 47.01188 | 15.58011 | 78° | 78km/h | 5989m | 3.7m/s | -12.3°C | 65.0% | 0hPa | 2.9V | 00:00:00 | 00:00:00 | 00:00:00 | |
| PG1ADW-2 | 2026-09-05 02:31:50 | 47.01178 | 15.57954 | 75° | 77km/h | 5981m | 4.6m/s | 0°C | 0% | 0hPa | 2.9V | 00:00:00 | 00:00:00 | 00:00:00 | |
| OE5DRO-10 | 2026-09-05 02:31:44 | 47.01150 | 15.57786 | 77° | 77km/h | 5954m | 5.3m/s | -12.0°C | 62.1% | 0hPa | 2.9V | 00:00:00 | 00:00:00 | 00:00:00 | |
| PETON7-10 | 2026-09-05 02:31:37 | 47.01119 | 15.57592 | 79° | 77km/h | 5921m | 4.4m/s | 0°C | 0% | 0hPa | 2.9V | 00:00:00 | 00:45:10 | 00:00:00 | |
| OE3JTB-15 | 2026-09-05 02:31:23 | 47.01063 | 15.57199 | 76° | 75km/h | 5859m | 5.9m/s | 0°C | 0% | 0hPa | 2.9V | 00:00:00 | 00:00:00 | 00:00:00 | |
| PETON7-10 | 2026-09-05 02:31:22 | 47.01058 | 15.57172 | 73° | 77km/h | 5854m | 3.6m/s | 0°C | 0% | 0hPa | 2.9V | 00:00:00 | 00:00:00 | 00:00:00 | |
| PETON7-10 | 2026-09-05 02:31:07 | 47.00979 | 15.56764 | 75° | 77km/h | 5781m | 3.9m/s | 0°C | 0% | 0hPa | 2.9V | 00:00:00 | 00:00:00 | 00:00:00 | |
| OE5DRO-10 | 2026-09-05 02:31:06 | 47.00974 | 15.56736 | 75° | 75km/h | 5776m | 5.3m/s | -10.7°C | 68.3% | 0hPa | 2.9V | 00:00:00 | 00:00:00 | 00:00:00 | |
| PG1ADW-2 | 2026-09-05 02:30:53 | 47.00900 | 15.56390 | 74° | 73km/h | 5716m | 5.2m/s | 0°C | 0% | 0hPa | 2.9V | 00:00:00 | 00:44:26 | 00:00:00 | |
| PETON7-10 | 2026-09-05 02:30:52 | 47.00895 | 15.56363 | 75° | 75km/h | 5711m | 3.9m/s | 0°C | 0% | 0hPa | 2.9V | 00:00:00 | 00:44:25 | 00:00:00 | |
| OE5DRO-10 | 2026-09-05 02:30:47 | 47.00869 | 15.56228 | 74° | 73km/h | 5688m | 5.6m/s | -10.2°C | 75.1% | 0hPa | 2.9V | 00:00:00 | 00:00:00 | 00:00:00 | |
| PETON7-10 | 2026-09-05 02:30:37 | 47.00810 | 15.55969 | 70° | 73km/h | 5639m | 4.3m/s | 0°C | 0% | 0hPa | 2.9V | 00:00:00 | 00:00:00 | 00:00:00 | |
| PG1ADW-2 | 2026-09-05 02:30:33 | 47.00785 | 15.55868 | 71° | 69km/h | 5620m | 4.7m/s | 0°C | 0% | 0hPa | 2.9V | 00:00:00 | 00:00:00 | 00:00:00 | |
| OE3JTB-15 | 2026-09-05 02:30:32 | 47.00779 | 15.55842 | 71° | 69km/h | 5615m | 4.9m/s | 0°C | 0% | 0hPa | 2.9V | 00:00:00 | 00:00:00 | 00:00:00 | |
| OE5DRO-10 | 2026-09-05 02:30:28 | 47.00753 | 15.55741 | 69° | 68km/h | 5595m | 7.2m/s | -9.7°C | 75.1% | 0hPa | 2.9V | 00:00:00 | 00:00:00 | 00:00:00 | |
| PG1ADW-2 | 2026-09-05 02:30:13 | 47.00679 | 15.55389 | 74° | 69km/h | 5516m | 5.1m/s | 0°C | 0% | 0hPa | 2.9V | 00:00:00 | 00:00:00 | 00:00:00 | |
| OE5DRO-10 | 2026-09-05 02:30:09 | 47.00659 | 15.55290 | 71° | 69km/h | 5496m | 4.8m/s | -8.9°C | 74.9% | 0hPa | 2.9V | 00:00:00 | 00:00:00 | 00:00:00 | |
| OE3JTB-15 | 2026-09-05 02:30:03 | 47.00625 | 15.55145 | 73° | 69km/h | 5469m | 5.6m/s | 0°C | 0% | 0hPa | 0V | 00:00:00 | 00:43:36 | 00:00:00 | |
| OE5DRO-10 | 2026-09-05 02:29:50 | 47.00563 | 15.54829 | 74° | 69km/h | 5406m | 6.1m/s | 0°C | 0% | 0hPa | 0V | 00:00:00 | 00:00:00 | 00:00:00 | |
| OE3JTB-15 | 2026-09-05 02:29:34 | 47.00484 | 15.54431 | 74° | 68km/h | 5327m | 4.4m/s | 0°C | 0% | 0hPa | 0V | 00:00:00 | 00:00:00 | 00:00:00 | |
| OE5DRO-10 | 2026-09-05 02:29:31 | 47.00468 | 15.54358 | 74° | 68km/h | 5311m | 5.7m/s | 0°C | 0% | 0hPa | 0V | 00:00:00 | 00:00:00 | 00:00:00 | |
| OE5DRO-10 | 2026-09-05 02:29:12 | 47.00384 | 15.53906 | 76° | 64km/h | 5218m | 3.5m/s | 0°C | 0% | 0hPa | 0V | 00:00:00 | 00:00:00 | 00:00:00 | |
| OM5KV | 2026-09-05 02:29:10 | 47.00377 | 15.53858 | 77° | 66km/h | 5209m | 4.7m/s | -7.2°C | 83.5% | 0hPa | 0V | 00:00:00 | 00:00:00 | 00:00:00 | |
| OM5KV | 2026-09-05 02:29:04 | 47.00352 | 15.53723 | 74° | 64km/h | 5181m | 6.3m/s | -7.1°C | 83.6% | 0hPa | 0V | 00:00:00 | 00:00:00 | 00:00:00 | |
| OM5KV | 2026-09-05 02:28:57 | 47.00327 | 15.53565 | 85° | 60km/h | 5140m | 5.6m/s | -7.0°C | 88.5% | 0hPa | 0V | 00:00:00 | 00:00:00 | 00:00:00 | |
| OM5KV | 2026-09-05 02:28:55 | 47.00323 | 15.53521 | 81° | 62km/h | 5128m | 7.8m/s | -7.0°C | 89.7% | 0hPa | 0V | 00:00:00 | 00:00:00 | 00:00:00 | |
| OM5KV | 2026-09-05 02:28:52 | 47.00315 | 15.53453 | 81° | 62km/h | 5108m | 4.7m/s | -7.0°C | 91.6% | 0hPa | 0V | 00:00:00 | 00:00:00 | 00:00:00 | |
| OM5KV | 2026-09-05 02:28:50 | 47.00309 | 15.53407 | 79° | 60km/h | 5097m | 6.2m/s | -7.0°C | 93.5% | 0hPa | 0V | 00:00:00 | 00:00:00 | 00:00:00 | |
| OM5KV | 2026-09-05 02:28:44 | 47.00296 | 15.53300 | 81° | 58km/h | 5071m | 6.3m/s | -6.8°C | 99.5% | 0hPa | 0V | 00:00:00 | 00:00:00 | 00:00:00 | |
| OM5KV | 2026-09-05 02:28:41 | 47.00285 | 15.53213 | 77° | 60km/h | 5043m | 4.1m/s | -6.6°C | 0% | 0hPa | 0V | 00:00:00 | 00:00:00 | 00:00:00 | |
| S52SK | 2026-09-05 02:28:37 | 47.00271 | 15.53135 | 75° | 55km/h | 5022m | 6.4m/s | -6.6°C | 0% | 0hPa | 0V | 00:00:00 | 00:00:00 | 00:00:00 | |
| OM5KV | 2026-09-05 02:28:36 | 47.00267 | 15.53116 | 73° | 57km/h | 5016m | 4.9m/s | -6.5°C | 0% | 0hPa | 0V | 00:00:00 | 00:00:00 | 00:00:00 | |
| OM5KV | 2026-09-05 02:28:34 | 47.00257 | 15.53077 | 67° | 57km/h | 5007m | 6.1m/s | -6.5°C | 0% | 0hPa | 0V | 00:00:00 | 00:00:00 | 00:00:00 | |
| S52SK | 2026-09-05 02:28:32 | 47.00245 | 15.53036 | 71° | 62km/h | 4996m | 5.4m/s | -6.4°C | 0% | 0hPa | 0V | 00:00:00 | 00:00:00 | 00:00:00 | |
| OM5KV | 2026-09-05 02:28:31 | 47.00240 | 15.53014 | 75° | 60km/h | 4991m | 3.6m/s | -6.4°C | 0% | 0hPa | 0V | 00:00:00 | 00:00:00 | 00:00:00 | |
| OM5KV | 2026-09-05 02:28:28 | 47.00227 | 15.52950 | 71° | 58km/h | 4970m | 9.6m/s | -6.2°C | 99.5% | 0hPa | 0V | 00:00:00 | 00:00:00 | 00:00:00 | |
| S52SK | 2026-09-05 02:28:27 | 47.00221 | 15.52930 | 70° | 57km/h | 4962m | 6.7m/s | -6.2°C | 100.0% | 0hPa | 0V | 00:00:00 | 00:00:00 | 00:00:00 | |
| OM5KV | 2026-09-05 02:28:25 | 47.00213 | 15.52892 | 78° | 53km/h | 4951m | 5.5m/s | -6.1°C | 0% | 0hPa | 0V | 00:00:00 | 00:00:00 | 00:00:00 | |
| OM5KV | 2026-09-05 02:28:24 | 47.00210 | 15.52872 | 79° | 53km/h | 4946m | 4.5m/s | -6.1°C | 0% | 0hPa | 0V | 00:00:00 | 00:00:00 | 00:00:00 | |
| OE3JTB-15 | 2026-09-05 02:28:02 | 47.00119 | 15.52466 | 72° | 55km/h | 4816m | 5.3m/s | 0°C | 0% | 0hPa | 0V | 00:00:00 | 00:41:35 | 00:00:00 | |
| OE8JPQ-2 | 2026-09-05 02:27:55 | 47.00088 | 15.52340 | 62° | 47km/h | 4776m | 9.5m/s | 0°C | 0% | 0hPa | 0V | 00:00:00 | 00:00:00 | 00:00:00 | |
| OM5KV | 2026-09-05 02:27:50 | 47.00070 | 15.52252 | 74° | 46km/h | 4740m | 8.9m/s | -4.2°C | 92.4% | 0hPa | 0V | 00:00:00 | 00:00:00 | 00:00:00 | |
| OM5KV | 2026-09-05 02:27:47 | 47.00057 | 15.52205 | 71° | 47km/h | 4720m | 7.0m/s | -4.0°C | 92.0% | 0hPa | 0V | 00:00:00 | 00:00:00 | 00:00:00 | |
| OE8JPQ-2 | 2026-09-05 02:27:29 | 46.99979 | 15.51882 | 69° | 53km/h | 4607m | 3.5m/s | 0°C | 0% | 0hPa | 0V | 00:00:00 | 00:00:00 | 00:00:00 | |
| OE3JTB-15 | 2026-09-05 02:27:17 | 46.99916 | 15.51660 | 61° | 53km/h | 4541m | 4.8m/s | 0°C | 0% | 0hPa | 0V | 00:00:00 | 00:00:00 | 08:30:00 | |
| OE8JPQ-2 | 2026-09-05 02:27:09 | 46.99873 | 15.51516 | 69° | 55km/h | 4490m | 4.4m/s | 0°C | 0% | 0hPa | 0V | 00:00:00 | 00:40:42 | 00:00:00 | |
| OM5KV | 2026-09-05 02:26:59 | 46.99825 | 15.51328 | 70° | 55km/h | 4424m | 6.2m/s | -1.2°C | 78.9% | 0hPa | 0V | 00:00:00 | 00:00:00 | 00:00:00 | |
| OM5KV | 2026-09-05 02:26:53 | 46.99797 | 15.51219 | 74° | 55km/h | 4388m | 4.5m/s | -0.9°C | 77.4% | 0hPa | 0V | 00:00:00 | 00:00:00 | 00:00:00 | |
| OM5KV | 2026-09-05 02:26:48 | 46.99780 | 15.51127 | 70° | 51km/h | 4361m | 3.9m/s | -0.6°C | 76.4% | 0hPa | 0V | 00:00:00 | 00:00:00 | 00:00:00 | |
| OM5KV | 2026-09-05 02:26:43 | 46.99755 | 15.51037 | 71° | 53km/h | 4334m | 4.8m/s | -0.3°C | 74.9% | 0hPa | 0V | 00:00:00 | 00:00:00 | 00:00:00 | |
| OM5KV | 2026-09-05 02:26:42 | 46.99751 | 15.51019 | 71° | 55km/h | 4329m | 6.1m/s | -0.3°C | 74.7% | 0hPa | 0V | 00:00:00 | 00:00:00 | 00:00:00 | |
| OM5KV | 2026-09-05 02:26:36 | 46.99720 | 15.50908 | 69° | 53km/h | 4299m | 5.1m/s | 0.0°C | 72.1% | 0hPa | 0V | 00:00:00 | 00:00:00 | 00:00:00 | |
| OE8JPQ-2 | 2026-09-05 02:26:18 | 46.99648 | 15.50569 | 74° | 55km/h | 4202m | 7.0m/s | 0°C | 0% | 0hPa | 0V | 00:00:00 | 00:00:00 | 00:00:00 | |
| OM5KV | 2026-09-05 02:26:14 | 46.99633 | 15.50492 | 76° | 57km/h | 4180m | 6.2m/s | 1.2°C | 67.6% | 0hPa | 0V | 00:00:00 | 00:00:00 | 00:00:00 | |
| S52SK | 2026-09-05 02:26:13 | 46.99633 | 15.50492 | 76° | 57km/h | 4180m | 6.2m/s | 0°C | 0% | 0hPa | 0V | 00:00:00 | 00:00:00 | 00:00:00 | |
| OM5KV | 2026-09-05 02:26:08 | 46.99610 | 15.50383 | 76° | 51km/h | 4144m | 6.2m/s | 1.5°C | 66.5% | 0hPa | 0V | 00:00:00 | 00:00:00 | 00:00:00 | |
| OM5KV | 2026-09-05 02:26:03 | 46.99594 | 15.50290 | 76° | 53km/h | 4116m | 5.5m/s | 1.7°C | 65.6% | 0hPa | 0V | 00:00:00 | 00:00:00 | 00:00:00 | |
| OM5KV | 2026-09-05 02:25:58 | 46.99573 | 15.50200 | 71° | 51km/h | 4092m | 4.2m/s | 2.0°C | 64.5% | 0hPa | 0V | 00:00:00 | 00:00:00 | 00:00:00 | |
| OM5KV | 2026-09-05 02:25:52 | 46.99552 | 15.50093 | 74° | 49km/h | 4062m | 5.0m/s | 2.3°C | 63.5% | 0hPa | 0V | 00:00:00 | 00:00:00 | 00:00:00 | |
| OM5KV | 2026-09-05 02:25:51 | 46.99549 | 15.50076 | 76° | 49km/h | 4057m | 6.3m/s | 2.3°C | 63.1% | 0hPa | 0V | 00:00:00 | 00:00:00 | 00:00:00 | |
| OM5KV | 2026-09-05 02:25:45 | 46.99526 | 15.49968 | 71° | 51km/h | 4026m | 4.7m/s | 2.6°C | 62.0% | 0hPa | 0V | 00:00:00 | 00:00:00 | 00:00:00 | |
| OM5KV | 2026-09-05 02:25:44 | 46.99521 | 15.49950 | 69° | 51km/h | 4022m | 4.1m/s | 2.7°C | 61.8% | 0hPa | 0V | 00:00:00 | 00:00:00 | 00:00:00 | |
| OM5KV | 2026-09-05 02:25:28 | 46.99464 | 15.49677 | 74° | 51km/h | 3945m | 6.4m/s | 3.4°C | 60.5% | 0hPa | 0V | 00:00:00 | 00:00:00 | 00:00:00 | |
| OM5KV | 2026-09-05 02:25:21 | 46.99441 | 15.49526 | 75° | 51km/h | 3910m | 5.7m/s | 3.7°C | 60.4% | 0hPa | 0V | 00:00:00 | 00:00:00 | 00:00:00 | |
| OM5KV | 2026-09-05 02:25:20 | 46.99438 | 15.49508 | 75° | 51km/h | 3902m | 8.7m/s | 3.8°C | 60.0% | 0hPa | 0V | 00:00:00 | 00:00:00 | 00:00:00 | |
| OM5KV | 2026-09-05 02:25:17 | 46.99425 | 15.49453 | 73° | 51km/h | 3881m | 5.8m/s | 4.0°C | 59.2% | 0hPa | 0V | 00:00:00 | 00:00:00 | 00:00:00 | |
| OM5KV | 2026-09-05 02:25:14 | 46.99415 | 15.49399 | 72° | 49km/h | 3865m | 4.2m/s | 4.1°C | 59.0% | 0hPa | 0V | 00:00:00 | 00:00:00 | 00:00:00 | |
| OM5KV | 2026-09-05 02:25:13 | 46.99410 | 15.49383 | 67° | 47km/h | 3859m | 7.6m/s | 4.2°C | 58.8% | 0hPa | 0V | 00:00:00 | 00:00:00 | 00:00:00 | |
| OM5KV | 2026-09-05 02:25:07 | 46.99385 | 15.49297 | 79° | 40km/h | 3824m | 5.2m/s | 4.5°C | 57.6% | 0hPa | 0V | 00:00:00 | 00:00:00 | 00:00:00 | |
| OM5KV | 2026-09-05 02:25:03 | 46.99375 | 15.49248 | 73° | 55km/h | 3805m | 7.0m/s | 4.6°C | 59.0% | 0hPa | 0V | 00:00:00 | 00:00:00 | 00:00:00 | |
| S52SK | 2026-09-05 02:25:01 | 46.99364 | 15.49186 | 79° | 55km/h | 3786m | 7.6m/s | 0°C | 0% | 0hPa | 0V | 00:00:00 | 00:00:00 | 00:00:00 | |
| OM5KV | 2026-09-05 02:24:58 | 46.99354 | 15.49134 | 73° | 47km/h | 3766m | 10.2m/s | 5.0°C | 0% | 0hPa | 0V | 00:00:00 | 00:00:00 | 00:00:00 | |
| OM5KV | 2026-09-05 02:24:55 | 46.99337 | 15.49080 | 63° | 53km/h | 3742m | 8.1m/s | 5.3°C | 0% | 0hPa | 0V | 00:00:00 | 00:00:00 | 00:00:00 | |
| OM5KV | 2026-09-05 02:24:54 | 46.99332 | 15.49063 | 68° | 47km/h | 3734m | 7.3m/s | 5.3°C | 0% | 0hPa | 0V | 00:00:00 | 00:00:00 | 00:00:00 | |
| OM5KV | 2026-09-05 02:24:48 | 46.99307 | 15.48956 | 63° | 51km/h | 3698m | 7.0m/s | 0°C | 0% | 0hPa | 0V | 00:00:00 | 00:00:00 | 00:00:00 | |
| OM5KV | 2026-09-05 02:24:31 | 46.99219 | 15.48672 | 59° | 47km/h | 3584m | 6.4m/s | 0°C | 0% | 0hPa | 0V | 00:00:00 | 00:00:00 | 00:00:00 | |
| OM5KV | 2026-09-05 02:24:30 | 46.99213 | 15.48656 | 63° | 47km/h | 3578m | 6.2m/s | 0°C | 0% | 0hPa | 0V | 00:00:00 | 00:00:00 | 00:00:00 | |
| OM5KV | 2026-09-05 02:24:29 | 46.99208 | 15.48640 | 67° | 51km/h | 3572m | 6.5m/s | 0°C | 0% | 0hPa | 0V | 00:00:00 | 00:00:00 | 00:00:00 | |
| OM5KV | 2026-09-05 02:24:26 | 46.99195 | 15.48586 | 73° | 49km/h | 3552m | 7.3m/s | 0°C | 0% | 0hPa | 0V | 00:00:00 | 00:00:00 | 00:00:00 | |
| OM5KV | 2026-09-05 02:24:24 | 46.99186 | 15.48553 | 65° | 46km/h | 3541m | 5.0m/s | 0°C | 0% | 0hPa | 0V | 00:00:00 | 00:00:00 | 00:00:00 | |
| OM5KV | 2026-09-05 02:24:20 | 46.99170 | 15.48494 | 76° | 47km/h | 3519m | 5.1m/s | 0°C | 0% | 0hPa | 0V | 00:00:00 | 00:00:00 | 00:00:00 | |
| OM5KV | 2026-09-05 02:24:19 | 46.99167 | 15.48477 | 76° | 49km/h | 3514m | 4.0m/s | 0°C | 0% | 0hPa | 0V | 00:00:00 | 00:00:00 | 00:00:00 | |
| OM5KV | 2026-09-05 02:24:18 | 46.99164 | 15.48459 | 76° | 49km/h | 3509m | 6.4m/s | 0°C | 0% | 0hPa | 0V | 00:00:00 | 00:00:00 | 00:00:00 | |
| OM5KV | 2026-09-05 02:24:08 | 46.99124 | 15.48304 | 68° | 47km/h | 3445m | 8.9m/s | 0°C | 0% | 0hPa | 0V | 00:00:00 | 00:00:00 | 00:00:00 | |
| S52SK | 2026-09-05 02:22:56 | 46.98724 | 15.47368 | 63° | 33km/h | 3056m | 4.3m/s | 0°C | 0% | 0hPa | 0V | 00:00:00 | 00:00:00 | 00:00:00 | |
| S52SK | 2026-09-05 02:22:50 | 46.98703 | 15.47299 | 62° | 37km/h | 3023m | 6.4m/s | 0°C | 0% | 0hPa | 0V | 00:00:00 | 00:00:00 | 00:00:00 | |
| S52SK | 2026-09-05 02:21:48 | 46.98442 | 15.46849 | 37° | 24km/h | 2684m | 2.7m/s | 0°C | 0% | 0hPa | 0V | 00:00:00 | 00:00:00 | 00:00:00 | |
| S52SK | 2026-09-05 02:21:43 | 46.98425 | 15.46814 | 88° | 16km/h | 2650m | 5.9m/s | 0°C | 0% | 0hPa | 0V | 00:00:00 | 00:00:00 | 00:00:00 | |
| S52SK | 2026-09-05 02:20:40 | 46.98340 | 15.46627 | 88° | 16km/h | 2309m | 6.5m/s | 0°C | 0% | 0hPa | 0V | 00:00:00 | 00:00:00 | 00:00:00 | |
| S52SK | 2026-09-05 02:20:35 | 46.98339 | 15.46610 | 62° | 15km/h | 2280m | 4.7m/s | 0°C | 0% | 0hPa | 0V | 00:00:00 | 00:00:00 | 00:00:00 | |
| S52SK | 2026-09-05 02:19:39 | 46.98449 | 15.46208 | 125° | 27km/h | 1952m | 6.1m/s | 0°C | 0% | 0hPa | 0V | 00:00:00 | 00:00:00 | 00:00:00 | |
| S52SK | 2026-09-05 02:19:33 | 46.98464 | 15.46159 | 139° | 24km/h | 1919m | 5.2m/s | 0°C | 0% | 0hPa | 0V | 00:00:00 | 00:00:00 | 00:00:00 | |
| S52SK | 2026-09-05 02:19:28 | 46.98485 | 15.46113 | 113° | 24km/h | 1886m | 4.9m/s | 0°C | 0% | 0hPa | 0V | 00:00:00 | 00:00:00 | 00:00:00 | |
| S52SK | 2026-09-05 02:18:26 | 46.98810 | 15.45643 | 158° | 27km/h | 1527m | 5.4m/s | 0°C | 0% | 0hPa | 0V | 00:00:00 | 00:00:00 | 00:00:00 | |
| S52SK | 2026-09-05 02:18:20 | 46.98838 | 15.45603 | 133° | 31km/h | 1489m | 4.1m/s | 0°C | 0% | 0hPa | 0V | 00:00:00 | 00:00:00 | 00:00:00 | |
| S52SK | 2026-09-05 02:17:19 | 46.99117 | 15.45264 | 140° | 15km/h | 1138m | 5.5m/s | 0°C | 0% | 0hPa | 0V | 00:00:00 | 00:00:00 | 00:00:00 | |
| S52SK | 2026-09-05 02:17:13 | 46.99155 | 15.45235 | 138° | 33km/h | 1108m | 6.1m/s | 0°C | 0% | 0hPa | 0V | 00:00:00 | 00:00:00 | 00:00:00 | |
| S52SK | 2026-09-05 02:16:11 | 46.99354 | 15.45019 | 130° | 26km/h | 807m | 4.8m/s | 0°C | 0% | 0hPa | 0V | 00:00:00 | 00:00:00 | 00:00:00 | |
| S52SK | 2026-09-05 02:16:06 | 46.99356 | 15.45004 | 52° | 22km/h | 779m | 6.3m/s | 0°C | 0% | 0hPa | 0V | 00:00:00 | 00:00:00 | 00:00:00 |